GFSGBSN_sfc_wetblb_000.txt.gz
Wetbulb
57.06 56.84 57.13 57.97 58.30 57.89 57.67 57.49 56.78 56.36 56.31 56.17 56.11 56.26 56.07 55.92 55.73 55.20 54.74 53.94 53.90 53.94 54.25 54.84 55.63 55.77 57.68 54.72 53.29 58.54 60.65 61.73 59.62 57.67 56.20 55.20 53.10 52.31 49.02 50.28 50.95 49.17 50.06 51.03 50.39 49.80 50.44
56.79 56.75 57.35 58.07 58.01 57.18 57.04 56.04 55.77 56.11 55.99 55.97 55.85 56.05 55.64 55.49 55.21 54.74 54.27 53.65 53.43 53.19 54.29 54.71 55.41 55.24 58.04 50.14 57.79 58.68 58.20 57.69 58.53 58.07 56.70 56.26 54.16 54.61 51.87 50.67 50.06 51.03 50.99 50.48 50.51 50.72 50.48
56.62 56.54 57.64 57.96 57.46 56.73 56.41 55.68 55.57 55.85 55.83 55.65 55.73 55.71 55.79 55.33 54.91 54.60 54.29 53.73 53.11 54.17 53.66 54.23 54.35 57.80 55.41 53.11 58.69 58.64 56.92 57.17 57.41 57.74 55.98 56.35 55.66 53.78 53.96 51.52 51.89 51.09 48.67 50.35 50.07 50.19 49.81
56.25 56.04 57.45 57.66 57.21 56.33 55.72 55.25 55.85 55.65 55.79 55.55 55.74 55.71 55.48 55.71 55.73 55.12 54.73 54.39 54.52 53.66 53.40 53.36 54.33 58.90 52.67 58.37 59.85 57.14 56.98 56.06 57.63 58.47 57.76 57.14 56.97 54.18 52.69 52.79 50.14 48.49 48.78 45.56 49.02 50.26 50.73
55.76 55.82 57.20 57.48 56.47 56.07 55.65 55.04 55.46 55.52 55.49 55.23 55.27 55.23 54.96 54.82 54.76 54.78 54.84 54.70 54.34 53.93 52.71 53.78 59.20 58.02 50.99 58.54 55.22 56.75 56.30 54.52 56.30 56.78 56.58 54.99 55.29 52.48 51.46 49.73 47.07 47.23 43.68 43.36 46.10 49.74 49.90
55.01 55.39 56.92 57.28 56.87 56.08 55.73 55.20 55.08 54.98 55.14 55.14 55.15 55.07 54.68 54.57 54.49 54.27 54.20 54.64 54.68 54.35 55.31 57.27 56.56 53.28 53.36 51.46 54.57 54.96 56.09 55.78 54.74 54.51 54.24 53.68 53.63 50.58 50.07 47.61 42.24 42.60 42.63 44.39 43.94 47.55 49.15
54.42 54.50 56.13 57.08 56.59 56.34 55.79 54.98 54.86 54.62 54.72 55.14 55.09 55.12 54.38 54.44 54.63 53.88 55.34 59.52 55.87 55.01 56.10 51.33 51.29 51.27 51.92 54.67 56.33 55.18 54.68 54.40 53.83 53.13 49.08 50.87 48.70 45.76 46.23 47.14 46.11 45.17 43.86 43.23 45.32 47.93 47.82
54.15 54.00 55.61 56.70 56.36 55.81 55.69 55.22 54.60 54.56 54.39 54.59 54.82 55.19 54.96 54.35 54.39 53.96 60.42 58.55 56.80 58.28 50.27 53.31 52.45 53.33 53.67 54.29 51.90 54.51 57.01 51.32 51.05 47.68 49.63 48.19 44.88 46.49 47.77 47.35 45.37 44.71 43.40 43.31 45.87 47.01 47.80
53.56 53.24 55.17 55.77 55.63 55.12 54.94 54.92 54.48 54.42 54.20 54.05 54.10 54.67 54.60 53.96 53.85 58.86 62.69 60.39 63.55 60.48 50.89 51.17 52.46 51.94 52.08 54.93 50.93 51.85 54.31 51.48 49.26 47.36 47.63 45.95 45.32 46.75 46.34 47.00 45.67 44.58 43.27 43.69 43.42 46.57 48.23
53.17 52.87 54.43 55.08 55.00 54.35 54.25 54.37 54.31 54.30 54.06 53.89 53.76 54.04 53.98 53.37 56.23 61.26 58.89 60.77 63.59 59.30 47.50 46.33 49.04 51.70 52.65 52.61 49.58 54.26 54.08 51.65 49.34 46.21 47.02 46.21 47.42 46.61 46.45 45.22 46.44 42.66 45.79 45.66 44.68 44.30 42.58
53.06 53.27 54.10 54.39 54.35 53.69 53.54 53.90 53.95 53.99 53.75 53.73 53.37 53.98 53.36 54.54 61.97 58.86 59.79 63.51 63.47 60.47 37.41 47.26 49.17 55.00 54.20 50.43 50.07 51.59 54.32 53.27 47.60 46.62 47.76 43.47 45.87 46.21 45.31 44.60 47.05 44.55 47.06 45.44 45.12 44.79 44.45
53.18 53.71 53.98 53.84 54.01 53.66 53.60 53.60 53.48 53.38 53.51 53.40 53.35 54.37 54.17 58.80 63.54 60.94 63.39 62.44 62.21 48.00 35.20 45.00 49.11 48.86 49.63 50.46 49.46 51.53 51.69 53.35 50.75 48.89 49.12 46.84 49.30 48.67 47.31 47.42 47.12 48.15 45.41 45.50 46.18 45.94 39.95
53.24 53.73 53.86 53.76 53.87 53.64 53.62 53.48 53.11 53.04 53.06 53.11 53.88 54.90 59.79 61.03 58.95 63.25 63.22 60.24 46.69 40.82 46.50 43.66 45.16 48.53 47.95 46.58 47.48 48.48 48.09 47.09 45.44 42.43 42.74 45.65 46.22 48.91 49.49 46.41 48.73 48.19 44.17 40.36 38.06 38.54 37.74
53.65 53.72 53.64 53.84 53.93 53.66 53.50 53.37 52.97 52.74 52.75 53.11 53.70 54.79 56.33 60.97 63.86 63.01 61.95 53.69 39.72 42.99 43.80 47.06 47.06 47.60 44.87 46.56 46.34 46.98 46.04 45.12 47.81 46.15 44.46 41.85 39.71 46.22 48.79 46.20 44.15 44.76 44.30 39.27 30.08 34.38 37.16
53.49 53.76 53.41 53.48 53.67 53.50 53.27 53.05 52.73 52.52 52.25 52.55 53.69 60.99 61.95 61.49 62.93 62.62 55.97 46.97 43.61 44.91 46.83 45.97 46.80 44.29 44.33 46.02 46.09 45.92 45.22 44.28 45.77 47.23 42.54 41.48 40.37 47.31 47.24 48.21 47.10 43.91 41.88 44.20 37.66 33.22 36.15
53.65 53.24 52.82 52.79 53.03 52.91 52.84 52.85 52.38 52.35 52.27 52.95 59.73 59.97 59.46 60.98 61.70 60.96 54.53 42.53 45.34 47.14 48.03 47.80 43.15 44.84 42.64 44.45 44.23 44.83 44.09 45.84 44.73 47.36 48.49 43.98 39.68 44.32 46.04 48.10 48.41 46.43 46.56 40.44 41.50 31.52 28.31
53.10 52.79 52.55 52.51 52.65 52.45 52.60 52.28 51.87 52.13 51.89 52.68 59.99 54.13 58.77 60.77 60.25 57.33 48.68 45.82 46.79 48.87 49.57 47.45 45.58 44.52 45.08 43.83 45.17 43.87 43.07 45.55 47.20 46.74 48.44 45.34 42.59 41.53 44.77 44.02 43.35 44.74 43.51 41.93 41.64 39.76 32.76
52.43 52.15 51.93 52.30 52.58 52.46 52.17 51.24 51.92 51.69 51.70 55.95 57.84 51.46 58.50 60.35 52.56 51.12 48.09 48.13 46.25 48.66 50.31 49.06 49.34 47.42 45.92 45.41 44.26 43.91 43.06 45.21 48.19 48.26 43.98 45.98 43.47 38.50 39.83 45.05 46.77 45.90 43.05 41.99 37.05 31.57 37.37
52.25 52.07 52.17 52.28 52.39 52.04 50.43 51.04 51.38 51.28 51.73 58.69 56.10 54.69 58.49 58.46 48.74 48.40 47.92 47.03 48.24 48.13 47.37 47.87 46.86 48.11 48.11 45.24 42.44 44.92 45.13 47.77 48.59 47.95 45.64 46.61 42.12 36.16 37.92 42.55 45.16 43.11 43.70 43.02 41.00 39.55 35.21
52.11 52.15 52.03 52.24 52.25 50.68 50.10 50.25 50.63 51.27 51.44 57.98 55.34 51.62 54.28 55.04 52.03 50.04 47.64 46.52 45.89 48.60 47.58 48.67 47.28 49.01 47.37 45.49 46.91 44.33 44.85 47.04 48.12 48.10 44.07 47.34 43.04 38.74 34.81 37.37 40.92 38.19 40.12 42.00 41.06 35.92 36.21
51.93 52.02 51.60 50.15 50.83 49.65 49.99 50.58 51.04 51.09 50.97 57.97 54.98 50.91 50.71 48.94 49.16 50.15 49.64 47.93 45.76 44.78 48.26 48.89 46.85 47.38 46.44 42.98 43.55 43.33 45.53 46.08 46.70 45.58 47.90 47.27 38.46 41.04 41.31 41.86 41.53 40.48 39.97 40.60 39.19 39.95 35.72
51.84 51.74 50.62 50.56 51.28 49.47 50.19 50.58 50.78 50.94 50.80 56.32 53.71 51.82 50.95 48.51 48.99 49.54 45.42 47.51 46.10 45.50 47.14 45.57 46.09 46.70 46.85 43.27 43.34 41.95 43.65 43.95 42.95 46.68 45.85 45.76 39.43 38.95 36.65 39.92 40.49 38.23 40.57 40.98 41.01 41.31 40.97
51.71 51.61 50.53 50.38 51.30 49.59 49.94 50.53 50.55 50.84 52.62 56.61 53.22 52.46 54.78 42.10 46.17 48.72 47.31 47.62 46.98 48.75 47.41 49.08 49.01 47.39 44.78 46.66 49.13 49.46 49.63 48.83 47.21 45.01 43.08 42.94 41.25 37.54 34.29 37.21 37.31 34.29 38.37 40.25 40.85 42.19 41.62
51.36 51.32 50.30 51.68 51.73 51.00 50.71 50.96 50.16 50.39 52.31 57.55 54.76 54.35 53.22 45.73 47.22 47.36 47.09 48.04 47.49 47.39 47.12 48.04 49.63 48.24 47.92 51.64 50.88 49.48 47.04 46.27 46.64 45.40 46.36 38.95 39.69 37.05 34.94 35.17 30.32 39.05 44.06 43.51 41.27 42.48 43.87
50.85 51.21 51.74 51.76 51.58 51.54 50.86 50.83 50.23 50.07 51.10 56.68 53.81 53.94 51.20 37.30 47.58 45.54 47.72 47.62 48.18 48.65 47.67 48.11 48.53 48.88 52.77 50.25 45.45 40.15 39.66 37.57 39.01 41.99 42.43 44.08 40.99 34.05 31.88 31.94 36.59 39.10 41.28 40.52 39.08 39.47 43.74
50.49 50.83 51.16 51.22 51.23 50.90 50.60 50.69 50.11 49.85 50.83 56.89 54.08 53.08 53.01 41.19 46.54 48.11 47.85 48.86 47.20 47.21 47.27 46.82 49.14 50.71 50.68 47.29 42.60 35.30 36.38 36.04 36.69 38.12 40.66 40.45 40.52 39.77 34.44 29.90 28.67 39.08 42.01 44.11 44.05 36.09 44.28
50.14 50.21 50.31 50.53 50.73 50.59 50.51 50.51 50.01 49.71 50.53 57.55 55.34 54.02 54.36 51.23 48.87 49.19 48.79 48.27 49.34 48.56 47.77 47.74 48.05 46.87 49.48 41.85 37.50 38.65 38.40 38.80 35.92 34.25 33.92 34.96 34.72 33.72 33.60 31.58 35.85 42.87 43.27 44.36 33.80 37.27 44.55
49.71 49.75 49.60 49.97 50.26 49.92 49.95 50.20 49.94 49.68 49.93 56.21 55.22 54.37 55.02 49.44 49.59 50.22 49.88 48.47 48.11 50.41 47.91 47.80 47.49 46.84 44.69 37.68 36.23 38.51 35.86 40.26 38.02 39.51 37.53 36.92 36.71 33.05 33.76 30.55 28.84 43.25 43.13 37.61 43.39 43.61 42.10
49.32 49.41 49.34 49.66 49.57 49.59 49.57 49.67 50.22 49.80 49.64 51.98 56.30 53.81 53.83 54.27 51.57 53.34 53.69 52.76 53.08 53.30 50.92 49.06 48.10 47.89 49.24 43.49 39.10 38.17 35.86 34.23 39.23 35.82 42.07 36.50 40.46 38.26 37.72 39.10 45.81 46.86 44.77 46.29 44.37 42.91 44.68

GFSGBSN_sfc_wetblb_003.txt.gz
Wetbulb
56.97 57.10 57.36 57.85 58.70 58.84 58.42 58.34 57.94 56.86 56.21 56.72 56.76 56.64 56.60 56.55 56.36 56.30 55.53 54.85 54.25 54.35 54.41 55.04 55.37 55.94 59.58 56.65 53.89 59.83 61.91 64.68 61.79 59.93 57.40 55.68 53.73 52.55 49.45 50.42 50.91 49.07 49.66 50.35 50.61 50.56 50.66
56.79 56.98 57.23 58.14 58.55 58.23 57.95 57.35 56.63 56.07 56.60 56.57 56.55 56.57 56.54 56.43 56.06 55.59 54.87 54.02 53.44 53.59 53.92 54.43 54.94 55.00 59.17 51.73 58.64 59.60 59.37 59.17 59.26 58.41 55.88 55.80 53.99 54.31 51.40 50.74 50.37 51.61 51.53 51.61 52.20 51.99 51.79
56.72 56.83 57.03 58.21 58.22 57.72 56.94 56.54 55.82 56.26 56.48 56.52 56.43 56.51 56.29 55.89 55.37 55.12 54.56 53.85 53.71 53.61 54.06 53.88 54.28 58.76 59.30 54.13 59.17 59.57 58.72 58.15 58.86 58.88 55.74 57.07 56.62 54.11 54.18 51.47 53.41 52.38 49.40 51.18 51.50 52.19 51.30
56.43 56.44 56.74 58.11 57.72 56.55 56.43 55.83 55.27 56.15 56.32 56.48 56.53 56.53 56.07 56.33 55.06 54.55 54.28 54.06 54.00 54.08 53.55 53.49 53.72 60.50 54.13 58.50 60.42 57.50 58.35 57.24 58.76 59.92 58.68 58.52 58.04 56.07 54.38 54.85 51.91 49.91 50.71 47.13 50.77 51.72 52.23
56.18 55.73 56.59 57.79 57.02 56.39 55.91 55.04 54.92 55.69 55.98 55.79 56.00 56.20 56.11 55.68 55.66 55.54 55.48 55.20 54.80 54.33 53.66 53.12 59.51 61.04 51.43 58.68 55.94 57.34 57.62 55.42 56.97 58.83 58.03 56.92 57.47 53.94 53.78 50.08 48.17 48.97 45.57 45.44 47.83 51.41 50.83
55.94 54.99 56.10 57.27 56.78 56.33 55.73 54.80 54.90 55.02 55.56 55.56 55.32 55.47 55.50 55.45 55.30 55.04 54.82 54.80 55.24 54.47 55.60 59.75 60.83 54.49 53.69 52.17 54.93 55.86 57.82 57.57 56.37 56.57 55.42 55.14 54.51 51.68 50.64 48.66 43.45 45.13 44.16 45.64 45.57 49.48 49.38
55.29 54.47 55.67 57.11 56.40 55.81 55.55 55.22 54.90 54.88 54.96 55.43 55.23 55.54 55.46 55.39 55.22 54.74 55.88 60.72 57.53 56.78 57.63 53.60 53.04 52.33 52.84 55.24 57.50 55.56 56.73 56.14 56.31 54.73 51.18 52.71 50.08 48.25 48.70 49.03 48.06 46.81 45.74 45.23 47.77 49.58 48.47
54.64 53.78 55.23 56.54 55.75 55.12 55.20 55.46 54.59 54.58 54.75 54.96 55.13 55.55 55.30 55.25 55.24 54.88 61.18 59.64 59.84 59.11 51.15 54.80 55.08 55.13 55.63 56.27 52.07 54.13 57.85 53.04 52.71 49.51 50.99 49.29 47.16 48.90 50.01 49.64 48.18 47.21 45.94 45.86 47.59 48.67 48.90
54.29 53.43 55.08 55.87 55.36 54.83 54.94 55.18 54.69 54.57 54.49 54.53 54.69 54.89 55.82 54.61 54.60 58.87 63.32 61.78 65.15 63.32 51.95 51.99 53.89 53.26 53.36 55.62 52.16 52.72 55.45 52.73 50.24 47.87 48.19 48.00 48.03 49.44 48.70 48.62 47.48 47.22 46.05 46.41 45.89 48.42 49.34
53.68 53.28 54.68 55.04 54.57 54.13 54.31 54.57 54.55 54.63 54.47 54.39 54.45 54.65 54.85 53.76 56.13 64.09 61.39 64.05 66.40 63.75 48.92 47.03 50.04 52.82 54.09 54.68 50.95 55.64 55.90 53.22 50.46 47.59 48.99 48.23 49.92 48.38 48.22 47.43 48.35 45.33 48.03 47.28 46.44 45.67 43.35
53.49 53.34 54.41 54.31 54.17 53.86 53.82 54.17 54.11 54.17 54.22 54.28 54.30 54.69 54.04 54.25 62.87 59.52 62.09 66.86 67.02 63.96 39.27 48.22 50.41 57.16 54.53 52.08 52.11 52.74 56.59 53.80 48.79 48.31 49.63 46.40 47.62 48.06 46.97 46.80 48.82 46.92 49.43 47.61 47.56 46.26 46.28
52.68 53.93 54.29 54.14 54.18 53.82 53.94 53.76 53.62 53.76 53.92 53.98 54.26 55.37 53.96 59.97 65.89 63.49 65.76 66.01 64.96 49.71 37.39 46.22 50.56 50.51 50.74 51.95 51.55 53.48 53.44 55.38 54.30 50.43 50.78 48.91 51.51 50.55 49.26 49.62 49.23 50.66 48.67 48.04 48.67 47.21 41.07
53.06 53.76 54.08 54.26 54.30 53.98 53.80 53.57 53.05 53.12 53.55 54.12 55.04 55.80 57.39 64.80 60.32 66.61 66.89 62.02 46.63 42.34 48.51 45.26 47.18 50.00 49.72 48.72 49.20 51.09 50.02 49.62 48.60 44.85 45.13 48.15 48.05 50.69 51.00 48.88 50.88 49.77 47.16 41.97 39.76 39.93 39.11
53.76 53.74 54.08 54.30 54.29 53.90 53.60 53.37 52.87 52.79 53.24 54.57 55.11 55.53 60.32 65.27 67.12 66.90 63.70 53.14 42.60 45.67 45.95 49.47 48.96 49.24 46.92 48.80 48.48 48.72 48.41 47.13 49.74 49.00 46.96 44.12 41.91 47.66 49.87 48.15 46.12 46.45 46.72 41.14 32.68 36.26 39.52
53.55 53.42 53.34 53.71 53.76 53.51 53.35 52.90 52.55 52.57 52.94 54.14 54.22 65.44 64.30 65.70 67.43 66.38 56.20 47.47 46.02 46.50 48.69 47.80 48.50 46.30 45.96 47.66 48.06 48.15 47.70 46.49 47.44 49.41 45.18 43.62 43.00 48.90 49.00 50.38 49.29 46.29 43.74 46.43 40.62 38.63 37.84
53.49 53.05 52.74 53.08 53.26 53.02 52.89 52.25 52.27 52.32 52.82 54.50 60.58 59.54 60.29 65.62 66.97 63.50 54.95 46.40 47.99 50.13 49.83 49.72 44.94 47.43 44.59 46.26 46.33 47.06 46.35 47.78 46.73 48.92 50.12 45.73 42.06 46.32 47.83 49.93 50.14 48.35 48.48 42.34 42.88 32.57 30.18
53.18 52.81 52.56 52.86 52.93 52.62 52.21 51.74 52.12 51.98 52.41 54.69 61.79 54.63 61.93 66.09 64.79 56.90 50.29 48.70 49.25 51.51 51.78 49.36 47.16 46.22 47.48 45.92 47.20 46.14 45.57 47.49 49.15 48.67 49.99 47.33 44.26 44.12 46.51 45.88 45.17 46.60 45.78 43.78 42.64 40.46 33.98
52.52 52.40 52.36 52.84 52.87 52.31 51.10 51.39 51.82 51.66 51.95 54.01 59.99 52.14 62.59 64.80 53.36 56.02 50.83 50.38 48.76 51.01 52.84 51.17 51.37 49.53 48.16 47.95 46.42 46.17 45.49 48.01 50.40 50.13 46.08 47.82 45.21 40.73 42.14 47.44 49.15 47.76 45.14 43.67 38.26 35.03 39.01
52.24 52.25 52.42 52.80 52.66 51.14 51.06 50.87 51.26 51.27 51.47 62.69 56.23 56.13 62.53 62.47 51.07 52.59 51.50 49.94 51.33 50.45 50.32 50.35 49.21 50.62 50.96 48.40 44.47 47.21 47.56 50.24 50.79 49.72 47.87 48.41 44.77 38.58 40.79 44.93 47.21 44.50 45.31 44.32 42.59 40.66 36.57
52.18 52.19 52.03 52.27 52.16 50.74 51.17 50.91 51.21 51.21 51.47 60.51 57.31 52.78 56.08 58.05 56.69 52.49 50.14 49.26 48.22 51.68 50.31 51.53 50.26 51.54 49.83 47.49 49.50 46.73 47.05 48.90 50.39 50.25 45.50 48.11 45.13 40.34 36.92 39.88 42.89 40.35 42.08 43.33 42.72 37.30 38.09
52.02 51.95 51.60 50.88 50.45 50.41 51.06 51.07 51.17 51.16 51.23 60.43 58.87 54.25 54.84 50.45 52.30 52.83 52.42 50.89 48.49 46.93 50.74 51.78 49.27 49.48 48.62 45.02 46.67 45.55 47.80 47.95 48.47 45.51 48.74 48.23 40.59 43.04 43.44 43.50 42.94 42.11 41.75 42.33 40.98 41.56 37.74
52.01 51.64 50.78 50.97 50.97 50.38 50.68 50.96 50.93 50.93 51.03 60.51 55.09 54.17 55.57 54.63 53.65 52.19 48.06 49.59 48.56 48.18 49.53 47.95 48.37 49.56 49.11 46.05 45.28 43.94 45.80 45.52 45.21 48.33 47.35 47.48 41.22 41.42 38.88 42.60 41.98 39.96 42.07 42.56 42.48 42.73 42.63
51.90 51.19 50.66 50.93 51.40 50.25 51.18 51.37 50.46 50.74 52.34 60.01 58.59 58.26 56.94 46.75 52.38 51.03 50.38 50.07 49.53 50.76 49.89 51.09 50.77 48.80 47.54 48.53 51.16 51.73 51.81 50.40 48.97 47.20 44.73 44.66 43.02 39.10 35.47 40.85 39.29 35.64 41.16 41.89 42.53 43.92 43.24
51.71 51.06 50.66 52.35 52.30 51.98 51.82 51.22 50.24 50.44 51.85 61.51 59.29 59.05 55.41 48.61 51.25 50.60 50.32 50.89 50.02 50.16 48.91 51.09 51.34 49.65 51.15 54.42 53.45 52.06 50.63 49.46 49.13 47.98 48.91 43.64 41.49 39.63 35.68 35.74 31.38 42.04 46.20 45.59 43.12 43.96 45.49
51.25 51.37 52.18 52.25 52.08 51.84 51.32 51.11 50.16 50.15 51.21 60.57 58.52 58.50 54.28 42.18 51.28 49.88 50.65 50.84 50.80 51.34 50.46 50.41 51.09 53.35 55.60 52.14 47.29 40.95 40.34 37.73 41.43 45.09 45.56 47.43 43.37 36.75 34.28 34.34 38.27 41.25 42.80 42.26 40.90 40.79 46.14
51.03 51.40 51.73 51.67 51.45 51.28 51.16 51.03 50.30 49.95 50.87 60.33 57.79 58.49 57.58 45.20 49.73 52.17 51.25 51.87 49.47 49.43 49.66 49.31 52.55 55.00 54.44 50.37 43.83 36.99 37.48 38.93 39.00 40.62 44.55 44.33 45.00 41.14 36.17 31.03 30.02 40.86 45.13 46.47 46.16 36.88 46.31
50.58 50.88 51.00 51.12 51.21 50.94 51.04 50.77 50.38 49.98 50.52 58.71 58.89 58.66 58.85 53.79 52.85 53.79 51.25 50.94 53.08 51.65 49.49 50.59 50.42 49.87 53.42 44.81 39.51 39.61 40.04 42.62 37.67 35.70 34.14 36.23 36.79 36.11 34.90 32.97 36.90 44.45 45.30 46.94 35.07 38.37 46.92
49.97 50.00 50.13 50.28 50.71 50.57 50.63 50.76 50.34 49.92 50.02 56.42 58.79 58.83 58.56 53.91 52.61 53.44 53.54 52.47 52.50 52.60 49.21 51.44 49.77 50.11 49.53 38.97 39.69 41.88 38.39 42.40 40.53 42.06 39.25 38.12 36.77 33.77 36.28 32.62 30.11 46.06 44.86 39.19 44.96 47.83 46.40
49.36 49.64 49.60 49.95 50.03 49.84 50.51 50.54 50.74 50.24 49.91 51.55 59.63 58.01 58.89 57.47 54.62 56.38 55.99 56.18 56.33 56.12 53.68 52.86 50.36 50.56 50.72 47.33 43.35 43.43 38.93 37.26 40.44 37.44 45.52 38.72 42.48 40.33 40.20 40.16 46.71 47.63 45.23 49.15 48.55 46.18 45.02

GFSGBSN_sfc_wetblb_006.txt.gz
Wetbulb
56.31 57.09 57.22 57.59 58.01 58.78 58.62 58.72 58.08 57.10 56.22 55.96 56.15 56.97 56.97 56.62 56.64 56.36 55.95 55.63 55.30 54.82 54.69 54.65 55.43 55.61 57.60 56.05 54.07 59.36 62.46 64.89 60.10 60.51 57.63 55.67 53.92 52.91 49.54 50.01 50.22 48.55 48.58 49.35 49.43 49.55 50.21
56.86 56.75 57.15 57.17 58.38 58.41 58.18 57.93 56.63 56.66 56.20 55.93 56.71 56.81 56.67 56.52 56.30 56.20 55.75 55.22 54.45 53.75 53.85 54.30 55.02 55.11 57.33 51.77 58.45 59.32 59.10 58.92 58.74 58.48 55.86 55.65 53.92 54.04 50.83 49.86 49.15 50.24 49.50 49.06 49.98 50.74 50.74
56.61 56.54 56.68 57.22 57.97 57.86 57.32 56.97 56.55 56.19 55.96 56.44 56.83 56.75 56.58 56.15 55.72 55.76 55.30 54.59 53.64 53.58 54.16 54.69 54.55 57.33 57.93 54.88 58.46 59.07 58.66 57.75 58.38 58.15 55.95 56.82 56.77 53.29 53.12 50.33 52.56 51.22 48.17 49.83 50.39 51.15 50.11
56.41 56.57 56.17 57.34 57.61 57.19 56.83 56.59 55.65 55.69 56.10 56.84 56.88 56.71 56.28 56.26 55.27 54.96 54.51 53.91 53.89 54.40 54.73 54.34 53.93 58.49 55.04 58.65 59.14 57.50 57.94 56.89 57.77 59.00 57.64 57.54 57.49 55.70 54.25 53.55 50.56 48.36 49.33 45.61 49.74 51.03 51.66
56.10 56.09 55.71 56.96 57.52 56.81 56.52 56.24 55.02 55.22 56.19 56.49 56.69 56.73 56.18 55.66 55.78 54.58 54.42 54.69 55.33 55.24 54.69 53.79 56.80 59.40 53.44 59.02 55.53 57.39 57.39 55.20 56.40 57.99 57.53 57.12 57.04 52.81 52.13 48.23 46.54 48.08 43.71 46.08 47.62 51.09 50.86
55.97 55.42 55.13 56.64 57.16 56.16 56.37 55.75 55.03 55.30 55.66 56.13 56.36 56.17 56.05 55.76 55.46 55.38 55.32 55.58 55.85 54.91 55.42 58.81 60.27 56.08 54.23 52.43 55.04 55.45 57.47 56.96 55.60 55.83 54.59 54.44 53.46 49.91 49.70 47.91 41.34 43.36 44.34 45.16 44.87 48.68 48.32
55.42 54.69 54.48 56.24 56.54 55.90 55.77 55.37 54.77 55.05 55.34 55.72 55.75 56.69 56.02 55.50 55.29 54.89 54.46 57.81 56.45 55.70 58.25 53.66 52.54 52.11 52.01 53.94 56.32 54.91 56.22 55.52 56.12 54.26 50.31 52.20 48.85 46.65 48.12 48.86 47.96 46.97 45.48 44.76 47.74 49.45 47.39
54.92 54.09 54.16 55.95 55.92 55.30 55.08 55.65 55.17 54.95 55.22 55.17 55.20 56.28 55.61 55.61 55.54 55.09 57.01 60.20 59.06 58.77 50.98 54.70 54.49 53.86 55.16 56.39 51.37 53.01 57.11 52.92 51.82 48.73 50.92 48.18 46.48 48.84 49.82 49.18 47.92 47.02 45.43 45.47 47.71 48.99 47.33
54.64 53.38 54.25 55.60 55.71 54.69 55.01 55.46 55.15 55.09 54.79 55.00 55.29 55.20 56.32 54.67 54.85 56.38 62.29 61.49 64.46 64.10 51.75 52.04 54.01 52.87 53.74 55.69 52.25 51.82 55.44 52.80 50.33 48.83 47.92 47.23 47.80 49.80 48.52 48.58 46.87 47.31 45.48 45.97 45.26 48.24 49.12
54.61 53.12 54.13 55.00 55.15 54.54 54.63 54.87 54.69 54.91 54.79 54.77 55.20 55.31 55.39 54.18 55.29 63.34 60.76 63.31 65.50 65.68 47.83 46.59 50.15 52.40 53.94 54.54 50.38 55.09 55.75 53.35 50.28 47.50 49.03 48.19 49.76 48.63 48.12 47.64 47.71 44.43 48.94 47.23 45.99 44.69 41.38
53.85 52.64 54.07 54.63 54.48 54.42 54.26 54.24 54.28 54.42 54.55 54.67 55.10 55.66 54.30 53.66 60.17 59.32 62.24 65.36 66.11 64.24 38.51 48.47 50.11 56.74 53.83 52.24 52.54 52.45 56.37 53.80 48.41 48.40 49.05 46.70 48.19 48.34 47.45 47.07 48.51 46.74 49.31 47.29 46.89 44.99 44.61
53.37 52.85 54.05 54.33 54.60 54.32 54.26 54.00 53.65 53.77 54.14 54.70 55.10 56.27 54.40 58.16 63.68 63.69 65.65 66.61 64.49 49.39 38.09 45.79 50.63 50.25 50.03 51.29 51.44 53.17 52.47 55.39 54.64 50.11 50.59 48.87 51.64 50.26 49.18 49.82 49.27 50.62 48.96 48.33 47.88 46.01 40.65
53.63 53.48 53.81 54.63 54.58 54.32 54.07 53.67 53.15 53.45 53.89 55.31 55.82 56.01 57.27 64.79 60.98 66.79 67.80 61.82 46.10 42.30 48.78 45.29 47.26 50.20 49.41 48.26 49.95 50.79 49.98 49.55 47.89 44.59 45.00 48.16 48.11 50.69 50.70 48.50 50.93 49.19 46.66 41.13 39.50 39.98 38.22
53.72 54.02 53.61 54.43 54.52 53.99 53.79 53.41 52.95 52.90 53.75 55.52 56.11 55.35 61.17 65.55 66.50 68.12 64.27 52.45 42.11 46.11 45.84 49.67 49.06 49.40 46.83 48.89 48.56 49.17 48.96 46.48 49.58 49.31 45.97 43.55 41.12 47.56 50.24 47.87 45.43 47.04 45.51 40.99 32.51 34.35 37.91
53.86 53.94 53.15 53.56 53.95 53.81 53.26 52.64 52.53 52.84 53.52 55.71 54.61 65.96 65.67 66.62 68.38 67.45 56.92 46.44 46.35 46.29 49.08 47.48 48.27 45.85 45.67 47.88 48.33 48.45 47.39 45.90 46.98 48.89 44.50 43.51 42.76 49.11 48.89 49.57 48.60 46.11 42.58 45.86 41.18 38.52 36.79
53.73 53.79 52.41 53.21 53.63 53.22 52.55 52.21 52.39 52.55 53.25 56.44 60.71 60.15 59.84 66.60 68.04 63.49 54.05 46.99 49.12 50.83 50.04 49.42 44.57 47.48 44.30 45.93 46.28 47.34 46.49 48.40 47.00 49.07 50.10 45.50 42.03 46.24 47.36 49.87 50.07 47.28 47.89 41.33 43.07 33.12 30.11
53.46 53.36 52.26 53.23 53.51 52.76 51.70 51.74 51.94 52.29 53.01 55.08 62.84 53.73 62.62 66.89 65.93 55.36 49.35 50.62 49.40 51.50 52.39 48.39 47.52 46.07 47.48 45.72 47.33 46.37 46.27 47.99 49.86 48.86 50.19 47.48 45.39 43.78 47.02 45.42 44.27 45.71 44.45 44.01 42.64 40.53 33.28
52.91 52.64 52.28 53.14 53.21 51.87 51.59 51.66 51.78 51.94 52.11 56.23 61.95 50.40 63.79 66.92 51.20 52.68 51.32 50.74 49.27 50.81 53.01 51.78 51.61 49.48 47.95 47.97 46.72 46.43 46.01 47.99 50.64 50.34 45.97 46.78 45.02 42.15 42.72 47.21 48.58 46.88 44.83 43.68 38.81 35.87 39.52
52.31 52.37 52.34 53.13 52.72 50.48 51.51 51.53 51.52 51.65 51.85 61.43 55.22 56.12 63.11 63.57 49.43 53.94 52.05 50.83 51.54 50.23 50.46 50.30 49.38 50.93 51.39 48.60 44.84 47.71 47.92 50.51 51.08 49.84 46.75 47.62 45.12 39.68 40.56 44.98 47.22 43.89 45.30 44.16 43.62 41.22 35.46
52.16 52.04 52.32 51.90 51.76 50.28 51.51 51.48 51.54 51.54 51.90 58.54 57.68 52.04 54.72 56.24 57.56 53.28 50.29 49.13 48.63 52.76 51.23 51.91 50.86 51.51 49.93 47.94 49.72 46.82 46.65 49.31 50.85 49.31 46.61 48.05 44.98 40.96 36.84 39.64 42.89 40.39 42.26 43.42 42.18 37.62 36.99
51.92 52.05 51.90 51.26 49.79 50.10 50.64 51.52 51.35 51.38 51.84 58.59 58.38 53.59 53.94 49.25 51.97 52.80 52.39 50.73 48.64 47.40 51.61 52.17 49.62 49.73 48.94 45.53 46.91 46.18 48.20 47.41 48.67 46.34 48.33 48.12 41.59 43.10 42.73 42.77 42.72 41.65 41.31 41.95 40.44 41.19 36.29
51.86 51.65 51.13 51.62 49.97 49.83 51.35 51.59 50.90 51.05 50.70 59.28 55.23 54.24 55.79 53.97 54.31 51.99 48.46 49.55 48.85 49.42 49.99 48.37 48.45 50.02 50.16 47.08 46.60 45.04 46.76 46.39 45.89 48.35 47.31 48.09 42.33 42.10 39.51 42.80 42.02 39.56 41.26 41.59 41.84 42.03 41.87
51.94 51.16 51.02 51.61 51.13 51.10 52.04 51.43 50.62 50.87 53.22 59.75 59.33 60.10 57.02 49.09 52.66 51.74 50.94 50.34 49.95 51.36 51.06 51.99 51.30 49.99 47.29 48.96 51.07 51.29 51.41 50.66 49.04 47.55 45.97 45.48 43.83 39.61 36.12 39.54 38.77 35.83 40.81 41.98 42.40 43.75 42.68
51.77 51.07 51.13 52.37 52.55 52.87 52.02 51.11 50.20 50.55 51.89 61.89 60.76 59.16 55.96 49.77 52.20 50.50 51.52 51.74 50.56 50.83 49.13 51.49 52.01 49.68 51.14 53.84 52.92 51.73 50.56 49.60 49.53 48.18 49.61 43.38 41.59 39.53 35.62 35.91 31.56 41.91 45.96 45.43 42.96 43.89 44.88
51.19 51.00 52.21 52.52 52.25 52.00 51.65 51.12 50.35 50.50 51.31 61.22 60.30 59.68 54.60 40.85 52.20 51.46 51.16 51.04 51.93 51.55 50.67 50.77 51.95 53.47 54.97 52.19 47.11 39.80 40.35 38.14 42.02 46.18 45.96 47.90 43.37 34.80 34.30 33.57 37.22 40.52 43.33 42.17 40.22 39.95 45.44
51.23 51.99 52.15 51.94 51.61 51.38 51.16 50.89 50.46 50.36 51.02 61.27 58.89 60.12 58.90 47.01 51.55 53.03 51.30 52.02 49.93 50.08 49.41 49.61 53.98 56.30 54.18 50.91 43.47 35.28 37.64 40.49 38.70 40.29 45.67 45.61 45.88 41.61 34.47 30.61 28.25 40.93 45.26 47.08 46.05 35.62 46.73
50.95 51.45 51.67 51.68 51.55 51.31 51.08 50.87 50.52 50.36 50.61 57.47 59.31 60.99 59.54 55.45 54.27 54.58 52.16 51.55 53.66 51.70 49.13 50.10 50.53 50.60 53.74 43.53 37.04 41.19 40.55 43.31 37.70 35.59 34.64 35.48 37.84 35.17 34.68 32.37 35.97 43.82 46.17 47.00 34.41 37.60 46.25
50.45 50.65 50.71 51.03 51.28 51.89 51.05 50.76 50.61 50.19 50.34 55.40 59.69 60.38 59.05 54.48 53.82 55.68 55.33 54.16 53.45 53.38 49.17 51.43 49.90 51.54 50.26 38.13 39.76 42.52 38.67 42.40 41.49 42.55 37.91 35.32 35.14 32.87 35.82 32.31 29.69 46.44 45.11 39.02 45.01 47.84 46.89
49.76 49.88 50.12 50.43 50.55 50.80 51.44 50.69 50.69 50.59 50.28 51.74 59.39 59.44 60.61 58.00 54.61 58.25 57.07 57.54 56.18 55.85 54.84 54.09 50.89 50.45 50.93 46.20 44.60 45.12 38.21 37.29 39.72 38.18 45.34 38.90 42.96 40.39 39.76 38.85 47.09 48.36 46.42 48.52 47.60 46.91 45.36

GFSGBSN_sfc_wetblb_009.txt.gz
Wetbulb
56.93 56.89 57.60 57.83 57.81 58.11 57.74 57.77 57.08 56.29 55.91 55.56 55.37 55.64 56.06 57.08 56.67 56.14 55.82 55.41 55.37 55.15 54.60 54.08 54.36 55.00 54.17 53.82 53.12 56.62 64.38 63.42 60.16 57.70 56.12 55.29 52.08 48.63 45.87 45.87 45.94 44.44 44.60 45.76 46.26 46.58 46.86
56.84 57.30 57.60 57.59 57.47 57.69 57.70 56.89 56.17 55.79 55.41 55.12 55.34 55.89 56.61 56.92 57.06 55.73 55.55 55.26 54.84 54.27 53.63 53.71 54.38 54.66 53.43 49.19 57.70 57.24 56.30 59.34 56.91 56.55 56.42 55.41 52.19 52.18 49.47 46.25 44.67 46.65 45.58 44.54 45.03 46.27 47.05
56.47 57.39 57.35 57.12 57.16 56.94 56.87 56.07 55.77 55.57 55.24 55.84 55.60 56.53 56.67 56.59 56.16 55.43 55.38 54.88 54.41 53.59 53.61 54.31 54.38 54.62 55.43 55.16 55.40 54.07 55.86 53.87 53.95 54.19 53.29 53.85 53.25 50.53 49.22 46.95 49.55 47.63 43.55 44.86 45.21 46.80 45.80
56.66 56.95 57.13 56.59 57.04 56.53 56.17 55.58 55.47 55.43 55.66 55.55 57.04 56.71 56.11 56.13 55.20 54.96 54.79 54.45 53.96 53.63 54.22 54.27 54.02 53.84 51.82 59.11 53.25 54.14 53.94 53.63 54.87 55.68 55.15 54.67 54.57 51.69 49.85 48.40 47.30 43.98 43.66 39.31 45.09 47.29 47.12
56.60 56.75 56.69 56.39 56.76 56.35 55.73 55.53 55.36 54.88 54.98 56.09 56.40 56.31 56.01 55.40 55.38 54.59 54.10 53.82 53.82 54.49 54.49 53.82 51.97 54.06 50.88 57.25 53.55 54.32 53.61 52.98 54.83 55.53 54.36 55.40 52.95 49.36 47.93 42.57 40.11 41.78 37.04 41.06 43.22 47.60 46.83
56.60 56.71 56.31 56.09 56.86 56.13 55.58 55.97 55.17 54.63 55.62 55.85 56.10 56.04 55.65 55.42 55.06 54.84 54.30 55.10 55.81 54.59 54.57 56.32 56.96 51.50 56.10 51.15 53.78 53.25 53.32 54.29 53.63 54.09 52.93 51.13 48.17 44.31 43.31 40.83 35.84 38.60 40.48 39.49 40.66 41.80 43.12
56.30 56.22 55.59 55.95 56.63 55.79 55.27 55.33 55.08 55.22 55.38 55.93 56.04 56.12 55.48 55.32 55.10 54.58 53.16 52.23 51.33 50.47 54.19 50.48 51.67 53.00 50.07 50.67 52.62 51.73 54.29 52.81 52.96 51.16 45.60 48.76 43.67 39.57 41.90 44.13 44.98 44.22 41.72 40.98 41.21 45.52 43.55
56.35 55.79 54.92 55.71 56.17 55.00 55.02 55.72 55.65 55.28 55.36 55.71 56.09 55.79 55.39 55.27 55.08 54.61 52.83 55.11 54.51 54.56 48.07 55.75 52.72 52.22 55.08 53.94 49.62 51.21 54.31 50.28 49.66 45.22 47.64 44.18 40.68 45.41 47.66 47.75 45.83 44.41 42.77 41.56 43.49 46.32 42.59
55.52 55.16 54.44 55.50 55.88 55.22 55.27 55.55 55.26 55.10 55.22 55.10 55.31 55.72 55.39 54.76 54.76 52.99 54.43 57.85 61.15 59.56 46.43 51.09 52.92 51.89 53.05 54.05 50.11 49.63 52.11 50.70 47.36 45.65 45.20 42.42 44.96 48.65 47.48 45.73 44.48 43.87 42.05 41.52 41.77 44.34 43.01
55.38 54.35 53.93 55.10 55.25 54.80 55.00 55.08 54.96 54.86 55.08 54.82 54.56 54.97 54.65 53.80 52.66 57.74 56.79 59.91 61.65 60.49 40.69 45.50 49.32 51.25 53.72 52.94 49.21 52.36 52.75 50.57 48.29 45.19 45.78 44.41 48.20 47.92 46.38 44.95 44.49 41.83 46.52 45.37 43.68 40.38 35.01
54.97 53.62 53.98 54.84 54.74 54.49 54.14 54.23 54.21 54.35 54.77 54.92 54.56 55.27 53.81 55.05 54.30 56.32 58.38 61.32 60.50 57.07 28.38 47.70 49.23 55.53 52.15 50.94 50.04 50.43 53.46 51.84 46.30 45.33 46.44 43.75 45.30 45.44 44.67 44.94 46.36 44.24 47.08 44.71 43.68 39.84 37.97
54.52 53.67 54.43 54.53 54.53 54.14 54.00 53.74 53.60 53.72 54.16 54.70 54.63 55.68 53.77 53.81 53.96 59.39 62.40 61.94 55.40 42.73 30.02 45.47 49.41 49.34 48.24 49.67 50.16 50.57 50.52 52.58 51.95 47.71 46.62 45.31 48.56 46.59 45.35 48.24 47.39 47.82 45.84 44.99 43.36 40.51 31.42
53.49 53.07 54.51 54.35 54.31 54.00 53.82 53.23 53.07 53.21 53.80 54.61 54.96 55.10 54.41 60.18 56.69 62.36 61.95 54.57 39.07 33.44 48.02 43.35 45.81 48.80 47.22 46.76 47.88 48.69 47.84 45.50 43.09 39.69 39.96 44.98 45.28 46.88 48.58 44.81 47.32 44.88 41.16 31.26 29.85 29.02 28.92
53.12 53.70 54.15 53.96 54.14 53.59 53.49 52.78 52.69 52.67 53.37 54.23 54.95 55.13 58.70 63.38 63.63 62.82 58.55 47.49 34.83 44.85 44.36 48.27 47.39 47.52 44.86 46.97 46.61 47.87 45.49 41.72 45.28 45.18 41.45 38.95 35.98 43.96 47.47 44.59 41.48 42.71 41.18 29.38 27.57 26.63 29.93
53.41 53.88 53.51 53.51 53.61 53.35 52.93 52.51 52.43 52.54 53.02 54.27 54.90 58.34 60.13 61.43 63.64 60.63 52.05 38.53 40.80 45.05 46.95 45.92 46.70 43.87 43.57 46.68 46.20 45.62 42.68 41.77 43.61 44.58 40.02 39.64 39.19 45.75 46.31 46.58 45.37 43.45 36.44 41.93 35.02 31.50 27.64
53.59 53.55 53.07 52.97 53.04 52.91 52.12 51.73 52.15 52.30 52.98 53.82 55.50 56.67 56.11 61.92 62.80 57.58 47.55 42.62 47.29 48.99 48.62 47.64 42.45 45.12 40.83 43.14 43.48 43.55 43.21 46.17 45.34 46.57 46.32 42.82 37.29 43.99 45.81 46.96 47.07 43.28 44.48 35.07 33.28 25.73 25.40
53.20 53.16 52.56 52.87 52.93 52.25 51.81 51.96 51.91 52.20 52.89 54.00 55.55 48.27 57.16 62.40 59.43 49.40 41.48 46.24 47.95 50.78 51.37 47.94 46.04 44.36 45.50 43.18 44.57 43.70 43.52 45.85 47.41 46.80 45.94 43.59 41.38 39.83 44.61 41.32 40.24 41.25 40.04 39.96 38.73 32.26 25.72
52.59 52.44 51.90 52.64 52.65 50.83 51.77 51.86 51.76 51.74 52.67 54.04 53.64 44.72 59.04 60.10 44.44 46.04 43.90 50.15 47.64 49.18 51.64 50.32 49.27 47.65 45.90 45.65 44.62 44.36 43.48 45.24 48.52 47.98 42.88 43.55 40.11 31.15 39.45 44.55 45.87 43.37 41.34 40.57 28.27 30.33 28.99
52.32 52.03 51.90 52.44 51.71 49.71 51.53 51.50 51.43 51.51 52.07 56.03 50.17 51.28 58.34 58.46 37.78 38.64 49.08 49.48 49.99 48.54 48.92 48.84 47.68 49.12 48.87 45.43 41.21 45.14 45.07 48.62 49.08 46.23 42.75 43.73 38.40 29.68 35.95 40.84 43.82 40.39 42.25 42.81 39.56 32.38 29.20
51.86 51.60 51.82 51.57 49.63 50.17 51.12 51.48 51.32 51.46 51.60 54.73 52.87 42.85 49.82 51.20 51.20 48.72 48.55 46.36 46.82 50.83 49.77 50.39 48.75 49.12 47.05 44.86 46.78 43.63 44.24 48.17 48.19 45.99 45.62 45.54 41.31 35.08 29.31 35.03 38.56 36.11 39.27 40.34 38.56 28.27 29.83
51.47 51.44 51.60 50.85 48.53 49.25 51.19 51.50 51.13 51.34 51.50 55.66 53.78 47.23 47.41 39.77 44.50 47.74 48.54 47.81 46.15 45.75 49.58 50.06 47.22 47.70 45.80 39.84 43.41 42.61 44.86 45.25 47.13 45.34 46.03 43.64 36.21 38.69 39.42 40.16 40.07 38.65 38.27 38.59 36.87 36.60 29.85
51.58 51.26 50.89 51.27 48.69 50.20 51.76 51.10 50.64 51.06 50.06 53.85 52.13 49.69 49.31 46.67 47.22 46.98 46.12 46.23 46.41 47.66 47.53 46.46 45.48 47.78 47.10 42.66 43.60 41.38 44.29 43.64 43.14 44.78 43.66 44.64 33.88 33.42 32.60 39.81 38.85 35.68 37.80 37.89 38.27 38.92 38.04
51.53 51.06 50.93 51.48 50.58 52.31 51.77 50.96 50.43 50.66 52.40 54.07 54.06 53.89 51.86 46.30 45.62 43.63 44.58 47.14 48.05 48.29 48.67 50.26 47.81 44.89 41.31 45.21 46.72 46.58 46.43 45.88 46.26 43.46 42.09 40.45 33.53 29.98 29.14 35.62 33.96 27.23 35.03 39.22 39.48 40.21 38.67
51.25 50.85 51.11 51.87 52.16 52.20 51.61 50.79 50.16 50.40 51.63 57.28 55.55 54.82 46.45 39.02 45.19 46.19 49.50 49.41 47.92 48.13 45.58 48.96 48.64 43.48 47.52 49.25 46.85 44.52 43.27 44.08 45.76 44.66 46.14 36.22 34.07 30.77 24.40 26.26 19.12 38.13 42.88 42.01 39.88 40.59 40.85
50.80 50.84 52.02 52.05 51.84 51.41 51.00 50.80 50.15 50.41 51.15 56.12 55.56 55.25 45.70 35.30 47.14 47.95 48.27 48.21 47.88 48.70 46.94 47.57 48.91 49.30 50.00 48.05 36.54 32.91 31.91 31.13 36.91 43.48 43.27 43.80 33.70 25.59 26.06 25.17 31.18 37.41 40.85 38.91 36.41 35.67 43.00
50.68 51.41 51.91 51.59 51.23 50.95 50.68 50.59 50.70 50.27 50.81 56.72 54.82 55.54 51.70 40.78 42.63 51.80 47.25 47.41 43.17 43.11 43.91 46.64 51.13 51.66 50.70 37.92 31.23 27.76 27.15 32.96 33.10 37.87 41.56 42.23 36.41 29.19 27.05 18.75 16.69 33.67 42.33 44.64 42.84 28.85 43.45
50.79 51.29 51.60 51.45 51.01 50.75 50.57 50.49 50.56 50.33 50.55 55.34 54.88 55.98 55.46 45.28 48.92 50.09 45.94 45.17 48.60 45.90 42.57 45.37 45.97 44.36 47.55 34.52 33.51 30.97 29.81 39.06 31.15 29.90 27.29 27.62 27.23 24.10 29.00 18.31 28.51 39.82 43.61 44.54 29.19 30.62 42.64
50.37 50.61 50.77 51.14 51.61 50.96 50.37 50.29 50.43 50.53 50.37 54.62 54.55 55.55 55.14 46.64 48.39 52.05 52.70 48.95 48.65 47.09 39.14 44.91 41.64 41.44 35.98 33.20 30.95 31.64 30.19 31.67 32.31 37.04 32.53 29.11 26.10 28.37 29.13 22.67 22.08 43.22 42.09 33.85 38.14 43.19 43.28
49.99 49.93 50.02 50.50 50.84 50.98 50.09 50.13 50.49 50.53 50.50 51.59 54.39 55.85 56.91 52.64 50.23 53.71 52.77 52.71 51.70 51.27 48.62 46.65 42.55 46.13 44.02 37.70 34.20 35.60 31.29 34.70 31.09 27.54 40.44 31.61 34.89 31.22 32.31 30.84 39.71 43.55 42.14 44.25 44.52 43.36 41.69

GFSGBSN_sfc_wetblb_012.txt.gz
Wetbulb
57.93 57.42 57.16 57.50 57.81 57.74 57.40 57.34 56.85 56.44 55.83 55.75 55.19 55.31 55.60 55.93 56.21 56.19 55.41 55.28 55.36 55.07 54.59 53.78 54.19 54.39 52.80 52.23 51.00 56.68 62.53 63.14 61.27 57.19 54.02 52.44 51.20 48.97 45.12 44.84 44.52 41.96 42.70 44.25 45.21 46.12 43.46
57.39 57.10 57.17 57.70 57.63 57.13 57.12 56.90 56.76 55.62 55.40 55.17 54.79 54.85 55.53 56.10 56.81 56.93 55.16 55.02 54.69 54.40 53.59 53.15 53.80 54.35 51.13 47.23 56.58 54.82 58.25 59.06 55.98 54.60 54.67 54.00 52.07 50.72 47.61 46.20 43.68 44.38 43.80 43.47 44.36 44.70 45.51
57.22 56.96 57.22 57.34 57.26 56.95 56.78 56.12 55.86 55.30 55.21 54.94 54.78 55.09 55.58 56.60 56.68 56.17 55.07 54.71 54.58 53.71 52.86 53.70 54.19 53.60 52.89 52.01 56.64 55.25 53.57 53.57 54.02 55.18 52.51 53.18 53.68 49.36 48.68 45.17 46.31 44.45 40.73 42.07 41.88 43.84 43.29
57.26 56.74 56.95 57.04 56.48 56.44 56.12 55.96 55.53 55.21 54.71 54.63 54.88 56.18 55.98 55.96 55.59 54.86 54.48 54.18 53.71 53.09 53.28 54.04 53.84 52.58 49.51 58.05 55.04 52.66 52.22 52.57 54.60 54.50 54.03 53.72 53.51 50.78 47.14 46.55 45.81 42.70 41.39 37.68 42.52 44.61 45.24
56.95 56.78 57.10 56.94 55.94 55.89 55.52 55.49 55.03 55.16 54.63 54.57 55.88 55.96 55.72 55.24 54.79 54.36 53.91 53.58 53.17 53.54 54.20 54.08 51.21 51.93 46.10 58.82 51.98 53.63 52.15 51.68 53.25 53.87 53.26 53.50 52.05 47.28 46.27 40.65 38.50 40.00 34.99 37.85 40.70 45.29 44.07
56.64 57.14 56.97 56.61 55.92 55.79 55.46 55.04 54.96 54.67 54.16 55.46 55.62 55.52 55.24 55.05 54.79 54.49 53.53 53.81 55.24 54.54 54.10 55.14 55.29 49.12 53.79 52.52 52.05 51.35 51.74 52.55 51.99 51.91 50.83 49.29 46.17 42.76 41.63 38.90 33.82 36.37 37.54 35.83 38.92 40.96 42.27
56.98 57.20 56.77 55.95 55.84 55.83 55.37 55.21 55.08 54.63 55.04 55.40 55.48 55.55 55.06 55.15 54.75 54.31 52.83 50.88 48.62 47.63 52.13 46.57 49.07 50.83 51.30 49.78 50.98 49.71 51.93 51.32 51.22 49.37 43.88 46.96 42.16 38.30 40.13 42.00 43.08 43.74 39.69 38.80 38.71 43.06 42.09
56.50 56.56 56.23 55.43 55.94 56.50 55.65 55.52 55.64 54.89 55.09 55.07 55.07 55.00 54.90 54.85 54.61 54.21 51.59 54.16 52.49 52.43 45.22 53.43 53.91 52.11 52.93 50.22 48.12 49.21 53.27 48.34 48.32 43.38 45.96 42.82 39.08 43.69 46.22 46.14 44.52 43.39 41.17 39.58 42.49 45.26 41.35
55.88 55.54 55.33 54.80 56.08 56.41 55.70 55.54 55.19 54.55 54.67 54.55 54.46 54.63 54.62 54.50 54.33 52.65 51.59 54.40 59.00 57.35 45.73 49.32 52.02 50.49 51.18 52.46 48.04 47.78 50.38 48.88 45.88 43.92 43.34 40.41 43.04 47.19 46.17 43.71 43.27 42.06 40.30 39.41 39.98 42.01 41.38
55.38 54.55 54.16 54.40 55.47 55.70 55.07 54.85 54.73 54.50 54.42 54.16 53.95 53.91 53.57 53.81 51.44 54.03 52.87 57.24 57.53 55.19 38.07 43.48 47.53 49.53 51.79 51.46 47.05 50.75 50.87 49.08 47.36 43.44 43.97 43.12 47.08 46.27 44.20 42.95 42.70 39.58 44.51 43.46 41.56 38.02 33.79
54.69 54.38 53.07 54.16 54.59 54.24 53.83 53.87 54.03 54.10 53.99 53.99 53.69 53.99 53.16 54.00 51.78 54.71 57.09 60.49 58.74 53.88 26.32 45.35 47.60 53.63 50.75 48.84 48.78 48.29 51.50 50.35 44.25 44.44 44.48 41.99 43.71 43.51 42.49 42.91 44.40 42.22 45.05 42.76 41.61 37.40 36.10
54.18 53.93 52.97 53.87 53.93 53.77 53.50 53.40 53.06 53.18 53.52 53.71 53.58 54.03 53.14 52.55 52.24 55.63 60.32 58.79 51.43 39.96 27.82 43.49 48.01 47.07 45.91 47.99 47.86 48.28 48.69 51.22 49.77 45.72 44.71 43.86 46.49 44.43 43.29 45.99 45.55 45.91 43.79 42.95 41.01 38.10 30.06
53.83 53.13 53.38 53.75 53.81 53.60 53.30 53.00 52.61 52.78 53.15 53.61 53.38 54.10 52.99 58.47 55.47 59.75 59.24 49.19 38.20 30.69 45.92 41.63 43.83 46.83 45.50 44.58 46.19 46.69 44.81 43.01 40.74 37.80 38.21 42.86 43.08 45.25 46.59 43.34 45.38 43.16 39.22 29.64 29.14 28.23 28.03
53.53 52.72 53.48 53.62 53.56 53.28 53.07 52.45 52.26 52.26 52.79 53.00 53.35 53.24 54.41 58.80 61.29 59.53 53.10 44.05 33.91 42.34 42.41 45.70 45.70 45.69 43.00 45.07 44.46 45.45 43.31 39.83 43.43 43.13 39.13 36.53 34.30 41.98 45.38 42.38 39.68 41.09 38.44 28.93 27.76 25.21 28.18
53.25 53.07 53.26 53.25 53.32 52.89 52.47 52.03 52.10 52.11 52.32 52.97 53.50 53.75 58.17 58.90 60.86 56.69 48.28 36.55 38.33 43.12 45.39 44.57 45.18 41.81 41.79 44.56 44.34 43.23 40.43 39.63 41.82 42.28 38.32 36.87 37.24 43.77 44.10 44.34 43.86 40.99 35.10 40.26 32.52 29.65 26.37
53.11 53.36 52.77 52.56 52.55 52.36 51.74 51.70 51.82 52.14 52.42 53.18 52.88 53.40 51.65 59.11 58.69 52.61 45.40 40.15 45.16 47.38 47.06 45.98 40.62 43.28 39.00 41.75 41.86 41.42 41.13 43.94 43.44 44.66 44.15 41.32 35.12 42.12 43.90 46.10 45.39 41.16 42.44 34.16 31.16 24.43 24.57
52.97 53.10 52.39 52.42 52.21 51.71 51.60 51.73 51.76 52.04 52.72 52.73 53.09 45.49 50.48 60.18 52.76 46.71 39.57 42.78 47.39 49.13 50.11 45.39 43.76 42.22 43.10 41.17 42.40 41.15 41.39 43.89 45.60 45.10 43.97 42.30 38.69 38.02 43.22 39.63 38.18 39.47 37.45 37.60 36.20 30.03 24.78
52.37 52.29 51.70 52.09 51.65 50.95 51.48 51.67 51.67 51.95 52.52 52.29 50.56 42.34 55.37 51.76 39.98 42.35 41.43 47.84 46.97 47.28 49.87 48.39 47.56 46.52 43.65 43.91 42.76 41.98 41.53 43.52 46.95 46.11 40.06 42.02 37.28 29.98 37.40 42.67 43.73 41.23 39.19 37.51 26.83 29.80 27.33
52.00 51.65 51.65 51.98 49.55 50.04 51.25 51.34 51.39 51.58 52.24 51.82 47.71 48.47 55.75 49.71 33.49 34.62 45.07 47.81 47.85 46.63 46.74 46.65 46.07 47.29 47.11 43.53 40.10 43.49 43.38 46.67 46.07 44.24 41.40 41.32 35.78 28.27 34.20 39.22 41.75 39.08 40.13 40.61 35.97 29.79 27.87
51.54 51.30 51.72 50.86 49.24 49.22 50.81 51.26 51.18 51.32 51.60 53.40 49.30 40.79 46.50 49.14 45.59 43.36 44.18 44.31 44.95 48.70 47.85 48.21 46.80 47.60 45.15 43.14 44.81 41.87 42.57 46.19 45.67 43.67 44.61 44.49 38.74 33.54 29.57 33.65 36.46 33.67 36.97 38.94 35.81 26.81 28.45
51.16 51.00 51.01 48.77 49.18 49.49 51.34 50.91 50.80 51.29 50.97 52.06 50.55 44.03 44.37 37.62 40.69 44.54 46.61 45.87 44.24 43.60 47.47 47.91 45.26 45.82 43.89 38.77 41.52 40.47 43.13 43.58 44.85 44.22 43.91 41.64 34.34 36.41 36.50 37.81 37.57 36.14 35.53 35.64 34.75 34.89 29.58
50.96 50.74 50.56 48.43 49.52 50.77 51.10 50.50 50.46 50.77 51.27 50.95 49.41 47.53 45.72 40.90 44.59 44.87 44.86 44.47 44.59 45.66 45.79 44.53 43.25 45.61 44.66 40.56 41.76 40.18 42.17 41.19 40.15 42.51 41.62 42.27 32.42 32.66 32.32 37.79 37.26 33.23 35.88 36.00 35.76 36.46 35.87
51.04 50.50 50.80 48.65 50.27 51.64 51.02 50.20 50.15 50.58 51.99 52.34 54.14 51.69 47.14 42.47 41.22 41.51 42.49 44.96 46.02 46.89 46.44 47.92 45.76 42.72 40.03 43.57 44.14 43.98 44.45 44.60 44.26 41.64 40.53 37.66 31.79 28.22 26.72 33.01 32.42 26.04 34.16 36.96 37.05 37.95 36.82
50.77 50.73 50.83 51.25 51.46 51.61 50.87 49.93 49.86 50.43 53.14 57.41 55.02 51.77 44.50 37.18 41.83 43.21 47.50 47.35 46.08 46.13 44.51 46.81 46.23 42.34 46.43 48.40 44.27 42.77 41.25 42.36 44.00 43.34 42.92 34.36 31.97 26.59 22.39 23.96 16.68 35.16 40.48 40.09 38.08 38.67 39.76
50.13 50.71 51.45 51.27 51.10 50.73 50.28 50.06 49.78 50.18 51.17 53.23 53.12 51.60 43.36 33.90 43.90 45.55 46.40 45.95 46.36 46.45 45.24 45.88 46.73 47.25 47.61 43.68 33.45 31.80 30.52 31.89 35.51 41.68 42.26 39.88 29.78 26.09 19.92 23.61 28.17 34.69 39.07 37.77 35.54 34.77 41.03
50.06 51.02 50.99 50.62 50.23 50.03 49.98 49.94 49.79 50.16 51.27 53.08 52.41 53.70 46.37 39.49 40.45 48.91 44.60 45.69 41.62 40.89 42.04 45.10 49.45 49.86 45.36 34.05 29.63 26.51 24.92 29.23 31.25 36.34 39.94 38.86 32.45 26.79 26.83 16.86 15.28 30.23 39.94 42.57 40.89 29.45 41.55
50.34 50.65 50.64 50.41 50.07 49.80 49.91 50.03 50.09 50.08 50.96 53.73 51.92 54.06 51.42 43.26 46.61 47.79 43.52 43.92 45.79 42.77 40.54 43.14 44.01 42.95 42.61 28.93 31.56 28.22 29.32 36.03 29.78 28.61 26.32 26.92 24.57 23.08 18.39 16.14 25.92 35.66 41.38 42.50 28.37 29.75 41.68
49.99 50.18 50.10 50.37 49.67 49.44 49.60 49.75 49.74 49.86 50.46 53.48 51.77 53.73 51.51 44.14 46.49 50.81 50.69 46.59 46.57 43.82 38.48 43.14 40.50 39.17 35.27 29.63 26.76 31.28 30.12 31.04 30.76 34.73 31.59 28.78 25.86 24.06 22.99 17.01 21.66 40.06 40.74 33.62 36.31 40.65 42.18
49.83 49.76 49.80 50.25 49.97 49.27 49.37 49.64 49.86 50.03 50.28 53.12 50.85 54.63 54.83 48.89 47.82 51.67 51.42 50.78 50.51 49.05 46.46 43.93 41.24 41.96 40.05 34.97 34.18 35.43 31.37 33.80 28.99 27.74 37.83 30.97 32.28 29.81 31.97 31.00 37.94 40.91 40.51 41.49 43.29 42.02 40.95

GFSGBSN_sfc_wetblb_015.txt.gz
Wetbulb
59.13 58.80 58.09 57.52 57.50 57.57 57.50 57.58 57.18 56.64 56.16 55.95 55.50 55.06 55.19 55.30 55.59 55.57 55.73 55.06 55.33 54.76 54.84 54.25 53.59 53.72 51.66 50.11 49.75 54.41 63.35 63.06 57.40 54.58 51.01 50.13 49.29 48.17 44.70 44.48 44.26 41.82 40.95 42.74 44.17 44.19 42.27
58.56 57.98 57.37 57.03 57.30 57.23 57.36 56.94 56.42 56.19 55.78 55.04 54.89 54.68 54.75 55.01 55.04 55.90 55.74 54.98 54.63 54.27 53.95 53.11 53.22 53.68 49.54 43.97 53.56 54.70 58.47 56.25 55.76 53.44 52.15 51.24 50.28 51.33 47.74 45.26 42.13 43.54 41.67 41.53 43.67 44.47 43.04
58.52 57.65 57.05 56.85 57.20 57.16 57.01 56.19 55.92 55.52 55.53 55.06 54.58 54.37 54.41 54.74 55.22 56.15 55.16 54.32 54.08 53.84 53.01 52.97 53.64 53.14 52.04 48.59 54.33 53.77 56.24 55.75 54.10 53.47 51.50 53.53 53.17 49.77 47.16 43.47 45.42 43.38 39.73 40.76 40.72 41.73 42.02
57.96 57.50 57.07 56.88 56.85 56.53 56.03 55.88 55.40 55.26 55.11 54.86 54.32 54.16 54.73 55.76 55.36 54.94 54.11 53.76 53.69 53.38 52.70 53.44 53.78 52.38 47.23 55.62 55.29 54.80 50.73 51.11 52.95 54.37 53.14 52.70 52.45 50.21 46.56 45.31 44.06 40.73 39.37 36.11 40.92 42.81 42.36
57.63 57.36 57.14 57.01 56.63 56.19 55.56 55.75 55.27 54.94 54.98 54.87 54.02 55.05 55.48 55.18 54.86 54.08 53.48 53.38 53.07 53.01 53.26 53.44 50.36 50.62 45.57 56.19 52.08 52.09 50.91 50.18 51.57 52.70 51.98 52.78 50.90 45.57 44.55 39.91 36.96 37.86 33.72 36.29 39.20 42.83 41.65
57.65 57.13 57.01 56.98 56.59 55.71 55.89 55.71 54.97 54.36 54.34 54.12 54.97 55.50 55.16 55.04 54.56 53.86 52.81 53.07 53.85 53.69 53.61 54.45 54.11 47.18 50.60 48.25 51.37 50.68 50.97 51.59 50.42 51.31 49.76 48.78 45.60 41.85 40.24 37.03 32.12 34.31 35.54 33.48 36.66 38.69 40.83
57.69 57.25 57.07 56.94 56.60 56.02 56.37 55.57 54.63 54.26 54.81 55.28 55.28 55.28 55.16 54.85 54.59 53.99 52.99 51.25 47.05 46.81 50.48 44.67 46.09 48.35 51.35 52.14 50.30 49.13 50.36 51.08 50.34 48.00 42.43 44.82 41.06 37.04 37.88 40.20 41.23 40.22 37.55 36.27 36.51 40.85 40.92
56.79 56.75 56.84 56.88 56.34 55.97 56.49 56.19 55.46 55.28 54.99 55.01 54.93 54.83 54.89 54.91 54.79 54.15 50.77 51.70 50.97 53.09 45.11 51.61 52.56 51.83 53.07 51.20 46.35 48.07 51.77 46.94 46.05 41.67 43.97 41.63 37.96 41.85 45.24 44.58 43.10 41.64 38.53 37.15 40.14 42.44 41.21
56.07 56.17 56.43 56.40 55.78 55.94 56.64 56.21 55.42 54.79 54.49 54.55 54.38 54.45 54.73 54.35 54.13 51.52 49.73 51.83 56.78 54.93 46.25 47.31 51.15 50.02 50.03 50.46 46.09 46.13 48.96 47.23 44.12 42.24 41.78 39.14 41.36 45.88 44.26 42.58 42.07 40.44 37.86 37.54 39.01 40.24 40.48
55.50 55.30 55.40 55.71 55.11 55.73 55.96 55.56 55.20 54.59 54.08 54.08 53.91 53.95 53.52 53.57 50.41 51.88 50.88 54.88 56.88 51.71 37.05 41.75 45.55 47.96 50.19 49.74 45.18 49.16 49.45 47.60 45.51 41.37 42.28 42.60 45.64 44.30 42.58 41.27 41.28 38.00 42.44 41.48 40.23 36.63 33.03
55.03 54.75 54.65 54.38 53.98 54.48 54.24 54.06 54.14 53.98 53.81 53.91 53.67 53.83 53.22 53.57 50.48 53.37 55.99 59.17 56.91 51.11 25.20 43.37 46.02 51.93 48.89 47.53 46.07 46.08 50.51 48.32 42.48 42.67 43.32 40.60 41.79 42.11 41.12 40.92 42.81 40.47 43.19 40.80 39.69 35.60 34.59
54.69 54.49 54.26 53.69 53.44 53.69 53.71 53.53 53.32 53.14 53.28 53.59 53.59 53.76 53.04 52.29 50.17 53.51 57.91 53.79 50.20 38.18 26.99 41.90 46.30 44.78 44.51 46.15 45.59 46.52 48.32 49.93 47.65 44.14 43.73 42.32 44.38 43.13 41.64 44.11 43.72 44.14 42.42 40.95 39.21 36.24 28.93
54.12 54.00 53.81 53.03 53.53 53.63 53.63 53.28 52.93 52.67 52.86 53.24 53.40 53.73 52.62 56.10 54.35 58.42 55.89 47.83 36.05 30.49 43.40 40.13 41.94 44.62 43.15 42.51 44.49 44.38 43.10 41.62 39.77 36.76 36.69 41.01 41.23 43.26 44.61 41.54 43.38 41.87 37.57 28.84 28.14 27.25 27.38
53.83 53.47 53.32 52.95 53.49 53.65 53.30 52.97 52.20 52.26 52.59 53.09 52.93 52.83 53.03 54.21 59.31 57.23 49.85 41.16 32.61 40.45 40.32 43.58 44.00 43.46 41.40 43.25 42.91 43.26 41.33 38.41 41.82 40.91 37.18 34.83 32.69 40.21 43.52 40.82 38.22 38.37 37.18 29.08 27.96 24.90 27.22
53.59 53.28 52.64 52.99 53.33 53.22 52.91 52.26 51.97 52.11 52.26 52.73 52.70 51.56 55.74 57.38 59.03 53.50 45.57 33.86 36.79 40.67 43.36 43.16 43.34 40.25 39.98 42.70 42.46 41.30 38.51 38.28 40.31 40.88 37.60 35.35 35.39 42.31 42.40 42.78 42.35 38.78 33.63 38.61 31.17 28.55 26.38
53.56 52.99 52.68 52.71 52.80 52.57 52.26 50.84 51.95 52.01 52.35 52.69 52.34 50.86 50.26 57.13 55.07 51.34 43.19 38.81 43.01 46.30 45.15 44.33 39.27 41.22 37.57 39.91 40.06 39.80 39.31 42.24 41.67 42.66 42.62 40.37 33.74 40.40 42.57 43.96 43.33 40.26 41.59 32.56 29.81 23.69 24.01
53.07 52.52 52.77 52.47 52.19 52.09 51.78 51.72 51.73 52.17 52.49 53.00 50.39 43.62 47.77 56.65 49.65 45.02 36.54 40.71 46.63 47.15 47.76 43.57 41.51 40.44 40.90 39.58 40.38 39.07 39.51 42.33 44.05 43.96 43.10 40.64 36.58 36.23 40.75 38.15 36.49 38.10 35.53 34.86 34.31 28.68 23.70
52.13 52.22 52.16 52.09 52.01 51.71 51.64 51.76 51.77 52.16 52.25 51.93 47.36 38.49 52.23 48.16 39.22 40.19 40.34 45.82 46.82 45.40 48.38 46.98 45.99 44.07 41.41 42.17 40.90 40.34 40.17 41.72 44.97 44.57 38.54 40.39 35.85 29.68 35.20 41.17 42.21 39.27 36.87 35.14 26.32 28.82 26.32
51.79 51.72 51.49 51.91 50.87 51.16 51.24 51.32 51.47 51.86 52.66 51.19 45.09 48.45 54.56 46.78 32.53 33.33 42.00 46.45 46.08 44.76 45.16 45.06 44.14 45.58 44.91 42.19 38.66 41.41 41.69 44.90 43.66 42.60 39.97 39.78 34.43 28.41 33.28 37.62 39.53 37.09 38.46 37.19 33.34 28.94 27.67
51.66 51.32 51.52 51.34 49.77 49.91 50.88 51.22 51.31 51.61 52.16 51.82 45.70 40.57 45.11 46.93 41.70 40.05 41.11 42.93 42.86 46.92 46.23 46.44 44.82 45.92 43.40 41.72 43.04 40.16 40.91 44.33 43.07 42.04 44.35 43.04 36.87 32.16 28.70 32.19 35.01 31.81 35.88 36.80 33.92 25.75 27.25
51.11 50.88 50.80 49.39 49.17 49.46 50.91 50.95 51.27 51.20 51.40 51.97 47.70 41.37 43.71 38.04 41.06 44.33 43.86 43.87 42.34 42.00 45.81 45.97 43.77 44.26 42.16 37.77 39.55 38.97 41.47 41.48 42.43 43.47 42.39 39.92 33.34 34.47 34.59 35.70 35.33 34.11 34.20 35.59 34.20 33.19 29.13
50.72 50.62 49.23 48.63 49.28 50.46 50.76 50.61 50.96 50.96 51.07 49.82 47.79 43.64 43.38 38.55 42.53 43.17 42.77 43.39 43.09 43.69 44.31 42.68 42.38 43.73 42.87 39.84 40.79 39.30 40.58 38.78 37.33 41.40 40.16 40.01 31.14 31.31 31.80 35.65 35.31 31.89 34.12 33.79 33.62 34.20 34.46
50.57 50.20 48.51 48.50 49.95 51.23 50.54 50.15 50.26 50.62 51.83 48.15 49.56 49.86 45.36 40.34 39.66 40.40 41.11 44.19 44.39 45.38 45.13 45.85 44.66 41.66 38.27 41.66 43.02 42.81 42.61 42.92 42.54 40.31 38.59 35.40 30.69 26.99 24.37 31.13 30.43 24.33 31.88 35.14 35.37 36.03 35.27
50.36 50.63 49.48 50.43 51.17 51.26 50.26 49.71 49.91 50.92 51.87 53.64 52.46 48.86 42.83 35.80 37.52 40.53 45.32 45.40 44.93 44.76 43.23 44.70 44.66 41.56 44.50 45.18 42.68 41.68 40.25 41.56 42.74 41.96 41.17 33.27 29.33 24.64 21.64 23.42 16.93 32.34 37.72 38.35 36.23 36.85 37.92
50.14 50.73 51.20 51.24 51.03 50.45 49.87 49.71 49.66 50.78 52.47 54.25 53.26 48.73 42.15 32.96 41.55 43.49 44.81 44.30 44.83 45.07 43.76 44.37 45.75 45.60 46.20 39.92 33.54 32.45 29.78 31.61 34.54 40.27 38.77 37.98 28.97 25.63 20.27 22.19 27.44 32.62 37.17 35.84 34.64 33.66 39.09
50.10 50.55 50.79 50.53 49.97 49.72 49.58 49.63 49.60 50.72 52.72 54.56 53.52 49.56 45.11 41.41 41.21 46.51 44.03 43.92 40.23 39.37 40.67 43.42 47.92 47.07 42.66 31.57 29.11 24.82 24.14 29.05 30.23 34.81 38.76 35.62 30.45 25.85 24.01 15.91 15.32 29.69 37.77 40.78 38.96 29.02 39.99
49.95 50.15 50.16 50.16 50.40 49.68 49.59 49.61 49.73 50.22 52.53 52.72 51.29 51.82 48.47 42.00 45.35 46.25 42.65 42.44 43.54 40.86 38.91 42.11 43.62 40.83 40.63 27.41 23.17 24.90 28.32 33.36 28.67 27.36 26.41 26.50 22.99 20.80 14.46 15.56 25.30 33.80 40.09 40.79 28.86 29.21 40.04
49.65 49.69 49.51 49.34 50.26 49.40 49.40 49.61 49.72 49.92 51.29 52.01 51.20 51.99 49.38 42.52 45.82 49.05 48.80 45.30 44.70 42.94 37.72 41.94 39.84 38.34 32.18 29.20 25.98 26.68 26.44 30.21 29.83 32.96 31.59 29.62 27.23 23.02 24.24 17.91 22.17 38.31 38.47 33.71 36.70 37.58 41.65
49.33 49.40 49.43 49.02 48.89 50.38 49.08 49.59 49.85 49.99 50.59 52.19 50.94 53.14 52.23 47.38 46.95 49.89 50.19 50.22 49.16 47.68 44.73 41.91 41.57 40.01 39.26 32.47 29.09 32.10 29.96 32.83 28.50 26.92 35.53 29.15 31.38 29.33 30.45 30.28 36.92 39.03 38.80 40.22 41.18 41.02 40.96

GFSGBSN_sfc_wetblb_018.txt.gz
Wetbulb
59.87 59.51 58.92 58.45 58.18 57.72 57.11 57.45 57.29 55.99 55.92 55.88 55.43 55.24 55.04 55.00 55.42 55.87 55.48 55.33 54.71 54.72 54.49 54.40 53.89 53.21 50.50 48.65 48.43 56.50 63.10 62.90 56.70 52.10 50.11 48.64 46.95 45.94 43.71 44.23 43.74 42.57 43.44 43.01 43.08 43.66 41.59
59.45 59.17 58.66 58.17 57.78 57.34 56.86 57.32 57.27 55.80 55.54 55.42 55.38 54.74 54.63 54.85 55.04 55.27 55.08 55.20 54.61 54.17 54.03 53.53 52.94 53.40 47.96 43.11 51.78 57.36 58.28 55.02 53.15 51.52 50.07 49.64 48.80 49.86 47.56 44.25 43.14 44.46 41.78 41.59 43.07 41.39 40.54
59.68 59.10 58.18 57.37 57.02 56.92 57.02 56.90 56.76 55.81 55.53 54.96 54.76 54.28 54.21 54.64 54.92 55.05 55.49 55.08 54.13 53.86 53.46 52.79 52.84 52.09 50.17 48.49 52.38 53.30 56.48 53.30 53.21 52.52 50.34 51.07 50.44 48.11 47.27 44.50 45.72 42.64 39.33 40.22 40.97 40.47 40.59
59.31 59.08 58.18 57.04 56.55 56.32 56.40 56.46 56.24 55.30 55.19 54.85 54.81 54.23 53.86 54.43 54.86 54.82 54.53 53.91 53.67 53.63 52.83 52.70 53.72 50.63 46.42 54.31 54.21 54.46 50.78 49.52 53.60 53.50 51.80 51.87 53.40 50.25 47.71 45.28 43.04 40.25 38.76 34.84 39.33 41.00 40.61
58.82 58.74 58.10 57.17 56.38 56.19 56.15 56.05 55.55 55.08 54.83 54.50 54.38 53.80 53.82 54.62 54.87 54.29 53.68 53.45 53.16 52.46 52.91 53.39 49.76 50.03 45.85 54.84 51.89 51.27 50.26 49.46 50.93 52.19 51.96 52.48 50.76 45.62 43.62 39.72 36.52 37.51 32.80 34.59 37.39 41.13 40.37
58.91 58.38 57.53 57.02 56.56 56.52 56.38 55.87 55.51 54.68 54.21 54.00 53.65 53.70 54.89 54.69 54.71 53.86 52.75 52.64 52.91 53.19 53.04 53.62 52.95 46.21 49.12 46.63 51.99 49.81 50.42 50.51 49.73 50.69 49.58 48.12 44.28 41.28 40.14 37.29 32.26 33.11 34.01 32.37 34.41 38.28 39.63
58.69 58.19 57.47 56.88 56.63 56.62 56.65 56.15 55.63 54.41 53.88 54.27 55.26 55.27 55.08 54.66 54.61 53.45 52.06 50.35 46.36 45.48 49.57 43.89 44.68 44.55 47.97 51.11 48.97 47.50 49.27 49.49 48.88 47.71 42.30 44.00 40.36 37.06 38.62 39.14 38.89 38.59 36.38 35.00 34.59 39.33 39.17
57.91 57.49 57.33 56.94 56.79 56.63 56.68 56.11 55.89 55.02 55.15 55.16 54.84 54.76 54.78 54.74 54.39 53.68 49.88 49.40 48.80 52.30 46.10 50.68 50.70 49.93 52.21 50.96 45.48 47.06 50.00 46.13 45.54 41.48 42.92 40.71 37.28 41.10 43.64 42.82 40.94 39.07 37.09 35.80 37.84 40.98 40.27
57.01 56.59 56.74 56.87 56.81 56.69 56.33 55.91 56.01 55.09 54.86 54.27 54.31 54.31 54.61 54.46 54.23 53.30 50.38 50.40 55.45 53.36 45.66 46.42 50.23 48.37 49.31 49.75 45.02 45.75 48.05 46.26 42.92 41.10 40.32 38.40 40.03 44.07 42.86 40.79 40.68 39.15 37.27 35.64 36.56 39.42 39.61
56.40 55.73 55.84 56.34 56.30 56.24 55.54 55.65 55.97 55.14 54.27 53.88 53.85 53.84 53.67 53.41 50.73 50.35 49.48 53.37 57.07 51.26 36.85 41.37 44.48 47.12 48.97 47.90 43.73 47.96 48.15 46.44 43.84 40.37 41.42 41.53 43.84 42.22 40.73 40.32 40.00 36.34 40.91 39.87 37.78 35.74 32.17
56.04 55.33 55.10 55.37 55.49 54.74 54.17 54.80 55.04 54.64 54.05 53.62 53.60 53.66 53.16 53.31 49.08 52.36 54.79 58.49 55.53 48.99 24.77 41.49 44.40 50.42 47.46 46.43 44.14 44.56 49.31 46.42 41.19 41.31 41.63 38.94 40.31 40.64 39.93 39.38 41.42 38.89 42.17 40.09 37.69 34.69 32.97
55.59 55.14 54.88 54.62 54.41 53.86 53.41 53.89 53.63 53.42 53.33 53.42 53.44 53.58 52.75 51.83 49.35 52.46 56.18 50.79 48.34 36.98 26.75 39.86 44.76 43.13 43.55 44.68 44.16 45.32 47.03 48.58 46.16 43.25 42.40 40.49 42.72 41.69 40.07 42.81 42.14 42.65 41.00 39.41 37.52 34.67 28.47
55.08 54.61 54.49 54.17 53.80 53.18 53.29 53.56 53.26 53.03 52.84 53.12 53.12 53.74 52.77 54.29 53.24 57.24 52.73 46.26 35.30 29.85 41.69 38.25 40.02 42.62 41.82 41.33 42.97 43.03 41.73 40.22 38.49 36.00 35.59 39.86 39.92 41.77 43.07 40.20 41.47 40.66 36.27 28.27 27.78 26.75 26.80
54.78 54.19 53.92 53.72 53.35 52.81 53.19 53.38 52.99 52.42 52.45 52.93 52.72 52.68 52.44 53.48 54.94 54.99 46.94 40.02 30.12 38.76 38.30 41.80 41.59 41.86 39.81 41.47 41.09 41.43 39.68 37.54 40.58 39.22 35.72 33.05 31.22 38.60 42.22 39.23 37.35 36.44 36.40 28.72 27.10 24.66 26.92
54.68 53.88 53.54 53.27 52.94 52.80 53.19 53.09 52.62 51.89 52.11 52.63 52.42 50.18 52.40 56.35 54.76 51.01 42.87 31.16 34.29 38.68 41.34 41.35 41.53 38.78 37.99 40.99 40.79 39.87 37.17 36.83 38.80 39.23 36.58 33.86 33.79 40.51 41.02 41.33 41.14 36.85 32.46 36.97 30.44 28.02 25.68
54.60 53.64 53.05 52.66 52.22 52.60 52.77 52.63 52.18 52.01 52.13 52.46 50.71 51.18 50.65 55.29 53.45 49.38 39.27 35.83 41.08 45.37 43.17 42.64 37.33 39.49 36.04 38.07 38.19 37.82 37.49 40.43 39.82 41.60 41.10 38.82 33.20 38.62 40.69 42.26 41.95 38.53 40.30 31.32 28.98 23.14 23.43
54.01 53.29 52.69 52.22 52.06 52.22 52.43 52.15 51.65 52.01 52.19 52.59 47.81 43.55 47.25 54.15 48.20 43.14 34.32 37.43 44.74 47.62 45.73 42.37 39.99 38.84 39.14 38.02 38.70 37.44 37.85 40.73 42.56 42.64 41.85 38.66 35.78 34.71 38.69 36.86 35.14 36.91 34.19 33.37 32.72 27.71 22.51
53.09 52.37 51.91 51.92 52.01 52.22 51.94 51.86 51.84 51.87 51.82 51.34 43.72 38.27 50.24 46.74 39.53 38.34 38.82 44.22 46.23 43.82 46.27 45.37 44.22 41.99 39.72 40.33 39.13 38.63 38.45 39.95 42.91 43.15 38.08 38.90 35.17 29.57 33.44 39.16 40.53 37.56 34.86 33.58 25.47 27.02 25.50
52.44 51.85 51.63 51.72 51.91 51.65 51.43 51.46 51.63 51.71 52.71 49.90 43.85 47.86 53.20 46.05 32.61 32.22 40.10 44.05 45.28 43.25 43.47 43.63 42.65 43.85 43.71 40.53 37.43 39.68 40.13 43.18 41.74 40.89 39.20 39.13 33.67 28.40 31.73 35.63 37.62 35.49 36.58 34.56 31.56 28.95 27.70
51.63 51.36 51.47 51.68 51.80 51.19 51.26 51.28 51.41 51.57 52.68 49.94 46.11 41.51 45.08 43.69 39.93 39.01 39.10 40.68 41.44 45.21 44.27 44.90 43.65 44.15 42.10 40.27 41.55 38.92 39.27 42.48 41.66 40.95 43.92 42.05 34.93 31.36 28.03 30.38 33.32 32.06 35.22 34.55 32.71 24.62 26.35
51.05 51.11 51.03 51.34 50.55 49.95 50.56 51.13 51.41 51.27 51.87 51.26 44.12 41.56 43.94 38.77 40.12 38.72 40.69 42.11 40.99 40.56 44.36 44.54 42.29 42.41 41.20 36.99 37.95 37.29 40.05 39.74 41.12 42.98 41.32 38.31 32.54 32.63 32.68 34.07 33.58 32.24 32.86 34.28 32.52 31.65 28.84
50.84 50.58 50.39 49.94 49.28 48.87 50.61 51.00 50.93 51.09 51.49 48.77 46.50 41.55 40.00 38.75 43.50 42.86 40.07 41.42 41.65 41.95 42.51 40.97 41.22 41.98 41.13 39.05 39.72 38.12 39.45 37.34 35.55 40.08 38.43 38.18 30.50 30.29 31.22 33.73 33.37 31.50 33.29 32.95 33.15 33.01 32.78
50.73 49.71 48.85 48.67 48.73 50.10 50.95 50.58 50.62 50.95 51.06 47.13 47.96 47.41 43.27 37.91 39.07 39.94 39.91 42.86 43.22 43.81 43.64 44.07 43.47 40.59 37.81 40.44 41.72 41.17 41.17 40.84 40.54 39.10 36.51 33.82 30.26 26.89 23.65 29.16 27.92 24.48 30.82 32.71 32.54 33.46 33.55
50.05 48.58 48.66 48.66 50.01 50.94 50.34 50.10 50.18 50.79 51.20 50.49 50.04 47.64 41.59 33.27 36.34 40.49 43.30 44.24 43.31 43.04 42.20 42.98 43.19 40.11 42.12 43.30 41.85 41.08 39.51 40.75 41.47 40.23 38.97 31.61 28.62 23.65 20.78 22.64 16.63 31.49 35.76 35.34 34.66 35.31 35.81
49.73 48.50 49.24 50.88 50.89 50.40 49.86 49.52 49.94 50.27 51.16 51.33 51.07 47.78 41.47 30.39 36.64 40.27 42.93 43.05 43.46 43.81 42.52 42.97 44.43 43.78 43.88 39.07 34.09 33.33 30.01 32.16 33.34 37.83 35.18 35.13 28.05 23.41 19.59 20.99 27.30 31.92 34.34 34.70 33.70 33.52 38.12
49.84 50.50 50.77 50.43 49.81 49.40 49.44 49.31 49.62 50.21 51.49 53.14 50.96 47.80 45.24 39.01 38.77 44.25 42.74 42.32 39.22 38.32 39.09 41.71 45.93 44.51 40.41 30.27 28.62 25.68 25.93 30.23 29.23 33.58 36.90 33.45 29.86 25.37 18.04 16.20 15.10 29.63 34.78 38.50 37.58 28.90 37.75
49.82 50.07 50.13 50.10 49.44 49.40 49.33 49.25 49.92 50.72 51.87 53.16 50.36 49.83 47.02 41.71 44.08 44.44 41.55 41.55 42.10 39.72 38.14 41.05 42.02 39.51 39.12 26.50 22.93 23.61 25.89 31.53 27.81 26.95 26.65 26.49 24.58 20.28 13.42 15.34 24.51 33.04 38.16 39.30 28.36 30.19 37.89
49.57 49.59 49.55 49.85 49.24 49.23 49.25 49.23 49.86 51.37 51.44 54.24 50.67 51.71 47.67 42.32 44.92 47.86 47.48 43.49 43.10 41.29 37.25 40.97 39.48 37.95 31.71 29.25 26.44 26.17 23.44 29.38 29.58 31.71 31.11 29.62 27.58 21.66 21.64 14.66 21.57 36.52 38.58 33.03 36.17 36.13 39.51
49.11 49.11 49.53 49.64 48.79 47.32 47.07 48.12 49.31 50.82 51.46 54.03 52.02 52.98 50.59 46.90 46.06 49.11 49.58 49.09 47.98 45.94 43.10 40.77 41.25 39.45 38.84 31.72 26.30 26.78 29.31 28.97 27.86 26.10 34.01 28.91 31.23 27.97 29.10 29.27 35.47 37.39 37.82 39.20 39.11 38.76 40.08

GFSGBSN_sfc_wetblb_021.txt.gz
Wetbulb
60.49 60.29 59.64 59.08 58.85 58.38 58.03 57.85 57.35 56.93 55.67 55.45 55.69 55.71 55.74 55.47 55.13 55.36 54.76 55.09 55.15 54.94 54.56 54.09 53.72 53.10 51.43 49.38 50.11 59.16 62.70 62.32 58.87 52.56 51.99 50.59 49.17 48.44 46.97 47.76 46.98 45.02 46.51 45.17 45.93 46.55 49.35
60.10 59.66 59.23 58.97 58.66 58.44 58.12 57.65 57.00 56.84 56.33 55.30 55.37 54.99 55.17 54.64 54.73 54.64 54.88 54.30 54.99 54.53 54.10 53.52 52.89 52.97 48.64 44.97 54.38 59.81 58.74 56.70 54.68 52.71 51.33 51.25 50.07 50.77 49.12 46.91 46.58 47.68 45.13 44.68 44.51 44.43 45.17
60.46 59.85 59.13 58.38 58.22 57.86 57.73 56.75 56.64 56.69 56.49 55.08 55.42 54.81 54.80 54.16 54.82 54.79 54.40 54.55 54.44 53.85 53.45 52.78 52.49 51.83 49.92 49.58 54.75 57.74 57.12 55.63 54.28 53.82 51.12 52.07 52.71 51.28 50.46 47.05 47.55 44.81 43.66 44.22 44.62 45.09 45.14
60.28 59.79 59.37 58.32 57.45 56.89 56.36 56.17 56.37 56.41 56.23 55.35 55.15 54.49 54.13 53.70 54.25 54.63 54.16 54.11 54.02 53.80 53.00 52.23 53.30 51.19 48.10 55.67 56.38 54.52 54.84 53.42 54.93 55.05 53.67 54.60 53.76 51.37 50.09 48.38 45.75 43.26 43.39 40.68 44.11 45.48 44.59
60.03 59.64 59.11 58.30 57.27 56.52 56.09 55.87 56.03 56.21 55.96 55.23 54.58 54.33 53.65 53.28 53.76 53.90 53.89 53.55 53.36 52.65 52.27 53.14 50.85 50.09 48.07 56.29 52.94 54.02 52.49 51.68 52.89 53.68 54.31 54.16 53.90 49.88 46.85 43.82 42.08 42.23 39.05 39.92 42.19 45.45 45.13
59.94 59.26 58.78 58.08 57.19 56.56 56.26 56.09 55.69 55.40 55.02 54.80 54.02 53.75 53.30 54.33 54.41 53.76 52.72 52.83 52.70 53.01 52.70 53.14 52.71 48.16 50.78 49.26 53.58 51.38 53.87 53.37 52.77 51.56 50.72 50.01 47.50 45.07 43.34 42.39 37.51 39.19 39.00 39.94 40.88 43.47 45.57
57.21 59.29 58.55 57.96 57.35 56.99 56.75 56.58 55.93 55.22 54.72 54.45 53.90 54.55 54.94 54.62 54.52 53.12 51.57 50.99 48.32 47.87 50.30 46.87 47.54 46.63 47.79 52.38 51.87 50.42 52.58 53.52 53.05 50.52 46.20 46.67 44.20 41.74 43.72 43.04 42.01 41.43 40.70 40.21 41.14 43.32 44.50
55.54 58.63 58.41 57.82 57.34 57.05 57.08 56.61 55.85 55.14 54.86 54.68 55.19 54.82 54.62 54.76 54.50 52.71 52.20 48.78 49.93 53.83 49.11 51.11 50.78 50.59 51.62 52.95 48.87 49.72 54.12 50.81 50.26 45.11 46.21 45.50 42.50 44.78 46.18 44.90 43.49 42.32 40.95 39.93 42.10 44.23 44.90
54.49 55.32 57.86 57.73 57.24 56.87 56.77 56.61 55.73 55.00 55.18 54.92 54.60 54.31 54.37 54.36 54.02 52.36 50.30 51.29 55.89 56.92 49.18 48.15 50.72 49.44 49.92 51.43 47.20 48.77 51.96 50.17 46.32 44.46 43.86 42.94 44.17 46.22 44.86 43.68 43.25 41.91 41.53 40.70 41.15 43.44 44.46
54.27 53.51 56.90 57.03 56.91 56.58 56.36 56.04 55.55 55.30 55.16 54.27 53.84 53.83 53.71 53.47 51.17 50.95 49.92 54.87 55.06 55.65 40.12 42.81 46.28 49.11 49.99 49.82 46.96 50.46 51.49 49.85 46.76 43.03 44.63 44.59 46.13 44.02 43.71 42.87 43.36 40.82 43.95 42.45 41.83 41.45 38.81
53.96 52.97 54.74 56.26 55.98 55.51 55.16 55.12 54.90 55.20 54.80 54.07 53.38 53.69 53.20 53.59 50.96 51.64 55.47 59.63 56.07 51.73 29.79 43.46 46.19 51.94 49.70 47.44 46.71 47.89 51.65 49.31 44.47 43.87 45.25 43.03 44.15 43.13 42.99 43.11 44.85 42.43 44.25 43.22 41.35 40.12 39.85
53.47 53.22 53.71 55.65 55.24 54.78 54.51 54.02 53.82 54.17 54.01 53.58 53.26 53.55 53.21 52.53 50.87 52.95 56.78 54.54 51.42 40.11 31.35 41.96 46.60 45.26 46.11 46.69 46.87 48.15 49.44 50.47 48.86 45.21 45.23 43.73 46.53 45.49 44.77 44.77 44.76 45.43 44.13 43.02 41.56 40.30 35.29
52.37 52.99 52.38 55.22 54.69 54.25 54.13 53.61 53.17 53.42 53.30 53.19 53.14 53.61 52.81 53.71 52.14 58.85 54.73 48.88 38.83 33.41 43.50 40.42 42.43 44.99 44.38 43.98 44.64 45.06 43.84 43.62 42.87 40.17 39.62 42.47 42.85 44.83 45.98 44.33 44.92 44.63 42.03 35.89 34.83 34.94 33.37
51.58 52.88 52.30 54.60 54.27 53.90 53.51 53.08 52.80 52.90 52.91 52.65 52.60 52.12 52.45 53.36 54.77 54.21 49.16 43.19 34.49 39.43 39.96 43.90 43.27 43.57 42.01 43.98 43.29 43.13 42.39 41.03 43.44 42.46 39.38 37.19 36.12 42.06 44.93 43.87 42.08 41.04 41.90 36.91 29.47 30.95 34.11
51.14 52.63 52.56 53.86 54.13 53.60 53.06 52.69 52.68 52.71 52.12 52.34 52.39 51.70 51.08 55.04 54.81 52.77 45.49 35.49 36.13 39.11 42.89 42.35 43.31 40.96 41.59 43.47 42.68 42.27 40.63 40.41 42.07 43.04 40.24 37.98 37.11 43.98 44.02 45.23 45.15 40.62 38.17 41.17 34.45 31.25 32.42
50.95 52.18 52.38 53.73 53.66 52.98 52.53 52.41 52.73 52.49 52.13 52.23 50.24 49.62 51.57 57.04 55.88 49.34 42.03 37.00 40.84 45.32 45.06 43.91 39.72 41.95 39.18 41.40 40.91 40.83 41.17 43.38 42.85 44.60 45.02 41.74 37.11 41.72 43.74 45.38 44.69 43.42 42.76 36.90 35.95 28.77 27.36
50.63 51.58 51.39 53.62 52.86 52.30 52.16 52.29 52.35 52.03 52.12 52.31 49.74 47.43 50.35 54.69 50.49 44.96 37.72 38.32 45.07 48.59 46.87 44.01 41.88 40.96 41.32 40.72 41.25 40.30 40.34 43.49 44.97 44.76 45.25 42.01 41.06 39.55 42.16 40.80 40.50 40.90 38.59 36.96 37.11 33.71 29.53
50.16 50.61 49.76 53.02 52.27 51.95 51.87 52.30 52.24 51.87 51.84 51.27 45.60 40.76 51.88 49.16 42.01 40.15 39.64 42.89 46.56 46.32 47.99 47.07 45.52 44.07 42.06 42.55 41.53 40.74 40.78 42.95 44.99 46.07 42.60 42.37 39.46 36.18 38.10 42.63 44.10 42.51 39.60 38.80 34.10 31.03 30.79
49.73 50.09 49.75 52.45 51.81 51.68 51.63 52.13 51.57 51.58 52.50 49.53 43.33 49.08 54.04 48.30 36.71 36.59 42.14 45.24 46.97 45.04 45.41 45.97 45.16 45.86 45.94 42.72 39.91 42.03 42.48 45.23 44.55 44.43 42.67 42.72 38.29 34.07 36.40 39.90 41.94 40.51 39.89 36.97 35.54 34.68 31.72
49.45 49.89 49.97 52.39 51.64 51.42 51.62 51.56 51.33 51.44 52.56 50.44 47.61 43.58 47.40 43.51 42.00 41.01 41.39 42.94 43.38 46.53 46.10 46.15 44.92 45.90 44.35 42.73 43.17 40.77 41.78 44.73 44.69 44.27 43.88 44.07 37.86 36.87 33.65 35.67 38.09 36.90 38.17 37.32 37.60 33.16 32.17
49.27 49.53 50.36 51.47 51.29 51.35 51.58 51.34 51.27 51.33 51.87 50.09 45.61 43.38 46.62 40.36 39.49 40.52 42.47 43.38 42.65 42.69 46.43 46.47 44.76 44.80 43.02 39.78 40.70 39.91 42.36 42.09 43.65 44.19 43.73 42.45 37.26 37.00 36.10 36.66 37.00 36.65 37.03 36.93 36.05 36.31 35.19
49.93 50.17 50.92 50.91 51.08 51.03 51.16 50.96 50.91 51.14 51.76 49.29 44.05 42.44 41.43 41.14 43.03 41.20 40.55 42.59 42.53 43.99 44.67 43.87 43.41 44.25 44.90 41.27 42.22 40.25 41.82 40.39 39.42 43.07 41.89 40.40 35.91 35.74 34.29 35.92 35.48 35.30 36.50 36.76 37.16 36.68 36.45
50.15 50.80 50.53 50.43 50.08 49.72 50.45 50.63 50.60 51.12 51.67 48.50 49.19 47.01 44.26 37.74 41.81 39.17 39.55 42.18 43.48 45.29 45.28 45.48 45.19 43.26 41.63 44.33 44.74 43.22 43.15 42.81 42.76 42.15 39.07 37.69 35.07 32.68 29.97 31.69 32.08 29.86 34.82 36.73 36.60 37.85 39.27
50.67 50.56 50.11 49.92 49.27 49.16 50.47 50.41 50.44 51.36 50.89 51.16 50.35 46.76 41.95 34.59 38.91 39.86 43.09 44.82 43.81 44.74 43.87 44.68 45.12 43.46 44.24 45.98 44.66 44.51 42.64 42.32 42.17 39.83 40.25 34.90 32.20 29.10 30.08 27.81 26.50 36.60 39.48 38.78 37.45 38.41 39.04
49.74 49.55 49.46 49.28 48.54 50.55 50.12 49.92 50.08 51.07 51.51 52.21 51.50 47.75 41.86 33.56 38.47 40.99 43.39 43.53 44.26 44.79 44.02 44.53 45.26 44.81 45.51 42.75 38.53 36.30 34.93 35.49 36.38 37.64 36.55 37.25 32.81 27.60 30.09 28.11 31.54 36.02 35.68 36.95 36.69 38.19 40.83
49.01 48.92 49.14 49.23 50.09 49.69 49.45 49.63 49.92 50.73 51.61 53.11 51.55 49.09 45.78 38.71 38.17 44.00 43.46 43.78 41.01 40.66 41.70 43.13 46.02 45.80 42.02 35.08 34.39 31.98 31.71 34.76 33.05 36.11 38.38 35.19 34.01 33.85 26.79 27.58 25.57 34.85 37.50 41.76 41.53 34.68 41.55
49.36 49.87 50.24 49.97 49.33 49.19 49.22 49.36 49.88 50.23 51.37 53.20 51.88 50.27 48.57 43.11 46.03 45.69 43.27 42.99 43.61 42.04 40.51 41.65 43.03 43.12 42.68 33.22 32.36 32.43 32.85 33.98 31.78 29.80 30.09 32.41 30.77 30.51 23.31 29.50 31.08 36.58 39.89 42.19 33.62 36.26 40.11
49.47 49.42 49.36 49.12 49.05 49.17 49.06 49.43 49.75 50.06 51.37 53.38 51.59 52.41 50.01 44.09 47.18 49.71 47.73 44.04 43.93 44.03 40.77 42.82 42.36 41.57 36.60 34.58 34.52 32.36 33.14 33.68 33.05 34.59 33.72 32.92 31.20 29.84 25.36 26.43 28.04 38.78 41.07 37.88 41.97 41.72 41.96
48.91 48.95 48.69 47.19 47.05 48.06 49.03 49.64 49.56 50.19 50.78 52.74 51.83 53.17 50.78 48.49 47.54 50.22 50.85 51.28 50.90 48.11 44.80 42.96 44.30 41.65 41.82 36.74 33.31 32.32 32.49 31.76 31.55 32.55 36.10 32.68 35.92 34.76 33.59 35.07 40.03 40.47 42.78 43.92 42.54 42.23 43.55

GFSGBSN_sfc_wetblb_024.txt.gz
Wetbulb
61.59 61.25 60.53 59.86 59.43 59.16 59.15 58.69 57.98 57.25 57.02 56.18 55.87 56.16 56.24 55.79 55.61 55.71 55.32 55.01 55.36 55.56 55.00 54.30 53.98 53.67 54.68 53.13 52.39 61.97 62.62 61.92 59.21 56.52 54.92 53.49 51.60 50.78 47.40 49.56 50.83 48.89 49.77 50.04 49.76 53.89 56.39
61.14 60.57 60.20 59.74 59.26 59.22 59.19 58.55 57.94 57.11 56.88 56.60 55.84 55.25 55.88 55.32 54.84 55.26 55.33 54.98 54.80 55.11 54.62 54.07 53.32 53.30 53.35 48.73 57.52 62.04 62.10 58.83 57.23 55.66 56.24 55.16 52.20 52.96 50.71 50.92 49.98 50.64 50.21 48.41 47.98 51.33 54.89
57.85 60.60 59.92 59.26 58.80 58.85 58.77 58.10 57.55 56.91 56.80 56.75 56.06 55.36 55.27 55.33 54.29 54.91 55.08 54.90 54.78 54.66 54.03 53.38 52.97 53.61 52.61 53.03 58.02 62.02 59.67 58.25 57.90 56.39 55.34 56.78 55.39 52.24 52.56 50.77 51.39 49.10 46.44 47.88 47.28 49.63 50.61
57.70 59.70 60.14 58.99 58.33 57.67 57.48 57.22 56.82 56.74 56.68 56.64 56.20 55.28 54.42 54.45 53.72 54.31 54.65 54.20 54.24 53.70 52.99 52.61 53.19 53.19 52.26 58.33 59.87 58.25 58.66 57.31 58.75 58.14 56.82 57.07 56.92 53.93 52.20 51.18 47.80 46.31 47.12 43.51 47.21 48.89 47.55
57.69 57.43 60.14 59.21 58.08 57.54 57.08 56.64 56.30 56.46 56.46 56.27 55.55 54.84 53.98 53.82 53.45 53.94 54.10 54.00 53.61 52.84 52.76 53.33 53.61 53.09 51.16 59.13 55.12 56.30 58.26 53.94 56.50 57.15 56.85 56.01 55.15 52.21 50.84 48.26 44.71 45.38 41.95 43.16 44.91 49.53 48.26
57.42 57.25 59.32 59.26 58.27 57.52 56.98 56.60 55.97 55.85 55.95 55.67 54.96 54.30 53.82 53.72 53.98 54.20 53.24 53.28 52.97 53.20 53.74 54.68 55.40 52.17 55.76 51.79 55.77 55.14 55.61 56.61 54.89 54.57 52.45 52.16 51.69 49.63 48.28 46.44 40.29 42.06 42.85 43.67 43.47 47.86 47.78
56.71 56.87 57.61 59.37 58.55 57.95 57.66 57.13 55.97 55.54 55.48 55.28 54.78 54.21 54.35 54.96 54.54 53.07 52.83 54.37 53.09 51.92 53.39 51.95 50.82 51.37 50.83 54.43 56.17 53.31 55.21 55.10 54.64 52.65 49.32 50.62 47.61 45.02 46.17 47.19 46.50 45.64 44.76 43.36 45.65 48.58 49.10
55.18 55.61 56.10 58.43 58.63 58.20 57.94 57.30 56.11 55.44 55.38 55.12 54.27 55.06 55.10 54.92 54.68 52.90 54.49 53.81 54.92 57.83 51.59 55.29 53.88 52.89 54.49 54.82 51.19 52.38 56.32 51.68 51.33 47.33 49.22 47.97 44.67 47.80 48.93 47.18 46.81 46.17 44.58 44.72 45.81 47.94 49.21
54.18 55.00 55.27 55.96 58.69 57.96 57.72 57.26 56.11 55.44 55.16 55.06 55.04 54.88 54.68 54.48 53.35 52.29 53.55 55.05 60.99 59.93 53.41 51.94 54.47 52.05 51.61 53.85 50.44 50.69 53.99 52.51 49.79 48.01 47.83 46.37 47.77 48.65 47.93 47.53 46.49 46.41 45.47 45.06 44.94 47.43 49.48
53.43 53.80 54.74 54.94 56.96 57.71 57.05 56.87 56.03 55.48 54.84 54.71 54.60 53.90 53.89 53.32 51.52 55.70 53.72 57.94 59.51 59.72 46.80 46.22 49.69 52.49 52.69 53.02 49.02 53.43 54.73 52.43 50.10 47.06 48.72 47.80 48.68 48.48 48.18 46.38 47.68 44.39 47.00 47.18 46.35 45.99 42.51
52.68 53.18 53.88 53.71 54.97 56.51 55.89 55.75 55.69 55.24 54.86 54.74 54.09 53.80 53.46 53.45 56.84 54.38 59.06 61.73 63.23 58.24 34.63 47.44 48.96 54.65 52.95 49.61 50.02 51.17 54.61 52.81 48.21 47.48 48.19 46.15 46.82 47.06 46.62 46.04 47.59 45.73 48.31 48.18 46.75 46.68 45.05
51.85 52.60 53.12 53.55 53.63 55.66 55.34 55.02 54.76 54.51 54.47 54.41 53.78 53.67 53.52 53.25 56.14 58.92 60.82 61.48 59.18 46.00 34.35 44.44 49.31 48.38 48.96 49.41 49.34 51.81 52.21 54.26 52.49 48.94 49.57 48.03 50.11 49.49 48.49 48.58 48.67 49.43 47.92 47.28 47.20 46.19 39.77
51.25 51.83 52.52 53.38 52.97 54.80 55.10 54.78 54.13 53.70 53.78 53.82 53.34 53.73 53.74 57.48 55.33 62.80 63.39 57.31 44.47 38.71 46.14 43.33 45.26 48.04 47.79 46.47 47.62 49.41 48.85 48.40 46.69 43.94 44.55 46.97 46.73 48.93 50.12 47.60 49.48 48.86 46.77 40.42 38.32 38.56 37.18
50.62 51.13 52.00 52.64 52.79 53.86 54.76 54.39 53.46 53.09 53.29 53.40 52.61 52.92 53.43 57.76 61.06 60.50 57.84 49.87 38.64 42.59 43.91 47.06 46.86 47.53 45.25 47.09 46.90 47.45 47.66 46.08 48.09 47.71 45.45 42.65 40.19 45.86 48.27 48.05 46.00 46.87 46.16 40.21 31.53 34.47 38.64
50.28 51.04 51.34 51.92 52.47 53.49 54.39 54.03 53.09 52.58 52.67 52.45 52.55 52.72 53.59 57.84 58.63 58.32 52.55 42.73 42.09 44.58 47.58 45.82 46.47 43.99 44.42 46.38 46.77 47.11 46.65 46.49 47.07 48.31 44.02 42.53 41.14 47.47 47.56 48.99 48.38 45.02 43.07 46.59 40.47 37.08 38.04
50.08 50.48 50.26 50.81 52.18 52.41 53.71 53.46 52.69 52.66 52.41 52.27 53.89 52.65 54.66 60.80 61.30 56.35 48.79 43.06 45.82 49.40 48.41 48.12 42.67 45.11 42.56 44.78 44.82 45.96 46.02 47.03 46.48 48.34 49.77 46.27 40.88 45.70 46.91 48.88 48.66 47.20 48.06 41.31 42.80 33.01 31.57
49.73 50.00 50.24 50.19 51.67 51.85 53.12 53.13 52.47 52.44 52.14 52.53 54.65 50.38 58.63 63.06 60.54 53.87 44.83 46.63 47.25 52.41 50.88 47.26 45.16 44.50 45.50 44.70 45.28 44.92 45.38 46.78 48.25 47.94 49.53 48.10 45.53 43.41 46.07 45.35 44.86 44.53 43.94 42.87 43.58 40.83 34.77
49.07 49.20 49.50 50.08 51.29 51.83 52.95 52.66 52.14 52.15 52.06 51.87 53.84 47.44 59.01 58.96 50.50 50.79 46.66 48.26 48.64 50.35 51.82 49.52 49.91 48.17 46.59 46.97 45.78 44.95 44.90 46.77 49.60 49.86 46.73 47.66 46.78 42.01 43.48 46.64 47.86 47.02 45.01 44.28 38.90 36.30 39.02
48.35 48.87 49.26 49.99 50.65 50.07 52.67 52.15 52.01 51.77 52.11 53.26 50.08 53.40 57.59 54.48 45.71 46.38 47.96 48.33 50.90 49.13 49.74 49.78 48.48 49.49 49.61 47.69 44.35 46.70 47.03 47.44 47.69 48.62 47.92 48.01 45.02 39.63 40.27 43.90 46.15 44.64 45.43 44.27 42.93 42.33 37.85
47.98 48.46 48.99 49.87 50.22 48.69 52.35 51.80 51.64 51.65 52.21 56.28 52.34 48.12 53.06 52.14 51.13 48.63 46.75 47.08 47.15 50.56 49.85 50.37 49.27 50.49 49.12 46.83 48.14 45.88 46.39 46.85 47.39 47.97 43.94 47.38 45.49 43.33 39.65 41.02 44.62 41.83 43.35 43.94 43.27 38.39 38.67
47.73 48.33 48.70 49.35 48.08 48.27 51.80 51.63 51.52 51.61 51.77 54.76 53.45 50.23 53.18 45.73 45.88 48.62 49.18 48.36 46.34 46.86 50.23 51.23 48.80 49.57 48.55 45.18 45.82 45.58 47.27 45.35 46.95 45.35 48.19 48.21 43.03 43.00 42.08 41.96 42.04 42.29 42.74 43.07 41.62 42.69 38.84
48.04 48.32 48.67 48.64 48.21 47.93 51.41 51.45 51.30 51.41 51.85 53.94 50.57 50.26 50.73 50.00 48.80 47.61 45.43 47.24 46.46 48.04 49.33 48.35 48.88 49.51 50.01 47.29 47.91 46.10 47.63 46.67 46.17 47.43 47.54 46.15 42.69 41.70 39.49 40.87 40.72 39.79 42.60 43.21 43.70 43.68 42.85
48.15 48.43 48.47 48.95 48.79 50.63 51.40 50.94 50.78 50.98 52.35 54.40 55.99 53.35 53.35 44.31 47.25 46.53 46.00 47.21 47.63 51.04 48.72 50.01 51.39 49.87 48.37 48.54 50.16 51.17 49.97 49.58 48.61 47.67 46.21 44.71 42.79 39.72 36.37 37.61 38.11 35.65 40.90 42.82 43.12 44.78 44.08
48.13 48.34 48.65 49.26 49.76 51.19 50.83 50.60 50.45 51.00 51.76 58.15 58.09 55.46 51.64 44.74 46.19 45.43 46.83 48.58 49.27 51.00 49.46 48.80 51.17 50.37 48.67 51.99 51.94 51.00 49.55 48.22 47.77 45.81 46.68 42.60 41.60 38.76 37.31 33.82 31.90 41.06 43.66 43.40 43.45 44.66 45.89
47.59 48.87 48.50 49.47 50.79 50.26 50.33 50.15 50.26 50.79 51.23 58.25 58.61 56.11 51.95 40.88 47.48 46.40 47.36 48.36 49.96 49.97 48.81 49.60 49.01 50.39 52.53 49.96 46.92 42.95 43.32 42.75 43.00 43.13 43.36 44.44 41.75 35.36 36.73 34.93 38.48 40.40 40.76 40.41 40.32 41.40 46.25
48.41 49.53 50.37 49.75 49.31 49.18 49.76 49.89 50.23 50.66 51.47 57.85 59.03 58.31 56.25 48.26 46.12 49.29 48.19 49.74 48.56 49.07 48.11 46.26 48.54 50.98 48.54 47.70 45.28 40.43 38.39 40.94 38.88 40.83 42.82 41.35 42.12 41.50 35.03 35.37 33.54 40.62 42.20 45.52 45.43 38.55 45.10
49.45 49.55 49.40 48.91 49.11 49.53 49.49 49.63 50.05 50.31 51.43 57.84 57.46 57.25 57.16 52.39 50.76 51.70 48.78 48.68 51.71 50.55 48.83 46.77 46.80 46.89 47.93 45.65 43.25 42.80 40.96 40.95 38.02 36.19 35.49 38.62 38.18 37.37 36.12 36.62 38.73 43.05 43.11 46.09 36.55 39.26 47.00
48.80 48.81 49.06 49.37 49.42 49.11 49.11 49.35 49.69 50.08 51.03 57.52 57.01 57.82 58.00 52.93 51.52 53.06 52.19 50.52 49.96 51.99 48.85 48.15 47.98 47.26 46.46 44.72 44.65 42.40 41.70 40.99 39.66 40.81 39.44 39.05 38.24 37.25 34.96 34.92 33.25 43.90 44.67 41.09 46.09 48.58 47.77
49.10 48.98 48.87 48.80 48.73 48.82 48.89 49.09 49.53 50.19 51.25 55.04 55.49 56.91 58.69 55.71 52.97 55.44 54.66 54.88 54.48 54.95 52.83 50.56 51.14 49.43 50.58 47.33 44.74 43.17 38.39 36.54 40.68 39.40 41.71 38.40 42.82 42.32 41.04 42.16 44.69 46.43 47.74 49.38 48.63 47.86 48.80

GFSGBSN_sfc_wetblb_027.txt.gz
Wetbulb
58.54 58.46 61.36 60.86 60.16 59.75 59.85 59.51 58.67 57.82 57.53 57.30 56.99 56.57 55.67 56.00 56.08 56.26 55.65 55.21 55.65 55.89 55.63 54.81 54.59 54.30 55.00 54.72 54.99 63.84 63.30 61.95 59.56 58.30 55.77 52.64 51.54 51.40 48.68 49.87 50.47 49.98 50.93 52.22 53.99 55.49 54.49
57.34 58.26 59.10 60.53 60.03 59.78 59.80 59.53 58.72 57.93 57.32 57.10 56.76 56.62 55.93 56.20 55.71 55.32 55.41 55.08 55.20 55.59 54.90 54.33 54.12 53.35 54.81 50.48 58.91 62.17 61.30 58.96 57.89 57.80 55.05 54.32 52.62 53.21 50.83 49.61 49.87 51.97 51.76 50.43 51.30 54.26 56.02
57.44 57.88 57.92 59.64 59.55 59.36 59.25 58.62 58.29 57.97 57.41 57.06 56.88 56.43 55.73 55.34 55.67 54.78 54.84 55.08 55.08 55.41 54.08 53.79 53.29 55.14 54.34 54.81 59.79 62.50 60.26 58.50 57.95 57.46 55.10 56.59 56.25 53.39 53.34 50.84 53.35 51.31 48.07 48.27 49.35 52.93 51.87
57.01 57.31 57.74 57.86 59.14 58.54 58.35 58.13 57.85 57.77 57.17 56.82 56.92 56.27 55.02 54.89 54.71 54.18 54.55 54.85 54.71 53.87 53.51 52.89 53.08 56.20 52.98 59.77 61.12 59.55 60.94 58.84 59.95 59.07 57.79 58.45 58.04 54.99 53.29 53.99 50.96 48.39 48.96 45.15 49.00 51.55 53.47
56.11 56.96 57.75 57.16 58.71 58.30 57.76 57.64 57.52 57.38 57.17 56.66 56.63 55.73 54.61 54.10 53.81 53.69 54.49 54.18 53.32 53.02 52.99 53.56 55.07 55.81 53.24 58.44 56.20 58.33 59.03 55.57 57.68 58.37 58.03 57.32 56.28 53.50 53.40 49.48 46.65 47.03 42.78 44.29 45.47 50.76 50.58
55.63 56.06 56.79 57.32 57.67 58.35 58.04 57.46 56.83 56.65 56.37 56.19 56.23 55.26 54.47 53.99 53.67 54.04 53.91 53.26 53.22 52.82 54.34 57.49 57.43 54.10 57.57 53.39 56.84 56.21 58.59 58.17 56.62 56.36 54.90 54.35 53.00 50.03 50.51 47.72 40.19 42.03 43.19 44.81 44.75 48.57 50.90
54.79 55.60 55.99 57.00 57.22 58.98 58.68 57.96 56.79 56.13 55.79 55.91 55.89 55.10 54.38 54.36 54.73 54.02 52.79 56.18 54.62 53.99 55.58 53.70 53.51 53.28 52.95 56.10 57.68 55.48 56.46 55.93 56.43 54.45 50.02 52.47 47.76 45.36 47.65 48.72 47.90 46.88 45.38 43.99 47.14 50.07 47.84
53.55 54.53 55.21 56.17 56.51 58.04 59.06 58.41 56.83 55.84 55.77 55.66 55.50 54.63 55.12 55.38 54.95 53.29 54.73 55.08 57.73 59.64 53.79 56.16 55.00 54.26 55.75 55.99 51.92 53.68 56.44 52.84 52.14 48.39 51.26 49.04 45.03 49.94 50.14 48.59 47.84 46.53 44.65 45.31 47.27 48.98 49.08
52.83 53.46 54.35 55.17 55.92 55.95 58.55 58.37 56.75 55.74 55.64 55.30 55.12 55.12 55.40 54.83 53.81 53.07 55.76 56.60 62.85 62.05 54.73 53.54 54.82 53.86 53.39 54.88 51.49 52.34 54.70 53.06 50.09 48.30 48.65 45.17 48.55 50.23 48.80 47.01 46.11 46.51 45.24 45.56 45.37 48.52 49.38
52.18 52.35 53.51 54.36 55.19 55.39 56.44 57.75 56.95 55.94 55.18 54.79 54.77 54.97 54.06 53.21 51.61 57.53 55.55 59.37 60.66 60.75 49.71 48.04 50.35 53.51 54.22 54.38 50.18 54.81 55.52 52.97 50.55 47.99 48.96 47.91 51.27 48.89 48.05 46.99 47.97 44.30 49.04 48.25 46.88 46.23 42.20
51.74 52.03 52.41 53.59 54.09 54.25 54.77 56.53 56.59 56.11 55.32 54.73 54.43 54.41 53.44 53.12 59.49 55.79 61.21 63.06 64.02 62.00 37.00 48.98 50.80 56.88 54.49 51.17 51.12 51.85 56.32 53.11 48.35 47.54 49.88 46.60 48.59 48.85 47.47 47.78 49.76 46.84 49.72 48.94 48.55 47.05 46.17
51.13 51.45 51.97 52.84 53.44 53.63 53.61 55.28 55.48 55.34 54.83 54.51 54.27 54.00 53.46 53.89 56.42 61.04 63.28 64.76 62.73 47.39 36.64 45.78 50.59 49.09 49.50 50.55 49.46 52.73 52.08 54.21 53.61 49.82 50.10 49.10 51.87 51.49 50.63 50.56 50.59 50.91 49.28 48.58 48.77 46.68 40.62
50.08 50.89 51.34 52.14 52.51 53.38 53.34 54.93 54.96 54.85 54.34 54.28 53.96 53.82 54.18 57.99 56.37 62.93 64.56 60.39 46.49 40.12 48.06 44.66 46.21 48.84 48.21 47.31 47.97 49.11 48.74 47.73 45.56 43.45 44.23 48.08 48.34 50.83 51.63 48.53 50.57 49.64 46.95 40.68 38.76 39.24 38.30
48.84 50.12 50.82 51.38 52.12 52.89 53.26 54.27 54.40 54.25 53.78 53.70 53.10 52.99 54.47 58.12 61.43 63.24 62.23 52.36 40.52 44.78 45.85 48.20 48.07 47.99 45.53 47.85 47.41 47.80 47.34 45.56 48.59 48.42 44.36 43.30 41.42 48.55 51.15 49.46 47.27 47.74 46.96 41.12 33.47 35.31 39.00
47.03 47.78 49.98 50.97 51.73 52.43 52.85 53.82 54.19 53.45 53.03 53.04 52.62 54.53 54.42 57.60 59.77 61.37 56.31 44.77 44.07 45.47 48.62 46.30 47.16 44.52 45.03 47.31 46.96 47.31 46.91 45.80 48.04 49.31 44.29 43.67 42.68 49.51 49.75 50.91 49.72 47.08 43.88 48.77 43.11 42.25 38.82
47.28 47.43 49.23 50.15 51.21 51.88 52.48 53.14 53.85 53.28 52.64 52.41 53.91 52.88 54.30 60.51 60.95 58.67 51.99 44.31 47.83 50.04 50.14 48.78 43.69 46.05 43.66 45.85 44.90 45.82 46.38 49.16 48.68 50.87 52.47 47.67 42.37 47.44 48.68 50.47 50.51 48.68 49.92 42.25 43.12 34.11 33.36
46.32 47.34 48.82 49.52 50.35 51.22 51.99 52.59 53.53 53.10 52.41 52.29 55.00 50.68 58.37 61.79 60.27 53.42 46.80 47.53 49.57 51.78 51.87 48.39 46.32 45.23 46.22 45.46 45.93 45.77 46.48 49.52 50.90 50.66 52.09 49.45 46.71 45.63 47.75 46.41 45.62 46.81 45.09 45.31 45.41 43.94 36.76
45.79 46.75 48.71 49.33 49.68 50.21 51.73 52.18 53.10 52.68 52.08 51.69 53.71 47.28 60.29 63.28 49.36 51.73 48.35 50.30 49.96 51.12 54.03 50.49 50.37 48.54 47.08 47.60 45.88 45.69 46.05 48.57 52.47 52.10 47.77 50.16 47.40 43.23 45.22 49.47 50.32 49.44 47.24 47.08 40.70 38.92 41.42
45.68 47.73 48.24 49.15 49.36 49.71 50.85 51.77 52.38 52.12 52.01 53.45 50.97 53.42 60.83 59.60 46.56 49.37 51.33 50.13 51.49 51.00 51.40 50.21 48.44 50.36 50.23 47.82 44.88 46.91 47.56 50.85 51.48 51.50 48.97 50.65 45.50 40.74 42.35 46.42 48.62 45.67 46.99 47.10 45.82 44.57 40.02
45.55 47.01 48.38 49.08 49.07 49.63 50.88 51.39 51.70 51.94 52.43 56.25 52.63 47.94 53.42 55.28 54.55 51.17 49.06 48.23 47.97 52.70 51.67 51.74 49.68 52.08 50.33 48.54 50.23 47.58 48.19 49.40 50.89 51.33 45.42 48.86 47.11 44.16 40.31 43.21 46.68 44.25 45.50 46.54 45.12 39.89 40.38
46.82 47.55 48.16 48.57 49.37 49.96 49.79 50.60 51.49 51.70 52.04 54.99 53.73 50.30 52.71 47.11 50.89 52.23 50.83 49.29 47.32 47.75 52.15 53.03 50.62 50.37 49.29 46.72 48.12 47.62 50.02 48.32 49.64 46.09 49.44 50.29 44.45 46.26 46.31 45.84 45.32 44.92 44.42 45.33 43.84 44.13 41.38
46.05 47.18 47.65 48.45 48.68 49.43 49.67 49.19 51.34 51.58 51.84 51.55 50.88 51.36 53.33 51.64 52.42 50.44 47.72 48.25 47.26 49.64 50.68 49.67 49.16 50.08 50.62 48.19 48.91 47.09 50.06 49.35 48.45 50.37 50.04 50.30 44.11 45.29 42.89 45.80 44.67 42.98 44.89 44.81 44.97 44.77 44.26
46.94 47.31 47.58 48.09 48.63 49.04 48.92 49.11 49.53 51.30 51.78 50.74 55.99 57.26 54.46 49.66 51.57 48.63 49.51 48.92 48.65 52.02 52.06 53.14 51.94 51.11 50.30 51.37 53.93 54.28 54.16 53.33 52.21 50.38 49.20 48.13 45.52 42.20 37.72 41.59 41.71 37.06 42.88 44.65 45.29 46.34 45.84
46.86 47.11 47.75 47.95 48.48 48.49 47.63 47.94 47.21 51.17 52.51 56.52 55.77 57.13 50.52 47.87 50.34 48.39 49.50 50.30 49.64 51.94 50.72 52.21 54.23 52.44 53.19 55.93 55.25 54.13 52.55 51.29 50.68 49.87 51.73 46.83 45.64 43.25 38.97 36.08 30.82 42.55 46.37 45.40 44.51 46.02 47.19
46.31 46.93 47.76 48.18 48.50 48.17 47.69 47.88 48.14 50.74 51.20 57.69 59.71 57.03 53.58 45.08 49.76 48.73 49.07 49.61 51.14 53.29 52.47 52.50 52.26 54.87 56.32 54.29 48.72 44.71 45.25 44.36 45.20 46.70 46.59 48.49 45.30 39.12 37.96 36.63 40.59 42.37 43.74 42.94 42.13 42.46 47.08
46.52 47.21 47.61 48.18 48.33 48.14 47.84 47.93 50.22 50.66 50.95 55.56 60.40 61.40 57.21 52.17 49.09 50.48 48.90 50.28 49.89 51.16 50.62 49.09 53.46 56.04 53.95 52.25 48.17 41.40 39.42 42.86 41.77 43.89 46.25 44.74 46.45 42.52 37.72 34.92 31.89 42.71 44.83 47.26 46.94 39.51 46.77
46.60 46.87 47.13 47.79 48.41 48.39 48.75 49.95 50.08 50.31 50.83 54.71 60.75 61.66 56.87 51.36 52.38 52.36 49.38 49.27 52.89 52.82 51.13 49.72 50.09 49.89 52.32 50.01 44.01 44.33 42.58 45.47 40.40 39.18 37.28 40.69 41.17 38.83 38.41 37.53 41.19 46.00 46.00 47.76 38.10 41.39 48.54
46.22 45.74 47.66 48.10 48.63 49.40 49.65 49.73 49.85 50.17 50.79 54.24 60.57 61.94 58.87 54.43 53.98 54.89 54.43 52.04 52.27 53.49 50.54 51.86 50.18 50.60 50.08 45.96 47.34 46.18 44.41 44.77 43.47 44.66 42.26 40.91 40.31 37.96 40.73 35.09 33.23 46.93 46.65 41.71 47.61 49.40 49.23
45.43 46.69 47.64 48.49 48.65 49.07 49.35 49.40 49.46 49.81 50.58 52.59 58.55 61.82 63.52 57.48 55.08 58.62 57.83 57.93 57.36 57.40 55.50 53.43 52.52 52.18 52.58 49.64 49.93 50.15 41.76 40.69 44.66 40.22 46.36 41.19 45.56 44.41 43.48 43.62 47.98 48.74 47.73 49.73 50.30 49.13 49.45

GFSGBSN_sfc_wetblb_030.txt.gz
Wetbulb
57.47 57.97 58.36 58.92 61.04 60.53 60.58 60.05 59.32 58.65 57.99 57.90 57.65 57.39 56.89 56.61 56.34 56.24 55.52 54.99 55.51 55.75 55.66 55.35 55.02 54.83 54.54 54.23 54.53 63.14 63.62 62.10 58.92 56.13 55.60 54.00 50.18 49.84 47.44 49.36 50.10 48.53 50.14 51.71 52.95 55.64 54.93
56.69 57.20 57.46 58.15 58.75 60.76 60.67 59.91 59.37 58.50 57.98 57.69 57.33 57.05 56.88 56.41 56.10 56.27 55.67 55.11 54.91 55.55 55.79 54.86 54.63 54.16 54.16 49.90 58.94 62.96 60.96 58.66 56.35 56.22 55.94 53.67 51.42 52.33 50.41 49.37 48.61 50.11 51.06 51.24 51.20 54.21 54.44
55.70 56.88 57.16 57.75 57.77 59.63 60.20 59.28 58.86 58.46 58.20 57.79 57.27 56.86 56.58 56.20 55.59 55.50 54.61 55.05 54.49 55.57 54.89 54.19 54.02 54.24 53.52 52.89 60.44 61.94 59.73 56.55 57.28 56.80 53.91 55.37 55.02 52.78 52.45 50.20 51.74 51.60 48.23 49.84 49.24 52.72 52.98
55.29 56.46 56.92 56.92 57.19 57.56 58.75 58.72 58.49 58.49 58.23 57.75 57.35 56.70 55.93 55.26 54.90 54.65 54.25 54.57 55.16 55.04 54.56 53.61 53.54 55.46 51.97 60.02 60.89 59.61 60.82 59.05 59.31 58.15 56.96 57.98 57.88 54.44 52.65 54.11 51.33 48.56 48.35 43.53 48.75 51.65 52.91
54.80 55.27 56.08 56.20 56.78 56.68 57.80 58.25 58.10 58.21 58.07 57.57 56.99 56.50 55.64 54.75 54.09 54.08 54.14 54.99 54.98 54.11 53.96 53.81 54.00 55.54 52.39 59.98 56.27 58.05 58.91 56.15 57.76 57.94 57.63 57.65 56.32 53.18 52.42 48.46 46.24 46.95 41.92 44.11 45.70 50.53 51.85
54.23 54.69 55.46 55.62 56.03 56.93 57.16 58.09 57.79 57.46 57.44 57.06 56.66 56.32 55.42 54.59 54.00 53.89 54.39 54.43 54.85 53.27 53.62 56.74 56.85 52.49 57.01 53.94 56.16 56.77 58.28 57.75 56.34 56.06 54.61 53.82 52.50 49.54 49.10 47.09 39.92 41.53 42.54 44.39 43.67 46.97 48.84
54.45 54.22 54.18 55.59 55.79 56.85 57.39 58.19 57.79 56.97 56.73 56.62 56.46 56.24 55.24 54.43 54.24 54.43 52.85 54.32 52.32 52.57 54.85 52.34 53.73 52.56 53.78 56.17 57.69 55.54 56.72 56.90 56.44 54.52 49.67 52.04 47.59 44.15 45.09 48.81 47.91 46.14 44.80 43.93 45.64 48.61 47.58
53.51 53.79 53.88 54.20 55.23 55.78 57.16 58.10 57.93 56.75 56.53 56.34 56.07 55.83 55.06 55.24 55.02 54.55 54.27 54.14 57.96 59.40 53.13 56.16 53.12 54.96 55.89 56.64 52.08 53.99 56.43 52.22 52.64 46.66 50.70 49.20 44.99 48.44 49.95 49.39 47.93 46.95 44.80 44.41 46.51 48.55 47.69
52.41 53.14 53.51 53.87 54.58 55.15 56.20 56.14 57.37 56.65 56.13 55.83 55.69 55.48 55.14 55.16 54.49 53.53 54.11 54.96 60.93 60.26 53.04 54.02 53.67 52.37 54.10 55.27 51.22 51.53 54.11 52.45 50.15 47.28 48.16 45.33 47.62 50.78 49.30 47.05 45.36 45.81 44.82 45.12 44.50 46.27 46.36
50.71 51.66 52.83 53.31 53.93 54.54 54.93 55.63 56.30 56.75 55.86 55.36 55.24 54.91 54.77 53.67 50.80 56.67 54.72 58.47 58.90 60.70 47.65 49.03 50.54 52.53 54.49 53.93 50.02 54.43 55.17 52.38 50.73 47.21 48.45 47.29 50.78 48.74 47.07 45.83 46.77 43.51 48.98 47.49 46.29 44.70 39.89
50.03 50.20 51.68 52.60 52.87 52.91 53.80 54.73 55.41 56.75 55.94 55.24 54.55 54.69 53.65 53.11 56.93 55.48 61.39 62.12 64.95 61.46 36.50 50.18 50.56 56.27 54.57 50.88 51.28 51.21 55.60 53.12 48.49 48.41 48.74 46.42 47.41 47.52 45.87 46.90 49.62 45.26 49.19 48.26 46.94 44.88 44.06
49.86 50.28 51.32 51.89 52.12 52.45 53.07 53.96 54.20 55.60 55.46 54.89 54.25 54.51 53.57 53.67 54.37 57.59 61.91 64.17 62.41 46.83 35.80 45.93 50.43 49.42 49.03 50.37 49.95 51.55 51.44 54.02 52.93 48.97 49.47 47.99 51.74 49.57 47.75 50.57 50.73 51.09 48.63 48.45 47.50 45.43 36.93
49.26 49.72 50.64 51.54 51.66 52.08 52.74 53.50 53.49 54.68 55.20 54.73 53.98 54.17 53.88 57.47 54.77 61.74 61.82 59.72 45.14 38.07 48.15 45.22 46.31 48.59 47.60 46.84 47.74 48.90 48.11 46.95 45.25 42.63 43.23 46.25 47.20 50.80 52.15 48.16 49.92 48.28 45.64 39.48 35.34 36.24 36.59
47.68 48.87 49.82 50.77 51.31 51.74 52.28 53.08 53.01 53.89 54.44 54.33 53.50 53.21 53.82 56.30 59.88 62.21 60.94 52.42 38.35 43.94 45.34 48.19 47.44 47.66 44.96 47.57 46.56 47.00 46.76 44.48 47.57 46.39 43.75 41.43 40.74 47.63 50.73 48.38 44.76 46.84 45.11 39.54 30.86 30.88 37.96
47.00 48.28 48.79 48.95 50.47 51.43 51.85 52.43 52.75 53.53 53.76 53.51 52.82 54.09 53.79 56.35 58.05 59.49 54.81 43.53 42.11 46.63 48.11 46.76 46.82 44.29 44.34 46.68 46.15 45.96 45.86 44.87 46.72 47.42 42.92 41.41 40.72 49.57 50.37 50.45 49.15 46.41 43.08 47.44 41.87 42.70 39.55
46.39 47.53 47.69 47.92 48.88 50.42 51.09 51.96 52.63 53.56 53.44 52.77 52.58 51.87 51.71 58.72 59.61 56.28 50.37 43.83 46.74 50.28 50.54 48.72 43.20 45.52 42.45 44.47 44.23 45.10 44.86 47.71 46.74 49.57 50.21 44.52 37.24 47.38 48.96 50.14 49.87 47.41 48.77 42.26 43.25 33.80 32.23
46.17 47.05 47.10 47.51 48.43 49.18 50.29 51.69 52.27 53.50 53.04 52.64 52.32 47.26 56.02 59.87 58.94 51.88 44.82 46.45 49.40 51.86 51.46 48.24 45.72 44.78 45.53 45.21 45.78 44.85 44.79 47.73 50.35 50.10 51.22 49.26 44.77 45.16 47.93 45.57 43.80 46.08 44.24 44.65 43.62 43.43 36.53
45.67 45.85 46.43 47.01 47.74 47.94 49.85 51.04 51.89 53.01 52.51 51.26 50.79 43.04 58.09 60.42 46.62 47.17 46.43 48.75 49.70 51.18 51.95 50.74 50.18 48.21 46.17 47.16 45.65 44.81 44.87 47.84 51.75 51.16 47.40 49.62 46.96 42.44 44.15 49.04 50.25 48.40 46.58 45.78 41.58 38.21 42.02
45.31 45.79 46.29 46.55 47.32 47.19 49.36 50.13 51.42 52.42 52.18 50.69 46.75 49.94 58.64 57.91 41.84 44.51 48.84 49.46 50.63 49.91 50.62 50.15 48.47 49.82 49.68 47.20 44.36 46.38 47.37 52.10 52.97 51.19 48.52 50.25 45.25 39.13 41.16 46.14 48.77 45.41 46.09 46.31 46.82 45.54 40.30
45.28 45.73 46.22 46.82 47.32 46.37 49.13 49.53 51.03 52.22 52.23 52.04 48.99 44.65 51.70 53.94 51.02 47.78 47.36 47.21 47.50 52.31 50.57 51.70 49.98 50.37 48.98 46.86 49.15 46.49 47.28 49.98 51.92 51.76 46.89 51.48 46.46 42.58 39.00 42.16 45.88 43.90 45.21 45.62 44.78 40.41 39.71
45.30 45.89 46.04 46.43 46.69 47.61 49.01 49.33 50.16 51.76 51.99 51.16 49.97 47.19 50.78 44.23 47.72 49.17 50.96 48.66 46.78 47.13 50.81 52.01 49.28 48.62 48.58 46.13 46.36 46.62 48.72 49.18 50.37 46.62 49.36 49.56 42.65 44.46 44.94 46.24 46.01 45.36 44.66 44.81 43.22 44.15 39.93
44.71 45.49 45.85 45.35 47.86 48.37 48.68 49.35 49.75 51.33 51.73 48.52 47.82 48.84 52.63 49.38 49.90 48.78 48.17 48.39 47.33 48.65 49.45 48.96 48.28 49.33 50.28 47.41 48.20 46.35 48.83 49.04 47.38 49.92 49.31 50.22 44.31 45.13 43.38 46.27 45.91 43.27 45.15 45.17 44.39 44.30 44.00
43.70 45.39 46.75 46.40 47.49 47.84 48.69 49.19 49.74 50.96 51.11 48.07 52.23 55.54 51.71 48.02 48.52 47.33 48.60 49.99 49.22 51.10 51.83 52.31 51.23 50.38 49.21 51.01 53.76 54.08 54.76 53.75 52.35 50.21 48.69 48.58 46.14 43.13 38.74 42.49 41.08 35.23 42.27 43.58 44.17 45.59 45.30
45.23 45.12 46.71 46.96 47.27 48.20 49.09 49.15 49.14 49.75 50.78 51.73 53.26 56.09 49.15 46.04 47.52 48.21 50.07 51.26 49.53 50.94 50.92 52.45 53.54 51.82 53.65 56.67 55.91 54.66 53.13 52.23 52.39 51.59 52.54 47.92 46.80 44.62 39.72 36.04 30.97 42.27 46.99 45.62 44.13 45.05 46.22
45.46 46.03 46.51 47.44 47.85 47.90 48.40 49.02 48.58 47.67 48.15 51.84 56.50 55.80 50.40 44.21 49.55 49.53 51.41 51.42 51.12 51.60 52.14 52.36 53.74 56.08 57.62 54.97 49.01 45.05 45.40 43.46 46.19 48.14 48.41 50.12 46.42 40.60 37.00 36.40 40.11 42.28 44.32 43.37 42.43 42.15 46.28
45.82 46.36 46.86 47.33 47.47 47.66 47.95 47.51 48.16 48.25 48.29 49.70 52.38 58.47 55.77 50.49 48.99 52.30 50.37 52.08 48.87 50.60 50.61 50.35 55.63 58.65 57.64 53.11 49.28 41.78 39.83 42.33 41.21 43.22 46.66 46.05 48.61 43.39 38.66 35.82 32.20 43.03 45.13 47.47 46.55 38.89 46.96
45.89 46.28 46.71 47.14 47.30 47.63 47.69 47.14 47.13 47.77 48.31 46.56 52.01 55.66 55.83 48.89 54.08 52.70 49.93 50.30 54.04 52.85 49.87 50.73 50.52 50.98 54.19 50.88 41.14 45.75 42.96 46.09 41.06 39.70 36.34 40.64 41.96 37.75 37.83 37.06 40.37 46.76 46.87 47.76 38.13 40.93 48.33
45.89 46.24 46.52 46.79 47.14 47.59 47.50 47.31 47.36 47.57 47.62 47.20 50.87 54.53 54.33 51.44 54.67 56.17 55.59 52.91 53.48 53.76 48.87 51.67 50.22 51.30 52.23 46.59 47.43 47.90 44.47 46.24 44.58 44.90 41.72 39.83 40.09 36.76 41.68 34.82 32.46 47.68 46.30 41.57 47.76 50.30 49.34
46.00 46.21 46.65 46.83 47.17 47.46 47.77 47.43 47.36 47.55 47.74 50.35 48.89 53.55 55.22 54.83 55.25 59.02 57.84 58.52 57.59 57.91 55.56 53.75 53.24 51.95 52.54 50.22 50.64 51.31 40.39 39.91 45.09 40.89 47.33 41.69 45.48 43.75 42.97 42.29 49.20 49.46 48.27 49.88 50.87 49.24 49.75

GFSGBSN_sfc_wetblb_033.txt.gz
Wetbulb
56.68 56.72 57.75 57.95 58.30 58.95 61.09 60.57 59.59 58.69 58.34 57.92 57.57 57.58 57.58 57.09 57.04 56.57 55.91 55.22 55.00 55.20 55.88 55.93 55.82 55.49 51.97 50.30 52.84 61.07 62.78 61.71 56.75 54.08 51.56 50.88 50.02 46.86 43.90 45.12 45.54 44.35 46.41 48.20 53.83 54.21 53.75
55.93 56.19 56.74 57.06 57.71 58.10 59.53 60.71 59.74 58.80 58.13 57.63 57.30 57.12 57.02 56.85 56.70 56.26 54.80 54.32 54.58 54.93 55.56 55.95 55.19 54.89 50.22 47.71 58.23 62.04 59.53 57.12 55.03 51.68 53.05 52.91 50.67 49.59 47.21 46.56 44.56 47.10 46.85 47.66 49.35 53.78 53.36
55.40 55.80 56.01 56.63 57.17 57.54 57.72 59.51 59.36 59.03 58.35 57.85 57.62 57.10 56.65 56.51 56.14 55.62 55.21 54.12 54.34 54.91 55.66 55.18 54.74 52.52 50.45 49.20 56.59 55.35 57.94 54.42 53.60 53.46 51.89 53.60 52.79 49.95 49.79 47.07 51.18 50.15 44.50 46.72 45.92 50.45 49.87
55.53 55.61 55.76 56.08 56.44 56.64 56.52 57.43 59.06 59.07 58.36 58.00 57.83 57.04 56.08 55.68 55.13 54.58 54.38 54.09 54.29 55.19 55.40 55.28 54.33 50.83 48.32 59.16 56.55 56.33 56.03 54.18 54.27 54.91 54.51 54.72 54.99 52.12 49.24 49.98 48.92 44.81 44.09 39.43 45.30 50.17 50.95
55.04 55.04 55.18 55.14 55.70 56.11 56.33 56.37 57.95 58.86 58.47 57.94 57.38 56.81 55.86 55.09 54.34 53.80 53.72 53.99 54.74 55.39 54.98 54.43 50.13 49.99 49.83 60.20 55.45 56.74 55.28 55.67 55.84 55.53 55.80 56.20 53.14 49.27 49.45 43.89 40.72 42.13 36.41 41.20 44.22 50.26 50.18
53.35 54.71 54.66 54.66 54.98 55.46 56.25 56.61 56.69 57.90 58.08 57.45 57.09 56.59 55.82 54.93 54.09 53.37 53.63 54.21 54.64 53.88 53.32 53.77 53.39 47.60 52.61 53.10 55.85 55.88 55.51 56.04 54.74 53.99 53.08 51.17 47.48 44.19 43.77 41.44 34.44 38.68 40.32 37.44 41.21 44.22 48.06
53.36 53.16 53.57 54.33 54.57 55.75 56.05 56.95 56.67 56.92 57.34 57.40 56.91 56.39 55.78 54.78 54.15 53.95 52.35 51.16 48.31 48.75 49.67 49.16 50.07 50.08 52.65 54.75 56.01 52.95 55.40 55.02 53.99 51.25 45.48 49.79 42.25 39.07 43.16 45.33 47.02 45.31 41.98 40.92 43.05 45.30 46.75
52.72 53.44 53.77 54.38 54.22 54.09 55.90 56.18 56.65 56.74 57.00 57.12 56.69 56.02 55.54 54.80 54.68 54.40 51.44 49.25 53.39 53.48 48.51 54.09 52.96 52.63 54.00 55.17 50.87 52.49 54.64 50.55 50.07 44.57 49.14 45.38 40.59 46.28 48.56 48.78 46.73 45.91 42.43 40.94 44.35 46.22 44.41
50.69 51.92 53.14 53.13 54.02 53.82 54.61 55.27 55.74 56.06 56.72 56.42 56.16 55.64 55.19 54.46 54.10 52.70 50.00 51.27 55.76 54.25 47.62 52.59 55.28 53.15 51.59 53.87 50.30 50.00 51.13 50.40 47.04 45.68 45.29 43.27 45.30 49.89 48.13 45.84 44.57 44.20 43.03 42.03 42.05 42.49 41.77
51.08 51.37 51.18 52.43 53.55 53.60 53.52 54.49 55.26 55.13 56.22 55.98 55.57 55.05 54.19 53.56 49.88 51.96 50.37 54.85 54.47 53.24 42.83 47.42 51.27 51.29 51.77 52.69 48.90 53.51 52.70 50.65 47.94 45.02 46.05 44.48 48.69 47.82 46.24 45.27 45.89 41.79 46.93 46.25 45.41 40.26 34.70
50.38 50.78 50.87 51.12 51.56 52.98 52.75 53.52 54.56 55.03 55.75 55.85 54.99 54.52 53.70 53.25 51.28 51.74 56.67 58.06 55.22 54.18 31.79 48.69 49.94 54.85 52.54 49.54 49.69 49.70 53.39 49.89 46.18 46.66 46.61 43.23 45.48 45.27 44.37 45.84 48.04 43.65 47.42 45.69 45.24 42.80 40.37
49.63 50.08 50.81 50.72 50.44 51.40 52.36 52.46 53.58 54.23 55.05 55.53 54.81 54.36 53.50 52.66 51.81 52.04 55.13 55.51 57.91 43.88 32.85 46.12 49.70 47.57 47.07 48.97 48.85 50.16 49.49 51.27 50.50 47.43 46.92 45.90 49.27 48.29 47.22 48.89 48.45 48.98 45.99 45.85 44.15 40.77 33.52
49.21 48.95 49.60 50.35 49.92 50.53 51.90 52.04 52.57 53.58 54.10 54.83 54.33 54.02 53.16 54.63 49.87 55.82 55.43 54.09 41.42 34.79 46.75 43.89 44.51 47.47 46.09 45.38 46.33 46.62 45.44 43.81 40.83 38.69 39.77 44.97 45.41 49.28 50.01 45.67 47.65 46.17 40.88 32.46 29.96 30.66 30.59
48.62 48.59 48.56 48.57 49.94 50.52 51.34 51.73 51.99 52.79 53.53 54.55 53.85 53.30 53.37 53.64 55.04 55.66 55.17 48.12 37.59 41.64 42.98 48.32 46.59 46.31 42.84 45.18 44.71 45.38 43.92 40.53 44.05 42.59 40.67 38.40 36.78 45.38 49.13 46.24 44.93 43.82 41.69 33.85 27.86 28.45 31.77
48.13 47.96 48.40 48.33 48.65 50.34 51.20 51.14 51.54 52.50 52.82 53.86 53.16 52.77 51.31 52.34 54.23 54.45 51.67 40.86 37.84 43.77 45.96 46.08 45.01 42.11 41.46 44.52 44.27 43.03 41.51 41.48 43.28 44.11 38.02 38.50 39.60 47.93 49.21 48.99 46.87 44.50 40.86 44.45 37.26 35.55 30.60
47.81 47.41 46.98 47.53 47.56 49.31 50.12 51.01 51.27 52.31 52.68 53.10 51.39 50.66 49.90 53.62 55.14 52.42 47.17 40.79 44.47 48.55 49.35 47.76 41.29 43.02 39.34 41.79 42.11 41.04 41.11 44.79 44.64 46.21 47.73 43.41 37.52 45.53 47.61 49.15 47.33 44.63 45.73 36.61 36.25 28.08 26.88
46.95 46.91 46.55 46.44 46.81 48.05 49.33 50.34 51.36 52.06 52.87 52.96 51.04 46.79 50.67 54.80 54.32 49.22 40.18 42.23 46.33 51.09 50.46 46.96 43.79 42.45 42.95 41.81 42.37 40.89 42.19 45.04 46.79 48.00 48.38 45.14 42.61 42.13 45.62 43.50 41.06 42.52 40.30 41.18 40.01 36.25 28.95
46.06 46.01 45.99 46.11 46.42 47.21 48.28 49.67 50.59 51.52 52.04 51.49 49.98 42.17 52.16 55.24 43.99 43.47 40.46 45.17 47.32 48.94 51.72 49.62 48.32 46.63 43.51 44.02 43.43 41.46 41.89 47.54 48.28 48.99 44.77 45.93 42.49 36.77 41.97 47.14 47.37 44.90 42.68 42.26 30.83 32.58 34.03
45.36 45.61 45.75 45.87 46.34 47.15 47.63 48.81 50.02 51.15 51.54 49.25 46.02 46.32 53.14 52.11 36.68 38.67 42.61 45.41 48.04 47.95 48.10 48.13 47.14 48.25 48.84 43.64 42.81 43.28 45.80 49.81 50.47 48.18 45.36 46.30 39.79 31.84 35.79 41.74 45.04 42.12 43.44 43.15 42.75 37.70 33.60
44.71 44.93 45.36 45.29 44.81 46.72 47.34 47.78 49.32 50.35 51.50 50.48 46.61 40.75 48.32 49.67 44.65 41.76 40.22 42.00 43.91 49.88 49.06 49.68 48.45 48.73 45.99 43.53 46.02 42.86 44.75 48.94 50.05 47.92 45.80 47.69 42.64 37.15 30.98 36.91 42.50 39.67 42.26 42.88 40.08 30.18 32.11
44.20 44.69 44.99 45.32 45.85 45.96 46.89 47.87 48.38 49.87 50.79 50.30 46.92 42.52 46.65 41.12 42.79 42.24 43.37 43.71 44.06 44.60 49.52 50.08 47.21 46.89 44.73 40.96 42.84 42.87 46.02 46.28 48.81 46.36 46.78 45.10 38.06 39.70 41.02 43.32 44.41 43.88 42.46 41.90 39.36 39.48 33.79
43.86 44.37 44.97 45.42 45.63 46.09 46.68 46.68 47.36 49.42 50.46 47.49 44.36 44.09 48.14 47.06 46.48 44.17 42.73 42.69 44.05 46.37 47.61 46.10 45.81 46.82 45.87 43.70 44.69 42.24 46.23 45.02 44.00 45.85 44.40 45.73 38.24 39.07 37.42 43.52 41.96 39.29 41.60 41.52 41.35 41.41 39.50
44.20 44.58 45.04 45.40 45.78 46.39 46.95 46.80 46.56 48.93 49.78 45.67 47.25 48.45 48.25 44.63 44.73 42.94 41.48 44.41 45.69 48.10 48.93 49.78 48.15 46.32 45.75 47.88 49.56 49.08 49.75 48.44 48.07 44.97 42.72 42.81 39.85 34.34 31.25 37.06 36.64 29.23 37.35 39.73 41.20 42.00 40.44
44.56 44.78 45.27 45.75 46.03 46.50 46.58 46.87 46.44 48.92 49.36 49.43 46.79 48.64 44.71 40.56 44.77 43.48 44.57 45.68 47.15 47.53 47.02 49.54 49.53 47.00 50.01 52.81 51.18 49.75 47.96 47.80 49.61 47.78 48.19 42.33 40.26 33.79 29.08 29.43 21.31 37.37 43.25 42.50 40.34 41.07 41.04
44.89 44.39 43.88 45.72 46.06 46.15 46.49 46.97 47.86 48.90 49.64 48.08 49.09 48.78 47.64 34.37 45.26 44.92 44.35 46.44 48.87 49.90 48.41 49.24 51.46 51.94 52.95 50.11 42.96 38.82 36.22 35.83 41.20 45.80 45.00 46.48 38.15 32.08 27.42 27.33 34.30 38.93 41.30 40.71 38.63 37.40 42.18
44.35 44.59 44.79 46.62 45.96 47.33 47.36 47.68 48.32 48.62 49.75 48.61 46.96 49.04 49.43 45.51 44.19 48.01 44.65 47.60 45.54 45.86 45.80 48.59 52.59 52.32 52.27 46.28 36.76 32.94 30.66 37.21 36.81 39.62 44.70 43.83 41.86 31.54 29.38 24.94 20.50 36.21 41.82 44.86 42.99 31.56 43.27
44.12 44.39 45.43 45.40 46.28 46.88 47.40 47.83 48.58 49.11 49.62 47.75 47.12 49.74 47.87 46.84 49.96 48.54 44.68 45.42 50.02 47.19 44.62 46.60 48.83 47.48 50.35 35.07 34.98 31.22 31.11 42.44 33.98 33.42 31.57 31.24 31.74 27.94 25.19 24.28 31.61 43.79 44.29 45.13 30.46 32.66 43.58
44.61 45.25 45.60 46.24 46.31 46.77 47.17 47.76 48.17 48.03 48.53 46.37 45.51 48.77 48.54 48.13 50.33 51.18 51.20 49.43 49.50 48.45 42.43 47.14 46.67 45.27 42.88 36.43 35.13 33.03 30.76 35.32 36.09 41.29 36.28 33.25 31.42 27.07 30.91 29.10 27.35 44.89 43.07 36.01 41.28 43.23 44.22
45.26 45.46 46.16 46.46 46.74 46.97 47.31 47.25 47.71 47.99 48.30 47.95 43.73 49.26 51.32 47.93 49.63 54.97 54.00 54.45 54.69 53.08 49.35 47.64 47.35 46.93 47.43 42.55 39.70 37.59 35.58 34.26 34.62 29.86 42.93 33.84 39.14 34.53 35.88 34.15 43.16 43.63 43.10 45.02 44.93 43.98 44.33

GFSGBSN_sfc_wetblb_039.txt.gz
Wetbulb
56.31 56.10 56.43 55.82 57.05 57.68 57.44 58.21 58.60 59.38 58.60 58.26 57.75 57.69 57.75 57.81 57.92 57.08 56.25 55.48 55.35 54.85 54.55 54.93 55.76 55.40 50.56 46.32 46.86 56.82 62.14 61.70 57.75 51.57 47.84 47.31 46.44 45.04 41.38 41.91 41.99 40.90 43.21 48.33 51.57 51.07 51.24
54.77 56.12 56.10 56.21 56.09 56.10 56.35 57.28 57.65 57.62 58.68 58.15 57.68 57.26 57.16 57.32 57.28 56.79 56.14 55.21 54.73 54.42 54.48 55.09 55.43 54.53 48.05 40.44 53.84 58.71 55.92 53.82 51.51 49.35 48.03 48.55 48.27 48.62 45.27 42.81 41.84 45.55 45.61 48.34 49.67 49.63 50.22
53.63 54.48 55.73 55.40 55.57 55.99 56.42 56.60 56.96 56.77 58.11 58.56 57.95 57.17 56.99 56.90 56.75 56.21 55.70 54.99 54.18 54.16 54.36 55.07 54.76 51.80 47.53 44.42 55.75 53.53 55.35 52.26 51.56 49.29 49.10 50.87 51.18 47.62 47.65 44.51 47.64 47.21 43.99 47.64 48.18 48.76 48.69
54.00 53.57 54.67 55.24 55.14 55.23 55.59 55.85 56.23 56.65 56.70 58.41 58.59 57.57 56.60 56.33 55.70 55.35 54.75 54.26 53.97 54.20 54.64 54.99 53.90 48.57 44.97 53.75 53.50 55.45 52.17 52.33 52.90 51.38 50.41 51.65 51.21 48.54 47.14 47.42 46.17 43.16 41.53 39.52 46.38 48.41 48.45
53.41 53.60 53.11 54.02 54.82 54.82 54.84 55.56 55.70 56.09 56.67 57.17 58.06 57.46 56.42 55.39 54.97 54.42 53.99 53.99 54.26 54.56 54.62 54.71 47.80 47.30 45.86 55.75 53.20 56.38 54.08 52.12 52.12 50.93 50.51 53.13 50.03 45.93 45.85 40.61 38.40 38.97 33.37 36.67 41.82 47.87 46.64
54.11 53.62 53.81 52.73 53.98 54.59 54.60 54.53 55.22 55.34 55.44 56.04 57.16 57.40 56.58 55.54 54.71 53.73 53.27 53.85 54.14 53.01 52.84 53.02 51.39 42.14 47.41 48.27 53.38 53.95 52.99 53.28 50.93 50.01 49.48 48.46 44.36 41.31 40.13 38.36 32.27 34.61 35.59 35.45 37.20 43.46 44.89
54.24 53.88 52.63 53.67 52.61 53.69 54.82 54.72 54.49 54.93 55.11 55.60 56.22 57.00 56.70 55.62 54.70 53.46 51.56 49.12 47.13 47.10 48.25 44.80 43.50 42.95 46.71 52.07 53.24 51.09 52.17 51.42 51.09 49.01 41.92 46.46 40.81 37.41 40.02 41.40 42.11 40.83 39.27 37.28 39.06 43.62 44.86
53.36 53.32 53.27 53.37 53.41 53.34 53.87 54.46 53.94 54.24 54.93 55.45 55.68 56.42 56.56 55.52 54.32 53.84 50.58 45.76 47.73 48.58 43.62 49.92 50.28 49.20 51.98 53.15 49.01 49.87 53.10 48.33 46.76 42.24 44.97 41.72 38.07 43.67 45.18 44.19 43.69 41.79 40.22 39.33 42.68 44.63 43.95
51.36 52.73 52.79 53.09 53.19 53.44 52.83 53.90 53.90 53.60 54.16 55.07 55.54 55.82 56.32 54.79 53.89 51.75 48.39 48.25 52.86 51.25 40.54 46.98 51.01 50.52 51.74 52.74 48.88 47.79 50.51 47.82 44.34 42.98 42.59 38.96 41.73 46.70 45.20 42.69 41.79 40.22 38.99 38.89 40.19 42.43 38.71
50.32 51.09 52.06 52.40 52.60 52.60 52.97 52.44 53.37 53.32 53.87 54.03 54.57 55.28 54.92 53.45 49.38 50.09 48.83 52.53 53.12 50.70 38.69 42.85 48.22 50.67 52.73 51.00 45.68 51.31 50.96 48.95 44.34 42.83 42.96 41.23 44.87 44.46 43.29 41.69 42.07 37.77 43.21 42.02 40.50 38.19 32.31
49.14 49.75 50.83 52.01 51.60 51.30 51.52 51.84 52.80 53.32 52.98 53.77 53.79 54.73 53.86 53.46 49.23 49.41 52.38 52.94 51.87 50.43 22.94 41.90 47.91 54.19 49.92 45.97 46.60 47.31 50.18 48.18 43.41 43.57 42.92 39.72 42.75 42.45 41.42 42.48 44.41 40.68 44.44 42.57 41.84 38.37 35.60
48.72 49.17 49.32 50.55 51.24 50.89 51.11 50.96 51.42 51.95 52.22 52.88 53.44 54.02 53.54 51.96 50.84 50.14 52.11 53.82 53.25 36.37 25.64 41.94 48.06 45.24 43.42 45.33 45.33 46.24 47.01 47.59 47.99 44.61 43.47 41.67 45.03 43.83 43.47 46.35 45.58 45.96 42.52 41.04 39.83 37.83 30.46
48.62 48.19 48.62 49.43 50.73 50.66 50.64 50.85 50.81 51.18 52.07 52.30 53.36 53.96 53.45 53.82 47.54 52.59 54.03 53.75 40.43 30.83 42.27 41.14 42.33 43.37 41.67 41.30 42.83 43.91 42.51 40.56 39.83 36.46 36.45 40.69 42.35 44.70 46.65 41.92 44.63 42.51 37.86 30.05 28.82 28.10 28.32
48.52 48.26 47.92 48.73 49.03 50.90 50.28 50.52 50.18 49.99 50.53 52.03 52.44 53.20 53.57 53.53 51.61 51.78 54.69 47.50 33.67 38.30 39.21 46.10 43.59 42.23 39.43 42.09 41.93 42.46 40.23 37.79 39.88 39.70 36.49 35.11 33.13 42.22 45.99 43.09 40.60 39.65 38.05 29.85 25.92 25.47 28.76
49.02 48.41 48.04 48.06 48.73 49.48 50.03 50.12 50.13 49.63 49.53 51.23 51.94 52.23 52.29 53.65 52.50 50.84 49.66 39.24 34.78 39.41 44.71 40.79 42.16 38.57 38.24 41.10 41.29 40.62 38.55 38.11 40.29 41.17 35.92 35.25 36.54 43.92 45.34 45.82 45.19 40.86 37.06 40.53 33.36 31.26 27.68
49.33 48.72 48.05 47.65 48.19 48.37 50.06 49.68 49.99 49.79 49.36 50.80 46.35 48.40 49.87 53.73 53.36 48.16 43.79 39.16 41.78 45.94 47.29 45.29 37.95 40.09 36.09 38.18 38.49 38.17 37.53 41.25 40.79 42.55 43.59 40.61 34.12 41.99 44.71 45.76 45.28 42.42 43.49 34.33 33.50 27.33 26.13
49.36 48.63 48.09 47.52 47.33 48.13 49.37 49.16 49.48 49.55 49.35 50.71 45.60 43.54 49.00 53.49 52.72 43.62 36.22 39.34 43.01 47.76 47.40 44.49 42.06 39.49 39.72 38.13 38.81 36.67 38.64 41.17 42.90 42.19 43.55 41.91 38.09 37.22 42.62 40.81 39.44 39.08 37.02 36.94 36.40 31.46 26.63
48.94 48.31 47.76 47.25 46.92 47.55 48.80 48.85 48.78 48.95 49.17 48.40 44.06 37.15 50.73 52.61 42.37 41.19 35.67 40.98 44.39 45.12 47.27 46.15 45.92 44.47 41.33 40.16 38.17 38.14 38.43 41.23 43.78 44.97 40.76 42.66 37.79 32.86 38.01 43.27 44.40 41.17 39.08 37.93 29.51 30.23 30.23
49.09 48.10 47.58 47.12 47.10 47.62 48.32 48.30 48.25 48.37 48.83 46.05 40.30 42.73 51.28 50.19 36.30 37.30 39.58 40.43 44.01 43.67 43.86 43.94 44.03 45.45 44.60 39.68 36.67 39.37 40.18 45.34 46.73 43.92 41.79 43.13 36.41 30.21 34.20 38.37 40.68 39.63 39.93 40.15 37.45 32.80 30.22
49.01 48.04 47.48 47.07 47.27 48.26 48.30 47.92 47.57 48.38 49.21 46.91 42.01 36.43 44.46 46.32 43.73 39.34 37.19 38.46 40.20 45.94 43.58 44.70 44.59 46.06 43.24 40.75 41.70 39.44 41.50 45.43 46.24 45.18 45.75 44.27 38.14 35.21 31.25 35.10 38.95 35.71 38.97 38.89 37.25 28.92 30.50
48.70 47.71 46.99 46.60 47.41 48.25 47.62 47.68 47.66 47.18 48.24 46.53 41.52 37.95 40.99 38.37 39.16 40.32 39.73 39.11 38.75 39.97 43.94 44.35 41.36 43.16 42.40 38.58 38.87 38.97 42.34 43.50 44.65 44.59 43.26 42.57 36.23 36.57 37.33 38.18 39.54 38.72 38.89 38.21 36.12 35.84 31.82
48.13 47.11 46.49 46.38 47.07 47.26 47.26 47.39 47.19 46.95 47.38 44.32 37.96 40.42 41.20 39.54 42.14 39.71 39.32 38.01 38.33 40.83 42.00 40.94 40.07 44.09 42.74 40.28 41.41 39.72 42.02 41.10 41.13 42.53 40.61 41.78 34.82 35.70 33.24 37.61 37.56 36.30 38.89 37.97 37.93 37.25 36.75
47.58 46.71 46.20 46.64 47.02 47.05 46.91 46.90 46.66 46.88 46.00 41.29 42.90 44.75 43.10 39.85 39.27 38.81 38.52 38.30 39.25 42.21 43.29 44.24 44.04 43.59 41.19 43.87 45.79 45.43 45.52 45.00 44.46 42.21 39.41 38.82 36.17 31.55 29.60 33.06 33.07 28.71 34.34 37.35 37.83 38.90 38.68
47.12 46.36 46.23 46.34 46.69 46.70 46.52 46.27 46.32 46.66 45.05 43.19 43.57 44.97 41.91 34.82 38.84 38.07 39.99 41.02 39.66 41.67 39.82 43.75 44.33 41.70 46.00 48.34 46.62 45.74 44.35 43.95 44.65 43.47 43.31 37.50 34.61 30.29 27.13 27.94 21.23 35.88 39.42 39.58 37.41 36.47 37.52
46.08 46.16 46.09 46.44 46.18 46.29 45.82 45.73 46.04 46.29 46.20 42.30 44.62 43.88 43.10 34.98 39.47 40.94 39.87 40.58 41.56 42.82 41.38 41.99 44.90 46.96 49.46 45.95 40.10 37.11 33.99 36.77 37.84 41.75 42.69 41.91 34.31 29.21 26.82 26.54 31.58 36.09 36.85 37.02 35.37 33.42 38.11
45.48 45.52 45.83 45.93 45.55 45.34 45.34 45.51 45.84 46.33 46.10 43.87 42.80 45.56 44.85 39.93 37.93 43.93 40.71 41.58 38.90 38.79 39.22 41.68 48.96 49.94 48.46 41.30 34.38 32.44 31.42 35.54 34.40 36.36 40.57 38.25 36.76 32.62 26.12 24.08 22.15 34.30 38.48 40.65 39.73 29.52 39.50
44.85 45.05 45.19 45.03 44.91 44.81 45.06 45.19 45.15 45.45 46.40 44.48 42.57 44.14 45.21 40.55 44.66 44.39 42.12 40.85 43.39 40.45 38.78 41.32 44.93 45.58 46.62 33.61 30.75 30.60 29.91 38.46 31.97 31.93 30.31 30.78 30.00 28.38 22.57 22.74 29.15 37.05 40.77 40.82 30.28 31.57 40.32
44.11 44.43 44.17 44.27 44.26 44.36 44.89 45.20 45.36 45.55 46.00 45.15 42.17 47.64 45.45 41.58 42.12 47.01 46.43 43.97 44.14 42.84 38.43 42.82 45.26 43.33 38.22 34.68 34.19 32.27 29.38 34.56 32.54 35.76 33.40 33.10 29.37 24.80 25.43 21.59 25.74 40.56 39.58 34.47 36.63 39.10 40.88
43.57 43.57 43.60 43.91 43.93 44.25 44.75 45.03 45.34 45.93 46.46 45.46 40.65 46.48 49.49 43.64 42.55 47.07 46.65 47.71 47.06 46.66 44.65 44.34 43.87 44.32 43.85 39.92 36.93 34.88 32.79 28.59 32.70 29.36 38.29 32.41 35.20 32.27 33.43 32.22 39.15 40.06 39.53 40.75 41.41 41.31 41.39

GFSGBSN_sfc_wetblb_042.txt.gz
Wetbulb
54.71 55.42 56.01 56.42 54.97 55.53 56.30 57.34 57.40 57.34 57.53 58.81 58.38 58.13 58.28 58.47 58.03 57.37 56.43 55.67 55.50 54.88 54.69 54.90 55.26 55.63 50.47 42.96 43.35 54.59 61.69 61.34 55.91 50.78 46.82 46.26 44.88 43.57 40.00 40.56 40.00 39.93 41.92 46.24 46.38 50.04 48.74
54.36 54.43 55.06 55.59 55.72 55.62 54.98 55.23 56.21 56.94 56.73 57.33 58.29 58.06 57.64 57.75 57.67 57.02 56.39 55.50 54.96 54.59 54.45 54.88 55.56 54.72 46.87 38.59 50.07 56.60 56.39 52.23 50.96 47.89 46.41 46.85 46.80 47.32 44.26 42.50 40.07 44.76 44.50 46.23 49.73 48.58 49.49
53.97 54.07 54.37 54.50 55.28 55.58 55.37 55.21 55.86 56.02 56.40 56.60 57.64 58.01 57.57 57.48 57.14 56.58 56.01 55.28 54.71 54.49 54.41 54.92 55.08 51.37 46.25 42.51 54.06 51.11 53.17 50.75 50.99 49.56 46.70 48.61 49.20 45.96 45.77 43.20 46.25 46.41 44.83 46.46 47.57 47.80 47.28
54.17 53.83 54.05 54.35 54.09 54.73 54.85 54.96 55.04 55.70 55.85 56.42 56.58 57.57 57.19 56.63 56.27 55.69 55.16 54.57 54.31 54.35 54.73 54.88 54.05 48.29 43.45 51.46 52.21 53.81 52.27 52.18 51.69 51.03 48.58 49.86 49.78 46.95 44.97 45.61 43.96 41.41 41.74 39.13 44.87 47.56 47.47
54.41 54.18 53.74 54.06 53.91 53.74 54.30 54.41 54.50 55.19 55.49 55.51 55.97 56.25 56.79 56.09 55.54 54.94 54.37 54.14 54.14 54.90 54.71 54.67 48.18 46.16 42.55 53.36 49.82 53.28 54.06 51.66 50.59 49.84 49.43 52.03 48.58 44.31 44.17 39.13 36.86 37.88 32.62 35.82 39.93 47.79 46.80
52.61 54.32 53.71 53.50 53.78 53.77 53.30 54.03 53.73 54.17 54.61 54.71 54.94 55.73 56.39 56.37 55.50 54.33 53.41 53.78 53.72 52.83 52.85 53.05 50.86 42.08 44.14 45.80 51.53 52.31 52.61 51.99 49.93 48.58 47.56 47.16 43.50 40.08 38.98 36.80 31.90 34.43 35.23 34.43 35.86 43.18 43.95
52.12 53.17 53.82 53.51 53.64 53.50 53.22 53.51 54.09 53.54 53.71 54.51 54.94 55.56 55.95 56.39 55.66 53.77 51.77 48.88 44.86 46.26 48.13 45.56 43.09 40.89 43.86 50.72 52.86 49.55 51.02 50.43 49.83 47.35 40.84 44.66 39.77 36.22 38.48 39.50 39.99 39.94 38.39 36.69 38.14 41.45 43.88
51.08 51.77 52.44 53.22 53.52 53.38 53.02 53.35 53.16 53.67 53.39 54.20 54.63 54.92 55.38 56.25 55.20 53.72 50.62 45.73 46.94 48.16 43.56 48.31 48.45 47.37 49.28 52.06 49.07 50.51 51.12 46.43 45.44 40.95 43.49 40.99 37.37 41.74 43.31 43.31 41.63 40.86 38.19 36.92 40.09 41.98 41.73
50.61 50.67 51.20 52.02 52.83 53.30 53.36 53.35 52.87 52.81 53.34 53.05 53.75 54.55 55.26 55.80 53.83 51.31 47.91 47.53 52.83 51.82 41.23 44.13 48.69 48.18 49.50 51.82 47.82 48.22 49.36 46.86 43.12 41.44 41.15 38.06 40.51 45.19 43.48 40.73 40.13 38.48 37.08 37.02 39.20 40.85 38.49
50.18 49.99 50.12 51.13 51.45 52.35 52.63 52.70 52.61 52.50 52.83 52.82 52.91 53.78 54.12 54.02 50.58 49.46 47.05 52.73 53.19 51.66 35.85 40.85 45.96 48.89 50.79 50.97 45.71 51.47 49.88 47.78 43.03 41.56 41.60 39.97 43.49 42.85 41.04 40.39 40.67 36.05 41.73 40.67 39.51 36.98 32.29
50.16 49.86 49.56 49.82 50.99 51.35 51.69 51.83 52.06 52.26 52.47 52.93 52.50 53.31 53.67 53.62 48.25 48.37 52.01 52.56 52.19 49.20 23.84 41.00 46.77 53.45 50.30 45.68 45.59 46.37 49.48 47.28 42.27 42.19 41.94 39.30 40.84 40.97 39.99 41.19 42.75 39.56 43.03 40.99 39.69 36.28 34.81
50.27 50.03 49.80 49.48 49.04 49.86 51.11 51.43 51.01 51.07 51.70 52.60 52.23 52.94 53.34 52.79 51.33 49.80 52.57 54.00 52.00 37.54 24.78 38.77 46.71 44.73 42.90 43.54 43.72 44.51 45.49 47.59 46.26 43.37 41.97 40.37 43.44 42.89 42.83 44.00 43.54 44.04 41.13 39.47 38.00 35.70 29.77
50.18 50.02 49.70 49.54 49.09 49.03 49.97 51.14 50.82 50.77 51.09 51.63 51.64 52.40 53.16 53.96 49.74 51.42 53.67 52.37 40.94 30.07 40.33 39.09 42.02 42.74 40.37 39.56 41.65 42.18 41.00 40.05 38.24 34.98 34.93 38.84 40.67 42.94 45.21 40.54 42.86 40.57 36.83 29.25 28.39 28.01 28.46
50.14 49.92 49.60 49.36 49.06 49.05 49.27 50.15 50.63 50.38 50.61 51.17 51.32 51.30 52.45 53.51 52.91 50.57 53.26 45.54 32.84 36.57 37.13 44.26 42.50 41.07 38.22 39.94 39.88 40.88 38.94 36.67 38.18 38.10 34.42 33.73 31.71 40.83 44.22 42.06 39.28 38.48 37.42 29.61 25.58 25.07 28.43
50.11 50.02 49.94 49.43 49.11 48.61 48.81 49.55 50.60 50.11 50.20 50.17 50.46 47.51 48.84 52.58 52.99 51.13 46.97 36.95 35.85 38.07 42.90 40.21 40.69 37.37 36.83 39.40 39.54 39.25 37.49 36.85 39.14 40.64 35.23 33.22 34.60 42.14 43.69 44.08 42.50 38.83 35.12 38.51 31.98 31.01 27.01
49.92 49.92 49.78 49.31 48.89 48.45 48.30 48.87 49.93 50.05 49.91 49.76 46.05 44.66 44.58 53.61 53.86 49.23 41.38 37.53 41.24 43.65 46.21 45.23 36.88 39.04 34.54 36.43 37.30 37.03 36.50 39.65 39.36 41.58 42.02 39.42 32.67 40.30 43.08 43.86 43.28 40.24 42.11 33.48 32.30 26.81 25.62
49.70 49.63 49.61 49.54 48.73 48.21 48.01 48.54 49.87 49.89 49.48 49.42 44.67 40.25 44.66 53.45 52.89 45.19 36.00 36.87 41.64 46.31 46.48 43.63 41.32 40.22 38.36 36.85 37.31 35.51 37.31 39.62 41.51 40.07 41.44 39.76 36.53 35.26 40.84 39.20 38.25 37.75 35.66 35.16 34.82 30.52 26.34
49.41 49.38 49.12 49.33 48.84 48.24 47.77 48.23 48.93 49.75 48.90 47.05 42.81 33.63 49.34 52.27 42.26 41.63 38.21 38.62 42.75 44.15 46.79 44.60 44.21 43.62 41.60 38.54 36.74 36.66 37.22 40.36 42.39 42.90 39.45 41.14 36.12 30.64 36.41 41.18 41.97 39.11 38.27 36.37 29.06 29.09 29.20
48.64 49.33 49.01 49.24 48.93 48.23 47.55 47.97 48.58 49.38 48.31 43.85 38.90 39.31 50.45 48.91 35.58 36.24 40.55 40.54 41.10 42.94 42.68 42.92 42.45 44.17 43.95 38.38 35.10 38.04 38.50 42.47 43.81 42.02 40.04 41.60 34.44 28.75 32.35 36.11 38.91 37.64 38.93 37.97 35.33 31.65 29.59
47.92 48.32 49.16 49.19 48.90 48.14 47.36 47.68 48.11 48.96 48.65 44.46 39.90 32.87 42.28 43.99 42.49 37.55 37.15 37.64 37.23 44.05 42.55 43.75 42.93 44.55 42.21 39.89 40.12 36.72 38.48 42.98 45.00 43.14 44.70 43.58 36.56 33.26 30.07 32.94 36.93 34.66 37.36 37.70 36.04 28.45 30.00
47.55 47.59 47.99 48.84 48.55 47.80 47.28 47.42 48.27 48.59 48.25 44.36 40.48 34.74 40.25 35.22 36.88 38.19 38.11 37.99 36.54 36.57 42.91 43.24 40.46 42.17 41.17 38.05 37.81 36.84 40.59 42.10 42.88 44.49 42.64 41.34 34.64 35.43 35.47 36.94 37.73 36.76 37.14 36.41 34.98 34.76 32.09
47.52 47.30 46.43 48.66 48.23 47.74 47.03 46.90 47.81 47.84 48.07 41.64 37.17 36.65 39.93 37.32 38.20 37.49 38.04 36.36 36.45 38.02 40.63 39.08 39.14 40.96 41.94 39.04 40.40 37.33 41.01 39.95 39.71 41.05 40.40 39.99 34.39 33.88 32.98 35.96 35.91 34.64 37.16 36.32 35.63 35.12 35.03
47.59 47.25 46.46 48.41 47.81 47.54 47.01 46.79 47.33 47.14 46.76 40.34 43.38 41.97 39.98 37.83 37.38 35.64 35.54 36.96 37.31 40.66 41.96 43.45 42.29 41.11 38.87 41.71 44.94 44.49 44.29 43.92 42.44 39.74 38.51 37.39 34.97 30.93 30.00 32.26 33.24 28.66 33.83 36.77 36.28 36.84 37.61
47.32 47.41 46.77 48.07 47.40 47.22 47.13 46.93 47.04 47.29 46.55 42.84 43.78 41.84 39.58 32.91 37.50 36.11 37.07 38.77 38.41 40.14 39.38 43.14 43.88 41.41 43.59 48.47 46.45 44.88 43.10 42.50 42.86 41.99 41.57 35.74 33.53 29.95 26.29 27.37 21.64 35.11 37.74 37.85 36.96 37.04 37.58
46.79 47.42 47.11 47.69 47.03 46.71 46.90 47.04 46.94 46.84 47.24 43.36 43.74 42.94 39.48 28.77 37.60 38.31 39.10 38.19 40.37 41.68 41.15 42.13 44.21 46.04 46.71 45.76 40.22 36.60 35.33 34.43 36.18 40.20 39.67 38.93 33.11 29.04 26.79 26.26 30.77 34.27 35.97 35.91 34.90 34.38 37.22
46.66 47.21 47.65 46.96 46.57 46.01 46.72 46.62 46.37 46.69 46.93 43.59 43.50 43.72 42.03 38.82 35.27 40.69 39.27 40.28 37.38 37.44 37.91 40.47 45.59 46.80 46.78 41.04 34.36 32.01 31.26 34.82 33.64 35.45 39.15 37.16 35.12 31.88 25.36 23.71 21.92 33.38 37.90 39.31 38.21 29.81 38.09
46.63 47.10 46.79 46.36 46.13 46.42 46.40 46.62 46.44 46.62 46.95 41.96 41.57 43.88 40.09 38.64 43.46 42.01 38.91 38.19 41.58 39.56 36.36 38.97 41.68 44.25 45.10 31.20 30.88 30.66 31.30 38.02 31.77 32.62 31.38 30.13 29.22 26.90 21.21 22.70 29.46 37.17 38.67 39.22 29.84 31.52 38.43
46.64 46.15 45.95 46.03 46.29 46.01 45.88 45.68 45.95 46.19 46.40 42.40 40.72 44.29 40.28 40.04 41.71 45.44 44.75 41.06 41.61 41.58 35.87 38.96 40.04 41.34 37.18 34.83 34.48 32.39 29.29 34.27 32.78 35.62 34.59 34.03 30.00 25.09 24.81 22.32 27.11 39.07 37.98 34.19 36.81 37.47 38.94
45.40 45.55 45.69 45.76 45.68 45.42 45.48 45.67 45.79 45.74 46.09 43.87 39.25 44.56 45.72 40.55 42.16 45.77 45.03 45.45 44.35 45.03 42.51 41.55 40.38 41.45 41.68 38.64 34.97 32.71 30.57 27.94 32.55 30.58 37.03 33.24 36.17 32.90 34.03 33.70 39.24 39.26 38.33 39.27 39.78 39.16 39.51

GFSGBSN_sfc_wetblb_045.txt.gz
Wetbulb
54.40 54.20 54.39 54.76 55.14 54.85 54.64 54.80 54.66 55.94 56.36 56.70 56.95 58.30 59.10 59.12 58.65 57.90 56.88 56.23 56.01 55.65 55.23 55.31 55.29 55.83 52.19 45.88 44.84 58.12 62.02 61.40 57.46 53.54 49.79 48.85 48.48 47.85 45.55 45.57 44.90 43.99 45.49 47.05 48.86 51.57 51.64
54.21 54.24 54.17 54.52 54.31 53.73 54.13 54.39 54.71 54.86 55.61 56.32 56.40 56.80 58.09 58.62 58.15 57.73 56.80 56.05 55.50 55.18 55.16 55.11 55.56 54.91 49.18 41.23 54.05 58.25 57.14 54.28 53.54 51.65 49.67 49.86 49.88 50.20 48.15 46.68 44.71 47.07 47.17 49.06 51.05 51.02 52.02
54.76 54.39 54.39 54.47 54.68 53.49 53.23 54.09 54.59 54.76 54.89 55.57 56.08 56.24 56.86 58.25 58.07 57.28 56.72 55.91 55.32 54.86 55.00 55.09 55.49 51.81 47.54 44.69 55.00 54.30 54.74 53.52 52.75 52.27 49.41 50.26 51.91 50.11 49.65 47.00 48.87 48.25 46.45 49.46 50.61 50.52 50.08
53.04 54.59 54.59 54.15 54.23 54.06 53.83 53.81 54.52 53.78 54.39 55.11 55.77 55.69 55.67 56.17 56.97 56.63 56.05 55.14 54.76 54.88 55.00 54.96 54.48 50.38 45.14 52.28 54.10 54.46 54.45 54.15 53.87 53.15 51.33 52.03 52.92 50.43 49.06 49.73 47.63 44.28 45.79 44.09 47.76 50.20 50.51
51.73 52.95 53.64 54.57 53.49 53.54 53.66 53.40 53.58 54.14 54.12 54.38 54.74 54.61 54.49 54.82 55.81 55.79 55.28 54.59 54.53 54.96 54.86 54.69 50.42 49.64 43.80 53.37 49.73 53.22 55.09 52.96 52.37 51.96 52.07 52.26 51.77 48.59 48.41 44.62 42.67 43.20 39.91 40.05 43.07 50.28 49.10
51.25 51.47 52.49 53.66 53.63 53.27 53.51 53.50 53.05 53.25 53.50 53.68 54.17 54.23 54.51 54.76 55.32 55.23 53.83 53.78 53.98 53.34 53.45 53.11 51.24 44.65 46.76 47.21 51.92 54.41 54.98 54.08 52.31 50.20 49.86 50.46 47.94 46.08 44.72 43.83 36.59 40.18 40.12 41.20 41.33 47.30 48.03
50.93 50.54 51.05 52.11 52.81 53.26 53.63 53.42 53.39 52.80 53.18 53.26 53.02 54.04 54.45 54.74 55.40 54.72 52.71 50.50 46.07 46.64 49.34 46.99 47.02 44.05 43.92 50.79 54.59 51.84 53.54 52.59 52.25 50.26 45.71 48.37 45.51 42.65 43.77 43.83 43.85 43.50 42.37 41.56 43.65 45.09 47.32
51.80 51.66 51.53 51.42 51.88 51.98 52.81 53.75 53.29 52.89 52.94 53.35 53.06 53.26 54.29 54.82 55.36 53.81 52.17 46.81 47.47 49.62 44.20 49.19 48.87 47.87 49.44 52.68 49.00 52.17 53.00 49.67 49.11 44.97 47.14 45.24 42.61 45.51 45.32 44.48 44.18 43.20 41.59 41.46 43.54 45.16 44.80
51.12 51.35 51.50 51.06 50.91 51.06 51.83 52.68 52.79 52.66 52.45 52.43 52.73 52.75 53.57 54.20 54.36 52.79 50.38 48.57 53.10 53.30 44.39 45.78 48.54 48.21 49.29 51.14 48.20 49.33 50.68 49.00 46.36 43.92 44.55 42.52 44.28 46.33 45.59 44.14 42.72 43.05 41.79 41.46 42.07 43.71 43.18
50.69 50.90 51.05 51.32 51.20 51.16 51.23 52.08 52.89 52.42 52.10 51.87 52.56 52.20 52.32 54.08 51.14 51.11 48.03 52.75 53.67 53.19 38.17 40.39 44.54 48.35 50.66 51.39 47.21 52.76 51.30 50.40 46.45 43.79 44.13 43.93 45.99 44.62 44.32 43.43 43.91 40.05 44.33 43.73 42.78 41.81 38.38
50.54 50.65 50.63 50.88 50.82 50.42 50.10 50.80 51.79 52.35 52.02 51.85 51.68 52.35 52.19 53.92 49.76 48.18 51.24 53.87 52.84 50.39 26.99 42.25 46.65 53.73 51.28 47.49 47.23 47.99 50.94 49.66 45.02 44.21 45.45 43.17 43.82 43.40 42.72 43.65 44.85 42.98 45.24 44.19 43.43 41.53 40.13
50.72 50.70 50.72 50.65 50.50 50.01 49.72 49.86 51.06 51.48 51.56 51.49 51.39 52.23 51.88 52.40 51.89 51.18 53.09 54.85 52.93 39.23 26.91 38.66 46.79 45.28 45.51 45.71 45.77 46.49 47.87 50.43 48.76 45.59 45.28 43.93 46.96 46.34 45.94 46.15 45.59 46.29 44.19 42.21 41.61 40.87 35.70
50.52 50.66 50.66 50.64 50.35 50.11 49.83 49.54 50.00 50.49 51.03 51.01 50.82 52.00 51.69 54.06 48.53 52.91 54.69 52.25 39.56 32.23 40.89 38.42 42.12 43.64 42.79 41.69 42.84 44.10 43.04 43.55 42.44 38.67 39.23 42.34 43.83 46.64 47.76 44.33 45.85 44.46 41.87 35.96 34.02 34.32 33.73
50.44 50.29 50.52 50.62 50.56 50.27 49.86 49.47 49.12 49.71 50.71 50.47 50.51 51.01 50.89 51.62 54.06 52.81 53.78 43.52 31.94 36.63 37.51 43.62 43.28 42.06 39.64 41.36 42.07 42.40 40.99 40.46 42.21 41.28 37.96 37.44 35.40 43.53 47.02 45.48 43.69 42.17 42.38 36.66 29.45 30.74 33.95
50.54 50.34 50.36 50.40 50.33 50.21 49.94 49.43 49.08 48.98 50.07 50.26 50.21 48.41 47.87 50.37 53.55 51.71 46.98 35.96 35.31 38.30 42.17 40.55 41.79 38.79 38.41 40.45 41.77 41.55 40.33 40.53 42.34 43.23 39.08 36.56 37.28 44.72 45.88 47.09 46.34 42.22 39.79 42.65 36.09 34.16 33.94
50.29 50.21 50.09 49.90 49.85 49.90 49.72 49.18 48.99 49.09 49.83 49.99 45.52 44.94 45.04 50.82 53.28 49.41 41.60 36.67 39.81 43.87 46.04 45.45 37.17 40.43 36.59 38.06 39.09 39.88 38.48 41.68 41.42 44.11 46.15 42.45 37.30 43.43 45.40 47.30 46.15 44.03 44.88 38.46 37.53 30.61 29.08
49.64 49.88 50.16 49.82 49.70 49.60 49.60 49.30 48.89 49.08 49.59 49.62 44.28 39.31 45.37 50.82 52.13 44.85 34.59 37.17 40.71 45.17 46.70 43.55 42.24 41.20 39.60 37.87 39.47 38.02 39.15 41.83 43.29 41.93 44.71 42.91 41.48 39.36 44.29 42.74 41.69 41.72 40.48 38.85 39.53 36.36 31.90
48.84 49.15 49.34 49.72 49.68 49.59 49.54 49.19 48.56 48.63 49.24 47.69 41.78 33.66 45.27 50.32 39.33 39.77 35.39 39.37 42.19 42.76 46.62 45.40 45.42 44.17 42.94 40.59 38.04 38.29 39.15 42.26 43.65 44.42 41.48 44.44 41.03 36.04 39.66 43.93 44.97 43.79 42.41 41.27 36.98 33.94 34.23
47.05 47.98 48.53 49.00 49.65 49.37 49.35 49.02 48.35 48.34 48.79 44.52 37.18 38.05 46.94 47.55 32.55 34.67 38.97 40.10 41.72 41.11 42.52 43.53 43.18 44.97 46.01 42.22 37.32 39.74 40.30 44.05 43.63 43.72 43.04 43.92 38.47 34.35 36.31 40.14 43.19 42.03 41.93 40.68 38.65 36.93 34.02
47.07 47.44 47.69 48.33 49.13 49.44 49.47 48.74 48.19 48.16 48.67 44.57 38.62 31.63 40.01 42.04 41.30 36.80 36.33 36.96 38.03 42.58 41.90 44.59 43.62 45.31 43.79 41.85 42.67 40.05 40.02 44.11 44.37 44.73 44.59 45.71 39.65 37.84 34.13 37.51 40.74 38.51 40.12 40.69 40.99 35.71 36.52
46.84 47.07 47.15 47.52 48.25 48.60 49.39 48.56 48.01 48.03 48.39 43.69 39.44 34.98 38.86 33.50 34.55 37.03 38.75 37.72 36.63 36.90 41.97 43.81 41.58 42.57 42.17 38.80 40.28 38.53 42.53 44.20 45.08 45.22 44.90 45.34 38.50 38.43 38.75 39.19 40.24 40.57 40.35 39.41 39.17 40.26 37.85
47.03 46.75 46.98 47.11 47.70 48.13 48.80 48.19 47.65 47.78 48.22 41.37 36.36 36.09 39.24 38.07 37.82 36.17 37.90 36.34 36.13 38.18 39.48 39.11 40.10 41.78 42.42 40.51 41.52 40.12 42.50 43.22 42.30 43.26 43.15 42.88 38.82 38.48 36.99 38.66 39.68 38.95 40.13 39.79 39.45 39.35 39.29
47.12 47.18 47.20 47.01 47.37 48.12 48.78 47.94 47.42 47.52 47.15 40.16 42.12 41.12 39.29 37.59 36.14 33.79 34.55 37.02 37.54 40.54 41.47 42.99 42.45 41.41 40.20 42.78 45.49 45.94 45.91 45.87 46.11 43.96 41.21 40.14 38.20 36.11 34.06 35.71 36.90 33.39 37.81 39.66 40.35 40.94 41.86
46.71 46.20 46.81 46.87 47.50 47.85 48.57 47.57 47.11 47.53 46.57 43.55 43.24 40.99 37.60 32.60 35.71 34.40 35.78 38.34 37.86 39.43 38.56 41.64 43.54 40.95 44.17 49.04 48.29 47.13 45.01 44.13 44.05 43.68 44.82 39.40 37.99 35.28 32.57 31.83 29.07 40.44 41.36 42.04 41.23 41.35 42.09
45.67 46.06 46.53 47.00 47.12 47.25 47.94 47.08 46.95 47.66 47.50 43.10 43.30 41.37 38.94 32.90 37.02 36.86 37.01 37.25 40.02 41.41 40.04 41.33 44.23 46.29 47.28 45.81 39.88 38.72 37.71 37.88 39.29 41.57 41.73 42.01 37.21 32.47 32.62 32.38 35.76 38.29 39.89 40.02 39.15 40.48 42.58
46.50 46.34 46.97 46.65 45.67 46.83 47.17 46.81 46.88 47.39 47.32 44.35 42.19 43.30 42.18 35.94 35.26 40.24 37.77 38.34 36.77 37.20 38.40 41.25 46.48 47.96 47.02 40.69 35.88 31.82 33.78 36.59 35.64 37.55 40.28 37.82 38.56 39.14 30.27 30.92 29.52 39.08 41.77 42.41 42.76 35.49 42.88
46.60 46.92 47.14 46.26 46.27 47.21 46.59 46.48 46.93 47.23 46.94 44.24 42.66 44.26 42.09 38.03 40.89 41.74 38.77 37.82 40.78 39.75 37.62 40.38 42.43 43.11 45.94 35.32 33.80 32.88 33.72 40.09 35.00 34.46 34.38 34.36 33.72 33.66 29.91 33.40 35.51 40.70 41.86 42.97 35.68 39.22 42.70
46.55 46.48 46.38 46.51 47.07 46.50 46.16 46.09 46.38 46.70 46.69 44.29 41.51 44.99 41.39 38.57 40.32 43.18 44.05 41.34 41.54 40.74 36.36 40.03 40.83 41.36 39.91 35.00 35.41 35.31 33.94 37.87 36.93 38.21 36.68 36.30 34.20 32.79 31.82 32.74 32.58 42.28 40.11 38.83 44.36 42.60 43.23
46.30 46.42 46.76 46.53 46.07 46.13 46.04 46.18 46.47 46.31 46.53 44.58 39.62 44.33 44.65 38.90 39.64 44.42 45.56 46.39 44.91 46.21 42.49 43.00 41.14 40.95 41.72 39.43 37.76 36.42 35.22 33.80 36.94 34.94 38.85 36.61 39.52 37.89 38.71 39.18 44.71 43.02 45.71 44.74 43.94 44.41 43.35

GFSGBSN_sfc_wetblb_048.txt.gz
Wetbulb
54.83 54.77 54.58 54.54 54.43 54.59 54.31 55.04 55.38 54.24 54.63 55.09 56.05 56.56 57.13 57.71 59.39 58.72 57.54 56.67 56.61 56.47 56.01 55.76 55.97 56.23 55.53 50.66 49.11 58.74 62.20 62.10 59.29 57.30 53.24 52.86 51.72 51.46 48.40 49.55 49.82 48.64 50.05 50.77 51.64 52.68 55.01
53.91 55.08 54.71 54.46 54.24 54.15 54.02 54.16 54.74 54.77 54.57 54.95 55.18 55.85 56.44 56.93 58.47 58.58 57.73 56.91 56.39 56.02 55.80 55.55 55.58 55.52 52.53 46.18 55.20 60.98 59.91 58.01 57.29 55.91 52.93 53.33 52.97 53.67 51.37 50.53 49.42 51.00 50.69 52.16 52.98 53.21 54.63
52.34 53.32 54.27 55.02 54.46 54.13 54.18 54.05 53.75 54.05 54.35 54.51 54.60 55.42 55.76 56.21 56.71 57.46 57.56 56.80 56.06 55.72 55.58 55.35 55.31 54.46 50.51 49.69 57.60 60.49 58.12 56.62 57.02 55.08 52.37 53.58 54.87 53.41 52.96 50.05 52.52 51.57 49.10 52.47 53.11 54.29 52.56
52.08 52.15 52.30 53.38 54.41 54.27 53.69 53.61 53.72 52.93 53.69 53.45 54.41 54.69 54.44 54.54 54.83 55.64 56.66 56.22 55.58 55.64 55.52 55.42 55.10 53.80 49.45 54.89 56.96 56.76 58.44 56.67 57.39 56.93 54.64 55.57 55.67 53.93 52.64 53.65 51.18 48.64 49.36 46.05 51.89 53.50 53.57
51.57 51.86 51.81 52.51 52.91 53.61 54.10 53.49 53.53 53.61 52.79 53.32 52.90 53.76 53.99 53.64 54.20 54.79 55.74 55.70 55.36 55.19 54.81 54.77 53.49 52.48 48.38 55.14 52.40 55.05 58.35 55.31 56.93 56.59 56.34 54.51 54.89 52.84 52.46 48.47 45.90 47.72 43.30 44.04 46.46 53.24 52.71
51.84 51.52 51.97 52.43 52.24 52.49 53.31 53.77 53.07 53.27 52.95 52.90 52.90 53.28 53.68 53.77 54.14 54.33 54.78 54.49 55.92 53.77 54.96 55.27 54.14 48.97 51.78 48.61 53.46 56.59 57.12 56.22 54.85 55.09 52.90 53.07 53.08 50.25 50.13 47.15 39.97 42.37 43.41 45.02 44.86 50.70 52.15
51.90 52.65 52.51 52.53 51.92 51.49 51.27 52.64 53.62 53.03 52.87 52.59 52.70 53.03 53.24 53.83 54.22 54.89 55.18 57.53 53.11 51.13 52.91 51.16 50.73 49.73 47.52 53.00 57.41 55.68 57.77 55.57 55.29 53.49 49.21 52.42 48.73 46.10 46.32 47.71 47.30 47.10 45.51 44.34 47.76 49.81 49.81
51.73 51.69 51.89 52.30 52.45 51.59 50.86 51.56 52.31 53.18 52.95 52.78 52.51 52.69 52.98 53.85 54.30 54.57 55.65 52.24 52.56 53.34 47.02 52.90 52.15 52.65 53.95 52.98 50.65 54.49 57.08 52.81 51.96 48.45 50.73 49.11 46.46 48.92 49.39 48.91 46.94 47.15 45.39 44.94 47.42 48.17 48.00
51.29 51.25 51.47 51.73 51.96 52.27 51.79 51.42 50.90 51.76 52.77 52.49 52.22 52.43 52.49 52.73 54.41 54.40 55.15 53.48 57.08 56.42 48.15 49.53 52.40 50.76 51.41 53.34 50.02 51.16 53.95 53.30 50.49 48.18 48.98 46.76 47.65 49.66 48.84 47.95 46.26 46.97 45.47 44.85 44.73 47.62 47.81
51.34 50.96 51.08 51.34 51.59 52.05 51.87 51.79 51.14 51.09 52.18 52.34 51.95 51.57 51.95 51.79 51.63 54.17 52.06 56.86 57.09 56.55 43.74 43.89 46.25 50.33 52.18 52.68 48.66 54.39 55.60 52.77 49.93 47.03 48.30 47.77 50.27 48.01 47.92 46.72 47.82 44.04 48.66 46.87 45.94 45.17 40.96
51.21 51.07 51.13 51.17 51.00 50.89 51.08 51.10 51.23 50.77 51.46 52.18 51.61 51.57 51.74 52.30 53.65 52.20 54.60 58.15 57.77 54.93 30.95 45.12 47.68 55.32 52.96 49.47 49.73 51.10 55.69 52.65 48.05 47.56 48.47 46.07 47.71 47.23 46.34 46.99 48.78 45.34 48.56 47.35 46.95 45.45 44.54
51.20 51.26 51.21 51.17 50.88 50.65 50.88 50.75 50.66 50.39 50.70 51.88 51.51 51.36 51.32 51.28 52.11 54.97 56.99 58.22 55.37 41.65 30.92 41.46 48.90 47.73 47.29 49.02 48.28 50.51 50.72 53.45 52.86 48.81 49.45 48.47 50.84 49.99 48.35 49.41 49.45 49.51 47.63 47.18 47.05 45.66 39.06
50.87 51.04 51.24 51.12 50.90 50.78 50.73 50.77 50.35 50.11 50.43 51.30 51.24 51.30 50.75 52.03 48.41 56.62 57.69 54.49 40.72 34.02 43.19 40.93 44.55 47.19 46.11 45.02 46.06 47.62 47.09 46.57 45.26 42.01 42.68 46.41 46.80 49.55 50.34 47.36 49.62 48.71 45.76 38.97 37.39 37.84 37.20
50.70 50.76 50.87 50.95 50.85 50.72 50.74 50.65 50.22 49.81 49.91 50.67 50.63 50.42 50.39 51.05 53.06 57.02 53.79 45.25 33.36 38.15 40.65 45.32 46.10 46.57 43.17 44.88 45.63 46.47 45.69 44.25 47.76 46.56 43.55 41.09 39.18 46.62 49.92 47.68 46.04 46.65 45.71 40.01 32.13 34.53 38.50
50.87 50.88 50.81 50.72 50.92 50.79 50.70 50.56 50.27 49.86 49.40 50.11 50.22 49.65 48.98 50.27 52.41 53.25 47.09 35.87 35.95 39.91 43.85 42.38 44.45 43.21 42.38 43.20 44.64 45.37 44.93 44.17 47.03 48.00 42.18 41.24 41.03 47.83 49.25 50.05 49.43 46.10 43.02 47.38 41.35 40.42 39.03
51.04 50.88 50.75 50.54 50.29 50.59 50.38 50.29 50.19 49.93 49.30 49.48 48.46 45.00 46.19 50.92 52.23 47.14 40.29 36.67 39.61 45.15 46.34 46.09 39.71 44.42 41.21 41.23 40.56 43.07 43.90 46.69 46.16 48.61 49.60 45.76 40.36 46.92 48.32 50.41 49.46 47.89 49.35 41.55 43.23 33.80 32.49
50.83 50.70 50.45 50.17 50.17 50.07 50.09 50.17 50.14 49.74 49.24 49.38 46.43 39.24 46.65 52.00 51.06 41.01 33.90 38.78 41.80 46.84 48.10 45.82 43.90 41.71 43.50 41.68 41.95 41.36 43.11 44.95 48.40 47.65 49.38 47.74 45.16 43.71 47.47 46.05 45.52 45.66 44.56 44.79 44.69 42.45 36.12
48.94 48.75 49.28 49.85 49.85 49.80 49.95 50.01 49.98 49.55 49.09 48.06 42.88 34.32 49.63 51.62 36.95 38.34 34.25 41.03 42.94 44.18 49.17 47.22 47.90 46.55 44.75 43.92 42.26 41.28 42.20 44.99 48.70 49.41 45.08 48.34 45.47 40.87 43.18 47.79 49.09 48.17 46.14 46.36 40.36 38.16 40.92
47.95 48.03 48.21 49.41 49.51 49.61 49.62 49.77 49.72 49.30 48.95 45.51 36.87 38.47 49.09 46.90 30.56 33.73 38.94 40.37 42.62 43.05 45.53 45.94 45.63 47.58 48.01 44.60 40.80 43.46 44.64 48.87 48.72 48.43 46.85 47.69 43.55 38.53 40.04 43.71 46.76 45.06 46.49 46.82 45.82 43.82 40.12
47.47 47.48 47.74 47.96 49.38 49.38 49.54 49.42 49.58 49.12 49.01 45.94 38.04 32.56 39.84 41.30 42.78 38.38 37.24 36.35 38.13 44.10 44.09 47.09 46.47 48.20 46.47 44.46 45.51 41.46 43.24 45.43 48.05 49.10 46.82 48.65 45.24 41.86 37.80 40.97 44.70 42.54 44.39 45.74 44.84 40.65 40.89
47.25 47.42 47.63 47.54 47.20 47.84 49.13 49.21 49.34 49.19 48.34 45.82 38.60 36.65 39.62 32.75 36.12 39.93 41.04 39.11 37.52 37.53 44.02 46.34 44.98 45.87 45.18 41.73 42.13 41.40 43.11 45.20 46.03 45.77 47.91 48.51 42.13 44.18 44.14 44.70 44.58 43.62 43.47 44.53 43.25 44.32 41.32
47.01 47.02 47.30 47.46 46.88 47.46 48.41 48.75 48.92 48.74 48.11 41.72 34.13 37.87 42.22 39.10 39.27 37.45 39.29 36.90 37.63 39.54 41.13 41.41 42.18 45.16 46.46 43.49 43.62 41.19 43.90 44.18 45.02 47.03 47.00 48.52 42.49 44.49 41.99 44.55 43.88 42.06 43.94 44.37 44.86 44.82 45.31
48.02 46.87 46.89 47.45 46.95 47.57 47.85 48.25 48.47 48.63 47.05 40.12 42.49 45.38 42.45 38.83 37.88 35.05 37.67 38.73 38.58 41.68 43.47 44.19 44.44 43.23 43.48 45.31 47.77 47.50 47.68 47.23 47.55 46.39 46.08 45.57 43.96 41.79 38.04 42.89 42.33 36.70 42.61 44.41 45.27 46.87 46.52
46.17 46.49 46.41 47.51 46.96 47.33 47.45 47.44 48.01 48.39 46.67 45.97 45.14 44.30 39.83 35.28 37.55 35.68 37.12 39.41 39.62 41.31 40.79 44.13 45.49 43.71 47.28 50.16 49.49 48.30 46.61 46.38 47.79 48.07 49.24 45.26 44.35 43.45 38.77 36.71 32.69 43.82 47.52 48.23 46.30 47.50 48.87
46.27 46.88 48.00 47.02 46.81 47.06 47.07 47.20 47.11 48.02 47.07 45.14 47.56 44.43 40.80 36.30 38.88 38.43 37.65 38.34 40.60 42.77 42.36 43.15 45.63 47.55 50.26 46.78 41.60 37.77 38.75 39.80 43.54 46.62 47.38 48.45 45.69 40.43 38.22 37.07 41.67 41.69 43.80 44.95 44.61 45.34 49.57
45.90 45.71 46.92 47.09 46.72 46.95 46.97 46.93 46.59 47.42 47.06 45.64 47.08 49.47 45.36 39.49 37.55 41.08 39.17 39.11 38.06 40.22 41.63 43.88 48.06 50.86 48.85 44.50 41.37 35.43 32.98 34.75 38.08 41.05 44.29 45.64 46.17 44.07 37.51 35.86 34.21 43.69 47.98 49.60 48.15 41.96 49.66
45.52 45.58 46.55 46.75 46.60 46.64 46.56 46.52 47.22 46.94 46.91 45.79 45.73 49.93 46.39 39.84 42.86 43.05 39.34 38.13 41.91 41.12 40.83 43.07 45.20 45.63 48.35 42.30 38.82 36.55 35.54 41.06 35.13 37.45 37.09 38.57 39.56 38.79 39.60 38.89 42.50 47.31 47.97 48.71 39.91 43.73 49.89
45.71 45.74 45.88 46.22 46.22 46.35 46.30 46.79 46.73 46.75 46.83 45.40 44.54 49.28 47.29 41.73 42.24 44.23 45.28 42.33 42.76 43.01 40.59 43.97 43.79 44.31 43.19 39.33 39.60 39.98 39.40 40.90 40.93 42.15 40.97 39.24 38.52 38.43 40.87 38.28 36.00 47.78 45.63 44.29 50.08 50.49 51.23
45.94 46.15 46.04 45.78 45.85 45.86 46.64 46.55 46.38 46.94 46.47 46.61 41.78 47.32 48.67 44.29 38.75 43.94 45.45 47.43 45.94 48.20 46.09 46.98 44.02 44.06 44.85 41.68 43.16 43.27 40.99 40.83 41.20 37.45 45.02 39.51 44.76 43.40 43.23 43.86 50.58 49.28 50.68 51.51 52.94 52.02 50.41

GFSGBSN_sfc_wetblb_051.txt.gz
Wetbulb
53.90 54.18 55.51 55.20 55.37 54.79 54.70 54.80 55.18 55.15 55.12 54.87 55.03 55.31 55.12 56.54 57.02 58.10 58.54 57.80 57.67 57.61 57.12 56.85 56.57 56.38 57.39 53.71 53.00 61.54 62.62 62.33 58.49 58.33 54.57 54.53 53.04 52.67 49.75 50.01 50.66 49.80 50.88 51.92 53.11 53.41 55.71
52.80 52.96 53.72 54.31 54.78 54.60 54.68 55.07 54.97 54.24 54.26 54.87 54.74 54.96 55.35 56.02 56.32 56.86 57.25 57.74 57.44 57.16 56.89 56.62 56.54 55.64 55.57 49.32 56.53 59.44 62.07 60.29 58.18 57.33 54.68 55.26 54.36 54.62 52.77 51.03 50.28 52.23 51.80 52.07 53.24 53.98 53.79
52.63 52.74 52.77 53.59 53.66 53.93 54.78 54.60 54.36 54.07 53.92 54.00 53.73 54.30 54.88 55.26 55.08 55.40 56.26 56.78 56.86 56.80 56.74 56.51 56.17 56.18 52.33 52.19 57.94 59.26 60.18 58.36 58.33 56.86 54.60 56.32 56.54 54.47 54.20 50.93 53.13 52.29 49.49 51.84 52.76 53.79 53.25
52.30 52.38 52.47 53.01 53.01 53.17 53.82 54.07 54.04 54.12 53.95 53.71 53.93 53.89 53.86 54.23 53.86 54.25 54.95 55.69 56.30 56.74 56.32 55.97 55.82 56.41 50.40 57.84 58.07 58.52 59.91 57.79 58.00 57.61 56.30 56.85 57.63 55.52 53.80 54.53 51.84 48.60 49.57 45.43 47.89 53.77 54.45
53.06 52.77 52.37 52.93 52.99 52.90 53.01 53.44 53.62 54.13 53.81 53.64 53.17 53.18 53.28 53.40 53.60 53.74 54.46 55.31 56.08 56.82 55.32 54.87 55.79 55.11 50.43 56.53 53.26 56.48 60.08 56.31 56.76 56.79 57.44 56.54 56.09 53.48 53.55 48.85 46.91 48.20 43.42 45.29 47.52 52.93 53.19
51.54 52.86 53.84 53.23 53.00 52.80 52.88 52.73 52.67 53.56 53.83 53.33 53.07 52.86 53.04 53.09 53.37 53.44 54.02 55.23 56.83 54.74 55.19 57.78 57.06 51.84 54.18 51.43 53.51 54.20 60.02 58.53 56.07 56.01 54.38 53.65 52.65 50.36 50.39 48.00 41.53 43.67 44.08 45.79 45.32 49.75 51.52
51.50 51.75 52.54 52.81 53.43 53.28 52.32 52.45 52.41 52.62 53.56 53.68 53.29 52.75 52.71 52.99 53.17 53.73 54.99 57.52 54.11 53.14 54.84 49.98 52.26 50.50 50.52 54.32 56.98 54.22 56.62 57.18 55.92 54.23 49.23 52.39 48.79 46.67 49.29 49.70 48.57 47.31 46.06 45.13 47.51 51.40 50.07
52.05 51.87 51.93 52.14 52.08 52.39 52.66 52.26 51.84 51.91 52.77 52.71 53.33 52.66 52.56 52.90 53.05 53.46 56.11 52.66 53.26 54.81 47.53 53.50 53.97 53.70 55.94 54.82 51.63 53.00 58.02 53.09 52.09 48.92 51.51 50.43 46.65 50.68 51.04 49.96 48.11 47.01 45.98 45.31 48.28 50.00 49.37
51.92 52.09 52.17 52.24 52.41 52.29 51.69 52.47 52.12 51.72 51.40 52.29 52.55 52.74 52.16 52.42 52.57 53.54 54.73 54.40 58.52 58.39 47.83 47.83 51.58 51.99 52.48 54.61 50.88 51.31 55.72 54.03 51.08 49.23 49.66 47.72 49.45 51.49 49.11 48.44 46.31 46.60 46.09 45.41 45.83 48.55 49.50
51.59 51.44 51.79 52.00 52.02 52.17 52.34 52.27 52.03 51.90 51.33 51.46 52.04 52.38 51.52 51.84 49.30 52.55 52.69 57.01 58.19 59.47 42.69 43.37 49.12 51.88 53.82 53.42 49.76 54.86 55.56 53.88 51.67 48.52 49.64 49.13 51.53 49.36 48.37 47.36 47.86 43.97 48.86 47.82 46.68 45.55 41.16
51.42 51.46 51.48 51.71 51.92 51.67 51.40 51.52 51.73 51.96 51.71 51.31 52.16 52.10 51.44 50.94 51.02 52.20 55.76 58.67 60.12 56.61 30.08 46.14 48.83 55.71 53.60 50.16 51.05 51.57 55.81 52.94 49.01 48.92 49.53 47.03 48.17 47.94 46.94 48.00 49.52 46.44 49.84 48.07 47.38 45.92 45.19
51.32 51.36 51.50 51.63 51.44 51.51 51.22 51.06 51.10 51.13 51.37 50.97 51.78 51.98 51.55 50.66 51.40 52.09 53.68 59.36 57.76 41.38 31.04 43.12 49.87 48.10 48.69 49.42 49.57 52.02 51.82 53.93 53.00 49.48 49.59 48.71 52.48 50.97 50.04 50.85 50.35 50.55 48.38 47.89 48.08 45.99 39.41
51.03 51.09 51.24 51.51 51.43 51.41 51.43 51.15 50.96 51.05 50.92 50.92 50.98 51.77 50.82 52.79 48.63 54.11 54.50 53.08 40.01 33.51 42.97 41.87 45.36 48.22 47.35 46.77 47.00 48.74 48.06 47.00 44.83 42.49 43.85 47.02 48.47 51.04 51.34 48.25 50.84 49.53 46.13 39.26 37.72 38.45 37.83
51.11 51.11 51.14 51.22 51.36 51.33 51.39 51.16 50.78 50.72 50.82 50.61 50.70 50.78 50.41 51.33 54.43 54.32 50.02 43.59 32.76 39.04 40.42 46.66 46.66 47.62 44.49 47.25 47.20 47.56 47.00 44.61 47.96 47.26 45.01 42.12 40.77 47.99 50.75 48.56 47.70 47.12 46.35 40.64 33.41 35.67 38.72
51.51 51.34 51.19 51.06 51.10 51.18 51.20 51.12 50.83 50.70 50.49 50.24 50.48 50.20 48.17 51.84 54.06 53.75 43.10 33.91 36.51 40.46 43.36 42.82 45.37 43.69 43.94 46.33 46.73 46.45 46.14 45.16 46.79 48.13 43.73 43.04 43.07 49.71 50.03 50.87 49.88 47.36 43.95 48.97 42.59 44.26 39.93
51.23 51.25 51.23 50.96 50.71 50.83 50.79 51.02 50.82 50.67 50.43 49.89 47.90 46.50 46.57 50.96 54.21 49.97 38.22 34.66 39.58 43.88 43.78 44.81 40.70 45.41 42.28 44.18 43.89 45.27 45.20 47.70 46.51 48.99 50.50 46.99 42.02 47.50 48.71 50.71 50.74 48.84 50.68 43.06 44.30 34.77 33.79
50.76 50.98 51.21 51.01 50.71 50.61 50.65 50.69 50.76 50.55 50.24 49.72 45.47 40.37 47.61 52.78 52.68 42.46 32.31 37.16 42.84 45.31 45.62 43.41 43.06 43.15 45.37 45.41 44.85 44.40 44.98 47.55 48.48 48.01 49.84 48.97 45.92 44.99 48.59 46.60 45.92 46.79 46.06 46.90 46.22 43.40 36.69
50.42 50.37 50.55 50.52 50.57 50.49 50.70 50.70 50.62 50.31 49.98 48.02 42.96 34.86 47.98 52.59 37.50 37.95 33.90 40.26 43.49 45.21 46.93 45.74 47.10 47.21 44.20 46.51 45.21 44.17 44.30 46.94 49.43 49.37 45.16 49.13 46.74 42.64 44.65 49.44 50.56 49.02 47.19 47.28 41.54 40.67 43.09
48.31 48.38 48.30 48.69 49.31 50.23 50.48 50.35 50.32 50.11 49.92 45.50 38.59 39.37 50.63 49.59 31.05 33.67 38.27 38.93 41.77 42.64 43.99 43.51 44.48 47.86 49.10 46.51 43.69 45.97 45.96 49.73 49.83 48.70 47.36 48.95 44.54 39.61 41.79 46.09 48.94 47.07 48.51 48.62 48.25 46.70 41.48
48.06 48.09 48.05 48.42 48.78 48.88 49.25 49.54 50.09 49.88 49.94 46.08 39.03 32.98 39.72 42.21 42.64 38.39 36.77 37.73 37.44 44.25 44.19 44.99 44.55 47.50 46.49 46.36 48.11 45.23 45.84 48.20 50.19 49.54 48.62 49.00 46.18 42.89 39.15 42.54 45.99 43.76 45.52 47.01 46.27 42.57 41.93
47.33 47.24 47.15 47.32 47.73 47.88 48.14 48.90 49.68 49.64 49.80 45.36 39.13 36.74 39.36 32.65 36.48 39.87 40.16 39.18 37.05 37.65 44.17 45.63 42.45 42.60 44.81 42.43 44.67 44.59 46.90 46.39 47.86 47.78 48.86 49.08 43.26 44.57 44.77 45.95 46.12 45.38 45.12 45.44 44.37 45.29 42.05
46.77 46.72 47.12 47.36 47.54 47.67 47.82 48.11 48.82 49.41 49.55 42.72 34.02 38.72 41.92 40.28 40.21 38.22 38.74 37.44 37.94 39.66 41.65 41.49 41.86 42.58 45.38 43.57 45.17 44.06 46.50 45.48 44.66 47.87 47.69 49.69 43.53 45.14 42.44 45.38 45.06 43.09 45.04 45.08 45.23 45.63 45.65
46.85 46.97 47.12 47.54 47.76 47.72 47.78 47.74 48.67 49.12 48.72 41.16 40.91 44.84 43.42 38.84 38.59 37.19 37.65 38.36 38.51 41.65 42.98 44.12 44.76 44.07 42.39 45.87 49.27 50.49 49.07 48.62 48.27 46.74 46.31 46.03 45.33 42.73 39.13 44.11 44.06 39.93 43.78 44.71 45.38 46.58 46.42
47.23 47.58 47.67 47.82 47.87 47.95 47.66 47.63 47.87 48.55 48.57 42.12 43.72 44.90 40.48 36.31 37.93 38.24 39.21 40.39 39.46 41.25 40.72 43.64 45.06 44.19 47.17 51.48 51.05 49.27 47.08 46.15 47.31 47.01 48.70 45.76 45.22 44.15 39.93 39.17 33.42 44.06 48.90 48.20 46.32 47.31 48.42
47.13 47.52 47.71 47.73 47.71 48.11 47.37 47.33 47.17 48.48 48.52 43.71 46.49 44.33 41.99 37.68 39.50 39.15 39.18 40.23 41.46 43.02 42.12 43.13 45.38 47.92 50.77 48.54 43.05 40.12 39.08 38.82 41.64 45.67 45.99 48.92 46.29 41.80 38.50 38.29 41.65 44.33 46.67 46.82 45.74 45.34 49.37
47.34 47.62 47.38 47.33 46.97 47.21 46.97 47.05 46.83 47.08 48.39 45.81 48.87 49.20 45.65 39.20 38.84 41.82 39.03 41.27 39.00 40.79 41.83 42.52 48.07 51.85 50.11 44.53 41.00 35.14 32.43 35.96 35.15 37.41 45.77 46.99 48.07 43.75 41.08 35.90 33.33 43.73 48.35 51.11 50.35 42.87 50.41
46.58 46.37 46.79 46.86 46.76 46.33 46.44 46.87 46.80 47.42 48.26 45.84 46.37 49.08 45.95 39.35 43.02 42.73 39.31 40.30 43.13 42.62 40.57 43.14 46.34 46.24 49.14 41.55 37.94 35.99 35.63 40.75 35.19 35.62 38.19 40.97 42.55 39.95 40.54 38.87 42.11 47.98 49.60 51.80 41.60 43.96 51.62
45.86 45.97 46.00 46.19 47.02 46.62 46.87 46.62 46.75 47.24 47.82 45.73 44.40 48.88 46.72 42.36 43.24 43.70 45.01 43.48 42.48 43.39 39.73 43.67 43.20 44.17 43.41 39.33 39.01 38.71 39.62 40.34 39.95 41.84 41.03 39.68 38.93 39.59 41.47 38.97 36.63 50.84 49.55 45.53 50.64 54.00 53.28
45.49 46.00 46.66 46.14 45.95 46.11 46.41 46.28 46.62 47.11 47.36 46.95 43.19 48.29 50.76 44.44 41.98 46.63 48.37 49.88 47.58 48.21 45.98 46.72 44.57 44.76 45.34 41.96 43.47 43.28 42.69 43.43 41.07 37.65 44.76 39.66 44.14 42.57 44.02 44.19 51.23 51.32 51.77 53.32 54.45 53.66 54.56

GFSGBSN_sfc_wetblb_054.txt.gz
Wetbulb
53.35 53.45 53.62 54.00 54.73 55.20 55.31 55.57 55.42 54.30 53.89 54.28 53.73 54.96 54.70 54.76 55.42 56.32 56.51 56.70 57.52 58.34 58.31 57.96 57.93 57.75 56.02 53.20 53.98 61.47 63.17 60.76 57.55 56.19 55.11 52.49 51.46 50.93 48.57 50.30 50.32 48.55 49.71 50.90 52.09 52.33 53.15
52.62 52.84 53.21 53.43 53.66 53.71 53.92 54.90 55.56 54.68 54.40 52.89 53.34 53.59 53.87 55.05 54.82 55.14 55.06 55.39 56.22 57.04 57.72 57.73 57.70 56.58 55.02 47.44 59.07 60.83 60.63 60.47 57.36 55.76 54.86 53.64 53.05 54.21 51.72 50.95 49.43 50.92 50.87 50.66 51.64 52.12 53.26
52.87 52.80 52.94 53.69 53.78 53.31 53.13 54.00 53.78 54.94 54.09 53.79 53.15 53.17 54.11 54.04 54.58 54.62 54.32 54.46 55.27 56.01 57.46 57.44 57.28 56.68 53.10 51.62 58.64 58.86 59.20 59.90 57.78 56.44 53.37 54.65 55.23 53.52 53.20 50.88 52.86 50.86 47.67 49.71 51.27 51.93 51.60
52.98 53.48 53.25 53.47 53.32 53.45 53.37 53.28 53.96 53.47 54.69 54.13 53.96 52.85 53.02 53.48 53.15 53.95 53.78 53.76 54.52 55.73 57.20 57.29 56.51 55.50 49.43 58.65 59.94 58.13 58.59 57.84 58.18 57.59 55.67 56.82 56.57 53.95 52.81 53.92 51.40 48.51 47.87 43.51 50.17 51.66 52.59
52.19 52.67 53.11 53.90 53.34 53.07 53.24 53.32 53.17 53.56 53.49 54.28 53.91 53.38 52.35 52.25 52.80 53.08 53.25 53.58 54.25 55.73 56.96 56.69 54.33 54.34 48.67 57.85 55.56 56.76 57.86 55.30 56.35 56.07 56.29 56.51 55.42 52.10 51.72 48.04 45.52 46.83 42.06 43.83 47.30 51.89 52.26
51.95 52.51 52.94 53.00 52.60 53.45 53.20 53.10 52.96 52.90 53.17 53.13 53.68 53.68 52.98 52.36 51.99 52.44 52.94 53.33 54.68 55.89 56.65 57.69 56.36 49.97 52.95 50.37 55.36 56.37 56.81 57.54 54.51 53.47 52.84 52.56 51.18 47.87 48.24 46.13 39.87 42.82 43.25 44.94 44.55 49.74 50.70
51.57 51.68 52.18 52.81 52.74 52.91 52.16 53.51 53.07 52.65 52.65 53.06 53.59 53.76 53.29 52.55 52.49 52.40 52.12 54.59 52.36 52.90 54.47 50.32 50.12 48.12 48.82 55.89 55.13 53.00 54.81 55.94 55.47 52.61 46.94 50.40 45.89 43.22 46.59 48.88 48.95 47.44 45.17 44.09 47.48 51.05 49.46
52.24 52.26 52.06 52.27 52.88 52.90 52.07 52.33 52.78 52.53 52.26 52.23 53.14 52.75 53.27 52.55 52.63 52.60 51.60 50.07 51.67 54.80 47.24 52.50 53.71 53.44 54.24 55.63 50.61 52.94 54.38 52.00 51.25 47.04 49.64 47.62 44.23 48.67 50.43 50.42 48.66 46.99 44.74 44.37 47.47 50.30 48.41
52.00 52.23 52.15 51.78 52.11 52.53 52.25 52.52 52.24 51.78 52.44 52.15 52.23 52.19 52.46 52.44 52.29 50.55 47.89 50.16 56.50 56.73 46.85 47.00 49.19 48.22 50.99 52.77 50.40 51.40 52.30 52.29 49.64 47.09 47.93 45.66 47.96 51.35 49.34 48.39 46.20 45.75 44.10 44.45 45.30 48.06 49.15
51.60 51.56 51.73 51.83 51.89 52.10 52.10 52.19 52.30 52.00 51.56 51.94 51.44 51.78 51.33 51.80 47.95 50.83 48.62 55.41 56.38 57.21 41.40 41.34 44.67 47.98 49.25 51.50 47.84 54.35 54.10 51.76 49.97 46.23 47.64 47.78 50.73 49.62 48.46 46.87 47.43 43.23 47.25 47.12 46.64 45.19 40.39
51.40 51.36 51.65 51.84 51.92 51.79 51.82 51.96 51.94 51.94 51.92 51.94 51.65 52.07 51.65 50.95 49.98 50.51 54.66 55.71 58.46 55.58 26.82 43.96 46.10 55.25 51.62 48.01 49.85 49.74 54.81 52.47 47.62 47.88 48.49 46.31 47.99 47.49 46.47 46.91 49.19 45.84 49.62 48.04 46.48 44.07 43.79
51.07 51.01 51.44 51.67 51.67 51.43 51.65 51.59 51.57 51.58 51.60 51.52 51.71 51.70 51.52 49.83 50.22 51.10 55.78 54.17 56.28 39.30 28.40 41.70 49.11 47.43 47.44 48.49 48.88 51.24 50.72 52.94 52.34 48.81 49.54 48.24 51.88 50.07 48.76 50.00 49.92 50.60 48.10 47.81 47.02 44.59 38.13
50.84 51.16 51.41 51.47 51.49 51.47 51.63 51.60 51.56 51.35 51.36 51.34 51.42 51.32 51.04 50.47 47.02 53.59 54.62 51.11 38.32 31.04 41.77 40.01 45.01 47.83 46.08 45.92 46.65 47.44 47.28 45.88 44.18 41.25 42.63 46.34 46.74 49.91 51.01 47.46 50.06 48.62 45.23 38.07 36.39 36.37 36.38
50.59 50.74 51.08 51.33 51.33 51.41 51.37 51.47 51.27 51.31 51.10 51.18 50.72 50.62 50.16 49.90 52.64 52.43 50.72 42.59 29.93 37.02 38.71 46.38 45.81 47.26 43.97 46.53 46.16 46.02 45.76 43.67 47.49 45.89 43.09 41.16 39.05 46.47 50.28 48.23 46.13 46.51 45.14 39.51 31.89 33.62 37.49
50.62 50.83 51.08 51.21 51.41 51.46 51.31 51.27 51.29 51.05 50.84 50.83 50.75 49.08 48.55 50.71 52.17 51.79 43.18 31.49 32.97 37.36 42.47 41.70 43.67 43.04 43.98 46.53 46.25 44.95 45.11 44.86 46.94 46.99 41.93 41.28 41.41 48.42 49.97 50.20 49.07 46.68 42.35 47.69 42.57 42.54 39.46
50.59 50.73 50.73 50.85 51.04 51.17 51.11 50.98 51.02 51.11 50.87 50.67 48.26 46.40 45.95 51.01 53.53 49.19 37.88 32.54 37.22 41.45 42.72 43.46 38.96 43.53 41.79 44.58 43.90 43.70 43.63 47.35 46.53 48.58 49.66 45.98 41.29 47.50 48.98 50.32 49.74 47.23 49.82 41.91 42.92 34.13 32.57
49.98 50.34 50.59 50.61 50.67 50.71 51.01 51.05 50.94 51.09 50.99 50.55 45.92 39.88 46.89 51.19 51.52 41.57 31.84 35.27 38.95 43.01 43.65 40.86 40.10 39.86 41.56 43.32 44.96 43.45 44.06 46.86 48.39 48.23 49.08 47.78 44.96 44.83 47.70 45.46 44.29 45.02 44.05 46.38 45.68 42.86 36.02
49.12 49.49 49.63 49.93 50.28 50.55 50.84 50.99 50.70 50.64 50.60 48.75 43.17 34.21 47.78 49.77 36.65 38.01 34.27 38.15 41.59 41.44 43.58 43.19 43.97 42.34 42.06 44.22 44.07 44.54 43.42 46.63 50.30 49.47 45.34 48.30 46.35 41.04 43.55 48.30 49.30 47.89 45.99 46.26 40.41 39.23 42.96
48.80 48.96 49.60 49.71 50.11 50.36 50.33 50.52 50.64 50.44 50.45 46.68 38.95 38.79 47.61 47.60 31.05 32.98 37.96 37.21 40.13 40.48 40.64 41.90 41.77 43.78 45.01 43.70 41.07 45.44 47.20 49.84 51.12 49.17 47.28 47.58 43.46 38.40 39.82 44.99 48.05 45.14 47.06 47.30 47.05 46.08 41.33
48.54 48.78 49.19 48.85 48.89 48.64 48.93 50.31 50.72 50.38 50.45 47.35 38.83 32.45 39.98 41.69 41.49 36.35 35.41 35.91 36.07 41.36 41.16 42.45 43.16 45.22 43.49 42.25 45.52 43.45 45.61 49.26 51.38 49.49 48.21 48.46 45.48 42.22 37.43 40.83 45.26 43.49 45.25 47.26 46.07 40.57 41.17
48.74 48.75 48.17 48.18 48.31 48.48 48.64 48.98 49.83 50.39 50.24 46.91 38.91 34.75 39.73 31.63 34.29 38.03 39.23 37.91 35.77 36.09 40.59 42.33 40.77 42.45 42.19 39.73 40.75 40.01 45.79 47.37 48.59 48.12 49.84 48.86 42.11 44.63 44.70 45.16 45.84 45.35 44.68 45.22 44.32 44.76 41.17
47.69 47.60 47.62 47.68 47.98 47.95 48.16 48.21 49.18 50.06 50.07 44.83 32.51 36.80 40.89 38.58 38.32 37.11 36.99 36.95 36.22 38.53 38.87 37.52 38.94 41.87 43.76 40.84 41.79 39.19 43.43 46.14 44.73 47.98 47.02 48.53 42.45 44.40 42.32 44.55 44.40 42.79 45.16 45.09 45.03 44.88 44.66
46.73 46.64 46.50 46.76 46.85 47.13 47.34 47.54 47.88 48.27 48.96 43.46 40.31 44.03 41.32 37.81 37.69 35.88 35.27 38.01 38.06 40.49 41.70 41.84 41.64 42.14 42.15 43.58 47.34 48.15 45.14 47.20 48.48 47.05 45.81 45.50 44.47 41.95 37.55 43.58 42.60 36.72 43.43 44.67 45.20 46.73 45.72
46.18 46.38 46.69 46.74 46.86 47.14 47.23 47.35 47.36 47.66 47.88 43.65 40.11 43.70 37.53 33.42 36.96 36.66 38.00 39.27 38.68 39.97 39.46 42.42 43.68 42.22 46.21 51.06 50.35 48.59 46.18 42.96 43.66 47.74 48.78 44.98 43.93 42.74 37.89 38.33 30.88 43.09 48.32 47.46 45.56 46.40 47.54
46.33 46.85 47.19 47.34 47.16 47.37 46.97 47.18 47.25 47.36 48.07 44.73 44.37 42.91 39.48 35.01 38.85 38.55 38.91 39.27 40.27 41.33 41.04 42.34 44.52 46.53 49.71 48.63 42.28 37.69 36.01 35.87 39.78 46.24 45.70 46.64 43.85 40.18 36.31 36.01 40.66 43.42 45.92 45.70 44.52 44.09 48.57
47.19 47.32 47.54 47.63 47.44 47.39 47.40 47.45 47.39 47.44 47.87 45.92 44.66 47.83 43.72 37.65 37.80 41.39 39.24 40.48 38.29 38.54 39.80 42.56 46.61 49.59 48.38 42.81 40.08 32.39 30.57 33.64 32.82 38.74 46.14 45.56 44.59 40.34 40.51 33.83 30.93 42.67 47.67 49.98 49.63 39.82 49.67
47.07 47.08 47.15 47.22 47.14 47.02 47.26 47.43 47.55 47.53 47.71 46.28 44.48 47.74 44.89 38.15 42.77 42.51 39.02 39.59 42.73 40.76 39.16 42.56 43.05 44.47 49.10 40.43 36.11 35.11 33.99 39.47 33.18 33.90 34.50 37.25 36.81 36.42 37.75 36.34 40.79 46.91 48.60 49.86 39.15 40.88 51.44
46.07 46.35 46.49 46.75 47.04 47.21 46.99 47.05 47.13 47.44 47.44 46.33 43.97 47.50 44.61 39.79 43.44 44.39 43.66 41.25 42.26 42.20 38.09 43.55 41.73 43.67 40.45 37.82 37.53 37.54 36.97 38.03 37.38 39.41 38.80 36.40 34.56 36.53 38.92 36.39 34.03 50.19 48.83 43.49 47.76 51.12 53.91
46.31 46.26 46.54 46.31 46.35 46.52 46.49 46.86 47.25 47.24 47.15 47.20 43.07 47.68 49.86 44.06 42.03 46.97 47.29 48.42 47.42 47.26 44.36 45.17 43.45 43.51 43.55 39.40 41.65 41.49 40.34 41.00 39.30 34.50 44.25 36.71 40.45 38.66 41.89 42.23 49.84 49.90 50.01 52.68 53.15 53.11 53.86

GFSGBSN_sfc_wetblb_057.txt.gz
Wetbulb
53.31 53.37 53.59 53.76 53.70 53.72 54.22 54.33 55.36 55.43 54.82 53.77 52.99 53.55 53.01 54.39 55.06 55.12 54.81 54.46 54.71 55.54 56.69 57.80 58.48 58.48 54.19 49.77 51.10 59.02 61.64 60.62 56.06 54.20 52.07 50.71 48.62 46.14 43.97 45.15 46.42 44.80 45.84 48.06 48.57 48.88 49.10
53.32 53.24 53.07 53.41 53.28 53.36 53.33 53.51 54.47 54.11 54.67 54.60 53.68 52.88 52.58 52.83 53.18 53.61 54.28 54.20 53.97 54.36 55.50 56.81 58.11 57.44 52.43 45.42 56.95 59.89 58.81 56.88 54.44 51.75 51.27 51.81 49.23 50.19 48.18 48.03 45.49 48.15 47.29 46.64 48.08 48.01 49.00
53.14 53.70 54.16 54.16 54.01 53.73 53.26 53.76 53.70 53.99 53.98 54.53 54.52 53.79 52.28 52.50 52.35 52.31 53.38 53.68 53.49 53.76 54.87 56.11 57.61 55.77 50.69 47.92 55.98 55.19 56.91 57.41 55.97 53.67 50.98 52.94 51.68 48.18 49.43 47.19 50.91 49.63 44.66 45.99 46.30 48.32 48.43
52.57 52.84 52.77 53.43 53.89 53.78 53.65 53.67 53.77 53.49 53.87 53.88 54.35 53.88 53.34 52.05 51.86 51.64 52.32 52.88 53.02 53.66 54.44 55.82 57.35 53.02 47.01 56.06 56.25 55.74 56.31 54.97 57.91 56.43 54.16 54.00 52.78 50.27 48.55 50.06 48.45 45.07 43.90 38.45 44.63 48.50 49.75
52.15 52.53 52.78 53.12 53.21 53.09 53.32 53.48 53.46 53.46 53.48 53.57 53.54 53.21 53.42 52.86 52.05 51.83 51.78 52.57 52.88 53.73 54.48 55.62 53.46 50.12 46.65 57.11 53.02 55.10 55.56 53.77 54.97 55.44 53.34 54.59 52.25 48.05 48.00 42.56 40.15 41.35 36.57 39.15 42.27 48.61 49.25
51.86 51.94 52.49 53.01 52.99 53.09 53.15 52.94 53.44 53.33 53.29 53.23 53.37 53.47 53.49 53.37 52.56 52.03 51.78 52.29 52.55 53.41 54.97 56.53 54.76 47.24 51.64 49.10 53.73 55.47 55.48 54.25 53.02 52.08 50.23 49.01 46.07 42.61 41.47 38.38 33.65 38.52 40.00 38.83 39.49 45.57 48.27
51.28 51.70 51.61 52.46 52.82 53.11 52.34 52.89 52.75 52.99 53.12 53.19 52.92 53.41 53.29 53.43 52.73 52.11 50.65 47.89 47.06 48.62 51.39 48.36 48.01 46.69 48.44 53.01 55.15 52.09 54.64 51.88 52.41 49.02 42.71 46.24 40.01 38.15 39.82 42.93 44.41 43.95 43.19 40.12 41.50 47.10 46.16
50.70 51.14 51.25 51.86 52.64 52.53 52.66 52.99 52.68 52.22 52.09 53.08 52.52 52.94 52.63 52.38 52.73 52.25 49.65 44.59 48.48 48.03 42.72 51.68 52.44 51.16 53.13 55.29 49.16 51.40 52.59 47.76 48.21 44.07 45.20 43.05 39.56 44.65 46.54 46.05 45.57 45.80 42.20 40.07 43.69 48.89 45.28
50.99 51.63 51.48 51.63 52.08 52.21 52.30 52.73 52.63 52.28 52.15 52.32 52.38 52.02 52.36 51.84 52.26 49.17 45.81 45.74 51.08 48.58 42.29 44.93 48.93 47.91 49.06 51.17 48.77 48.81 50.33 48.20 46.93 44.63 44.57 41.10 44.05 47.73 46.35 44.93 44.51 44.14 41.46 40.35 41.17 44.75 44.02
50.97 51.29 51.69 51.58 51.73 52.15 52.23 52.17 52.27 52.15 52.04 52.00 52.13 51.82 50.99 51.13 47.14 46.34 44.09 52.66 52.92 49.83 37.36 39.62 42.94 46.18 48.13 48.39 46.24 52.82 53.00 48.49 47.86 44.47 45.32 43.84 47.78 46.53 45.51 44.61 45.65 40.46 45.88 44.80 43.52 41.22 35.70
50.72 50.98 51.26 51.74 51.94 51.93 51.82 51.99 52.25 52.30 52.11 52.03 51.57 51.72 51.20 51.01 45.52 44.03 50.08 50.72 52.09 50.96 18.99 40.94 43.21 50.62 48.15 44.00 47.27 47.87 52.61 49.24 44.71 45.58 45.35 42.49 44.73 44.56 43.77 45.60 47.47 43.59 48.40 45.94 44.55 40.05 36.99
50.33 50.63 50.78 51.38 51.38 51.45 51.59 51.58 51.91 52.01 52.20 51.88 51.66 51.64 51.21 48.35 47.04 47.00 50.42 49.60 50.52 37.42 25.59 38.72 47.33 45.62 43.34 43.80 45.10 48.65 47.79 50.33 49.58 45.72 46.29 45.03 48.75 47.04 46.45 48.46 48.26 48.46 46.08 45.11 43.38 39.34 31.54
50.14 50.45 50.89 50.98 51.35 51.33 51.44 51.61 51.69 51.67 51.85 51.67 51.50 51.52 50.00 48.21 42.67 48.93 51.83 47.22 35.34 28.09 38.43 36.20 42.72 45.46 44.31 42.11 42.00 43.75 43.63 42.05 40.20 38.13 39.15 43.75 44.82 47.71 49.17 44.84 47.48 45.16 41.92 32.12 29.70 29.94 28.83
49.95 50.24 50.52 50.63 51.00 51.19 51.38 51.44 51.41 51.45 51.60 51.55 51.30 50.90 50.21 47.91 47.44 49.00 48.37 40.24 28.30 33.53 34.67 42.33 40.83 42.77 41.58 43.79 43.17 42.58 41.25 39.50 43.49 42.60 39.03 37.38 35.67 44.62 47.61 45.43 43.78 42.84 40.83 32.68 27.90 28.57 31.71
49.69 49.77 50.11 50.32 50.88 51.19 51.24 51.39 51.35 51.39 51.34 51.37 50.77 48.78 47.15 47.53 47.42 49.01 42.22 30.95 28.92 34.07 38.77 37.01 38.01 36.10 39.37 43.70 43.50 42.46 41.31 40.61 43.40 43.92 38.23 37.36 38.29 46.79 47.35 47.95 46.86 44.17 38.99 43.69 37.14 40.56 32.76
49.18 49.67 50.12 50.25 50.52 50.89 50.89 51.12 51.25 51.33 51.32 51.03 46.90 45.66 44.12 48.92 47.74 44.57 36.85 32.23 34.24 40.05 40.17 38.78 33.19 38.46 34.72 40.28 41.11 40.66 40.36 44.21 43.22 45.91 46.32 42.36 37.09 45.16 46.93 47.54 47.03 44.68 46.93 38.05 37.76 30.56 28.80
48.72 49.11 49.67 49.78 49.98 50.13 50.70 50.95 51.29 51.32 51.18 50.83 45.56 40.25 45.21 48.97 47.89 40.09 30.98 31.81 35.50 40.70 41.57 37.92 35.47 34.64 35.92 36.21 38.64 38.00 40.61 44.34 45.31 45.86 46.56 44.18 40.45 40.94 45.90 43.48 42.10 41.72 40.96 42.86 41.63 37.81 30.74
48.09 48.38 48.86 49.29 49.53 49.74 50.35 50.77 50.90 51.28 50.88 49.19 43.73 34.71 46.09 47.90 35.75 36.29 31.27 34.53 38.84 38.71 41.67 39.84 39.40 38.15 36.54 37.55 37.04 38.35 38.93 43.35 47.17 46.39 42.56 44.73 41.33 36.53 40.19 46.61 48.10 46.02 42.49 41.86 35.48 35.33 36.77
47.39 47.98 48.43 48.82 49.12 49.38 49.62 50.31 50.63 50.76 50.71 47.01 39.76 38.96 46.06 44.91 30.11 30.54 35.30 34.99 37.05 36.13 38.20 37.63 37.45 39.41 39.69 37.33 34.57 41.76 43.25 47.15 48.99 46.34 43.82 44.06 39.87 34.53 37.71 41.71 45.72 42.82 43.42 44.50 43.48 41.42 36.25
47.17 47.65 48.06 48.62 48.66 49.14 49.57 49.79 49.81 50.38 50.78 47.69 38.46 31.63 38.71 40.95 38.20 32.75 32.04 32.65 33.12 39.21 37.17 38.63 38.45 39.74 37.47 36.01 39.99 40.09 41.59 46.19 47.39 46.39 47.95 46.96 41.02 38.26 33.33 37.21 42.46 39.91 43.11 43.80 42.72 33.92 36.22
47.13 47.39 47.60 48.02 48.54 48.78 49.23 49.22 49.90 50.30 50.44 47.66 36.90 33.21 37.47 32.09 33.12 34.07 34.01 34.71 32.82 33.24 38.29 38.35 35.80 36.28 36.10 33.12 36.74 37.70 42.85 43.81 46.21 47.02 46.85 45.42 38.77 40.51 41.71 43.26 44.27 43.43 43.09 42.82 41.41 42.29 37.96
46.89 47.25 47.48 47.90 48.15 49.11 48.89 49.05 48.64 48.79 49.65 45.65 32.19 35.24 38.54 34.46 36.89 34.23 34.54 32.85 32.37 35.24 36.13 35.11 33.91 36.16 37.42 34.45 36.17 36.54 42.37 42.66 41.32 44.47 43.41 46.18 37.33 39.88 38.34 42.46 43.03 41.73 43.54 43.54 43.36 44.47 43.80
47.15 47.49 47.70 48.26 48.24 48.38 48.41 48.28 48.49 48.60 48.28 43.86 40.83 39.94 38.93 35.88 34.58 33.45 32.32 32.64 34.35 36.27 38.05 39.30 38.23 36.04 34.59 37.20 41.23 45.51 45.40 45.09 44.19 42.71 40.63 41.67 38.77 37.15 33.72 40.74 40.60 34.36 40.08 42.35 43.13 44.10 43.99
46.96 46.83 46.92 47.02 47.14 47.65 47.79 47.79 47.73 48.11 48.12 44.30 40.85 41.61 36.37 33.14 33.75 32.91 35.00 35.18 34.88 37.32 35.83 39.06 40.68 37.33 39.87 47.31 47.99 45.13 43.41 43.51 43.48 43.14 45.19 38.97 39.86 37.20 30.69 33.90 28.87 40.01 44.93 44.53 43.35 45.03 44.97
46.19 46.33 46.47 46.57 46.67 46.77 46.51 46.72 46.83 47.31 47.83 44.93 42.00 41.17 38.08 32.08 35.34 34.98 34.99 35.00 36.44 38.02 37.10 38.85 40.64 42.76 43.09 40.37 36.97 35.32 33.83 36.19 38.96 42.07 42.67 42.89 40.32 33.10 31.98 32.71 37.09 41.10 43.35 42.08 41.47 40.76 45.61
46.26 46.50 46.93 46.93 46.93 46.87 46.82 46.74 46.65 46.89 47.34 45.49 43.96 43.56 41.52 34.81 34.55 38.41 35.75 36.73 34.16 34.85 35.26 37.40 42.66 43.94 42.41 37.36 33.65 29.25 27.57 33.45 32.51 35.52 42.24 39.09 42.23 35.36 31.45 29.22 28.01 37.78 44.60 47.93 47.02 35.68 46.88
46.44 46.70 47.11 47.22 47.23 47.07 47.20 47.12 46.84 46.90 47.33 45.57 43.64 44.23 40.80 34.00 39.51 39.80 36.10 35.63 39.57 37.90 35.62 37.50 38.88 39.20 41.64 32.87 29.46 29.54 31.20 37.45 30.62 30.30 30.92 32.18 32.56 31.86 32.19 31.58 34.58 43.55 46.54 48.43 35.63 35.60 47.55
46.92 47.04 46.99 46.83 46.82 47.04 47.09 47.16 47.34 47.09 47.20 45.87 43.44 45.23 41.06 37.00 40.00 42.36 43.71 39.12 39.52 39.32 34.70 37.37 37.51 39.04 37.45 30.65 30.21 29.09 27.06 34.43 34.56 37.07 35.56 33.45 31.31 30.68 33.14 30.16 28.76 46.31 46.46 40.30 42.68 46.94 48.22
46.77 46.65 46.31 46.26 46.37 46.33 46.81 46.95 47.27 47.41 47.12 47.06 41.97 45.87 45.37 40.80 41.27 45.02 45.68 46.38 45.80 44.56 41.76 40.16 38.58 38.79 38.74 34.53 33.29 33.96 28.60 31.38 32.40 29.07 40.88 33.82 37.10 35.16 36.82 34.85 44.61 46.09 47.53 48.12 47.85 46.80 49.55

GFSGBSN_sfc_wetblb_060.txt.gz
Wetbulb
53.67 53.48 53.35 53.25 53.43 53.65 53.80 53.82 54.76 54.61 54.28 54.51 54.81 54.39 54.15 53.79 53.39 52.93 52.69 53.50 54.09 54.17 54.22 54.28 55.54 57.91 54.27 49.63 49.41 56.68 61.15 60.18 55.18 52.26 49.84 48.86 46.96 44.81 41.11 42.87 44.01 42.65 44.79 46.51 46.78 47.46 50.13
53.17 53.80 53.95 53.98 53.46 53.39 53.22 53.27 54.14 54.05 54.30 54.24 54.13 54.46 54.44 53.79 53.65 52.88 52.64 52.87 53.17 53.64 53.96 53.89 54.87 57.30 51.36 43.46 53.11 56.64 57.52 54.83 52.73 50.04 49.75 49.99 48.41 47.88 45.17 45.22 43.69 46.23 46.71 46.45 46.12 45.96 50.87
52.73 52.97 53.78 53.65 53.91 53.74 53.59 53.83 53.91 54.13 53.82 54.19 54.21 54.03 54.09 54.08 53.88 53.23 52.97 52.70 52.48 52.94 53.70 53.79 54.30 55.48 49.04 45.90 53.18 52.94 55.69 54.59 53.92 52.02 49.24 50.87 51.19 46.98 46.32 45.20 48.70 47.69 43.41 44.99 45.25 44.46 47.09
52.34 52.52 52.68 53.43 53.44 53.72 53.48 53.97 54.03 54.05 53.91 53.76 53.76 53.76 53.45 53.18 53.02 53.14 52.82 52.52 52.40 52.78 53.50 54.14 54.59 54.10 44.80 54.09 54.14 53.78 53.87 52.81 54.64 55.48 52.71 52.65 51.60 47.86 46.07 47.79 46.32 43.10 41.89 37.04 43.08 44.03 47.54
51.60 52.33 52.37 52.87 53.25 53.26 53.23 53.37 53.43 53.72 54.05 53.74 53.65 53.34 53.38 53.01 53.18 52.95 52.62 52.47 52.60 53.10 53.59 54.39 52.08 49.61 44.18 56.17 52.40 54.58 53.25 51.27 53.57 54.75 53.39 55.21 50.64 46.11 46.33 40.71 37.43 38.70 34.51 37.27 40.97 45.91 46.45
51.17 51.65 52.20 52.19 52.81 52.84 53.17 53.09 53.08 53.14 53.59 53.65 53.51 53.22 53.24 53.29 52.89 52.44 52.01 52.08 52.14 52.39 51.93 55.30 54.37 44.10 48.32 45.70 52.76 53.74 53.17 52.88 51.24 51.30 50.07 47.62 44.41 41.14 39.71 37.18 31.29 34.61 36.00 35.85 38.01 41.62 46.45
51.28 50.90 51.17 51.57 51.50 51.80 52.28 52.73 53.05 52.87 53.01 53.12 53.53 53.01 52.78 52.95 52.52 52.25 50.53 46.73 44.04 45.86 49.40 47.29 47.68 45.36 46.43 50.99 55.23 51.61 53.49 51.55 49.95 47.80 42.47 44.60 39.30 37.34 38.79 40.23 41.48 40.74 39.15 38.15 41.29 45.66 45.74
50.19 49.97 50.27 50.90 51.30 51.79 52.21 52.75 52.98 52.95 52.77 52.75 52.72 52.89 52.45 52.54 52.12 52.05 49.18 43.24 44.21 44.08 37.89 47.39 49.32 49.95 51.61 52.66 47.95 51.08 52.55 47.01 45.72 41.94 43.47 41.08 38.12 43.05 44.06 43.50 42.26 41.33 39.27 39.64 41.67 46.64 43.86
49.39 49.00 49.60 50.45 51.21 51.78 52.11 52.43 52.48 52.41 52.62 52.56 52.37 52.39 52.14 51.63 51.49 48.35 45.74 44.85 48.88 47.82 39.32 43.64 47.73 47.61 49.04 51.35 46.77 47.60 49.76 46.98 44.33 42.37 42.39 39.69 41.93 45.59 44.19 42.55 41.38 40.89 39.36 40.03 39.95 41.91 42.94
47.82 49.82 50.69 50.58 50.95 51.37 52.12 52.20 52.49 52.37 52.23 52.23 52.11 51.77 51.53 50.58 45.60 45.50 43.48 49.36 50.22 48.90 34.07 36.49 41.92 43.96 46.81 48.31 43.84 50.51 50.45 46.65 44.11 42.43 43.94 41.01 45.59 44.15 43.01 41.71 42.66 38.03 44.30 43.78 42.19 38.50 34.26
49.50 50.30 50.47 50.48 50.61 51.48 51.77 51.96 52.21 52.27 52.17 52.29 51.93 51.82 51.32 50.87 43.38 42.46 47.43 49.38 50.40 46.83 17.64 36.50 42.21 49.58 47.46 43.08 44.57 46.52 50.59 47.79 41.67 43.91 43.83 41.49 43.37 42.63 41.58 42.98 45.17 41.81 46.40 44.06 43.12 38.12 34.97
49.24 49.83 49.77 50.58 50.86 51.03 51.44 51.49 51.48 51.83 51.85 52.09 52.08 51.82 51.13 48.16 45.24 45.56 48.20 48.90 47.99 34.72 22.09 36.54 43.66 41.78 41.46 42.72 43.09 46.84 46.45 49.09 47.80 43.70 44.41 43.39 47.63 45.21 44.86 46.55 46.27 47.68 44.18 43.05 40.92 37.36 31.05
48.95 48.94 49.27 50.07 50.59 50.86 51.22 51.39 51.30 51.65 51.65 51.89 51.94 51.85 50.46 47.94 40.60 45.44 47.63 46.80 34.08 26.83 37.47 34.61 41.45 43.43 40.90 39.33 40.26 42.32 41.86 40.77 39.60 36.20 36.20 41.87 43.45 46.29 46.72 42.70 45.55 44.29 38.53 30.49 29.34 28.78 28.81
48.59 48.71 49.31 49.90 50.19 50.51 50.83 51.02 51.13 51.10 51.37 51.48 51.09 51.01 50.27 48.19 45.50 45.40 46.46 40.03 26.38 32.09 32.26 39.52 39.25 38.98 40.35 40.55 39.50 40.75 40.00 37.50 42.47 40.61 37.42 34.74 33.13 42.37 46.63 43.73 41.60 41.19 39.50 31.53 27.55 26.60 30.13
48.10 48.34 48.84 49.54 49.80 50.06 50.51 50.82 50.96 51.07 51.22 51.01 50.75 48.58 47.28 46.73 46.11 46.54 40.21 30.22 29.24 32.79 37.44 35.99 36.90 34.14 34.63 40.87 41.18 39.01 38.09 37.92 40.87 42.70 36.31 35.86 35.97 45.25 46.19 46.90 44.97 41.90 36.99 42.47 35.52 35.55 30.98
47.64 48.09 48.71 48.64 49.10 49.64 50.18 50.53 50.93 51.04 51.24 50.87 47.18 45.53 44.60 47.46 45.99 43.93 35.57 30.73 33.17 38.49 38.80 38.43 31.58 34.84 31.99 34.97 36.84 35.96 38.16 42.29 40.87 43.41 44.02 40.06 34.54 42.93 45.12 46.49 45.99 44.21 45.43 36.06 35.52 28.05 27.31
47.15 47.96 48.26 48.34 48.51 48.83 49.64 50.49 50.59 50.94 51.15 50.90 46.18 39.93 45.98 47.71 46.53 39.01 28.73 31.13 34.89 39.70 39.64 36.97 34.25 33.39 34.41 34.65 37.32 37.06 38.15 41.70 43.39 43.59 45.09 41.41 38.83 38.61 42.75 41.07 39.71 40.41 38.98 40.37 39.49 35.25 28.75
47.08 47.43 47.50 47.86 48.31 48.91 49.59 50.04 50.62 50.80 50.60 49.18 44.17 34.57 45.97 47.63 34.66 34.91 30.54 33.79 38.52 36.78 39.87 38.22 38.25 36.49 34.50 36.67 35.46 35.69 36.39 40.92 46.58 45.96 40.41 43.43 38.38 34.35 37.87 43.88 45.43 44.60 41.76 40.75 33.89 33.32 34.56
46.71 46.85 47.17 47.59 47.99 48.26 48.71 49.60 49.94 50.32 50.35 46.92 40.19 38.60 45.74 43.51 28.86 30.25 33.02 33.59 35.87 35.41 36.29 36.45 36.17 37.55 37.66 34.30 32.79 36.60 39.15 45.74 47.36 45.55 42.85 43.38 37.38 32.15 34.07 39.97 43.51 41.01 42.09 43.23 41.31 38.94 34.88
46.29 46.45 47.24 47.95 48.12 48.13 48.61 48.87 49.50 50.01 50.48 47.46 37.17 31.43 39.04 40.11 36.79 32.15 30.99 31.08 32.24 38.13 35.54 36.55 36.20 37.46 35.78 33.72 35.96 33.82 36.59 43.60 47.01 46.26 46.12 44.98 41.10 36.35 32.13 34.97 39.85 38.29 40.90 43.06 40.66 32.33 34.38
45.98 46.51 46.72 47.07 47.38 47.94 48.42 48.88 49.14 49.66 49.80 47.17 35.81 33.00 36.71 31.89 33.15 34.08 33.63 33.10 30.91 31.27 37.16 37.83 34.40 34.22 33.48 30.53 32.67 32.38 37.86 42.24 46.05 46.09 45.46 44.26 37.27 38.98 40.23 40.90 41.91 41.54 41.59 41.43 39.77 39.52 35.40
45.88 46.20 46.30 46.72 47.08 47.55 48.04 48.22 48.51 49.04 49.59 44.19 31.63 34.19 38.00 33.11 36.68 34.09 33.91 30.86 30.96 33.29 34.82 33.53 32.73 34.79 34.85 32.11 33.36 31.93 35.25 36.22 40.42 44.22 42.11 43.07 36.40 38.94 36.93 40.94 41.28 39.92 41.65 42.94 42.73 40.68 40.20
46.13 46.25 46.43 46.74 47.17 47.71 48.10 48.19 48.49 48.67 48.61 43.11 43.42 40.58 38.89 35.87 35.24 33.03 31.43 31.67 32.65 34.44 35.96 37.65 36.72 34.96 33.30 34.92 37.26 38.29 42.60 43.77 43.83 41.18 39.98 37.81 37.41 34.94 30.86 37.99 38.98 32.84 39.32 41.38 41.77 42.86 41.57
46.20 46.58 46.74 47.09 47.52 47.94 48.10 48.08 48.35 48.56 48.48 44.17 42.02 41.68 36.63 32.00 33.35 32.96 34.23 34.66 33.23 34.73 33.21 36.72 37.91 35.39 38.89 42.12 44.48 43.33 41.50 42.01 42.65 42.57 43.67 37.17 35.54 35.81 31.29 31.81 27.74 38.93 43.81 43.68 41.87 43.58 44.51
46.66 46.62 46.47 46.96 47.21 47.33 47.53 47.96 47.91 48.12 48.60 44.21 43.71 41.21 37.93 32.21 34.26 33.69 34.26 34.43 35.43 35.84 34.70 36.57 38.84 40.63 42.29 38.11 34.08 31.09 30.03 32.72 36.47 41.34 43.03 43.30 38.19 31.98 30.80 30.52 35.42 39.02 41.68 41.15 40.60 40.67 44.98
45.86 46.12 46.52 46.39 46.21 46.26 46.31 46.77 47.44 47.29 47.67 45.74 43.75 43.72 39.65 34.80 34.35 36.92 34.16 35.22 32.41 32.30 33.04 35.58 40.93 42.22 40.31 34.28 30.52 25.20 22.36 29.32 30.46 35.95 42.34 39.46 39.14 33.92 31.27 28.03 26.40 36.21 43.14 45.93 45.39 34.50 44.31
45.72 45.93 46.02 46.30 46.71 46.51 46.55 46.58 46.50 46.70 47.07 44.92 43.91 44.05 39.85 32.58 37.84 38.11 34.08 33.74 36.92 34.63 31.84 34.66 36.13 36.47 39.53 30.25 26.14 26.24 26.00 33.78 28.21 28.53 29.92 30.07 29.47 29.81 30.92 30.56 32.80 41.37 44.84 46.46 35.53 35.54 45.34
45.74 45.86 45.83 46.02 46.16 46.55 46.69 46.79 46.74 46.63 46.71 45.05 41.96 44.36 40.48 35.16 36.70 40.88 41.54 36.67 37.02 36.59 31.90 34.67 35.20 36.03 35.85 30.53 29.03 27.44 25.06 32.00 31.77 34.56 32.86 30.42 28.64 28.98 31.78 30.70 27.13 44.57 44.98 38.13 40.98 45.30 47.23
46.48 46.64 46.67 46.73 46.69 46.78 46.78 46.89 47.05 47.13 46.72 46.39 40.55 44.79 45.14 39.13 38.13 44.48 44.10 45.84 43.46 42.28 38.36 37.04 36.14 36.53 38.00 34.23 31.19 30.47 25.68 26.03 30.56 27.35 38.21 30.94 35.69 32.59 34.71 33.94 43.11 45.27 45.53 48.11 47.13 45.47 46.80

GFSGBSN_sfc_wetblb_063.txt.gz
Wetbulb
53.25 53.96 54.26 54.02 53.92 53.74 53.64 53.54 54.16 54.22 54.16 54.26 54.44 54.17 53.69 54.21 54.64 54.17 53.67 53.30 53.40 53.16 52.76 53.21 53.89 54.47 53.45 47.01 47.62 54.42 60.96 60.38 54.92 50.06 47.42 47.20 45.53 43.77 40.00 40.40 41.96 40.56 43.18 45.13 46.38 45.19 46.36
52.73 52.91 53.01 53.02 53.10 53.35 53.97 54.01 53.97 53.87 54.19 53.93 54.01 54.34 54.18 53.52 53.49 54.25 53.82 53.32 53.21 53.17 53.20 52.99 53.65 54.15 50.37 41.58 50.06 53.71 55.81 53.94 50.73 48.86 48.35 48.20 45.72 46.65 43.62 42.57 42.04 44.65 45.08 45.14 45.61 45.44 50.50
52.07 52.34 52.97 53.34 53.36 53.17 52.91 53.78 53.75 54.02 54.11 54.05 53.93 53.80 54.07 53.36 53.19 53.58 53.64 53.52 53.02 53.04 53.34 52.99 53.37 51.96 47.82 43.80 50.96 50.88 51.17 50.79 51.99 50.15 47.60 49.39 49.15 45.78 44.80 43.13 46.12 45.62 42.05 42.82 43.51 43.06 47.15
51.88 52.18 51.80 53.01 53.03 53.22 53.26 53.34 53.42 53.41 53.56 54.03 53.59 53.74 53.35 53.43 53.13 53.25 53.29 53.15 52.94 53.10 53.38 53.17 53.37 52.21 44.03 52.82 51.25 51.70 50.92 51.36 53.04 51.20 51.20 51.59 50.12 46.93 44.60 45.53 44.41 41.37 39.89 35.38 41.04 42.34 44.75
51.24 51.85 51.88 52.45 52.65 52.82 52.92 53.02 53.19 53.09 53.49 53.50 53.80 53.58 53.13 52.80 52.84 52.49 52.19 52.23 52.75 53.19 53.40 53.34 50.52 49.45 42.56 53.99 51.12 53.80 52.50 50.12 51.28 52.56 52.18 54.55 49.55 45.46 44.01 39.63 36.55 36.62 32.31 35.38 39.40 43.17 42.84
51.06 51.10 51.35 51.35 52.03 52.49 52.41 52.61 52.90 53.00 53.41 53.31 53.49 53.43 53.11 52.53 52.18 51.68 51.36 51.97 52.34 51.69 50.98 53.42 53.47 43.83 45.95 44.40 49.64 52.50 52.63 51.16 48.64 49.81 49.01 47.73 44.08 39.94 37.98 36.58 30.74 32.54 33.59 33.92 35.18 40.19 43.25
50.74 50.58 51.04 50.71 50.74 51.21 51.55 51.99 52.74 52.96 53.12 53.21 53.16 53.00 53.06 52.55 52.28 51.41 49.59 45.94 41.05 42.53 45.42 43.58 45.25 45.18 46.36 50.00 53.73 50.70 52.48 49.22 48.31 46.52 41.32 42.86 38.16 36.01 39.61 39.82 39.63 38.84 36.91 35.33 38.11 42.83 43.08
49.49 49.78 50.03 49.78 49.97 50.51 51.55 52.02 52.69 52.75 53.00 53.18 53.16 52.73 52.67 52.71 52.22 51.44 47.86 42.27 42.44 44.23 39.31 45.17 43.77 46.00 50.22 51.63 45.72 48.16 51.45 45.41 43.94 39.48 42.80 40.08 37.44 41.80 42.65 41.92 40.35 38.84 36.80 36.63 39.75 43.15 43.24
48.97 49.12 49.04 48.87 49.55 50.37 51.20 51.47 52.33 52.59 52.44 52.44 52.61 52.59 52.30 51.93 51.55 45.86 43.72 44.08 49.42 48.17 39.60 41.88 44.12 43.00 43.71 48.85 45.04 45.54 48.29 45.37 42.45 39.61 40.30 38.56 40.97 44.30 42.34 40.17 39.06 38.22 36.88 37.23 37.64 40.26 39.91
48.94 49.38 48.47 48.45 49.34 50.06 50.61 51.12 51.94 52.36 52.28 52.10 52.31 52.18 51.44 51.09 44.11 44.26 42.72 47.97 48.15 48.96 33.45 33.80 39.93 43.23 46.06 48.19 43.23 49.48 48.91 46.21 42.77 39.94 41.11 39.64 44.74 42.41 40.37 39.75 40.10 35.68 41.77 41.32 40.26 36.56 32.62
48.47 48.51 48.77 49.16 49.66 50.16 50.57 51.20 51.71 51.90 51.97 52.04 51.76 52.25 51.53 51.22 41.96 40.38 45.78 47.85 48.98 46.35 18.09 35.66 40.64 47.31 46.17 41.79 41.81 44.89 49.15 44.90 40.00 41.68 41.98 39.40 41.11 40.56 39.63 41.17 42.35 39.47 43.64 41.95 40.67 37.04 33.40
48.16 47.82 48.81 48.93 49.24 49.63 50.46 51.11 51.16 51.39 51.67 51.81 51.80 52.09 51.53 48.42 45.49 45.16 46.70 46.37 47.63 33.74 20.51 34.35 41.67 40.41 40.13 41.80 41.46 45.66 44.45 47.12 45.82 41.01 41.64 41.85 45.34 43.33 42.80 44.90 44.72 45.48 42.37 41.33 38.96 35.93 29.68
47.70 47.57 47.75 47.96 48.64 49.19 50.16 50.90 50.84 51.28 51.31 51.47 51.39 52.01 50.48 47.19 40.37 44.34 45.01 43.75 33.39 25.66 35.69 33.10 37.93 40.47 39.82 38.34 38.90 40.46 40.13 38.44 37.80 34.42 34.14 39.88 41.85 44.50 44.85 40.70 43.52 41.92 37.34 29.44 27.78 27.69 28.88
47.01 47.33 47.77 47.99 48.07 48.91 49.66 50.46 50.57 50.77 50.75 51.14 51.02 50.79 50.31 47.88 45.67 44.97 43.24 38.76 26.98 31.14 31.69 37.28 36.75 37.10 37.63 38.80 38.73 38.63 37.09 33.83 38.98 38.44 34.74 32.73 30.94 41.06 44.55 42.70 40.55 39.12 38.01 30.07 26.43 25.75 29.15
46.44 46.40 47.12 47.83 47.48 48.55 49.32 49.54 49.66 50.23 50.36 50.73 50.68 48.48 46.92 45.78 45.05 44.35 37.50 30.08 29.99 32.37 36.14 35.18 35.78 32.11 33.94 37.97 40.12 38.17 35.81 35.20 38.05 40.42 35.46 33.58 33.55 43.53 44.44 45.23 44.34 39.28 35.05 41.32 33.80 32.34 29.69
45.95 46.31 47.12 47.47 47.54 48.22 48.61 48.92 49.74 50.10 50.43 50.63 47.13 45.72 44.63 46.00 45.68 40.32 33.14 30.30 33.81 38.17 38.13 37.34 30.72 33.55 29.49 33.02 35.28 36.76 37.86 41.20 39.28 42.12 43.26 39.36 32.81 41.95 44.11 44.07 43.32 41.94 43.28 34.64 33.69 27.12 26.49
45.55 45.52 46.03 46.88 47.45 47.81 48.25 48.78 49.25 49.70 50.17 50.47 46.03 40.27 45.51 46.86 45.77 37.17 26.98 30.13 34.28 38.70 38.47 35.12 33.85 32.31 33.14 32.39 33.98 35.03 37.05 40.59 43.22 43.91 43.24 40.88 37.37 37.42 41.82 38.76 37.75 38.26 37.31 38.55 38.10 33.52 29.39
45.99 45.96 46.31 46.97 47.37 47.60 47.92 48.46 48.96 49.45 49.92 48.65 44.12 34.75 45.66 46.70 34.46 34.31 28.44 32.12 37.58 36.05 38.66 36.92 37.00 35.62 33.63 34.33 32.78 33.75 35.27 38.60 45.80 45.25 40.78 41.99 37.38 33.10 36.91 42.84 43.75 41.83 40.23 40.70 34.08 32.18 32.72
45.47 45.87 46.23 46.63 47.10 47.20 47.64 47.78 48.56 49.04 49.70 46.50 39.65 37.55 45.81 43.41 29.17 29.92 32.58 32.21 34.95 34.91 35.18 34.94 34.58 36.25 36.49 33.03 29.10 33.93 36.89 43.26 46.41 45.19 42.61 43.51 37.11 29.96 33.43 38.06 40.23 38.44 40.13 40.82 39.60 36.77 34.23
45.50 46.04 46.12 46.49 46.83 46.92 47.29 47.42 48.10 48.74 49.53 46.59 35.22 31.27 38.31 39.93 35.43 31.72 30.86 30.32 30.83 36.15 34.69 35.80 34.73 35.69 34.00 32.33 34.49 31.68 33.88 39.84 43.50 46.47 45.97 44.89 39.41 36.05 30.03 33.83 37.79 35.84 38.73 40.57 39.33 32.90 33.30
45.23 45.61 45.64 45.74 46.34 46.69 47.17 47.48 48.22 48.25 49.06 45.72 34.38 32.37 37.40 31.13 33.09 33.43 33.56 32.36 30.43 29.82 35.63 36.02 32.94 33.07 31.41 29.00 30.95 30.42 34.05 38.08 42.51 45.52 44.53 42.39 36.15 37.91 37.26 38.83 39.89 39.28 39.79 39.78 38.42 38.37 34.17
45.73 45.75 45.73 46.14 46.11 46.80 47.13 47.52 47.68 48.17 48.75 43.15 31.28 34.24 37.65 33.29 36.51 33.39 33.64 31.16 30.61 32.47 33.11 32.41 31.78 34.04 33.41 30.08 31.56 29.36 33.10 33.11 35.53 41.06 42.12 42.68 34.23 36.58 33.07 38.79 38.15 37.53 39.36 40.15 39.20 38.64 38.06
45.56 45.61 45.40 45.60 46.01 46.56 47.03 47.07 47.36 47.90 48.14 41.04 41.41 40.77 38.93 35.85 34.79 32.90 31.60 32.14 32.75 35.10 35.56 35.87 35.34 33.70 31.98 33.96 35.97 37.17 36.81 37.35 38.82 40.17 37.79 38.30 35.78 33.45 30.00 35.78 35.17 31.19 37.13 39.22 40.17 42.76 39.79
45.35 45.35 45.49 46.00 46.10 46.58 46.74 46.82 46.98 47.47 47.97 44.08 43.11 41.43 36.12 31.89 32.81 32.92 34.46 34.26 32.57 34.29 31.99 35.90 36.77 34.65 37.54 40.02 40.94 40.66 39.57 39.74 40.54 41.79 41.67 36.49 35.10 33.47 28.87 31.91 25.01 36.75 40.87 42.05 40.79 42.32 43.20
45.65 45.68 46.07 46.47 46.54 46.79 46.86 46.86 47.04 47.25 47.82 44.29 43.99 41.64 37.79 32.06 34.97 34.21 34.84 34.46 35.02 35.26 34.33 34.38 36.60 38.96 40.69 36.94 32.87 30.10 28.13 30.78 34.80 40.07 40.67 39.76 35.42 31.65 26.68 27.92 32.49 34.57 39.34 39.77 38.75 39.05 43.77
45.89 46.02 46.37 46.72 46.79 46.07 46.46 47.40 47.38 47.56 48.00 46.32 44.51 44.79 40.20 35.08 33.51 37.58 34.91 35.60 32.55 31.59 32.28 34.64 39.52 42.04 39.17 33.64 30.13 26.62 21.86 26.88 28.71 35.34 41.82 41.34 39.90 32.49 31.06 26.61 23.01 31.52 40.25 43.76 44.01 33.59 43.06
45.51 45.96 46.10 46.26 46.14 46.35 46.47 46.13 46.03 46.65 47.58 46.27 43.38 44.50 39.58 32.40 37.72 39.13 34.78 33.98 36.91 33.92 31.16 33.82 35.54 36.09 37.94 28.15 26.90 27.02 25.34 31.04 25.14 28.74 31.30 31.98 32.16 31.10 30.01 27.08 30.94 38.34 42.23 45.49 34.48 34.12 45.13
45.39 45.60 45.74 45.91 45.82 45.81 45.96 45.84 46.24 46.70 46.49 45.84 43.33 44.89 40.45 34.53 36.79 40.73 41.23 37.92 36.99 36.25 30.74 33.55 34.38 33.75 31.32 27.14 27.22 26.71 23.06 28.76 29.32 31.55 31.06 29.76 27.89 26.10 28.79 27.00 25.60 42.89 40.93 35.84 40.59 44.03 45.91
45.47 46.01 46.08 46.28 46.26 45.96 46.07 46.44 46.33 46.31 46.48 46.00 40.37 44.95 44.76 38.47 36.25 42.75 42.06 42.42 42.19 41.58 37.77 37.02 35.47 36.00 35.72 30.42 28.72 29.37 24.72 23.89 29.05 25.48 35.15 29.29 32.65 29.66 31.88 32.51 40.94 42.64 41.96 43.88 44.97 45.75 45.52

GFSGBSN_sfc_wetblb_069.txt.gz
Wetbulb
52.38 52.36 52.64 52.53 52.59 52.92 52.99 53.06 52.96 53.44 53.42 53.48 53.31 53.15 53.46 53.51 53.23 52.96 53.39 53.06 53.22 52.84 53.09 53.36 53.73 53.69 51.54 43.57 43.27 52.28 57.28 61.13 58.61 52.57 49.39 48.29 47.93 46.39 44.29 43.91 43.95 42.84 44.99 45.31 46.38 46.80 47.11
51.41 51.41 51.73 52.05 52.17 51.77 52.19 52.41 52.41 53.13 53.27 53.45 53.62 53.70 53.11 52.97 53.35 53.23 53.24 53.04 52.89 52.37 52.13 52.58 53.52 53.14 49.09 36.88 48.96 52.23 51.73 52.96 52.29 49.66 48.82 49.03 47.79 48.53 46.13 44.35 43.95 45.99 45.01 46.38 47.44 47.66 48.25
51.36 50.90 51.30 51.38 51.65 51.81 51.87 52.15 52.21 52.20 52.42 52.82 53.17 53.31 53.43 52.75 52.65 53.16 52.97 53.04 52.71 52.52 52.65 51.88 52.59 50.78 44.11 41.17 50.58 51.67 51.47 50.48 51.81 49.98 48.34 49.48 50.08 48.26 47.57 44.83 47.21 46.57 44.17 45.46 46.23 45.96 46.18
52.08 51.12 51.53 51.76 51.93 51.69 51.64 52.04 51.92 51.84 51.93 52.38 52.48 53.22 53.18 53.21 53.12 52.86 52.69 52.41 52.28 52.12 52.17 52.15 52.42 48.81 40.47 51.03 52.88 51.51 51.41 49.90 51.20 51.31 50.28 52.05 51.86 48.98 47.47 47.93 45.81 43.51 42.93 40.11 44.02 45.76 46.77
51.49 51.73 50.53 51.22 51.45 51.67 51.38 51.30 51.46 51.65 51.74 52.56 52.93 53.22 53.17 52.86 52.72 52.60 52.51 52.12 51.67 51.86 52.96 52.69 48.83 46.22 39.41 52.61 49.08 52.13 51.44 47.79 49.36 50.45 50.77 52.23 50.74 47.47 46.21 42.96 40.50 40.16 37.62 38.23 40.95 45.05 47.58
50.55 50.53 50.43 50.11 50.13 50.51 50.17 50.24 51.10 51.58 51.96 52.54 52.67 53.02 52.84 52.80 52.66 52.05 51.81 51.24 50.69 51.47 51.12 50.98 50.10 41.22 43.39 40.95 48.92 52.03 52.08 51.52 48.08 48.30 48.34 47.74 47.16 43.61 42.22 40.93 34.02 36.60 37.15 38.39 39.74 43.83 44.38
50.34 49.93 50.37 49.43 49.33 49.23 49.53 49.47 49.76 50.84 51.62 52.15 52.25 52.40 52.65 52.49 52.47 51.89 49.45 44.67 42.55 41.84 43.63 41.68 42.27 41.28 43.70 50.10 53.14 50.70 52.00 49.83 48.19 45.96 41.18 45.91 41.45 38.76 40.93 42.93 41.39 40.86 38.90 38.76 40.93 43.34 42.36
49.83 50.29 49.97 49.07 48.68 49.22 48.93 48.86 49.94 50.86 50.99 51.31 52.17 52.38 52.24 52.43 52.19 50.99 45.38 42.19 42.45 42.96 36.82 43.44 43.26 43.03 46.53 48.54 42.62 47.45 51.45 44.50 43.58 40.64 41.80 41.04 38.77 43.22 43.79 42.60 41.67 40.44 38.96 39.07 41.93 43.27 42.44
48.66 49.03 49.68 49.18 48.08 49.03 49.04 48.64 49.78 50.57 51.06 51.09 51.76 52.07 52.21 51.74 51.46 44.71 43.33 42.92 47.48 46.05 38.46 40.19 43.65 42.17 43.03 44.89 40.58 42.42 48.16 46.35 42.32 39.69 40.42 38.03 41.59 44.76 42.80 40.91 39.69 39.96 39.05 39.32 39.05 41.16 43.08
48.14 48.79 49.11 48.55 48.40 49.05 47.99 47.98 49.22 49.65 49.94 51.03 51.37 51.37 51.54 51.21 44.93 43.26 41.04 47.19 47.93 46.56 32.83 33.68 38.61 41.77 43.80 44.58 38.89 45.81 46.66 46.02 43.26 39.84 40.96 40.21 43.14 42.20 41.34 40.52 41.59 36.74 41.99 41.38 39.66 38.51 34.50
47.98 48.16 48.73 48.35 48.05 48.64 48.31 47.83 48.32 49.00 49.41 50.28 50.71 51.14 51.25 51.06 43.58 42.13 43.86 47.84 47.72 46.25 19.38 35.35 39.15 46.66 46.23 40.38 40.85 43.78 47.99 44.29 38.40 40.28 41.54 39.12 40.53 40.66 39.08 40.46 42.27 40.16 43.05 41.28 40.79 38.11 37.52
47.17 47.51 47.94 47.89 48.01 48.35 48.27 48.02 47.96 48.33 49.02 50.12 50.54 51.03 50.86 47.98 47.35 46.30 47.10 45.52 46.64 30.93 20.24 32.54 40.04 39.81 39.88 41.65 41.00 44.69 43.44 46.25 44.86 41.55 42.12 41.58 45.06 43.63 42.71 43.64 43.57 44.73 42.14 41.26 40.17 38.49 32.46
46.56 46.96 47.42 47.60 47.71 47.60 47.58 47.66 47.86 48.00 48.55 49.40 50.09 50.09 49.40 48.47 42.53 45.55 45.55 43.23 30.90 23.96 35.50 32.20 34.18 38.51 37.48 37.89 38.51 40.16 39.11 37.49 36.29 32.92 33.66 39.77 40.88 44.08 45.09 41.43 43.15 42.55 39.69 32.70 31.43 31.42 31.13
45.92 46.22 46.60 47.35 47.17 46.73 47.11 47.28 47.59 48.07 48.47 49.12 49.30 49.10 48.16 48.87 46.22 46.71 43.12 35.41 23.89 30.79 31.54 37.44 36.89 36.38 35.06 38.11 38.45 38.45 36.44 34.17 38.90 38.25 34.89 33.20 31.52 41.16 44.62 42.84 40.31 39.99 39.70 34.08 27.45 29.69 33.54
45.52 45.25 46.81 46.57 47.12 46.92 46.79 46.73 46.77 47.54 48.03 48.59 48.67 45.72 45.81 47.36 47.49 45.99 37.33 25.58 27.22 31.26 35.28 34.11 35.45 32.50 32.85 36.31 37.28 38.06 36.25 35.48 37.58 39.87 35.11 32.64 33.17 42.52 44.03 45.86 45.17 39.56 36.46 42.56 35.40 35.32 33.44
45.31 45.41 46.16 46.38 46.25 46.33 46.33 46.20 46.24 46.34 47.27 48.05 43.31 43.28 42.87 47.66 47.73 43.18 33.18 26.50 30.58 37.13 36.70 35.91 29.94 33.35 29.81 32.62 33.75 35.69 37.71 40.90 40.75 42.09 42.55 39.56 33.86 41.06 43.10 45.18 45.27 43.40 43.97 35.97 35.86 29.01 27.95
44.21 45.08 45.10 45.43 45.65 45.46 45.60 45.73 45.55 46.07 47.01 47.74 42.33 37.40 44.62 47.70 47.07 37.43 27.71 29.25 31.26 35.68 36.08 33.79 32.22 31.74 32.34 31.31 32.88 32.62 36.20 40.77 41.57 43.37 42.67 40.62 38.38 37.53 41.79 39.62 38.87 40.10 39.14 39.61 39.50 36.48 31.55
44.14 43.82 44.57 45.26 45.35 45.27 45.18 45.13 45.32 45.77 46.78 44.52 39.70 31.85 45.56 47.27 34.43 33.89 29.86 31.73 35.54 33.89 37.47 36.11 36.18 34.53 33.22 33.08 31.82 32.80 34.16 38.13 41.60 44.88 39.90 42.78 37.37 33.09 36.05 42.33 43.89 42.91 40.49 40.83 35.18 33.89 35.56
43.75 43.88 44.38 44.84 44.91 44.66 44.71 44.89 45.25 46.07 46.04 41.40 36.21 36.55 45.59 44.93 29.14 30.47 34.00 32.38 33.04 33.37 34.44 34.39 33.64 35.31 36.07 32.91 29.73 32.74 35.08 40.82 40.82 40.55 40.53 42.67 37.41 32.61 34.12 38.83 42.19 38.97 39.82 40.28 40.00 38.99 34.88
43.70 43.78 44.04 44.39 44.51 44.45 44.24 44.79 45.45 45.74 46.05 42.27 35.68 29.83 36.77 39.78 38.44 33.21 31.33 30.97 29.46 34.71 33.65 35.10 34.13 35.34 33.90 32.49 34.71 32.04 33.30 38.09 40.41 39.76 43.73 44.95 39.64 35.49 31.58 34.78 38.59 35.99 37.86 39.18 37.92 33.84 34.35
44.16 44.16 44.36 44.40 44.16 44.03 44.25 44.75 45.36 45.61 46.25 41.37 35.52 31.11 36.19 29.07 31.59 33.92 34.03 32.83 29.61 29.41 34.17 34.93 32.50 33.30 31.81 28.80 30.43 31.36 34.02 35.19 38.00 40.13 43.75 42.25 35.19 37.84 37.98 38.50 38.96 37.72 37.51 37.96 36.10 37.81 34.71
43.92 44.11 44.30 44.20 44.15 44.09 44.30 45.18 45.60 45.58 46.48 38.62 32.09 32.56 36.79 34.71 35.41 33.72 33.61 32.25 30.44 31.52 33.10 30.89 30.56 33.33 33.47 30.38 31.56 30.15 32.63 33.22 33.04 37.63 37.66 38.91 34.40 37.26 34.41 38.22 37.95 35.46 37.77 38.00 38.00 38.58 38.19
44.73 44.23 44.16 44.25 44.52 45.03 45.15 45.53 45.90 46.19 44.83 37.79 39.10 39.39 37.14 33.03 33.30 32.68 32.10 32.71 32.35 34.52 35.13 36.26 34.64 33.34 32.65 34.13 37.09 37.74 37.77 37.13 36.53 34.28 33.25 34.26 36.08 33.65 29.67 34.83 35.37 30.03 34.88 37.08 39.29 39.79 39.49
45.95 45.00 44.74 44.78 45.00 44.78 45.07 45.00 45.24 45.71 45.10 40.93 40.53 39.44 33.04 27.59 32.11 32.64 35.17 34.52 33.23 34.24 32.55 35.83 36.69 34.86 37.83 41.21 40.60 38.99 37.06 36.05 36.13 35.75 36.81 33.06 33.94 33.54 30.20 31.22 23.53 34.88 39.87 40.60 39.10 40.56 42.16
45.36 44.97 44.62 44.88 45.05 45.12 45.14 45.28 45.27 45.59 45.83 41.88 41.82 39.35 35.38 29.15 31.82 33.26 34.89 34.00 35.28 36.44 34.86 35.33 37.32 39.46 41.36 38.34 33.94 31.00 30.71 32.28 34.46 35.73 35.33 36.40 34.24 31.62 29.09 28.11 31.74 34.89 37.66 37.26 37.41 37.55 42.34
45.61 45.02 45.09 45.48 45.36 45.69 46.06 46.17 45.81 45.40 45.61 43.61 41.90 43.07 39.35 32.48 31.35 35.68 35.34 35.93 32.78 32.90 33.76 35.42 40.22 42.52 40.76 35.92 32.89 25.55 24.00 27.71 27.95 32.98 38.57 36.73 37.40 33.36 30.91 25.77 23.27 33.51 39.58 44.69 43.34 33.08 43.24
45.80 45.73 45.94 46.01 45.69 45.55 45.38 45.87 46.18 45.62 45.78 43.71 42.00 44.00 39.76 32.66 37.49 37.49 34.16 34.63 37.52 35.10 32.92 34.69 36.16 36.30 38.93 33.72 28.52 26.95 25.63 31.91 26.63 28.22 28.88 31.23 32.18 28.74 29.95 28.32 32.20 38.77 41.13 45.55 32.64 35.79 43.92
45.45 45.62 45.42 45.59 45.57 45.59 45.40 45.38 45.97 45.75 45.82 44.05 41.90 45.02 40.30 34.41 37.91 40.35 40.71 37.94 37.97 36.59 32.31 35.14 34.49 34.89 34.40 30.22 29.91 28.85 28.31 30.77 30.07 32.70 32.02 30.46 29.52 29.64 30.66 28.38 25.52 41.12 41.73 37.16 40.82 44.80 44.35
45.80 45.85 45.43 45.34 45.22 45.08 45.19 45.17 45.16 46.15 46.34 45.85 40.03 45.20 44.99 38.16 37.85 42.80 43.88 44.65 43.09 41.42 38.32 37.68 35.94 35.25 36.36 32.62 31.72 32.12 29.20 29.39 30.96 26.75 35.25 30.12 34.73 32.88 34.30 34.21 40.32 42.97 42.68 44.29 44.74 43.62 44.68

GFSGBSN_sfc_wetblb_072.txt.gz
Wetbulb
51.40 51.52 52.18 52.12 52.30 52.31 52.65 52.69 52.75 53.21 53.00 53.14 53.02 53.16 53.21 53.17 53.06 53.28 53.86 53.73 53.38 52.75 52.81 52.88 52.78 53.69 52.80 46.95 44.98 55.05 60.16 61.52 59.78 57.35 53.56 53.12 51.30 50.22 47.62 48.61 49.30 47.73 48.25 49.75 50.56 50.40 50.39
52.07 51.31 51.54 51.83 52.15 51.73 52.11 52.20 52.01 52.78 52.94 52.95 53.46 53.40 53.04 52.98 53.07 52.88 53.26 53.30 53.03 53.09 52.76 52.63 52.47 52.70 49.88 42.92 49.79 53.76 54.98 56.19 56.57 56.84 54.32 53.50 51.45 52.59 49.27 48.86 47.83 48.93 48.95 48.98 49.68 50.02 50.95
52.84 52.53 51.29 51.49 51.93 51.53 51.29 51.74 51.86 52.51 52.63 52.61 53.26 53.38 53.50 53.13 53.19 53.01 53.30 53.27 52.84 52.72 52.94 52.54 52.29 51.56 47.03 45.82 50.84 54.25 53.65 52.99 55.95 54.08 53.49 54.29 54.32 50.83 50.40 48.28 50.78 49.43 46.43 47.94 49.01 49.92 49.17
51.53 52.25 52.43 51.73 51.88 52.26 52.26 51.36 51.00 51.41 51.80 52.15 52.40 53.23 53.30 53.44 53.48 53.36 53.14 52.79 52.56 52.63 52.88 53.37 52.68 50.77 43.58 52.51 54.63 52.38 52.64 50.10 54.05 55.13 53.60 54.41 54.18 52.00 50.83 51.13 48.59 46.50 47.08 43.37 47.73 48.61 49.85
51.11 50.76 51.11 51.25 51.23 50.61 51.10 50.66 50.68 50.57 51.18 51.55 52.12 53.21 53.11 52.85 52.85 52.79 52.65 52.33 52.31 52.26 52.98 52.52 50.76 48.44 42.90 53.34 49.59 51.67 51.95 48.43 49.03 50.98 52.07 54.30 53.79 50.75 50.76 46.45 44.64 45.94 42.29 43.83 45.08 49.46 49.34
50.21 50.45 50.51 50.71 50.25 49.87 49.94 49.96 50.03 50.20 50.52 51.82 52.05 52.65 52.66 52.41 52.48 52.27 51.86 51.76 51.35 51.18 52.85 52.78 51.39 44.14 46.98 43.70 50.43 53.22 54.57 52.78 49.04 48.36 50.31 50.80 50.73 47.97 47.92 45.62 38.95 42.55 42.38 43.81 43.44 47.03 48.78
50.01 50.33 50.61 50.31 50.27 49.29 49.73 49.74 49.43 50.11 50.90 51.11 51.55 51.90 52.49 52.48 52.56 51.94 50.61 50.55 47.36 46.39 46.48 44.66 45.19 44.82 45.88 50.92 53.90 51.93 54.35 51.93 50.27 47.36 44.53 49.34 45.49 42.80 45.86 47.24 46.93 46.07 43.90 42.95 45.24 46.80 45.83
49.00 49.26 49.51 49.95 50.15 48.86 48.89 49.60 49.05 49.77 50.28 50.62 50.77 51.74 52.29 52.29 52.05 51.62 49.98 45.98 43.00 43.89 38.20 45.67 45.17 45.25 47.11 49.07 43.61 48.69 54.11 47.71 46.00 42.29 44.69 45.73 42.41 46.40 48.31 47.81 45.98 45.19 42.72 42.67 45.63 46.69 45.76
48.54 48.74 48.92 48.78 49.69 49.40 48.27 49.68 48.68 49.30 49.75 49.90 50.65 51.04 51.73 51.62 51.67 50.29 47.77 46.01 49.38 49.54 39.77 42.00 45.68 44.89 45.59 47.10 42.30 43.52 50.84 47.82 44.26 43.38 42.03 42.00 44.42 46.40 46.34 45.29 43.63 44.27 42.70 42.92 42.88 45.26 46.43
47.86 48.19 48.54 48.87 49.26 48.91 47.93 48.73 47.83 48.11 48.71 49.83 50.54 51.12 51.02 50.98 48.10 49.04 47.40 49.53 50.06 50.64 36.39 37.97 40.14 44.15 45.98 45.70 40.58 46.35 49.45 47.49 45.05 42.24 43.40 43.72 45.94 43.71 44.04 43.61 45.06 41.55 46.13 44.38 43.63 42.45 38.85
47.38 47.78 48.07 48.43 48.67 48.28 48.87 48.26 47.76 48.11 48.70 49.11 50.26 50.66 50.60 50.50 48.93 45.54 48.35 51.56 50.73 48.45 26.25 37.82 40.46 48.62 46.76 42.45 42.73 44.66 48.19 44.13 39.41 42.62 43.52 42.18 42.56 41.46 40.25 43.36 44.91 42.76 46.83 44.66 44.49 43.03 42.29
46.95 47.08 47.02 47.29 47.93 48.25 48.61 48.37 48.00 47.74 47.90 48.48 49.36 49.74 49.94 49.32 50.11 49.67 51.71 50.81 48.48 35.95 25.42 35.07 41.70 40.94 41.32 42.58 42.16 45.51 43.04 45.98 44.99 39.55 42.72 43.12 47.39 45.79 43.47 46.26 46.82 46.60 44.66 44.25 44.15 42.74 35.45
46.94 46.37 46.66 46.97 47.24 47.43 47.72 47.43 47.32 47.63 47.67 47.85 48.59 49.18 48.42 49.72 44.33 50.99 51.31 46.17 34.00 27.90 38.09 34.52 36.61 39.49 38.56 38.55 41.11 41.54 41.06 37.33 37.52 32.35 33.06 39.15 40.53 45.34 46.62 42.73 45.71 45.28 42.41 36.85 35.52 35.43 34.26
45.66 45.67 45.74 46.12 46.39 47.01 47.41 47.43 47.68 47.57 47.21 47.35 48.38 48.38 48.70 49.29 52.04 48.99 48.29 38.28 27.01 32.30 34.41 39.68 38.82 39.05 36.58 39.96 40.93 40.91 40.32 38.25 39.75 39.72 36.23 32.27 32.05 40.97 45.78 44.48 42.32 42.61 42.72 38.62 31.53 34.14 37.59
45.12 44.98 45.23 45.95 45.89 46.19 46.69 46.99 47.23 46.73 47.10 47.27 47.88 47.69 47.57 49.64 51.79 48.88 39.89 29.40 30.95 33.49 37.15 36.18 38.10 35.05 35.58 38.25 39.35 40.68 41.64 40.34 39.97 40.98 34.64 34.73 35.17 43.85 44.30 46.14 45.30 42.77 40.44 45.32 39.60 40.11 37.19
44.69 45.07 45.05 45.15 45.95 46.14 46.20 46.34 46.46 46.21 46.32 46.91 45.16 44.25 43.77 50.90 52.50 45.19 35.07 29.96 33.55 39.28 38.82 38.17 32.30 35.98 32.32 35.10 36.28 39.35 40.28 42.87 41.97 44.46 43.85 40.65 34.18 41.47 44.24 45.69 46.35 45.33 47.02 38.55 40.16 31.94 31.29
44.20 44.30 44.50 44.54 44.64 45.25 45.86 45.69 46.07 45.64 45.87 46.14 43.75 38.73 45.95 51.30 50.58 38.81 28.69 31.75 35.50 39.46 38.99 36.11 34.74 34.15 34.78 33.36 36.12 36.12 38.51 41.50 42.39 44.25 45.16 42.38 39.49 38.74 42.93 41.42 41.31 42.41 41.92 43.07 43.04 40.37 34.57
44.14 44.43 44.33 44.23 44.29 44.92 45.58 45.43 45.55 45.45 45.94 44.17 40.62 32.09 47.83 50.34 35.76 35.87 31.43 35.13 37.96 37.01 39.72 38.23 38.09 36.60 35.60 35.73 33.88 34.99 34.96 39.09 42.80 43.53 40.92 44.32 40.81 36.60 38.82 44.34 45.35 45.48 42.69 43.40 37.72 37.15 39.95
43.89 44.10 43.94 44.31 44.50 44.58 45.14 45.39 45.30 45.59 45.54 43.32 35.91 36.75 47.29 45.64 29.99 31.27 35.06 35.49 37.45 36.37 36.99 36.63 36.16 37.97 38.64 35.42 31.95 34.87 37.23 42.39 42.21 40.57 38.99 43.30 39.40 33.33 35.35 40.04 43.85 42.04 43.09 43.21 43.21 42.53 38.25
43.50 43.74 43.75 43.83 44.19 44.51 44.86 45.21 45.07 45.79 45.74 44.16 36.96 30.39 38.01 39.71 37.56 35.44 33.45 33.49 32.60 38.20 37.19 38.18 37.16 38.16 36.79 35.44 37.78 34.43 35.47 39.32 42.10 40.81 42.74 44.22 40.05 37.20 33.81 36.85 41.06 38.21 40.24 42.50 41.67 37.86 38.42
43.94 43.96 44.30 43.95 43.77 44.04 44.72 44.95 44.79 45.79 45.69 42.58 36.92 31.86 37.23 31.12 31.57 34.93 35.59 34.77 32.95 32.81 37.19 38.43 35.65 36.17 35.27 32.49 34.43 34.12 37.21 38.10 40.08 41.66 43.05 44.29 36.63 38.64 38.82 39.18 39.35 38.92 39.03 39.95 38.90 40.21 37.25
44.78 44.83 44.68 44.42 44.88 44.31 44.31 44.47 45.11 45.51 45.59 40.29 32.64 33.11 35.97 33.52 35.32 34.82 35.11 31.96 33.90 35.40 35.71 34.25 34.39 36.46 37.00 34.29 35.62 33.92 35.97 36.62 36.04 39.36 38.96 41.65 36.09 38.74 35.57 38.51 39.17 37.35 39.48 40.28 40.31 40.58 41.89
45.17 45.31 45.64 45.23 44.69 44.67 44.20 44.95 45.02 45.60 45.19 38.30 39.75 40.78 36.48 33.30 33.73 31.99 31.25 34.19 34.77 37.66 38.17 38.94 37.39 35.76 35.39 37.51 40.48 41.23 41.52 40.83 39.58 37.65 35.94 36.35 37.55 35.36 31.35 36.91 37.05 32.60 37.87 39.79 41.06 42.49 43.36
45.82 46.28 46.19 46.07 46.01 45.04 44.81 44.85 44.95 45.42 45.47 42.88 41.38 40.31 33.64 27.21 30.90 33.07 34.06 34.23 34.70 36.99 35.67 38.65 39.44 36.72 39.41 44.17 43.32 42.95 41.73 40.50 40.66 39.82 40.61 36.01 37.16 36.89 32.82 34.16 25.45 37.82 42.29 42.02 40.84 42.64 44.53
46.00 46.24 46.04 46.07 45.80 45.37 44.95 44.80 44.88 45.16 45.68 43.86 43.89 40.31 35.66 29.82 33.31 32.99 32.41 35.12 37.59 38.38 37.33 38.01 39.50 41.14 43.16 39.37 35.17 33.06 34.07 34.97 36.87 39.32 39.56 39.95 37.01 33.47 30.00 30.52 34.49 36.78 40.19 39.86 38.77 38.75 44.26
45.61 45.65 45.92 46.01 45.73 45.43 44.85 44.80 44.83 45.16 45.38 42.48 41.77 45.02 38.42 32.90 32.82 36.07 34.04 34.82 33.24 34.26 35.89 38.18 40.96 43.93 40.94 36.87 33.83 27.60 27.00 30.75 30.93 35.03 40.31 39.47 39.20 34.85 32.88 27.20 25.57 36.56 42.66 45.93 45.47 35.73 44.93
45.59 45.91 46.15 46.03 45.89 45.58 45.38 45.33 45.33 45.57 46.08 43.82 41.45 44.29 38.48 32.49 35.82 37.92 35.62 35.20 38.02 36.66 35.07 36.94 37.77 37.55 39.84 34.96 30.80 28.96 28.78 34.36 29.36 30.37 30.72 31.27 32.79 31.24 31.55 30.84 34.77 41.81 43.71 46.97 34.34 37.07 45.51
45.52 45.77 45.92 45.87 45.98 45.94 45.93 45.84 45.82 46.01 46.06 44.71 41.45 43.83 39.13 34.78 36.57 39.93 41.54 39.06 39.51 38.92 34.17 37.30 36.01 35.29 34.18 32.18 31.87 31.48 31.24 33.46 32.55 35.41 32.39 31.38 29.47 29.67 32.69 28.79 26.73 44.29 43.97 38.89 43.50 45.94 46.23
45.92 46.06 45.82 45.92 45.84 45.77 45.86 46.00 45.87 45.66 45.94 45.69 39.63 44.16 44.09 39.94 37.54 44.08 44.01 45.47 44.15 43.33 40.32 38.86 37.29 36.88 37.97 34.74 35.93 35.76 32.95 35.79 33.72 29.28 39.31 32.78 37.72 35.95 36.49 36.29 44.12 46.15 45.36 46.93 47.58 45.98 46.83

GFSGBSN_sfc_wetblb_075.txt.gz
Wetbulb
51.80 52.08 51.62 51.90 51.99 52.44 51.60 52.48 52.59 52.59 52.62 52.65 52.64 52.85 52.98 53.08 53.35 53.40 53.94 53.71 53.32 53.07 52.87 53.07 53.23 53.03 52.90 49.70 50.78 56.18 59.60 61.29 60.66 58.99 56.59 54.85 52.92 52.08 48.90 49.98 50.62 49.31 50.09 51.03 51.41 51.09 50.90
52.92 52.82 52.01 51.85 51.45 51.76 51.64 51.36 51.60 52.08 52.59 52.86 53.00 53.20 52.83 53.08 53.18 53.20 53.62 53.75 53.52 53.52 52.99 53.24 53.22 52.44 50.43 44.17 56.11 53.53 53.49 53.74 58.15 57.97 55.38 55.38 53.57 53.86 50.95 50.47 49.99 51.20 50.44 50.66 51.19 50.94 50.84
52.06 51.83 52.82 52.23 51.71 51.28 51.71 51.69 51.35 51.58 51.93 52.57 52.62 53.09 52.99 52.93 52.91 52.63 53.00 53.32 53.19 53.19 53.21 53.02 53.13 53.10 48.63 47.75 54.29 54.86 54.61 52.03 53.92 57.81 55.91 56.50 56.12 52.79 52.62 49.74 52.22 51.11 47.89 49.73 50.35 50.50 49.68
51.86 51.67 51.54 51.53 51.55 51.63 50.84 50.92 50.92 50.55 50.69 51.25 51.50 52.47 53.13 53.07 52.76 52.72 52.83 52.56 52.64 52.90 53.05 52.85 53.85 53.34 46.11 53.16 54.73 53.66 54.75 53.06 53.33 53.49 55.15 56.95 57.46 53.68 52.35 53.58 51.18 48.35 48.80 45.09 49.94 50.95 50.78
51.23 51.04 50.82 51.04 51.40 50.84 50.49 50.49 50.43 50.43 50.55 50.59 50.94 52.36 52.86 52.68 52.48 52.58 52.40 52.46 52.18 52.78 52.35 52.76 52.79 51.02 45.56 53.62 50.13 52.57 53.16 50.56 51.53 50.86 54.05 53.85 53.93 51.08 51.23 47.77 46.37 47.94 43.55 45.70 47.42 50.91 49.85
50.57 50.71 50.82 51.02 50.95 50.90 50.11 50.03 50.50 50.06 49.95 50.10 51.13 51.63 52.24 52.31 52.33 52.05 51.89 51.54 52.51 51.66 52.80 54.62 53.22 46.67 49.90 45.42 50.08 53.66 57.54 53.47 48.81 48.39 47.83 47.89 48.66 46.76 47.18 46.15 40.22 43.59 44.58 46.13 46.14 50.04 49.25
49.79 50.03 49.97 50.26 50.21 50.99 50.19 49.50 50.31 49.92 49.79 49.90 50.91 50.98 51.57 52.31 52.20 51.88 51.51 52.65 49.76 49.56 50.42 46.50 47.49 47.66 48.13 50.19 52.90 51.66 55.51 53.42 51.71 48.52 42.43 45.47 43.05 42.13 44.99 46.52 47.86 47.77 46.55 45.99 48.60 50.19 47.88
49.33 49.06 49.05 49.23 49.34 49.58 50.40 49.44 49.91 49.68 49.10 49.83 50.18 50.56 50.84 51.81 51.71 51.78 52.22 47.53 46.02 46.89 40.66 47.54 47.43 47.23 48.67 49.22 44.33 47.78 53.88 50.00 48.65 44.68 44.19 40.90 41.23 46.85 48.29 48.56 47.91 47.12 45.78 46.20 48.09 49.15 47.09
48.68 48.86 48.75 48.87 49.11 48.90 49.80 49.33 49.51 49.17 48.50 48.67 49.64 50.22 50.61 51.40 51.02 51.04 50.11 48.38 52.36 51.57 42.11 44.70 47.42 46.59 47.58 49.04 44.81 45.23 48.45 49.40 46.79 44.87 42.38 40.11 42.87 48.34 47.09 47.04 46.11 46.91 45.60 45.93 45.43 48.12 48.24
48.14 47.95 48.06 48.45 49.01 49.21 49.25 49.23 48.39 48.55 48.45 48.82 49.46 49.79 50.83 50.73 47.11 51.13 48.82 51.37 53.06 52.28 37.48 41.86 43.39 46.17 48.49 47.75 43.50 49.06 49.13 48.40 45.67 42.14 42.32 40.64 46.82 45.26 45.94 45.32 46.99 43.37 48.32 46.98 45.99 44.69 40.98
47.62 47.47 47.71 48.14 48.19 48.12 48.21 48.50 48.30 47.85 48.15 48.28 48.75 49.34 50.15 49.75 48.45 47.57 49.93 53.22 53.28 48.92 29.07 39.92 42.89 51.00 48.49 44.90 46.08 46.25 49.78 47.14 43.42 43.24 43.23 38.55 42.28 44.17 43.17 44.44 47.13 44.42 47.93 47.00 46.56 44.24 44.41
46.60 46.83 46.84 47.11 47.64 48.17 47.55 47.82 47.96 47.79 47.82 47.87 48.18 48.72 49.54 48.62 49.66 51.09 52.77 53.39 50.51 36.26 28.63 37.90 43.52 42.34 43.24 45.82 45.12 46.40 46.37 47.17 47.17 42.28 43.68 43.00 46.85 46.90 45.69 46.50 45.91 47.39 46.29 45.82 46.14 44.16 38.44
46.31 46.51 46.70 46.73 46.97 46.94 47.22 47.31 47.60 47.65 47.38 47.41 47.69 48.08 47.87 48.46 44.31 52.29 52.90 49.15 36.11 30.36 39.83 36.97 39.01 41.47 41.35 41.53 42.99 44.08 42.18 39.48 36.69 33.01 33.98 38.21 40.55 45.42 47.26 43.40 45.08 45.93 43.81 37.25 35.72 36.82 36.21
45.62 45.44 45.46 45.70 45.71 46.19 46.49 46.88 47.32 47.71 47.19 47.29 47.38 47.75 48.38 49.41 51.82 52.65 48.27 39.23 28.68 34.88 36.72 41.54 40.54 41.10 38.64 41.99 42.92 43.43 42.15 39.27 39.37 39.25 35.66 33.13 30.86 40.50 45.66 44.03 41.41 43.32 43.56 38.92 32.29 34.35 38.54
45.29 45.16 45.39 45.33 45.46 45.73 46.38 46.37 46.42 47.06 47.06 46.83 47.06 46.12 47.01 49.59 51.87 51.76 42.66 31.33 33.27 36.52 39.08 37.85 40.11 37.13 37.71 40.38 41.30 41.93 41.69 41.83 43.11 40.35 35.33 35.10 35.95 44.40 45.08 46.03 44.70 41.26 39.80 45.07 39.95 42.08 38.63
44.89 44.79 45.06 44.74 45.18 45.37 45.56 46.02 46.31 46.58 46.51 46.40 44.02 44.10 44.94 51.12 52.62 48.11 36.39 31.53 36.32 39.73 40.87 40.15 34.55 37.42 35.47 37.39 39.27 40.41 41.35 43.70 42.52 46.40 43.70 40.72 34.93 42.40 43.85 45.94 46.08 43.63 46.00 38.60 40.77 32.15 31.50
44.65 44.51 44.69 44.79 44.68 44.80 44.77 45.62 45.97 46.06 46.17 45.72 42.54 37.31 46.94 51.20 50.96 40.08 30.29 33.04 37.06 41.01 41.52 38.04 37.33 36.66 37.92 36.37 38.14 38.91 38.89 41.68 43.57 43.68 46.89 41.82 40.34 38.93 42.44 39.57 40.65 41.95 39.75 41.81 43.13 40.71 35.09
44.25 44.26 44.15 44.48 44.50 44.72 44.79 44.91 45.83 45.92 45.93 43.09 40.94 32.77 48.68 50.55 36.89 36.78 31.72 36.28 39.29 39.20 41.47 40.17 40.62 39.59 38.15 38.61 36.77 36.95 36.89 40.20 43.91 44.41 41.90 44.13 42.04 36.51 37.89 44.06 45.79 44.78 42.13 42.73 37.70 37.12 40.84
44.14 44.37 44.37 44.41 44.45 44.56 45.01 45.13 45.17 45.75 45.84 42.83 35.63 37.17 47.94 47.85 30.58 31.85 36.75 36.48 38.37 37.83 38.43 38.46 38.03 39.87 41.13 38.47 34.21 37.60 38.34 43.68 43.19 41.54 39.98 41.59 40.19 34.62 36.18 40.89 44.63 42.62 44.33 44.51 44.43 43.55 38.22
43.63 43.77 43.86 44.09 44.27 44.33 44.62 44.91 44.78 45.28 45.84 44.18 37.96 32.17 37.58 42.13 38.95 34.82 34.16 34.43 34.50 40.16 39.13 39.96 38.71 40.41 38.90 37.39 40.10 36.54 37.65 40.64 43.15 42.51 42.55 43.26 40.86 38.48 32.92 36.88 42.00 39.87 42.30 44.12 42.90 38.17 38.81
43.95 44.23 44.17 44.13 44.19 44.18 44.72 44.60 45.04 45.15 45.67 43.23 37.68 33.58 38.21 33.13 35.04 36.00 35.43 35.05 34.46 34.56 39.39 39.96 37.27 37.81 37.16 34.41 36.34 36.36 39.27 40.25 41.84 42.53 42.85 42.64 36.60 39.96 41.03 40.69 40.13 41.27 41.56 42.73 41.63 42.44 38.62
44.20 44.70 44.66 44.46 44.63 44.54 44.55 45.18 45.27 45.50 45.59 41.32 33.57 33.91 37.55 36.09 37.37 35.41 35.05 33.39 34.51 36.83 37.54 35.91 35.53 37.98 38.57 35.33 36.13 35.59 38.72 38.48 38.29 41.24 40.20 42.40 35.78 37.93 36.58 40.39 39.93 37.21 40.63 41.57 41.81 42.09 42.42
44.66 45.32 44.94 45.61 45.46 45.51 44.90 45.22 45.41 45.54 45.04 40.06 39.91 41.33 38.38 34.24 35.08 33.55 34.57 34.85 34.54 37.25 37.71 40.13 38.97 38.01 36.91 38.64 41.12 42.70 43.09 41.84 41.56 39.57 38.99 38.37 37.64 36.04 32.41 37.98 38.02 34.18 38.54 39.67 41.38 43.43 43.17
44.46 44.96 45.41 45.86 46.33 46.12 46.10 45.30 45.24 45.59 45.39 42.94 41.63 40.72 34.41 29.64 32.86 33.51 35.24 35.73 36.10 36.39 34.83 38.38 41.53 39.09 41.39 45.52 45.30 44.27 42.82 41.44 41.18 41.42 41.86 37.62 37.73 37.36 33.28 35.34 26.73 38.90 43.67 43.14 42.16 43.53 45.14
45.04 45.13 45.46 45.63 46.03 46.30 46.46 46.09 44.94 45.42 45.76 45.46 43.23 40.41 36.18 30.06 33.52 34.13 34.65 35.24 37.57 38.31 36.67 37.05 40.23 43.08 44.88 41.85 36.15 33.77 34.49 34.91 37.55 40.52 40.59 41.17 38.22 34.49 31.20 31.79 35.97 38.40 40.85 40.48 39.80 40.05 45.42
45.04 45.37 45.68 46.17 46.33 46.31 46.16 46.12 44.87 45.20 45.80 45.63 44.97 45.42 39.62 34.16 32.67 36.66 35.09 36.63 34.75 34.92 36.61 39.04 42.33 44.95 43.20 38.36 35.07 29.37 28.35 32.57 32.56 35.91 41.41 40.09 40.21 35.72 33.36 28.07 25.82 37.60 43.47 46.69 45.46 37.32 46.21
45.11 45.14 45.35 45.91 45.98 46.23 45.89 45.56 44.78 44.99 45.21 45.07 42.88 45.82 40.28 34.82 37.72 39.08 35.19 35.35 39.11 37.39 35.01 37.74 38.77 39.03 41.20 34.98 31.79 30.31 30.87 36.30 31.05 31.81 32.54 33.52 34.39 31.59 31.80 30.62 35.52 42.86 44.84 46.61 35.30 37.41 45.36
45.19 45.58 45.75 46.00 46.09 46.05 46.00 45.77 45.48 44.66 45.04 42.79 39.64 45.07 40.76 36.66 38.28 40.51 40.74 38.25 39.63 38.89 35.43 37.71 37.22 36.65 34.76 32.77 32.65 33.14 32.94 35.23 34.52 36.75 35.10 33.70 31.49 30.71 32.98 30.14 27.80 44.42 44.59 39.57 44.87 47.53 47.57
45.35 45.54 45.89 46.14 46.26 45.96 46.05 46.02 45.63 45.38 45.38 45.04 39.47 43.18 45.13 38.18 38.75 44.24 43.55 44.58 43.77 42.67 39.83 39.18 37.83 37.18 38.65 35.32 37.00 37.70 34.53 37.24 35.27 30.85 40.75 33.52 37.46 35.54 36.34 36.62 44.55 47.44 46.44 47.70 48.34 46.85 47.22

GFSGBSN_sfc_wetblb_081.txt.gz
Wetbulb
52.43 52.55 52.73 52.85 53.33 52.71 52.47 52.49 52.49 53.08 52.73 52.67 52.45 51.82 52.16 52.32 52.58 52.89 53.36 53.18 53.18 52.93 52.94 53.13 53.51 53.58 49.68 43.59 45.94 54.80 61.83 61.73 59.65 57.11 53.12 50.76 46.92 46.78 44.17 45.86 46.27 45.02 45.99 47.64 48.18 47.72 47.28
52.22 52.71 52.59 52.54 52.29 52.67 52.74 51.72 51.61 51.86 51.82 51.94 52.08 52.28 51.64 51.74 51.91 52.24 52.99 52.70 52.80 52.78 52.81 52.81 53.09 53.32 46.88 37.78 49.22 51.20 53.06 56.60 56.09 53.47 52.48 51.85 49.60 50.69 48.48 47.21 45.74 47.78 47.29 47.09 46.92 46.38 47.60
51.83 51.66 51.81 52.05 51.73 51.71 51.93 51.68 51.33 51.08 51.13 51.09 51.50 51.70 51.32 51.35 51.73 52.03 52.28 52.39 52.14 52.31 52.66 52.58 53.17 51.03 45.13 41.70 49.11 49.48 50.34 49.14 49.89 50.16 47.78 54.45 53.94 50.47 48.76 46.35 49.65 48.45 43.82 45.66 45.52 46.21 45.13
51.29 51.23 51.44 51.43 51.55 51.83 51.91 52.04 51.47 50.91 50.78 50.74 50.50 51.01 51.41 51.85 52.10 52.19 51.98 51.64 51.66 52.06 52.43 52.69 53.52 49.29 41.98 51.83 49.56 50.57 49.81 48.52 50.40 49.88 50.46 50.00 50.62 49.53 48.34 49.62 47.99 43.93 42.97 38.30 45.02 46.15 47.31
50.83 50.59 50.82 50.73 50.84 51.39 51.73 51.81 51.72 51.12 50.61 50.62 50.48 50.84 51.26 51.42 51.52 51.55 51.50 51.31 51.37 51.85 52.37 53.57 49.25 46.93 42.28 54.67 50.04 51.85 51.08 47.62 47.97 49.29 49.89 52.16 46.69 44.59 46.98 41.96 38.90 39.94 34.92 38.75 41.88 46.95 46.39
51.05 50.53 50.05 50.34 50.40 49.99 50.12 50.81 51.06 51.26 51.13 51.17 50.43 49.97 50.71 51.04 51.07 50.87 50.70 50.55 50.40 51.56 51.58 51.82 50.76 44.60 48.09 46.40 50.05 50.64 50.16 53.44 51.09 46.99 46.01 45.69 40.96 38.92 39.69 37.64 32.34 35.13 36.50 37.20 39.07 44.42 46.68
49.37 50.47 49.78 49.57 49.77 50.09 50.04 50.08 50.65 50.78 50.82 50.56 50.01 49.39 50.16 50.83 50.94 50.51 48.51 43.85 43.12 43.51 46.76 45.06 44.80 44.19 47.56 50.82 50.02 46.98 48.97 51.16 49.95 44.23 37.81 40.93 34.68 32.67 36.67 41.45 42.98 41.88 40.14 39.18 42.23 46.07 46.03
49.04 49.73 49.90 49.73 49.43 49.38 49.50 49.14 50.31 50.35 50.28 50.05 50.26 49.54 49.63 50.34 50.59 50.51 46.60 41.67 44.58 43.43 38.05 45.14 44.96 45.27 48.75 48.20 42.04 44.91 47.40 42.98 45.46 38.08 39.95 37.69 33.81 39.16 41.51 41.89 40.43 39.13 37.41 37.89 42.25 45.64 45.03
48.54 48.57 48.78 48.81 48.77 48.75 49.01 48.87 49.08 49.39 49.75 49.28 49.73 48.89 49.05 49.94 49.64 46.62 45.16 46.13 50.28 49.34 37.10 40.73 44.83 44.03 44.76 46.12 41.95 42.70 45.26 42.38 40.38 40.72 40.54 36.61 40.18 43.72 42.72 40.23 39.12 39.01 38.10 38.71 38.94 43.70 45.82
47.62 47.09 47.56 47.96 48.20 48.39 48.39 48.40 48.53 48.32 49.07 49.48 49.27 49.22 49.27 49.66 44.42 43.59 42.25 49.70 49.97 49.57 32.87 37.33 42.66 44.82 47.05 47.09 42.78 48.13 47.59 43.08 39.51 37.46 40.93 39.71 44.46 43.24 40.62 39.58 39.66 34.75 41.93 42.23 41.60 40.02 35.38
47.30 46.89 46.90 47.25 47.49 47.46 47.44 47.37 47.67 47.89 48.33 48.31 48.72 48.92 48.85 48.72 42.24 40.66 44.91 48.66 49.73 46.84 22.04 42.94 41.95 49.26 47.94 44.04 45.04 43.82 47.92 43.49 37.41 37.10 39.11 36.96 39.93 38.89 38.07 39.44 41.65 37.75 43.15 42.02 40.92 39.55 39.23
46.14 46.23 46.65 47.17 46.80 46.73 47.01 47.07 46.89 47.08 47.43 47.41 48.75 48.08 48.42 44.68 44.06 44.22 47.32 48.20 46.70 33.31 23.28 37.69 42.73 40.90 41.89 43.50 44.14 45.18 45.16 44.68 43.29 37.62 37.99 37.93 42.55 41.67 40.76 43.86 43.70 44.59 41.49 41.20 40.13 38.81 33.35
45.83 45.99 46.25 46.59 46.50 46.34 46.42 46.54 46.41 46.33 46.85 47.11 47.49 47.58 45.54 45.43 38.54 45.75 45.49 43.04 32.06 25.85 40.15 36.15 38.36 42.15 41.16 40.24 41.72 42.48 40.97 36.21 32.73 29.61 29.97 35.45 37.65 41.96 44.79 39.68 42.63 40.55 37.97 32.16 30.34 30.82 29.21
45.42 45.73 45.71 45.96 45.93 45.82 45.87 46.12 46.22 46.39 46.76 46.08 46.25 47.08 45.31 44.51 44.77 45.11 43.05 36.66 25.60 33.98 35.54 41.88 40.43 39.94 36.97 39.70 39.96 41.30 39.24 35.23 37.07 35.00 30.81 28.57 27.18 37.61 43.42 39.47 37.35 38.06 36.83 32.42 26.38 27.69 31.78
45.47 45.53 45.38 45.58 45.60 45.49 45.62 45.63 45.80 45.79 46.20 46.09 45.39 42.23 40.73 42.78 44.75 43.59 37.93 26.23 28.36 33.12 38.00 37.71 38.49 35.56 35.59 38.20 38.81 39.83 38.37 37.36 39.65 37.34 31.30 30.10 31.10 39.79 41.83 41.91 41.14 37.01 33.33 39.42 33.71 35.77 32.44
45.11 45.32 45.23 45.14 45.35 45.32 45.19 45.29 45.36 45.47 45.61 46.16 41.10 38.54 38.77 44.52 44.82 41.55 33.65 28.92 31.41 38.43 38.52 38.59 33.18 36.72 32.26 35.46 36.08 35.89 36.15 41.84 41.79 42.74 39.61 37.10 30.74 39.78 41.08 42.32 42.29 39.17 42.19 34.21 34.10 27.56 27.19
44.91 44.94 44.97 44.87 44.94 45.11 45.04 44.96 45.10 45.25 45.45 45.27 39.11 35.21 40.32 44.24 45.00 37.26 27.45 29.83 34.17 38.62 39.36 36.75 34.82 33.73 34.75 35.08 36.51 35.03 38.54 41.76 41.94 40.78 41.83 40.54 35.94 35.64 39.31 38.13 37.11 37.73 35.90 37.13 37.55 35.06 31.76
44.56 44.78 44.57 44.76 44.74 44.87 44.78 44.70 44.91 44.88 44.92 42.73 38.12 28.84 42.58 44.56 32.99 33.90 29.17 33.29 37.62 36.75 39.58 37.28 37.73 35.62 34.54 35.50 34.67 35.12 36.37 39.19 41.12 40.17 37.00 40.15 35.80 30.71 33.81 40.94 43.39 41.79 38.14 37.68 33.25 32.86 35.32
44.42 44.36 44.32 44.36 44.51 44.56 44.58 44.66 44.71 44.68 44.44 40.67 34.12 31.41 41.10 42.22 26.24 29.78 34.24 33.83 35.74 35.00 35.64 36.29 35.60 37.77 37.96 34.24 30.86 35.26 37.19 42.25 41.96 39.34 36.08 38.58 33.86 29.04 32.78 38.43 42.28 38.08 39.96 40.20 38.85 38.02 34.12
44.04 43.96 43.93 44.33 44.64 44.74 44.97 44.85 44.85 44.76 44.28 40.57 34.33 21.65 32.14 36.18 35.77 32.92 30.81 31.55 32.21 38.03 36.42 37.17 35.84 36.87 35.17 33.18 35.68 32.88 35.13 41.58 41.76 40.92 42.15 40.03 35.11 32.62 29.36 34.79 37.27 35.89 37.95 39.35 38.29 34.50 33.96
44.44 44.55 43.89 44.15 44.28 44.50 44.61 44.95 44.94 44.77 44.58 39.49 34.67 25.02 33.56 26.25 29.93 32.97 33.52 33.17 32.08 31.78 37.43 38.02 34.44 34.36 33.35 30.42 32.06 31.33 35.58 37.77 41.72 42.79 39.67 37.20 31.39 35.43 35.93 37.83 38.15 38.09 38.06 38.57 37.50 37.77 34.73
43.39 43.67 44.03 43.89 44.11 44.46 44.87 45.35 45.13 45.02 44.85 37.49 31.80 26.78 32.09 31.24 33.59 32.01 32.24 30.20 30.52 32.65 34.38 33.57 33.67 35.68 35.06 31.01 32.53 30.74 35.20 35.23 34.89 39.48 37.99 39.03 30.90 34.39 32.69 37.15 37.10 35.89 38.61 38.53 37.45 38.67 38.81
43.12 43.61 43.91 43.90 44.32 44.45 45.02 45.56 44.89 45.11 43.70 36.75 37.59 35.60 31.78 30.55 30.48 30.07 29.89 32.23 32.47 34.49 35.37 37.35 36.54 34.83 33.59 35.38 37.28 38.55 38.64 38.89 38.92 37.07 35.81 36.35 33.41 31.26 27.45 35.27 35.94 30.51 35.55 38.32 39.35 41.12 39.95
42.43 43.01 43.68 44.13 44.61 44.67 45.72 45.93 45.55 44.83 44.22 36.97 36.69 33.50 27.57 23.06 26.37 28.55 31.51 33.78 33.36 34.34 33.25 36.33 38.02 34.55 39.04 42.63 41.06 40.80 39.49 39.41 38.99 38.53 39.64 34.36 33.53 31.77 26.62 30.42 23.57 36.55 43.10 42.60 39.89 41.23 42.13
42.96 43.24 43.97 44.15 44.75 45.21 45.98 46.00 46.21 45.01 45.25 39.26 37.55 34.92 30.60 20.96 29.00 29.70 30.91 32.02 34.87 35.87 34.33 35.10 38.74 40.68 41.09 39.12 34.52 31.32 29.49 31.05 34.38 37.83 37.36 37.32 33.19 26.34 24.85 25.87 31.84 35.38 40.21 38.78 37.04 37.18 43.37
42.91 43.46 43.78 44.32 45.23 45.46 46.00 46.21 46.07 46.14 45.88 41.45 39.05 39.36 34.62 29.80 26.21 33.31 31.24 32.93 28.88 28.78 31.52 34.40 40.92 41.32 39.75 36.63 32.78 25.56 22.47 27.88 27.60 31.94 38.19 36.65 35.10 29.13 26.05 25.68 20.89 33.77 41.43 44.76 43.82 32.88 43.34
42.68 43.22 43.99 44.47 45.18 45.61 45.72 45.96 46.16 46.28 46.17 42.99 38.77 40.51 36.63 31.15 32.50 33.85 29.84 30.03 34.44 32.55 29.83 33.33 34.59 35.91 38.13 31.36 29.04 23.49 23.90 32.83 26.09 27.86 27.95 29.20 28.56 27.18 26.07 25.89 30.45 39.73 43.16 45.19 32.01 34.19 43.14
43.58 44.10 44.38 44.86 45.18 45.67 45.72 45.84 45.95 46.25 46.54 43.96 39.58 41.88 37.79 33.95 33.87 36.02 36.52 33.40 34.53 33.89 30.09 33.50 31.91 33.83 33.65 24.52 26.60 25.70 24.42 29.54 30.84 33.24 32.44 29.39 27.33 26.18 27.31 23.89 22.54 41.86 42.48 36.56 40.52 42.84 42.93
43.51 43.86 44.01 44.62 44.91 45.42 45.47 45.95 46.16 46.37 46.54 45.85 38.10 41.58 43.02 35.53 32.92 39.22 39.06 39.86 38.32 37.42 36.16 36.30 32.70 35.42 36.98 31.39 29.99 30.16 26.00 29.60 31.55 27.53 37.33 30.53 33.84 29.88 31.05 29.90 40.63 43.60 43.11 44.65 44.85 42.96 42.81

GFSGBSN_sfc_wetblb_087.txt.gz
Wetbulb
52.28 52.12 52.02 52.09 52.11 52.45 52.29 52.23 52.29 52.36 51.96 51.83 51.58 51.44 51.43 51.31 51.04 51.09 51.91 52.05 52.18 51.54 51.56 51.73 51.68 52.16 47.32 40.09 39.87 49.09 56.70 59.90 58.41 53.40 48.42 46.72 43.30 41.80 39.47 41.98 44.06 41.35 43.52 45.51 46.51 45.91 44.35
51.37 51.50 51.32 51.54 51.88 51.73 51.77 51.62 51.32 51.50 51.79 51.93 51.99 51.71 50.83 51.00 51.01 50.63 51.18 51.09 51.45 51.70 51.11 51.08 51.34 51.71 44.27 34.60 45.44 47.35 46.54 46.96 54.41 53.50 50.61 48.61 44.67 44.70 42.33 42.52 41.90 44.38 45.36 45.65 46.29 46.06 45.86
51.33 50.97 50.82 50.53 50.54 50.86 50.70 50.53 50.51 50.57 50.64 51.08 51.64 51.55 50.90 50.73 50.67 50.33 50.71 50.75 50.88 51.20 51.04 50.72 51.15 48.85 42.92 38.94 45.89 46.79 46.81 45.35 47.68 52.78 49.03 50.43 50.06 45.95 44.66 42.88 47.05 45.88 41.96 43.77 43.03 43.31 42.81
50.82 51.21 51.36 50.30 50.14 50.00 50.27 50.38 50.44 50.48 50.34 50.35 50.59 50.85 51.32 51.15 50.77 50.63 50.61 50.46 50.25 50.67 51.19 51.01 51.06 47.81 39.58 49.27 47.88 46.63 46.53 45.22 47.48 47.36 48.76 49.02 48.70 47.20 45.36 47.07 45.04 42.05 40.30 35.52 42.00 43.22 44.32
49.56 49.47 49.62 50.74 50.15 50.06 49.93 49.87 50.01 49.97 49.63 49.64 50.49 50.67 50.78 50.53 50.39 50.34 50.18 50.02 49.80 50.77 51.68 50.97 47.32 45.88 38.53 51.27 47.20 50.13 48.07 45.84 46.45 46.46 45.68 48.92 45.65 41.36 41.43 38.87 36.24 36.81 32.27 35.02 38.64 43.47 42.85
48.92 49.26 49.34 49.73 50.03 49.75 49.65 49.57 49.63 49.21 49.19 49.43 49.64 49.86 50.33 50.31 50.18 49.75 49.38 49.37 49.82 50.05 50.27 50.16 49.11 42.31 43.80 43.66 49.94 49.01 49.60 49.12 45.94 44.76 43.82 42.18 39.50 34.92 35.75 35.26 30.35 33.92 33.23 31.92 34.62 38.87 40.56
48.33 48.51 48.94 49.06 49.15 49.20 49.09 48.92 48.98 48.83 49.00 49.15 49.10 49.30 49.65 49.96 49.64 49.35 46.86 42.14 41.75 39.70 43.11 41.21 42.28 41.97 44.10 49.04 50.95 47.32 47.52 45.43 48.23 42.65 35.66 38.61 33.24 29.62 33.80 38.15 39.05 38.10 35.57 33.78 36.09 41.04 40.84
47.82 48.32 47.80 47.45 47.63 47.72 47.82 48.44 48.35 48.00 47.96 48.22 48.61 48.90 49.05 49.16 49.37 49.12 42.33 38.29 41.64 42.36 35.79 43.08 43.18 42.60 46.18 47.86 42.33 46.07 47.41 40.63 43.32 37.58 38.15 34.95 30.34 36.72 37.45 37.62 37.72 37.56 35.06 33.29 36.54 40.01 40.79
47.43 47.96 47.65 47.51 47.29 47.23 47.86 47.77 47.29 47.47 47.79 47.86 47.91 47.98 48.31 48.77 48.78 42.44 38.11 39.55 45.59 44.06 36.57 38.55 42.16 41.17 42.35 43.94 40.04 41.01 45.28 39.79 37.97 38.36 36.50 32.66 35.98 38.97 37.14 35.69 34.89 33.55 32.04 32.40 33.90 39.33 39.34
45.91 45.83 45.91 46.38 46.67 46.88 47.45 47.30 47.24 47.24 47.40 47.39 47.50 47.59 48.34 48.66 39.91 39.20 36.36 43.94 44.88 43.89 30.00 32.33 37.74 40.93 42.98 42.76 37.76 45.27 45.55 41.21 38.02 35.83 38.00 35.57 39.90 37.98 35.00 34.86 35.35 30.78 37.77 37.85 37.25 35.05 29.06
45.59 45.23 45.50 45.80 46.12 46.39 46.70 46.94 46.73 46.86 46.75 46.87 46.98 47.39 47.65 47.64 39.16 36.34 39.41 44.23 44.65 43.49 16.20 36.18 40.06 46.95 43.79 38.82 41.33 40.48 44.42 40.32 34.85 35.84 37.76 35.53 37.60 36.64 35.99 37.03 39.08 35.92 41.06 39.35 38.52 34.50 33.71
46.30 45.69 45.33 45.39 46.04 46.22 46.39 46.31 46.24 46.22 46.14 46.58 46.53 46.67 47.08 42.57 37.99 39.30 41.56 42.83 42.59 28.41 18.31 33.44 40.25 38.48 37.97 40.86 41.85 42.41 41.11 41.79 40.04 35.45 35.29 36.42 38.46 38.74 39.05 41.48 40.48 42.57 38.83 37.89 37.91 35.20 26.79
45.75 45.15 45.03 45.54 45.64 45.63 45.77 46.05 45.97 45.91 45.89 46.01 46.13 46.35 44.72 43.83 36.39 40.37 42.21 37.56 27.15 21.03 34.44 33.92 35.57 39.25 37.89 37.56 38.95 40.30 37.72 34.73 30.67 27.56 27.74 32.40 33.26 39.31 42.70 38.32 40.92 38.58 32.76 21.60 22.12 27.22 24.44
44.84 44.91 44.85 44.99 45.25 45.39 45.46 45.51 45.52 45.65 45.69 45.56 45.93 46.12 43.44 42.65 40.17 40.34 38.41 32.92 20.21 27.81 30.40 37.73 36.55 35.81 35.21 38.71 38.48 39.07 35.16 31.80 33.74 31.61 27.91 25.95 25.45 36.49 41.42 38.23 35.94 36.02 33.13 23.63 21.01 25.15 28.69
44.46 44.36 44.22 44.70 45.20 45.48 45.26 45.19 45.29 45.55 45.43 45.24 45.17 37.76 37.18 38.04 41.24 39.46 32.08 23.85 23.75 29.86 33.60 32.66 34.56 34.23 33.98 36.62 35.78 38.01 35.66 34.15 34.38 34.07 29.40 27.56 28.50 36.07 40.40 40.05 39.66 36.02 31.55 36.37 30.65 30.74 28.74
43.80 43.81 44.63 44.73 45.15 45.06 44.96 45.30 45.40 45.34 45.26 45.17 36.05 34.24 34.69 38.92 40.42 36.68 27.90 25.12 28.66 35.05 34.96 34.68 29.15 33.19 29.40 31.47 33.03 33.45 35.46 39.07 38.03 37.61 36.59 34.98 28.53 36.70 37.81 39.96 39.27 36.92 39.27 30.28 34.08 24.37 23.22
43.52 44.29 44.29 44.59 44.90 44.67 44.88 44.91 45.09 45.06 44.98 44.64 34.10 31.64 35.99 40.95 39.88 33.49 20.06 26.85 30.64 35.82 36.48 32.52 30.75 30.82 32.11 31.09 32.99 33.33 36.38 37.66 39.12 39.31 40.35 37.65 34.38 33.27 36.91 34.06 33.00 34.24 33.59 34.78 34.90 33.78 28.40
43.44 43.30 43.85 44.64 44.32 44.42 44.27 44.72 45.03 45.20 44.56 39.50 33.83 24.84 39.51 41.28 29.99 24.01 22.19 30.70 35.49 33.87 36.70 34.45 35.45 33.90 31.45 32.91 31.82 32.60 33.79 36.98 40.41 40.59 35.73 36.78 33.82 28.88 32.06 38.65 39.33 36.45 34.94 35.49 30.50 29.71 34.42
43.66 43.90 43.60 44.42 44.02 43.95 44.25 44.85 45.11 45.19 43.64 35.15 31.11 31.02 39.47 39.69 24.78 21.08 29.00 30.17 32.47 31.45 32.10 32.28 32.26 34.81 35.26 32.39 29.18 33.31 34.46 39.79 40.53 38.04 35.10 35.99 31.70 26.32 28.93 34.38 38.74 35.79 38.15 38.27 38.09 36.43 31.88
43.82 42.88 43.55 43.42 43.54 43.64 44.10 44.51 44.84 45.08 43.96 36.10 31.62 25.25 29.60 34.12 34.16 29.05 27.32 28.20 30.36 35.95 34.03 35.78 34.38 35.92 33.42 31.43 33.82 31.44 32.97 38.38 40.27 39.34 41.78 38.64 32.36 29.26 23.08 28.03 35.49 33.46 36.60 37.53 36.88 32.36 33.02
43.07 42.48 43.14 42.98 43.41 43.56 43.76 44.20 44.63 44.89 44.13 35.81 32.12 24.22 28.45 24.66 28.34 29.24 30.18 30.85 29.99 29.48 35.31 36.61 34.07 34.30 32.44 27.75 29.35 30.00 33.58 35.33 39.27 40.85 37.83 34.92 28.03 30.21 32.09 34.05 34.55 34.23 34.42 35.52 34.36 35.99 33.22
42.02 42.31 42.98 42.66 42.93 43.84 44.06 44.34 44.61 44.75 44.10 35.53 27.09 27.48 29.70 28.51 30.48 28.76 29.10 29.23 29.71 31.33 32.11 30.93 31.12 33.56 33.96 30.16 31.85 29.36 32.52 33.14 33.03 35.87 35.29 36.21 29.23 29.64 28.21 33.02 32.99 31.38 33.84 35.00 36.50 37.65 37.43
41.94 42.01 42.23 43.41 42.61 42.93 43.65 44.41 45.05 45.20 43.81 36.23 35.32 34.25 31.65 27.33 26.65 25.63 26.46 26.96 28.28 31.65 34.70 35.15 33.59 33.19 31.63 34.54 36.45 36.55 36.32 36.63 35.68 33.86 32.18 32.63 30.76 28.34 25.84 30.41 30.01 26.18 31.54 32.48 37.49 39.14 37.85
42.01 42.22 43.23 43.75 42.28 43.17 44.16 44.62 44.89 45.38 44.15 38.93 35.85 34.24 29.02 21.71 25.32 25.94 27.76 29.03 28.60 30.96 30.50 34.00 35.49 33.85 36.84 40.86 39.70 37.67 36.93 37.03 35.57 35.22 36.32 31.22 30.98 29.72 25.27 27.31 18.64 30.96 36.95 37.52 35.97 40.23 40.58
42.04 42.83 43.64 41.95 42.12 43.32 44.06 44.43 44.84 45.38 45.71 40.11 38.24 34.42 29.84 20.75 26.72 27.48 28.36 29.38 31.09 31.75 30.89 33.13 35.88 38.87 39.91 36.96 31.00 29.09 28.21 29.14 31.32 33.92 34.02 34.70 30.22 24.76 22.89 23.46 26.99 30.56 34.47 35.02 35.27 34.49 40.89
42.29 43.10 41.64 41.85 42.16 43.13 43.63 44.26 44.74 45.26 45.73 42.01 38.70 38.43 31.69 22.55 23.33 30.08 28.36 30.06 26.91 27.82 29.55 32.39 37.98 39.16 38.03 32.07 28.64 23.99 22.35 26.73 26.54 29.91 35.07 33.69 32.09 27.14 23.51 21.60 15.79 28.38 37.19 41.77 41.19 30.68 39.80
42.75 43.08 41.70 42.01 42.20 42.81 43.38 43.95 44.72 45.22 45.59 43.70 40.57 39.78 34.68 21.64 28.73 30.49 27.00 28.45 31.96 29.92 28.19 32.25 31.86 33.14 34.61 29.49 25.91 24.70 24.36 29.88 24.12 26.43 26.35 26.96 27.24 26.06 24.43 23.63 25.92 34.33 39.37 41.86 29.69 31.13 40.02
42.74 41.66 41.61 41.64 41.90 42.66 43.39 43.88 44.38 44.96 45.26 43.96 40.90 40.61 36.20 26.47 28.22 32.92 33.67 29.20 31.03 31.03 25.47 29.63 28.15 28.65 31.43 27.61 25.40 25.50 23.15 27.10 26.78 28.95 28.03 26.12 24.66 23.52 25.63 24.18 21.50 39.55 39.23 32.33 36.26 39.69 40.03
41.60 41.53 41.28 41.53 42.42 43.23 43.60 43.72 44.15 44.79 45.47 45.55 39.77 41.20 40.95 34.18 29.35 35.22 35.71 36.61 34.83 34.45 30.57 31.27 31.34 31.55 34.80 31.36 30.49 30.65 25.77 24.18 27.04 22.43 34.14 23.11 29.82 29.99 29.69 27.45 38.23 39.72 38.85 40.65 41.78 39.91 40.12

GFSGBSN_sfc_wetblb_090.txt.gz
Wetbulb
51.66 51.48 51.28 51.36 51.62 51.51 51.44 51.15 50.74 50.76 50.65 50.69 50.88 51.34 51.82 51.49 51.06 50.82 51.23 51.18 50.10 50.04 50.11 50.58 51.18 51.22 46.58 39.73 38.53 45.89 53.15 50.55 57.08 53.68 48.67 45.29 41.71 40.98 38.36 40.13 42.41 39.21 41.83 43.44 45.46 44.91 44.05
51.12 50.71 50.50 50.39 50.21 50.38 50.40 50.19 50.27 50.18 50.35 50.41 50.18 50.30 50.66 51.10 50.85 50.66 50.74 50.80 50.76 50.38 49.93 50.34 50.78 50.80 43.89 34.05 45.70 46.46 45.55 45.23 50.30 51.23 48.60 46.41 44.44 43.41 40.37 39.55 40.14 42.90 43.84 44.71 45.15 44.58 43.96
50.08 50.52 50.65 49.82 49.76 49.83 49.74 50.24 50.24 50.28 49.79 49.47 49.42 49.91 50.70 50.72 50.57 50.06 50.42 50.41 50.35 50.21 50.61 50.60 51.04 48.32 41.74 38.16 46.99 46.67 47.07 44.75 44.36 48.30 48.35 49.53 48.03 43.87 41.67 39.90 43.86 42.44 39.25 41.71 42.05 42.47 41.84
49.56 49.33 49.50 50.26 49.77 49.60 49.70 49.66 49.77 49.64 49.42 49.23 49.66 49.70 50.58 50.68 50.58 50.52 50.33 49.93 49.65 49.98 51.40 51.82 51.27 46.63 38.56 48.29 48.93 47.09 47.41 44.97 46.12 46.22 48.17 49.65 49.30 46.06 43.95 45.57 44.04 39.65 38.70 34.05 40.47 42.04 43.39
48.41 48.56 48.43 49.15 49.96 49.57 49.40 49.16 48.87 48.93 49.07 48.86 49.29 49.31 49.68 50.21 50.24 50.09 49.73 49.54 49.47 50.76 51.96 50.89 46.70 43.98 37.31 50.31 46.21 48.85 47.36 43.71 46.22 46.30 45.70 48.46 44.03 40.18 39.71 37.04 34.13 36.31 31.54 33.86 36.87 42.04 41.02
48.10 48.30 48.62 48.79 48.75 48.92 48.66 48.41 48.55 48.73 48.38 48.23 48.23 48.36 48.90 49.70 49.71 49.40 49.15 48.83 49.07 49.80 49.34 49.38 48.30 39.89 41.40 41.22 48.97 50.15 48.03 47.43 45.67 43.64 42.28 41.02 38.74 34.30 33.69 33.27 27.54 31.80 31.85 30.64 32.88 36.97 38.23
47.40 47.56 47.44 47.48 47.53 47.45 47.63 47.71 48.23 47.66 47.59 47.86 48.14 48.26 48.24 48.33 48.69 48.76 45.77 40.09 39.00 36.46 39.55 36.45 38.10 38.95 41.69 47.09 50.36 47.61 49.26 46.08 45.75 42.14 34.46 38.24 32.71 28.81 32.51 36.36 37.65 36.52 34.51 33.30 33.90 39.96 37.19
46.86 48.08 46.93 47.24 47.50 47.27 47.05 47.51 47.39 47.14 47.32 47.51 47.61 47.92 48.03 48.04 48.17 48.44 38.44 33.58 39.14 39.05 32.68 39.43 39.91 40.09 43.17 44.93 39.56 43.35 47.89 40.34 42.80 36.90 37.95 34.53 30.40 35.57 37.57 37.19 36.58 35.97 34.03 32.59 35.96 38.29 39.00
46.06 45.74 46.06 46.46 46.59 46.62 46.93 47.08 47.23 47.10 47.07 46.96 47.10 47.18 47.29 47.44 47.85 40.73 37.29 36.59 43.39 42.72 33.62 36.81 40.66 40.01 41.40 43.33 38.49 39.53 44.06 41.55 40.44 37.61 35.51 33.16 35.92 38.77 36.77 34.68 33.23 32.59 31.74 31.40 32.73 36.84 36.91
44.94 44.86 44.93 45.47 45.70 45.97 46.11 46.75 46.85 46.54 46.38 46.24 46.30 46.61 47.34 47.57 39.18 37.93 35.97 40.54 42.47 43.10 29.49 31.01 35.96 39.14 41.71 41.99 36.45 44.15 45.27 41.15 37.21 37.72 37.63 34.44 38.58 36.87 34.03 33.50 34.24 29.39 35.75 35.72 35.99 32.57 26.77
44.67 44.98 44.51 45.25 45.20 45.79 46.08 46.33 46.37 46.25 46.12 46.17 46.01 46.33 46.34 46.39 40.22 37.23 38.66 41.52 42.20 42.40 16.13 33.00 37.11 45.20 42.54 37.54 38.38 39.22 45.47 40.09 34.71 35.69 37.42 34.68 36.92 35.48 33.24 34.60 36.61 34.11 39.74 38.05 37.89 33.09 31.90
45.75 45.33 44.76 44.91 45.10 45.48 45.47 45.72 45.88 45.90 46.03 45.92 45.72 45.95 46.15 41.14 37.25 38.45 39.94 41.27 39.75 29.06 16.77 30.93 38.76 36.48 35.06 36.97 39.13 40.26 39.99 41.27 39.62 35.27 34.34 36.13 37.25 37.49 37.79 41.21 39.95 42.30 38.06 37.64 36.72 33.77 24.91
44.88 45.04 44.41 44.64 45.02 45.09 45.36 45.30 45.20 45.36 45.54 45.72 45.47 45.60 44.08 42.36 35.56 38.84 40.31 35.08 25.19 19.33 31.52 30.27 32.18 36.44 34.14 35.53 37.15 37.63 35.58 33.43 30.78 27.53 27.38 31.32 32.28 37.82 41.99 38.10 40.31 37.24 32.65 22.02 19.53 25.48 22.03
44.07 44.27 44.17 44.16 44.31 45.05 45.23 45.13 45.23 45.36 45.41 45.62 45.38 45.41 42.45 41.04 38.89 39.03 35.92 28.30 18.10 25.44 27.74 34.82 34.01 34.53 31.39 36.77 36.29 37.60 34.55 30.08 32.37 30.98 26.45 24.53 23.20 34.76 40.31 36.90 35.31 34.62 32.68 25.13 19.70 23.93 26.61
44.60 43.55 43.60 43.97 44.86 44.95 45.06 44.90 45.14 45.35 45.25 45.21 44.49 36.40 35.27 37.41 38.83 38.75 31.21 19.37 21.61 26.78 32.03 30.85 33.81 30.92 32.81 33.85 34.08 36.42 33.15 31.53 33.52 33.06 28.11 25.59 26.30 34.96 39.70 39.31 38.12 35.25 30.41 34.84 28.56 29.45 24.49
43.46 43.27 43.17 44.24 44.42 44.73 44.62 44.70 45.04 45.30 45.29 44.86 35.11 34.21 33.26 38.34 39.93 35.58 26.96 21.31 25.91 32.98 33.12 33.82 29.10 31.10 27.56 30.50 31.23 32.97 34.60 37.43 36.56 36.37 35.76 33.68 27.57 35.57 37.40 39.29 39.60 36.32 38.48 28.26 31.65 24.60 22.94
42.68 43.66 43.77 43.37 44.42 44.51 44.44 44.34 44.86 45.14 45.20 44.19 33.17 29.23 35.14 39.65 41.83 33.71 18.08 21.36 27.85 33.90 35.14 32.14 29.85 30.61 30.43 29.69 31.75 33.28 33.48 37.50 37.93 38.44 39.02 36.81 33.20 32.20 35.70 33.69 33.23 34.51 32.94 33.61 33.27 31.02 25.83
42.42 42.97 43.12 43.48 44.25 44.00 43.88 44.13 44.87 45.41 44.42 38.87 32.54 23.13 34.81 40.11 26.80 29.51 18.38 27.31 32.80 31.78 35.25 32.25 33.70 32.99 31.16 31.47 31.06 32.46 32.58 36.47 40.14 39.54 34.38 36.79 33.61 29.42 32.24 37.95 38.71 36.46 34.68 34.44 26.19 25.45 32.28
42.39 42.78 43.72 43.03 43.87 43.32 43.53 44.03 44.59 45.09 43.31 33.74 29.60 30.38 36.33 38.83 23.16 24.60 26.39 28.54 30.37 29.68 30.65 31.27 31.02 33.40 33.54 30.69 28.58 33.12 33.49 38.93 40.12 37.06 34.29 35.28 31.55 25.40 30.32 34.47 36.99 35.54 37.09 38.16 37.08 34.43 30.53
42.18 43.28 42.76 42.83 43.21 43.22 43.27 43.67 44.07 44.66 43.94 35.28 30.29 22.68 26.12 34.44 33.97 27.68 26.91 26.26 26.06 34.38 31.45 35.33 33.75 34.66 32.66 30.75 33.91 31.30 33.04 37.67 40.52 38.94 41.72 39.12 32.33 28.44 23.80 26.93 33.96 32.61 35.42 36.86 35.37 29.87 31.36
42.36 43.50 42.15 42.79 42.91 42.92 42.92 43.32 44.20 44.57 44.20 37.38 31.25 23.06 28.74 20.54 24.10 27.33 28.31 29.12 28.67 30.21 34.55 35.01 32.72 33.05 32.32 29.25 30.36 30.40 33.29 34.75 37.90 39.40 38.31 35.02 27.85 30.78 31.47 32.22 33.07 32.29 32.05 33.63 33.67 33.79 30.42
42.35 42.33 41.56 42.21 42.52 42.79 43.34 43.32 43.89 44.59 44.43 37.08 27.51 26.89 28.11 26.28 28.08 26.77 27.07 26.47 26.61 28.10 32.18 30.92 29.87 33.24 33.89 30.79 31.79 29.28 31.42 33.02 32.50 35.60 34.69 35.77 28.69 29.57 28.42 31.75 30.71 28.36 31.13 31.29 32.20 33.76 34.80
42.12 42.33 42.12 42.05 42.21 42.87 42.36 43.02 43.93 44.85 43.30 36.54 35.69 35.61 29.32 25.54 25.19 23.54 26.40 26.51 26.00 29.86 32.29 34.13 32.27 32.52 30.97 33.04 34.75 35.24 35.05 34.87 35.26 33.68 31.78 32.19 29.82 27.00 24.67 29.21 28.31 24.55 28.52 29.94 30.62 36.70 36.28
42.16 41.11 41.89 42.35 43.23 43.26 42.46 43.36 44.54 44.94 43.89 39.09 37.34 35.39 28.76 18.87 24.15 24.85 26.68 28.01 27.78 29.29 29.33 32.92 34.34 32.10 36.33 39.74 37.86 36.71 36.00 35.68 35.61 35.24 36.04 31.06 29.88 28.68 24.90 27.13 16.47 29.03 34.14 33.93 33.66 35.53 39.38
41.74 41.30 41.97 42.69 43.31 41.64 42.23 43.49 44.34 44.58 45.01 39.75 38.68 35.44 30.07 17.12 26.15 26.14 27.23 27.38 28.94 30.85 30.55 31.25 35.37 37.01 38.72 35.92 29.61 28.18 27.61 28.49 30.19 33.05 32.57 33.65 29.64 24.60 21.95 22.92 25.67 29.35 33.09 33.74 31.58 31.73 37.90
41.59 41.56 42.18 43.43 41.60 41.63 42.18 43.27 43.90 44.46 45.08 41.84 38.74 39.63 34.80 22.89 21.77 28.43 27.34 28.53 27.19 27.58 28.51 31.65 37.01 37.28 36.22 30.88 27.88 23.92 21.83 26.07 25.78 28.08 33.92 32.28 30.77 26.25 23.65 20.70 14.48 27.08 34.44 39.14 37.51 25.87 38.76
41.08 41.56 42.22 43.17 41.61 41.83 42.23 43.02 43.59 44.41 45.04 43.09 40.04 40.19 35.66 27.91 28.26 29.31 26.25 27.47 30.68 28.08 27.10 30.59 30.65 32.13 33.66 28.27 24.67 24.58 24.31 28.95 23.73 25.07 25.55 26.61 26.92 25.82 24.29 23.10 25.69 33.10 38.21 39.94 25.60 27.05 38.17
41.11 41.51 42.74 42.33 41.72 41.57 41.98 42.75 43.59 44.13 44.90 43.29 40.83 40.79 36.53 29.29 27.95 31.67 32.11 28.51 28.81 29.41 23.97 28.64 27.53 27.79 31.38 26.06 26.18 25.61 23.04 26.31 26.72 28.19 27.72 25.45 23.75 23.18 26.75 23.61 20.02 37.62 37.41 30.25 36.26 39.00 38.71
41.06 41.96 42.54 41.69 41.46 41.53 41.94 42.86 43.80 44.04 44.44 44.76 39.55 41.26 41.37 35.07 31.18 34.07 34.16 34.95 34.33 33.46 29.89 29.85 28.93 28.60 33.82 26.15 28.23 29.20 27.54 25.29 26.71 23.18 32.52 21.77 29.82 29.07 28.96 27.45 36.91 37.48 35.80 37.34 38.41 36.12 37.35

GFSGBSN_sfc_wetblb_093.txt.gz
Wetbulb
51.29 51.13 50.90 50.69 50.48 50.29 50.11 50.13 50.02 50.27 50.14 49.65 49.54 49.61 50.27 51.22 51.12 50.78 50.58 50.87 49.92 49.64 49.94 50.08 50.57 50.76 47.22 40.38 40.17 47.38 53.20 50.40 56.14 54.37 48.31 46.99 45.94 45.86 42.72 44.30 45.38 43.30 44.74 45.50 47.00 46.61 46.32
50.82 50.20 49.71 49.72 49.80 49.78 49.73 50.01 50.12 49.94 49.47 49.26 49.10 49.60 50.08 50.21 50.20 49.83 49.66 50.19 50.28 50.09 49.59 50.15 50.69 50.63 43.57 33.31 46.40 47.80 46.66 46.90 46.62 52.86 49.82 48.08 46.09 47.46 43.98 43.17 43.32 45.15 45.81 46.03 47.05 47.14 46.83
50.25 50.51 51.01 49.95 49.42 49.39 49.67 49.53 49.47 49.05 48.96 48.82 49.21 49.38 49.36 49.61 49.61 49.38 49.27 49.68 50.10 50.05 50.27 50.95 52.15 48.51 41.73 38.53 47.21 47.89 47.18 46.34 46.71 45.75 46.86 49.97 48.98 45.75 45.46 42.39 45.30 44.61 41.12 43.49 44.97 46.41 45.69
48.99 48.63 48.67 49.01 50.11 49.72 49.16 48.93 48.95 48.87 48.88 48.58 48.56 48.58 48.45 48.84 48.95 48.89 49.05 49.52 49.58 50.11 50.57 52.43 52.05 47.24 39.18 48.42 49.24 47.04 47.72 46.13 47.64 47.12 45.24 46.96 51.68 47.37 45.86 47.48 45.85 43.53 41.80 37.56 43.34 44.42 45.69
47.96 47.89 48.12 48.62 48.75 48.75 48.71 48.30 48.45 48.73 48.45 48.01 48.01 48.18 48.32 48.87 49.02 49.12 49.27 49.41 49.65 49.23 51.80 50.73 46.98 44.38 38.16 50.04 45.85 49.30 48.79 44.36 45.90 45.59 45.83 48.89 48.59 45.52 44.38 41.54 38.11 39.70 36.35 37.80 40.80 45.25 45.10
48.07 47.78 47.97 48.25 47.77 47.54 47.35 47.37 47.92 47.79 47.44 47.66 47.73 47.70 47.75 48.19 48.89 48.83 48.87 47.99 47.73 49.95 48.44 49.28 47.93 39.85 41.93 40.53 47.07 48.16 49.54 47.27 44.91 44.54 43.07 42.93 42.24 38.98 38.55 37.88 31.37 34.82 36.24 37.97 38.90 43.61 43.34
47.24 47.18 46.96 46.93 46.98 47.12 47.14 47.35 47.39 47.15 47.29 47.37 47.31 47.27 47.23 47.47 47.55 48.40 44.09 38.97 38.87 37.94 38.12 34.06 35.62 37.97 40.30 43.59 46.45 44.71 49.07 46.21 45.89 42.12 36.17 40.04 35.96 33.88 36.79 39.28 39.29 39.68 38.39 37.94 40.10 43.26 41.62
46.39 47.51 46.99 46.46 46.63 46.84 46.81 46.85 47.17 47.32 47.22 46.84 46.60 46.69 47.03 47.07 47.01 46.87 40.99 36.19 37.11 37.78 31.32 38.08 38.07 38.01 41.22 43.15 37.64 41.68 46.34 41.54 41.13 36.94 38.63 36.08 33.56 38.11 39.55 39.47 39.07 38.81 37.16 37.12 40.21 42.21 41.02
45.92 45.20 45.09 45.34 45.90 46.06 46.17 46.44 46.76 46.53 46.44 46.38 46.45 46.42 46.76 46.83 46.60 41.56 38.90 38.28 42.44 41.54 32.77 34.67 38.67 38.04 39.29 41.19 36.23 37.89 44.56 43.07 40.20 38.05 36.00 33.97 36.49 39.26 37.70 36.43 35.80 36.79 35.91 35.92 36.58 39.67 41.21
44.44 44.19 44.18 44.78 45.01 45.43 46.04 46.25 46.36 46.36 46.23 46.25 46.11 46.09 46.45 46.75 39.88 39.56 37.36 41.10 42.42 42.17 27.76 30.96 35.74 39.42 41.47 42.35 35.87 42.88 44.28 43.24 38.49 38.16 37.20 35.64 39.90 37.32 36.17 35.41 36.76 32.29 38.00 37.71 36.55 36.24 31.72
43.97 44.28 44.19 44.29 44.47 45.38 45.38 45.31 45.64 45.78 45.83 45.88 45.71 45.91 45.58 45.72 39.90 36.46 39.79 41.79 42.78 40.78 14.46 33.51 36.85 45.75 42.78 37.69 38.89 39.67 45.03 42.15 36.50 38.26 39.11 36.25 37.27 35.60 33.54 35.55 38.02 35.17 39.06 37.70 38.99 36.83 35.90
44.45 44.32 44.34 44.24 45.12 45.14 45.08 45.27 45.29 45.43 45.40 45.55 45.66 45.73 45.71 41.43 39.56 40.27 41.00 41.45 39.34 25.16 14.76 29.51 37.92 35.53 35.73 38.24 37.85 39.88 39.57 43.09 41.73 37.05 38.05 38.47 41.01 40.24 38.68 41.33 39.18 42.73 40.24 39.42 39.04 36.74 28.97
43.61 44.51 44.29 43.60 44.25 44.18 45.07 45.38 45.08 45.39 45.60 45.70 45.59 45.68 43.91 42.86 35.85 40.44 40.98 36.25 23.91 17.03 30.89 28.25 30.44 34.79 33.86 33.99 35.97 36.11 34.47 34.28 33.46 29.84 30.03 34.23 35.26 41.66 43.46 39.02 41.73 39.22 35.75 29.31 26.48 27.01 26.74
43.93 43.18 43.34 43.54 43.56 44.69 44.77 44.80 45.01 45.30 45.41 45.39 45.39 45.05 41.25 41.21 40.66 40.87 37.89 29.03 16.01 24.58 26.03 33.25 32.41 32.93 31.00 35.99 36.69 35.98 33.56 31.84 34.77 33.45 30.72 28.57 26.50 37.03 41.65 40.05 37.66 36.59 36.44 29.75 22.49 24.94 28.70
44.41 43.64 42.93 42.90 44.39 44.33 44.71 44.64 44.71 45.23 45.45 45.25 44.50 37.61 36.67 38.55 40.47 40.26 31.44 18.85 20.50 26.05 29.49 28.69 30.56 30.41 31.44 33.78 33.95 34.89 33.82 33.05 35.40 35.32 30.53 28.49 28.68 39.04 40.73 41.65 41.18 36.48 33.32 36.94 31.43 31.28 28.34
43.87 42.48 42.76 42.91 43.71 44.19 44.50 44.36 44.50 45.07 45.43 45.28 37.18 34.59 34.25 39.83 40.78 37.89 27.09 21.70 24.48 29.82 29.97 31.45 26.41 30.79 28.51 29.58 31.11 34.73 34.95 37.55 36.62 37.33 38.50 34.15 29.79 36.85 39.08 41.79 41.31 38.85 40.30 31.64 32.44 24.47 22.54
42.71 42.29 42.94 42.90 42.83 44.32 43.86 43.94 44.23 45.04 45.32 43.60 34.84 29.81 35.46 40.73 40.85 32.55 22.31 22.03 26.18 31.44 32.80 31.17 27.25 25.87 30.86 29.69 30.76 33.21 34.13 38.25 38.55 38.61 39.85 38.65 35.90 33.87 38.03 35.61 35.23 36.12 34.83 35.18 35.13 32.10 26.52
43.42 41.97 42.47 42.87 43.20 43.91 43.42 43.59 44.24 44.87 44.23 38.52 32.92 22.92 35.93 41.14 28.41 29.98 25.22 27.27 31.30 29.08 32.41 31.85 32.32 31.12 30.95 31.22 30.81 32.75 31.84 34.90 40.02 40.16 35.66 38.50 36.22 30.80 33.04 39.11 40.88 39.04 36.14 35.75 30.98 27.91 30.98
43.90 42.35 42.49 43.58 42.55 43.41 43.07 43.14 43.78 44.55 42.97 35.46 29.05 28.89 36.69 39.61 21.90 23.52 28.18 27.62 29.87 28.56 28.98 30.26 29.18 31.74 33.71 32.10 29.84 34.55 34.24 38.93 40.56 38.23 35.21 37.52 32.95 30.24 30.73 35.44 38.27 36.09 38.36 39.00 37.20 34.64 29.18
43.53 41.94 42.48 42.96 42.75 42.79 42.92 42.90 43.40 44.19 43.45 36.58 28.57 20.94 27.62 32.67 32.67 26.98 25.76 25.42 26.35 32.95 30.84 32.70 33.39 34.12 33.26 31.85 35.04 31.57 33.07 36.78 40.08 40.00 42.09 40.84 33.81 30.44 26.97 30.00 35.12 32.05 34.08 37.16 36.19 30.00 29.79
42.92 42.31 42.85 42.23 42.70 42.50 42.40 42.43 43.37 44.09 44.32 38.85 30.93 22.44 28.49 21.45 24.62 26.61 28.01 26.78 25.29 25.70 34.98 36.06 33.16 33.31 32.72 29.58 31.12 30.75 33.32 35.34 37.94 39.11 39.44 37.45 30.16 32.51 32.98 34.17 34.89 33.43 32.84 33.74 33.09 34.39 30.52
42.62 42.00 42.42 41.27 41.59 42.37 42.48 42.80 42.97 43.55 44.18 37.36 29.16 26.84 29.64 27.48 28.15 26.11 26.91 25.71 25.18 26.87 30.94 31.30 29.60 31.61 33.82 30.70 31.62 29.51 32.21 33.48 32.61 36.68 35.62 37.46 31.10 32.15 29.33 32.88 32.42 30.48 32.77 32.88 33.50 34.37 34.39
42.09 42.24 41.73 41.42 42.16 42.22 42.87 42.09 42.67 43.67 43.28 37.21 36.05 35.66 31.16 26.64 25.96 24.11 25.46 25.63 25.93 29.14 31.47 33.18 32.22 31.75 32.05 33.59 36.07 36.91 37.23 36.37 35.45 34.50 33.39 33.91 31.94 28.57 25.00 30.70 30.03 25.81 30.52 31.61 32.66 34.58 36.94
42.01 41.59 41.80 41.20 41.93 42.60 43.62 42.27 43.07 44.23 43.84 39.88 37.73 35.96 28.87 22.22 24.99 24.96 26.21 27.01 26.76 28.17 28.28 32.83 34.77 32.82 36.66 38.78 38.69 37.71 37.09 36.18 36.30 36.38 36.74 32.93 31.35 30.41 25.89 28.28 17.96 30.39 36.38 35.81 34.38 36.08 38.79
41.59 41.57 41.48 41.31 42.62 42.97 41.83 41.80 43.12 44.19 44.42 40.39 39.00 35.74 31.41 22.83 26.66 26.75 27.36 27.42 28.87 31.25 30.73 32.21 35.19 36.04 37.97 36.46 31.91 29.34 29.26 30.46 31.79 34.88 34.04 35.63 32.24 27.78 24.06 23.76 27.52 30.55 35.25 34.29 33.10 32.85 38.60
41.21 41.16 41.47 41.44 42.13 42.83 41.59 41.75 43.00 43.62 44.19 41.29 38.81 40.14 35.21 27.47 24.59 28.76 27.37 28.96 27.59 28.39 28.67 32.32 37.15 37.89 36.73 32.12 29.82 24.55 22.79 26.74 26.67 30.04 35.07 33.83 33.84 29.79 26.62 20.64 17.95 29.29 36.26 40.46 39.35 28.48 37.62
41.26 41.40 41.37 41.86 42.22 42.77 41.91 41.78 42.78 43.25 43.99 42.67 39.98 41.00 36.05 29.28 30.39 30.52 28.10 28.26 30.86 29.12 26.71 30.21 31.30 32.51 35.57 29.45 27.76 25.66 25.03 29.59 24.36 25.34 27.23 29.09 29.24 25.85 24.84 23.10 27.20 34.96 38.47 40.04 27.36 29.41 37.20
40.86 41.21 41.15 41.52 42.41 42.60 41.71 41.73 42.45 43.06 43.82 42.96 40.71 41.22 37.01 30.67 30.51 31.70 32.70 29.77 29.69 30.11 25.79 30.48 29.35 29.84 30.59 27.42 27.29 27.69 26.32 28.01 27.81 29.67 29.32 27.65 26.27 25.38 26.50 23.75 20.75 37.20 37.83 32.50 36.36 38.31 37.95
40.41 40.72 41.11 41.82 42.53 42.05 41.68 41.55 42.20 42.91 43.77 43.74 39.34 41.53 41.63 35.37 32.68 35.11 35.50 36.58 35.21 34.85 32.64 31.44 30.12 30.10 32.57 28.19 28.87 28.88 27.21 28.58 26.79 24.76 33.66 27.97 31.70 28.68 30.13 29.97 35.07 36.12 34.53 35.27 36.91 34.44 35.16

GFSGBSN_sfc_wetblb_096.txt.gz
Wetbulb
52.01 51.54 51.02 50.40 50.14 50.10 50.03 50.16 50.38 50.12 49.58 49.32 49.43 49.73 49.88 50.03 50.27 50.11 49.84 50.06 49.69 49.79 49.85 50.26 50.93 51.29 49.34 43.29 43.41 49.06 55.85 54.01 50.03 53.83 50.74 49.30 47.98 47.07 45.62 48.41 49.52 47.57 48.79 49.41 50.05 49.82 49.68
51.46 50.88 50.66 50.48 49.86 49.81 49.84 49.65 49.65 49.18 49.11 49.01 49.04 49.07 49.22 49.53 49.67 49.76 49.48 50.03 50.16 49.95 49.86 50.78 51.45 51.34 46.28 37.06 49.26 49.91 49.34 48.73 48.88 53.76 50.66 49.02 48.46 50.00 48.02 48.06 47.60 49.17 49.19 49.10 49.46 49.28 49.72
51.26 50.83 51.19 50.41 49.75 49.75 49.62 49.06 48.73 48.91 48.95 48.73 48.60 48.81 48.85 49.18 49.28 49.24 49.26 49.57 50.05 50.37 50.06 50.98 52.72 50.62 44.52 42.50 49.86 50.61 49.37 48.14 49.34 49.58 50.83 52.72 50.59 48.21 48.04 45.56 49.18 48.33 45.14 47.40 48.17 49.25 48.84
50.10 49.21 49.00 49.82 50.04 49.27 48.69 48.39 48.14 48.62 48.38 48.07 48.31 48.27 48.13 48.26 48.29 48.31 48.67 49.48 50.06 50.63 50.23 52.01 52.60 49.38 41.41 50.63 52.98 50.81 51.16 49.27 49.71 49.06 48.03 49.14 50.91 49.70 48.42 49.38 47.07 44.75 45.75 42.06 47.87 48.32 48.79
48.92 48.72 49.13 49.28 48.92 48.33 47.26 47.16 48.00 48.13 47.63 47.83 47.83 47.74 47.76 48.40 48.72 48.86 48.98 49.37 49.64 49.18 51.36 51.56 50.44 46.46 40.47 51.10 47.47 51.59 52.94 49.37 50.07 49.27 48.98 47.04 46.99 48.35 47.91 43.95 42.92 44.64 40.82 42.79 44.93 49.36 48.07
48.93 48.94 48.85 48.07 47.33 46.58 46.92 47.28 47.68 47.17 47.45 47.70 47.28 47.16 47.15 47.48 48.37 48.29 48.35 48.48 48.29 49.77 49.85 51.02 49.81 41.50 44.62 42.02 47.18 50.28 50.60 51.12 48.16 47.14 44.36 43.41 44.72 42.87 44.66 42.32 35.96 39.59 40.07 42.39 41.71 47.25 47.76
48.69 47.99 47.72 47.32 46.74 46.25 46.77 46.97 47.21 47.34 47.19 46.90 46.90 46.88 46.93 47.24 47.63 48.07 46.54 46.26 41.47 41.53 41.41 36.77 37.93 38.57 40.17 44.00 46.06 44.68 46.97 48.97 48.42 45.32 38.37 42.09 38.03 36.67 40.92 43.22 43.62 42.40 40.95 40.72 44.41 47.12 45.36
47.69 48.40 47.65 46.55 45.53 45.90 46.16 46.42 47.06 46.70 46.54 46.57 46.73 46.60 46.67 46.87 47.08 46.44 46.50 40.47 39.26 39.01 31.83 39.72 39.83 40.14 42.26 43.72 37.65 42.12 46.96 42.38 44.02 39.71 40.25 38.74 35.62 41.29 42.62 42.24 40.24 38.78 38.01 39.78 43.72 46.25 45.45
46.97 46.07 45.60 45.56 45.19 45.24 45.37 45.94 46.25 46.23 46.35 46.21 46.46 46.32 46.50 46.41 46.58 45.02 42.99 41.51 45.81 44.85 33.27 36.22 40.34 40.47 42.73 43.86 38.51 39.36 43.67 42.08 41.21 40.51 38.84 36.91 39.02 41.48 40.99 39.05 37.57 39.13 38.58 38.79 39.32 43.62 45.13
45.97 45.15 45.35 44.85 44.46 45.42 45.47 45.30 45.62 45.69 45.65 45.88 45.96 46.22 46.19 46.13 43.54 43.30 40.46 44.77 46.23 45.59 28.47 32.58 37.87 42.38 42.84 43.33 38.91 45.70 45.61 42.74 41.60 39.38 40.47 38.74 40.85 39.17 38.26 38.15 39.29 36.11 41.76 40.50 39.76 38.64 36.39
45.35 45.12 44.99 44.34 44.11 44.77 44.63 44.94 45.29 45.36 45.60 45.80 45.90 46.18 46.19 45.61 43.05 40.15 42.20 45.82 46.17 41.25 17.60 34.98 38.91 47.87 43.36 38.65 40.61 43.13 47.41 43.16 39.74 40.74 41.51 37.52 37.28 37.33 35.94 37.37 40.01 37.84 41.37 39.37 39.66 38.29 38.72
45.49 45.76 45.08 44.32 44.93 44.17 44.37 45.15 44.97 45.16 45.77 45.86 45.98 45.94 46.09 45.21 44.26 44.46 45.77 45.89 43.64 27.66 17.83 31.26 38.36 37.21 36.39 38.90 40.58 43.26 42.03 44.70 44.88 41.80 42.98 41.00 44.53 41.55 39.87 40.97 41.64 42.26 39.60 40.12 40.77 39.47 33.40
44.36 45.33 44.91 43.69 43.59 43.34 44.24 44.72 44.85 45.35 45.59 45.74 45.74 45.79 45.17 44.99 40.73 46.61 45.83 41.40 27.12 20.08 32.69 29.77 31.18 35.09 34.10 34.74 35.90 39.17 37.74 37.00 36.56 33.84 34.71 38.80 39.09 43.48 43.04 38.31 40.92 41.73 38.91 32.27 30.80 31.26 30.87
44.56 43.86 43.60 43.12 43.05 44.09 44.26 44.65 44.84 45.07 45.64 45.94 46.02 44.69 43.77 45.21 46.40 46.37 43.10 33.42 18.83 26.27 28.06 33.13 32.20 33.59 31.87 34.47 37.62 38.12 36.28 34.88 40.09 38.80 35.54 31.54 28.70 40.38 43.71 39.76 37.63 38.20 38.15 34.14 25.45 28.25 32.50
44.54 44.85 43.47 42.73 43.31 44.06 44.33 44.41 44.59 44.84 45.53 46.16 45.08 44.75 44.84 45.57 46.87 45.44 37.32 24.85 24.17 26.86 30.16 28.27 31.01 28.81 28.92 29.89 34.23 36.42 35.58 35.89 38.46 40.13 33.63 32.43 31.96 40.43 43.70 44.60 42.55 38.72 36.39 40.56 33.16 34.42 32.88
45.07 44.11 43.17 42.53 43.33 43.46 44.39 44.07 44.21 45.02 45.65 45.14 42.51 41.77 41.70 46.56 47.07 42.30 33.72 24.51 28.03 32.65 32.35 31.56 25.29 28.72 24.52 28.50 31.22 34.78 35.69 38.31 37.61 40.83 41.46 37.23 31.20 38.19 41.04 44.86 43.75 42.28 43.41 34.82 36.39 26.99 26.89
44.70 43.14 42.17 43.57 42.56 43.36 43.61 43.61 44.04 45.03 45.29 43.26 42.44 37.74 42.06 46.50 45.15 37.62 27.92 27.59 30.33 34.17 33.90 29.02 28.20 26.87 28.23 28.09 31.78 33.69 35.58 39.50 40.93 40.33 41.56 39.86 37.79 35.43 39.88 38.65 38.24 38.86 37.86 38.63 38.61 36.44 31.45
44.31 42.92 42.71 42.87 42.68 43.10 43.57 43.13 43.77 44.79 44.89 42.55 40.92 33.91 42.56 46.03 34.97 34.62 29.14 29.96 32.75 32.59 35.23 31.86 32.93 30.70 29.16 30.44 31.42 33.55 34.06 36.77 42.28 42.33 37.61 41.34 38.23 32.18 35.44 41.26 43.72 41.97 39.38 39.42 34.06 30.87 35.30
43.19 43.02 42.30 42.60 43.90 43.31 42.99 42.82 43.31 44.32 43.06 43.12 37.28 36.78 43.22 43.45 28.10 28.75 32.68 31.79 32.50 31.00 32.33 30.43 30.08 31.52 32.93 31.19 30.24 33.00 35.88 39.46 41.96 40.68 37.77 40.60 36.90 30.94 32.47 38.28 41.69 39.02 40.55 40.87 40.19 38.76 32.51
43.57 43.89 42.74 42.90 43.16 43.22 42.68 42.84 42.89 43.80 43.13 43.53 38.12 32.47 37.51 38.93 36.37 30.45 28.24 29.34 28.69 34.62 34.38 34.34 32.17 35.82 34.09 32.99 35.21 33.12 34.50 37.99 39.84 40.39 42.63 42.47 36.97 34.48 30.96 34.65 38.90 36.02 38.40 40.00 38.36 35.48 34.34
44.38 43.15 42.59 43.78 42.66 43.23 43.06 42.39 42.63 43.67 44.48 42.74 37.80 31.97 32.87 30.30 32.41 31.21 30.32 29.67 27.80 28.01 33.40 36.28 33.64 33.39 33.06 29.62 31.28 31.40 34.12 36.32 37.81 39.39 40.37 40.18 33.28 35.98 36.88 37.55 37.95 36.55 35.54 35.97 35.22 36.34 32.70
44.02 43.50 42.77 43.35 42.29 42.09 42.23 42.60 42.88 43.15 44.42 40.49 33.89 34.82 34.75 31.70 32.71 31.25 29.31 28.67 27.32 29.29 31.51 31.58 31.74 34.66 35.82 31.58 32.03 30.49 32.74 33.73 33.84 37.61 35.79 38.08 32.46 34.90 32.43 35.76 35.20 32.79 34.47 35.13 35.54 36.03 36.47
43.45 42.81 42.53 42.19 41.51 41.97 42.61 42.85 42.17 42.96 44.26 38.95 39.57 38.71 35.79 31.42 31.27 29.87 29.59 28.93 28.54 31.77 33.29 35.54 35.49 34.58 34.75 34.60 36.31 37.81 38.62 38.64 38.04 35.93 35.67 35.30 33.87 31.85 28.60 33.00 32.18 29.27 33.49 34.65 36.17 38.46 38.03
42.37 42.68 42.38 42.22 42.19 41.98 42.40 43.15 42.42 43.30 44.45 42.10 39.53 38.80 33.57 29.13 30.70 29.97 30.18 30.72 30.21 31.25 30.63 35.39 37.20 34.50 38.34 41.34 42.33 41.36 40.13 38.84 38.80 39.20 38.91 34.36 32.95 33.65 29.41 30.28 21.79 33.63 39.31 39.54 37.30 38.80 40.59
41.99 42.42 42.22 42.17 41.53 42.16 43.15 43.20 42.65 43.53 44.60 42.30 40.80 38.21 34.78 29.69 32.04 30.77 30.93 30.85 33.56 34.78 33.64 34.46 36.86 38.92 41.65 40.07 35.56 31.45 33.51 33.93 35.52 38.17 37.36 39.29 35.48 30.24 27.52 27.62 30.50 34.13 36.82 36.13 34.97 35.16 39.66
42.01 42.34 42.06 41.78 41.89 42.45 42.91 42.01 42.22 43.28 44.07 44.32 40.70 41.70 37.33 33.16 32.96 32.34 31.62 32.96 31.43 31.88 32.45 34.35 39.43 41.75 40.82 37.33 34.15 27.42 26.23 29.12 28.99 32.35 38.70 37.49 37.82 33.79 30.14 23.87 21.26 32.98 38.84 42.43 41.42 32.02 37.69
42.07 41.94 41.88 41.93 41.76 42.29 43.00 42.06 41.78 43.28 43.58 43.90 41.00 42.23 37.51 33.62 37.10 34.81 32.82 31.49 34.70 32.68 30.41 33.50 34.78 36.42 39.93 34.82 31.46 29.18 28.97 32.62 27.79 27.32 29.07 31.91 32.08 28.83 28.42 26.73 30.49 36.25 40.41 42.47 30.21 31.57 38.01
42.12 41.92 41.92 41.61 41.74 42.11 42.62 42.25 42.12 43.01 43.40 43.92 41.25 42.60 38.63 34.65 37.69 36.88 37.06 34.74 34.96 34.71 30.52 34.59 35.30 34.92 34.88 31.23 29.85 29.58 29.93 31.64 31.38 32.76 31.18 30.67 30.15 29.84 30.25 26.24 22.77 35.01 39.19 33.20 33.93 36.99 36.36
41.90 41.70 41.43 41.43 41.66 42.28 42.99 42.35 41.99 42.46 43.21 44.29 39.31 42.42 42.62 36.21 35.76 40.66 41.08 41.60 40.09 38.91 35.86 37.27 33.53 32.97 35.37 32.49 32.33 30.86 28.39 30.68 29.50 27.60 35.95 29.99 31.36 29.84 29.79 28.17 33.65 33.63 32.70 33.50 34.38 32.92 34.70

GFSGBSN_sfc_wetblb_099.txt.gz
Wetbulb
53.29 52.48 51.66 50.95 50.40 49.94 49.89 50.01 49.60 49.21 49.23 49.27 49.31 49.41 49.67 49.93 50.02 49.94 49.77 49.77 49.87 49.87 50.12 50.70 51.23 51.93 51.31 44.97 45.23 51.93 57.08 56.83 51.70 48.83 49.75 51.07 50.18 48.79 45.58 48.45 50.52 48.97 50.20 51.89 52.69 52.53 52.52
52.37 51.78 51.10 50.53 49.78 49.74 49.40 49.30 48.97 49.12 49.06 48.83 48.82 48.93 49.00 49.11 49.15 49.02 48.95 49.59 50.17 50.38 50.05 50.67 51.27 52.36 49.14 40.28 50.49 51.17 50.25 49.84 49.58 48.71 47.22 50.15 49.03 51.25 48.39 47.76 48.80 51.13 51.02 51.41 52.26 52.11 51.69
51.80 51.41 51.12 50.52 49.95 49.86 49.12 48.60 48.76 48.98 48.59 48.13 48.43 48.39 48.36 48.60 48.56 48.53 48.53 48.89 49.62 50.03 49.92 50.56 51.61 52.45 47.23 44.69 51.11 51.40 50.41 49.41 49.78 48.82 47.22 52.31 51.61 49.37 50.23 47.75 50.85 49.90 47.90 50.37 50.78 51.65 51.06
51.94 51.20 51.12 50.67 50.33 49.24 48.38 47.71 48.47 48.24 47.80 47.82 48.06 47.90 47.84 47.93 47.97 48.28 48.41 49.27 49.53 49.92 49.77 50.72 52.34 52.08 43.96 51.26 52.59 50.86 51.44 49.70 50.76 51.05 49.16 50.49 53.30 50.41 48.72 50.83 49.03 46.21 47.27 43.45 49.35 50.13 50.91
50.62 49.87 49.88 49.97 49.30 48.22 47.08 46.80 47.49 47.03 47.33 47.66 47.33 47.55 47.66 47.76 48.44 48.95 49.04 49.26 49.59 49.76 50.17 52.32 51.26 48.33 43.17 52.65 48.22 51.17 52.67 49.17 51.69 51.72 50.58 48.69 48.46 47.19 48.54 44.46 43.22 44.75 40.48 42.55 44.95 50.49 49.86
50.02 49.88 49.99 49.25 48.24 47.23 46.78 46.79 46.78 46.86 47.48 47.04 47.24 47.44 47.38 47.40 48.27 48.29 48.55 48.59 50.02 50.68 50.72 51.41 50.51 43.51 46.97 44.59 46.84 49.30 52.47 51.52 49.83 50.34 48.30 44.91 43.25 40.81 42.57 43.11 36.19 40.64 40.66 43.71 43.81 48.59 49.79
50.01 49.82 49.06 48.26 47.69 47.00 46.37 46.25 46.87 46.87 46.67 46.87 46.95 47.22 47.09 47.29 47.53 47.68 47.80 48.34 44.15 43.74 45.16 39.72 40.53 42.20 42.35 45.08 46.85 44.67 45.87 44.54 46.50 46.50 41.56 43.21 37.67 36.03 40.09 43.64 44.53 42.34 41.82 41.24 45.28 48.72 47.96
49.54 49.00 48.46 48.11 46.95 46.55 46.13 46.02 45.92 46.06 46.64 46.51 46.78 46.94 47.06 47.26 47.13 47.73 48.44 43.45 41.58 42.14 34.08 41.82 41.73 41.93 43.78 44.91 40.54 45.25 49.37 41.02 40.11 37.12 43.75 40.41 35.10 40.32 43.48 44.12 43.00 41.90 36.70 39.94 45.30 47.13 47.07
48.62 48.93 48.25 47.12 46.51 45.95 45.75 45.97 45.43 45.68 45.93 46.11 46.27 46.46 46.93 46.77 47.02 47.49 45.66 43.20 47.30 46.77 35.01 37.08 41.42 41.83 44.52 47.12 42.93 43.84 46.25 42.85 38.55 37.94 38.86 38.35 39.09 41.65 41.44 41.39 40.08 40.70 37.94 39.51 40.06 43.08 45.48
47.55 47.06 46.67 46.33 45.97 46.13 45.31 44.93 45.15 45.11 45.60 46.07 46.37 46.62 46.53 47.25 44.99 46.42 43.65 46.70 47.80 47.27 28.83 34.85 38.80 43.12 45.39 45.64 41.14 46.81 48.31 42.83 39.58 37.31 41.18 41.31 42.22 40.98 40.42 39.64 41.29 36.71 42.99 41.07 39.53 38.47 34.83
46.60 46.22 46.02 45.75 45.36 45.65 44.89 44.75 44.84 45.01 45.67 46.22 46.21 46.27 46.39 46.10 45.78 43.72 45.31 48.40 47.95 44.64 19.29 36.45 39.63 48.74 45.10 39.43 41.30 42.58 48.46 44.37 37.11 38.46 38.85 39.42 39.35 39.86 39.10 39.87 42.30 39.57 43.05 40.89 40.54 39.55 39.23
46.31 46.24 46.01 45.45 46.00 45.08 44.59 44.95 44.41 45.18 45.75 45.98 46.21 46.40 46.46 47.95 47.75 47.32 49.21 48.74 45.52 28.51 20.47 32.13 37.70 36.15 36.37 38.70 41.30 44.20 44.67 46.96 43.47 38.89 41.01 40.63 45.02 43.28 41.45 42.47 42.18 43.30 40.37 40.39 40.42 38.37 32.12
46.09 46.42 45.78 45.37 44.81 44.22 44.60 44.40 44.38 45.01 45.47 45.91 46.44 46.58 46.02 47.57 43.59 49.08 49.21 44.61 30.29 24.00 33.69 29.93 31.36 34.96 34.40 34.30 35.93 40.91 39.70 38.73 35.51 31.09 32.65 39.40 39.88 43.81 43.09 39.72 41.60 40.14 36.68 29.67 27.91 29.84 30.52
45.95 45.87 45.58 44.56 43.94 44.45 44.72 44.39 44.12 44.63 45.31 46.06 46.53 46.00 45.22 48.20 49.47 49.40 46.12 36.89 23.96 29.59 29.54 34.50 33.68 33.48 30.64 34.11 34.77 35.83 38.36 36.23 39.16 39.12 36.21 32.36 31.64 39.46 42.93 39.84 36.95 38.45 37.29 32.14 25.42 27.89 32.08
45.28 44.96 44.50 44.29 44.16 44.92 44.72 44.06 43.87 44.45 45.59 46.05 45.49 48.37 48.46 48.44 49.79 48.37 40.66 28.43 26.63 29.72 32.88 31.17 32.19 29.28 29.97 31.96 32.35 33.83 38.53 37.38 38.71 40.35 32.81 33.81 32.28 41.48 43.05 43.10 41.74 38.00 35.06 41.14 34.45 37.36 34.82
45.30 45.31 44.39 43.76 44.32 44.20 44.52 44.03 43.61 44.68 45.47 45.45 45.84 46.16 45.69 48.93 49.86 45.20 37.07 29.07 31.80 35.45 34.99 33.67 25.41 30.12 24.71 27.95 29.95 33.01 36.25 39.70 38.88 42.01 41.97 39.19 30.70 39.15 41.82 45.04 43.59 40.71 42.53 34.67 38.05 25.83 27.16
45.56 45.09 44.03 43.37 44.38 44.18 44.43 43.48 43.47 44.55 45.41 45.06 45.92 41.02 45.11 49.21 47.98 40.64 31.43 32.16 33.96 37.06 36.56 31.97 27.92 26.12 28.07 28.72 29.92 32.04 35.78 39.54 41.54 41.35 43.19 40.33 37.48 35.42 40.56 38.66 37.63 39.62 38.19 39.44 39.08 36.25 30.41
45.34 44.01 43.80 44.19 43.53 43.43 44.43 43.39 43.39 44.30 45.31 43.38 45.32 38.44 46.08 48.83 38.95 39.05 34.09 34.26 36.49 35.62 37.48 34.93 33.87 31.85 29.54 30.81 30.13 31.31 34.82 37.84 44.53 44.20 38.01 41.30 37.91 32.81 35.65 42.42 43.51 42.23 39.73 39.33 33.52 32.56 35.81
45.01 43.73 43.22 43.24 43.46 43.83 43.75 43.26 43.07 44.08 44.71 45.85 41.51 40.84 46.85 45.55 32.87 33.34 36.34 35.63 36.68 35.42 35.71 35.73 32.34 33.50 33.70 32.05 30.20 32.77 33.68 40.24 42.53 42.80 40.05 41.95 37.67 31.29 32.37 38.61 42.12 40.02 41.42 41.82 40.91 39.29 34.47
43.80 43.75 42.95 43.08 44.57 43.53 43.65 43.13 42.89 43.65 44.86 44.45 42.52 36.17 41.34 43.60 39.73 34.45 32.41 32.89 32.42 37.94 35.98 36.09 36.27 37.27 35.32 33.12 34.51 32.23 32.95 38.34 41.85 41.83 42.93 43.14 39.16 35.55 30.77 34.62 39.24 37.40 39.73 41.00 40.04 35.27 35.56
43.54 44.51 43.67 42.82 43.89 43.30 43.34 43.64 42.73 43.52 44.65 44.19 41.07 35.57 37.44 34.72 36.90 34.82 34.27 33.17 30.82 31.12 36.71 38.25 36.03 36.31 34.63 31.10 30.88 30.10 34.10 36.32 39.53 41.15 39.81 40.50 34.54 35.84 38.60 40.01 40.01 39.13 38.55 39.44 37.64 38.18 34.59
43.83 44.23 43.43 43.75 43.46 43.57 43.34 42.46 42.85 43.13 44.45 41.23 34.48 38.09 39.47 36.48 36.21 34.48 33.36 31.93 30.87 33.07 34.72 33.68 33.02 36.36 37.02 32.95 31.83 29.48 33.22 34.08 34.19 37.99 36.72 39.45 33.48 35.96 34.27 38.53 38.61 35.67 36.87 36.82 37.07 37.29 37.48
44.44 43.98 43.21 43.77 42.96 42.43 42.83 43.11 42.95 42.70 44.20 42.06 42.28 42.92 38.21 35.39 34.11 33.89 33.98 32.25 32.32 35.18 36.34 37.67 36.74 36.03 35.53 35.87 38.47 39.08 40.69 40.26 39.04 36.72 35.73 35.80 34.87 32.86 29.62 34.98 35.30 31.01 35.49 36.80 38.60 40.19 39.67
44.28 43.52 43.35 42.98 42.25 42.08 42.60 43.44 42.67 42.97 44.27 45.44 43.91 41.80 34.15 32.12 35.37 33.00 32.86 33.70 33.35 34.54 33.67 37.88 39.28 36.11 38.98 43.41 44.52 43.09 41.57 40.81 41.04 40.14 40.11 35.50 34.44 35.08 30.20 32.37 24.81 35.84 41.56 40.73 39.57 39.44 40.50
43.49 43.10 42.98 42.71 42.55 42.39 42.45 42.84 42.85 43.32 44.23 45.18 46.11 41.81 36.61 30.51 35.93 34.10 33.43 34.01 36.30 37.06 36.54 36.77 38.65 40.66 43.45 42.17 37.32 34.01 34.61 35.35 36.75 38.68 38.48 39.60 36.57 32.65 30.00 30.19 33.21 35.59 38.16 37.99 37.23 35.11 40.07
42.11 42.85 42.72 42.76 42.54 41.96 43.21 43.31 42.90 43.56 43.96 45.29 43.52 44.99 40.88 33.83 35.11 35.20 34.61 35.48 33.74 34.16 35.18 36.89 41.68 44.19 43.22 39.47 35.69 28.95 27.42 31.43 30.83 34.09 40.26 39.46 38.98 35.68 32.88 26.73 23.97 33.22 38.53 43.21 42.85 32.73 38.58
43.10 42.67 42.74 42.90 41.92 42.31 42.84 42.69 42.28 43.04 43.86 45.19 43.85 43.67 41.03 36.28 38.99 37.88 34.32 34.12 37.44 35.45 34.03 36.74 37.28 38.67 42.47 36.39 32.40 30.43 30.00 34.86 29.51 29.66 30.96 33.19 33.99 31.19 31.79 29.95 32.07 33.53 38.23 41.96 31.91 29.92 37.59
42.46 42.75 42.95 42.62 42.13 42.37 42.63 43.04 42.41 42.56 43.62 44.27 42.28 43.94 39.79 36.15 38.93 39.96 40.64 36.70 36.94 37.09 32.60 36.56 36.77 37.42 35.57 32.62 31.55 30.77 30.16 32.70 32.75 34.35 32.47 32.06 30.33 31.19 32.62 29.35 25.37 33.60 38.61 32.32 31.89 35.33 36.09
42.64 43.18 42.98 42.90 42.04 42.24 42.55 42.59 42.32 42.46 43.27 43.69 40.21 44.08 43.35 37.85 38.43 43.40 43.49 44.25 42.59 41.48 38.43 38.23 35.20 35.72 36.17 32.81 33.71 31.38 30.95 33.05 32.99 29.37 37.75 30.82 32.94 29.93 30.01 28.13 32.64 33.89 32.54 33.58 34.32 32.80 34.64

GFSGBSN_sfc_wetblb_105.txt.gz
Wetbulb
56.88 55.59 54.73 53.61 53.15 51.93 51.19 50.84 49.93 48.71 48.77 48.81 48.90 49.28 49.50 49.59 49.66 49.39 49.30 49.21 49.45 49.81 49.84 50.01 50.51 50.56 47.37 41.39 42.73 50.22 58.97 58.89 53.24 48.58 44.17 42.47 39.62 38.64 38.71 42.47 43.46 41.06 41.88 44.27 47.13 49.23 49.21
56.32 55.59 54.12 53.38 52.40 51.31 51.15 50.60 49.13 48.69 48.57 47.91 48.57 48.74 48.78 48.86 48.95 49.13 49.03 49.01 49.01 49.42 49.87 50.45 50.66 50.47 44.40 34.38 47.37 48.76 50.35 51.24 50.13 46.95 44.94 44.26 41.74 41.20 38.65 39.08 40.64 44.54 44.47 44.08 45.39 46.84 49.26
55.63 54.57 53.67 52.61 51.61 51.16 50.73 49.90 49.04 48.74 47.98 47.93 48.35 48.28 48.21 48.49 48.73 48.97 48.99 48.93 49.60 49.57 50.19 50.98 51.05 48.17 42.23 38.50 46.63 47.61 48.63 47.57 48.48 46.55 43.38 44.25 43.76 40.28 39.76 38.28 42.95 42.83 39.71 43.03 44.63 44.98 44.67
55.51 53.99 52.99 52.16 51.45 51.17 50.78 49.58 49.20 48.44 47.47 47.91 48.12 47.93 47.99 48.30 48.50 48.65 48.80 49.58 50.00 50.07 50.64 51.26 51.07 46.37 38.09 49.05 47.79 49.91 48.99 47.67 48.83 48.09 46.29 46.41 45.95 42.05 39.47 40.45 39.50 38.34 38.87 33.68 41.83 44.49 45.25
55.26 54.00 52.60 51.92 51.13 50.99 50.24 49.15 48.87 48.02 47.54 47.51 47.36 47.59 47.88 48.00 48.53 49.13 49.40 49.77 50.22 51.51 52.14 52.06 46.28 44.19 39.11 52.91 48.22 50.17 45.65 43.12 44.67 45.58 48.01 48.97 44.95 39.85 38.99 34.09 31.37 34.58 30.33 33.25 37.29 44.67 43.99
54.63 53.18 52.55 52.06 51.36 50.98 49.77 48.79 48.50 47.55 47.48 46.86 47.16 47.37 47.71 47.83 48.72 48.99 48.98 49.73 50.43 51.24 49.56 49.44 47.65 39.80 44.46 41.72 43.57 44.88 45.53 45.12 42.41 42.31 41.29 42.04 41.15 36.21 34.92 31.40 23.10 28.42 31.47 33.70 34.25 40.01 43.31
54.31 52.95 52.90 52.17 51.61 50.72 49.41 48.82 48.54 47.84 46.89 46.98 46.82 47.24 47.64 47.85 48.33 48.60 47.03 41.82 35.49 35.95 37.39 34.22 35.89 36.61 38.26 42.30 45.07 42.95 44.58 42.88 41.89 39.07 32.66 36.07 30.34 29.86 34.07 34.25 34.32 33.28 33.57 33.77 36.90 41.61 42.45
53.36 52.67 52.03 51.76 50.85 49.88 49.18 48.64 48.08 47.27 46.51 46.33 46.82 47.21 47.36 47.70 48.18 48.71 44.92 36.96 38.12 37.19 30.81 39.45 39.48 39.57 41.99 42.63 39.91 41.94 45.58 39.61 39.66 33.85 37.30 34.05 27.49 33.08 36.37 39.47 35.45 32.80 31.51 32.02 37.14 42.65 41.55
52.53 51.59 51.15 50.96 49.96 49.14 48.65 48.24 47.49 46.58 45.75 45.98 46.74 47.10 47.20 47.30 47.91 45.75 40.88 40.67 43.70 42.86 30.79 36.46 41.13 41.14 44.51 44.68 39.20 39.06 41.68 41.18 36.62 33.46 33.76 31.76 33.80 37.14 34.55 35.59 34.24 33.31 30.77 31.70 32.43 40.02 42.14
51.67 51.17 50.91 50.16 49.31 48.58 48.21 47.60 46.91 46.19 45.20 45.98 46.64 46.76 47.12 47.85 44.07 42.60 38.82 44.01 44.37 42.65 25.16 34.08 37.00 41.44 42.98 41.82 35.89 41.81 42.29 40.34 37.06 32.95 34.55 34.21 38.01 36.41 34.53 33.81 35.71 29.28 35.39 34.88 34.63 35.69 31.87
51.10 51.01 49.92 49.42 48.64 47.84 47.22 47.12 46.28 45.61 45.19 46.06 46.41 46.87 47.26 47.51 40.75 40.03 42.47 45.21 44.68 40.14 17.03 35.09 36.33 44.45 42.05 37.57 38.64 39.76 44.85 40.70 35.19 35.12 35.92 32.26 33.77 32.85 31.95 33.77 37.53 33.69 37.19 35.59 35.98 34.22 33.71
50.50 49.61 49.21 48.89 47.74 47.23 46.78 46.21 45.94 45.14 45.41 45.87 46.35 46.94 47.39 45.47 42.26 42.89 45.49 45.10 41.75 26.78 17.78 31.46 36.78 35.33 35.68 37.66 37.77 39.49 39.66 42.15 41.05 36.26 36.79 34.96 38.34 35.45 36.51 39.81 39.07 39.95 38.79 38.65 37.24 34.81 24.42
49.49 49.09 48.63 47.78 47.23 47.29 46.07 45.77 45.66 44.88 45.04 45.56 46.24 46.83 45.67 45.59 38.18 44.41 44.93 40.15 26.58 18.31 33.81 30.04 30.69 34.80 33.67 32.73 34.24 35.67 35.18 35.09 32.25 28.17 27.95 33.40 32.88 36.68 39.96 34.30 38.31 39.00 34.05 24.23 26.13 23.68 22.88
48.59 48.24 47.72 47.03 46.55 46.51 45.63 45.99 45.27 44.79 44.64 45.51 46.51 47.12 45.24 45.50 44.43 45.08 41.52 32.72 20.27 29.07 29.25 34.40 33.32 33.69 29.31 33.53 33.06 33.89 34.19 32.16 36.59 34.05 28.87 25.05 23.56 35.08 39.01 36.36 33.62 34.51 33.35 24.96 20.69 21.85 25.11
47.81 47.65 47.08 46.44 46.55 46.17 45.44 45.64 45.22 44.47 44.62 45.82 46.23 41.86 42.18 44.66 45.34 43.75 35.70 20.77 23.65 28.82 32.90 31.47 32.46 28.35 27.85 32.36 32.05 32.21 32.54 32.51 36.76 36.36 28.66 27.69 28.81 37.11 40.18 41.42 39.32 34.95 31.07 36.34 31.07 33.36 25.07
47.15 46.94 46.98 46.33 45.89 45.13 45.70 45.25 44.74 43.92 44.76 45.71 39.55 41.42 40.62 44.24 45.07 41.27 31.15 28.82 30.37 35.77 35.68 34.61 26.41 29.74 24.26 28.30 28.66 30.42 30.55 35.45 36.66 38.16 38.88 33.84 26.30 37.33 40.15 40.67 39.45 35.97 39.44 26.91 30.49 24.76 24.28
46.59 47.14 46.38 45.70 44.88 45.76 45.12 45.27 44.29 43.72 44.56 45.44 38.51 36.18 41.66 44.91 44.23 36.19 23.51 27.52 33.99 38.05 38.12 34.15 29.80 30.34 29.48 29.35 29.29 28.51 29.79 33.72 36.39 36.76 37.94 36.62 32.67 34.33 38.68 36.44 33.04 34.31 33.48 35.21 35.77 32.38 26.28
46.85 46.66 45.42 45.12 45.15 45.12 44.95 44.81 43.33 43.53 44.76 42.89 39.12 30.49 42.12 43.67 31.14 29.75 25.00 33.23 37.89 36.12 38.55 36.52 35.63 33.43 30.91 31.71 29.25 26.98 27.29 32.82 37.88 39.09 35.82 38.94 34.79 29.82 33.13 39.13 41.16 39.30 35.92 36.31 30.37 30.75 32.97
46.13 45.70 45.12 44.68 44.56 44.80 45.18 44.37 43.30 43.00 44.76 39.29 35.45 35.03 42.22 41.62 22.24 23.69 33.07 35.43 36.43 34.89 35.21 35.00 33.69 34.98 34.76 32.05 24.40 29.00 29.35 36.92 39.17 38.35 36.51 38.35 34.02 28.22 31.03 35.08 37.82 35.98 38.09 38.13 37.54 36.31 32.02
45.55 45.62 44.56 44.42 44.86 44.05 44.74 43.94 42.88 42.85 44.40 40.08 36.06 28.30 34.85 36.10 35.06 30.52 29.87 32.19 31.66 37.34 35.71 36.30 35.08 35.21 32.17 29.85 32.94 27.91 29.73 36.26 39.23 39.44 42.30 41.27 36.15 31.61 27.27 32.23 36.42 34.34 37.10 38.46 36.56 31.48 32.12
45.65 45.35 44.81 44.64 43.75 43.95 44.15 43.49 42.77 42.75 44.39 39.58 34.73 28.46 33.46 24.95 28.65 29.92 31.36 32.16 29.96 28.93 35.28 36.27 33.45 33.13 31.26 29.77 27.28 26.51 32.02 34.06 38.34 40.54 38.64 37.07 31.40 33.46 35.64 36.56 35.82 35.33 35.33 35.85 34.77 36.46 32.71
45.01 45.27 44.66 44.56 44.17 44.05 44.12 43.56 42.64 42.94 44.09 36.94 26.71 32.02 33.48 29.85 34.21 31.47 32.16 29.98 30.19 31.77 31.97 32.03 30.42 33.26 32.77 28.90 28.53 27.07 31.16 32.64 33.97 38.00 36.01 37.53 31.58 33.50 33.61 33.87 34.77 32.77 33.41 34.65 34.72 36.85 36.50
44.86 44.39 44.44 44.17 44.43 43.82 43.86 42.98 42.51 42.85 42.68 36.26 36.99 37.09 33.17 32.87 31.22 27.56 28.65 31.21 31.19 33.22 35.05 35.30 33.11 32.47 30.98 32.36 34.68 35.96 37.29 37.66 37.46 36.36 34.09 34.95 32.65 31.12 27.87 34.15 34.49 29.02 32.30 32.67 32.84 34.85 34.73
44.53 44.58 43.98 43.53 44.17 44.06 43.68 42.91 42.70 42.38 42.52 39.87 37.71 35.35 29.44 25.25 28.78 30.53 33.31 33.52 32.79 33.24 31.26 35.34 35.57 32.71 35.85 39.45 39.41 39.36 40.10 39.52 38.87 38.71 38.73 33.36 32.67 32.76 27.03 30.77 23.78 30.29 36.31 35.91 31.82 32.54 34.99
44.37 44.18 44.06 44.06 44.04 43.63 43.23 43.54 42.60 42.26 43.67 40.96 40.72 36.18 32.19 23.56 31.13 33.47 33.48 33.72 34.61 34.44 32.93 34.21 35.92 37.50 38.02 36.73 32.29 31.34 31.26 33.07 35.54 38.17 37.44 37.95 33.94 29.53 27.45 27.15 30.77 31.51 31.37 30.66 32.33 29.60 33.63
43.59 43.91 43.83 43.98 44.06 43.77 43.76 43.56 43.27 42.62 43.49 39.53 40.26 40.17 35.11 26.70 29.78 36.19 31.80 33.66 27.56 27.30 29.81 34.03 37.27 38.14 37.71 32.65 30.79 27.55 25.10 28.88 29.12 33.08 38.37 38.13 37.33 32.15 29.75 25.42 22.08 27.57 31.11 34.83 36.01 23.97 34.04
44.15 44.26 44.20 43.98 43.96 43.40 43.51 43.30 43.47 43.12 43.66 41.22 40.21 41.36 36.56 26.52 34.14 35.29 30.04 29.84 33.61 30.40 27.46 31.86 32.86 33.89 35.84 27.10 27.18 26.33 27.36 33.04 26.57 27.92 28.63 28.78 29.09 26.61 27.13 26.21 26.22 29.50 32.38 35.13 25.77 24.71 35.01
44.12 44.08 43.97 43.98 43.84 43.45 43.30 43.38 43.07 42.64 43.39 40.84 40.18 41.97 38.30 34.17 33.43 37.93 38.49 33.55 33.37 31.43 25.61 30.34 29.09 30.27 28.51 26.27 26.51 25.91 26.32 28.94 30.13 32.48 30.74 26.99 27.12 23.92 26.16 23.61 19.15 31.88 31.82 26.28 30.93 34.43 34.89
43.79 43.94 43.74 43.87 43.21 43.42 43.48 43.43 42.67 41.95 43.24 42.05 39.22 42.01 40.65 34.58 32.26 37.99 38.82 39.75 38.38 36.65 33.18 32.87 30.75 33.13 32.61 25.81 27.36 27.81 25.85 27.98 29.25 26.64 34.60 26.32 30.38 25.55 26.90 25.40 32.08 32.88 31.83 34.45 34.95 33.48 34.64

GFSGBSN_sfc_wetblb_108.txt.gz
Wetbulb
57.50 57.49 56.93 56.17 54.82 54.17 52.79 51.64 51.33 49.58 48.93 48.99 48.93 49.36 49.81 49.76 49.80 49.86 49.68 50.17 49.87 49.94 50.09 50.52 51.08 51.01 45.86 38.88 39.77 48.56 57.22 55.70 53.81 48.01 44.02 41.70 38.46 36.13 34.45 40.11 40.77 37.47 39.66 41.06 42.10 42.23 44.21
57.08 57.31 56.64 55.75 54.86 53.79 52.74 51.80 50.95 49.56 49.16 48.62 48.47 48.99 48.88 48.86 49.18 49.27 49.52 49.52 49.98 49.89 50.46 50.77 51.18 49.92 43.25 31.79 45.37 46.93 46.75 47.53 50.02 45.43 43.38 41.60 39.83 40.15 36.61 35.58 35.47 40.08 40.60 42.03 43.82 43.29 43.15
57.02 57.21 56.23 55.06 54.64 53.37 52.41 51.86 50.65 49.75 49.14 48.34 48.27 48.71 48.44 48.58 48.84 49.14 49.38 49.51 50.13 50.26 50.91 51.34 51.09 48.03 42.19 37.03 45.67 46.49 47.03 45.76 46.06 45.82 42.82 44.33 42.86 40.00 38.48 35.28 38.95 38.40 34.85 38.25 39.88 41.53 41.78
56.78 57.00 56.21 54.72 54.06 53.04 52.71 51.55 50.22 49.74 48.79 47.92 48.69 48.25 48.18 48.25 48.56 48.84 49.15 50.34 50.63 50.85 51.40 51.84 51.16 45.60 37.14 48.04 46.07 47.43 46.45 43.15 44.89 44.22 43.11 43.97 44.46 40.78 38.06 39.11 37.64 33.72 33.52 28.99 37.00 40.05 41.73
56.62 56.57 55.67 54.67 53.38 52.78 52.38 50.96 50.03 49.47 48.30 47.96 47.96 47.81 47.77 48.17 48.68 49.25 49.77 50.11 50.61 51.48 52.56 52.14 45.40 42.79 38.16 51.52 44.94 45.20 43.37 41.84 43.17 43.88 43.23 45.67 42.08 39.54 38.68 32.81 30.30 31.52 25.11 28.01 31.56 39.14 38.82
56.61 56.14 55.30 54.12 53.06 52.76 51.59 50.49 49.57 49.14 47.90 47.87 47.35 47.52 47.85 48.06 48.97 49.32 49.27 49.73 49.70 49.61 47.43 49.92 46.93 38.42 42.79 39.72 42.54 43.80 44.96 43.83 41.24 40.84 39.84 38.19 35.03 31.83 32.08 28.45 21.91 25.65 25.75 27.75 29.04 36.18 37.59
56.86 55.97 54.84 53.66 52.63 51.95 51.36 50.16 49.25 48.84 47.88 47.33 47.21 47.24 47.79 48.02 48.55 49.11 46.96 40.24 35.43 34.24 36.59 33.19 34.88 35.37 37.53 40.88 43.27 41.53 44.08 42.26 41.20 37.74 30.45 35.41 29.46 25.82 28.93 31.90 35.37 31.92 29.24 27.32 30.99 35.38 36.12
55.98 55.40 54.44 53.41 52.73 51.90 51.11 49.80 49.25 48.55 47.73 46.95 46.70 47.11 47.55 47.82 48.05 48.70 44.19 36.67 37.92 36.92 31.24 38.79 38.52 38.06 40.44 40.90 36.37 40.51 44.42 37.22 36.56 32.24 35.22 31.57 28.04 34.21 36.90 35.00 31.75 31.41 30.81 28.59 32.28 35.42 34.86
55.17 54.46 53.66 53.31 52.50 51.69 50.38 49.56 48.73 48.45 47.00 46.23 46.18 47.19 47.15 47.71 48.10 45.17 40.09 40.12 43.13 41.30 29.83 35.13 39.89 39.58 41.44 43.13 38.34 38.65 40.04 38.37 34.21 31.71 31.86 29.10 31.91 37.11 35.64 33.94 30.62 29.22 28.55 30.28 29.49 33.04 36.30
54.20 53.28 53.23 53.11 51.76 50.74 49.70 49.16 48.84 47.69 46.49 45.54 46.37 46.87 47.11 48.28 43.79 42.00 39.30 44.55 43.83 41.02 25.19 32.85 36.02 40.21 42.19 41.21 35.94 43.39 43.38 38.69 35.51 31.66 32.94 31.34 36.10 34.64 33.86 32.09 33.31 26.31 33.91 32.80 32.16 29.27 24.33
53.28 52.67 52.34 51.78 50.92 49.78 49.54 48.95 47.97 47.06 45.93 45.75 46.06 46.54 47.32 47.27 41.12 39.62 42.68 44.51 44.40 38.56 16.20 34.84 35.69 43.59 41.00 36.63 37.92 38.84 43.60 39.21 33.15 33.13 33.87 30.38 32.62 32.45 31.33 33.15 36.24 31.33 35.52 32.52 32.90 28.67 28.65
52.28 51.69 51.06 50.56 49.70 49.06 48.80 48.11 47.23 46.16 45.56 45.79 45.66 46.34 47.34 44.46 42.17 42.38 44.17 44.28 40.92 23.69 17.86 30.81 35.71 34.28 34.21 36.42 37.50 39.00 39.47 41.17 39.86 34.85 34.91 33.51 38.69 35.74 33.83 35.98 36.52 37.59 34.89 34.73 33.76 29.69 21.52
51.15 50.46 50.50 50.07 49.11 48.23 47.75 47.18 46.41 45.56 45.32 45.10 45.39 46.27 45.57 45.54 38.32 43.18 43.53 39.53 24.64 18.77 32.93 29.02 29.83 33.61 32.69 31.69 33.98 35.10 34.40 34.59 33.35 27.68 26.29 31.81 32.66 34.73 38.15 33.62 34.93 34.61 31.56 21.37 19.57 20.98 21.89
49.94 50.24 49.99 49.43 48.38 47.65 47.12 46.35 46.07 45.29 45.00 44.51 45.69 46.51 44.64 44.86 43.09 43.55 40.86 31.60 20.03 27.91 28.46 33.63 32.76 32.70 28.26 31.98 32.86 33.26 32.53 30.46 37.13 34.85 29.07 25.06 22.94 33.98 38.89 34.15 30.44 32.32 31.20 23.95 20.45 22.59 25.58
50.06 49.63 49.30 48.07 47.43 47.59 46.35 46.32 45.64 45.10 44.46 44.79 45.50 41.27 40.46 43.39 43.56 42.68 34.46 20.47 23.81 27.70 31.89 31.06 31.66 27.09 26.08 31.08 31.92 30.80 31.25 30.86 35.79 35.52 30.95 28.26 27.21 35.89 37.47 37.77 36.33 32.30 29.19 34.39 30.72 30.55 23.00
49.60 49.10 48.31 47.60 47.24 46.65 46.07 45.91 45.57 44.58 44.55 45.31 39.44 39.95 40.35 43.59 43.76 40.05 29.07 27.54 29.30 34.34 35.38 33.94 25.49 28.75 21.84 27.10 29.17 28.74 29.83 34.41 33.59 36.54 38.90 34.61 26.39 34.64 39.22 39.66 38.91 35.03 37.61 28.48 27.71 16.81 14.40
48.74 48.40 47.23 46.85 46.84 46.19 45.69 45.42 45.04 44.48 44.83 45.54 39.16 36.08 40.77 43.12 43.04 34.28 23.20 26.48 32.67 36.91 37.24 33.42 28.65 27.72 29.07 27.68 30.47 26.51 28.73 33.61 35.95 36.32 39.45 38.20 31.25 33.42 37.41 34.86 33.36 33.32 31.61 34.20 34.29 31.47 23.54
47.41 47.53 47.31 47.00 45.67 45.71 45.49 45.33 44.60 44.49 44.89 42.59 38.06 29.92 40.71 42.88 29.42 24.10 24.37 32.02 37.60 34.85 37.28 35.23 34.31 32.17 28.97 27.54 30.52 27.99 25.12 32.29 37.86 37.96 34.54 37.75 33.90 29.89 32.84 39.05 39.75 37.93 35.51 35.83 27.96 27.15 31.10
47.37 46.70 46.10 45.44 45.74 45.41 45.63 44.88 43.99 44.29 45.09 39.32 35.59 34.66 40.77 40.47 22.69 22.03 30.64 34.42 34.96 33.42 33.44 33.65 32.25 34.01 32.65 26.43 23.46 25.70 28.39 36.73 37.50 36.09 35.85 37.75 33.63 26.33 29.98 34.99 37.92 35.59 37.05 37.53 36.65 34.42 30.57
46.88 45.75 45.54 45.37 45.45 45.21 45.23 44.39 43.66 44.04 44.98 39.60 35.47 28.72 34.12 34.65 31.81 29.36 27.98 30.73 30.34 35.88 34.08 34.74 33.17 32.84 29.26 26.41 32.22 24.88 26.34 34.01 36.52 37.27 41.82 39.36 34.53 30.30 25.39 29.30 32.12 32.86 36.36 37.69 35.72 31.38 30.02
45.77 45.83 45.15 44.98 44.53 44.82 44.89 43.92 43.50 43.72 44.84 39.60 32.51 30.11 33.52 24.70 27.66 29.05 29.47 30.26 27.85 27.38 33.36 33.38 31.27 30.61 28.96 22.73 25.74 25.06 29.39 31.48 35.52 39.15 38.25 36.70 30.35 32.32 35.01 35.00 35.69 33.88 33.63 35.42 35.09 33.83 29.44
45.87 45.23 45.00 44.73 44.04 44.60 44.34 43.84 43.33 43.64 43.91 37.22 30.01 31.87 31.43 28.72 33.47 29.80 30.22 28.81 29.21 30.29 30.16 29.51 27.94 30.74 30.74 26.64 27.24 25.85 29.02 30.72 30.53 35.75 35.29 37.35 30.77 32.03 31.58 34.06 33.54 30.95 31.98 33.29 34.11 33.96 33.55
44.82 44.47 45.17 44.93 44.55 44.36 44.07 43.51 43.24 43.34 41.89 35.60 35.08 35.02 31.90 30.65 28.47 25.76 26.17 29.69 29.80 31.66 33.19 33.79 31.58 30.01 29.40 31.16 32.80 33.61 34.89 35.46 34.99 33.24 33.59 33.58 32.12 30.84 27.91 33.09 32.36 24.99 29.49 30.15 30.79 33.08 32.96
44.85 43.94 44.08 44.68 44.07 44.29 43.62 43.20 43.04 43.32 41.71 37.73 36.32 33.33 27.74 23.08 27.81 28.29 31.76 32.03 31.63 32.26 29.79 33.45 33.52 30.56 34.03 37.46 36.63 36.81 36.64 36.85 37.49 37.93 38.59 33.50 31.83 32.24 27.81 31.12 18.92 28.65 33.82 33.42 30.06 30.32 32.30
44.76 44.36 43.92 44.45 44.48 43.93 43.57 43.24 42.94 43.44 44.01 38.06 37.58 34.64 29.32 21.67 29.26 31.87 32.14 32.09 31.93 32.43 31.18 32.65 34.02 35.31 35.99 34.21 30.35 30.10 29.24 31.06 35.35 37.61 37.42 37.58 33.12 29.89 27.78 26.75 28.57 28.98 29.67 28.53 30.02 27.97 31.52
45.06 44.64 44.40 44.68 44.68 44.22 43.76 43.49 43.12 43.73 44.06 38.23 37.73 37.13 32.35 26.14 27.05 33.92 30.54 31.62 26.22 25.78 27.94 32.15 35.77 37.00 35.22 30.91 28.80 27.00 25.52 28.07 29.17 32.56 37.80 36.37 35.38 31.62 29.50 22.91 20.01 26.58 29.41 33.44 33.27 23.32 32.44
44.57 44.66 44.58 44.52 44.23 44.23 43.62 43.98 43.32 43.93 44.23 39.79 37.23 38.01 33.11 24.35 30.88 33.12 28.54 28.41 31.96 28.31 25.75 29.30 31.09 32.18 33.07 25.46 24.33 24.96 25.04 31.60 27.13 26.86 28.03 28.57 29.06 25.09 26.12 23.87 25.60 28.26 30.97 34.48 25.05 23.30 33.78
44.61 44.51 44.52 44.32 44.06 43.84 43.39 43.55 43.34 43.54 43.93 40.66 39.31 38.20 34.15 27.62 30.54 36.30 36.97 31.78 31.70 29.38 24.30 28.60 26.94 28.59 27.02 23.49 24.15 25.20 26.10 27.51 29.33 31.65 29.94 27.17 25.98 23.11 25.04 21.22 18.17 31.02 30.93 25.84 30.66 34.08 34.06
44.51 44.23 44.13 44.08 43.87 43.66 43.72 43.13 42.44 43.17 43.69 42.22 35.11 39.46 38.40 30.70 29.54 35.78 36.69 37.87 37.04 35.97 31.37 30.99 29.62 31.68 30.49 24.24 25.00 26.75 25.24 26.79 28.95 22.97 34.32 25.70 28.46 24.76 26.22 24.35 31.26 33.72 32.20 34.96 35.59 33.60 33.96

GFSGBSN_sfc_wetblb_111.txt.gz
Wetbulb
59.05 58.56 57.69 57.19 56.91 56.00 55.15 53.63 52.38 51.64 50.27 49.77 49.16 49.02 49.64 50.20 50.03 49.90 49.70 49.70 50.08 50.40 50.66 51.00 51.36 51.79 44.21 36.41 36.45 46.09 53.98 51.26 50.34 47.51 43.14 41.20 37.85 35.97 33.45 37.81 39.77 38.49 39.63 41.10 41.38 40.16 39.58
58.51 58.10 57.46 57.33 56.64 56.08 55.25 53.67 52.40 51.68 50.30 49.70 48.99 48.30 49.03 49.27 49.31 49.40 49.59 49.55 49.89 50.34 50.66 50.99 51.28 50.35 42.07 32.04 43.03 45.72 46.68 47.00 46.74 44.57 42.79 41.22 38.98 39.18 35.65 34.20 34.32 37.34 36.60 36.16 37.74 37.83 39.34
58.59 57.68 57.23 56.99 56.18 55.69 55.25 53.97 52.93 51.40 50.30 49.76 48.75 48.55 48.29 48.60 48.71 49.12 49.40 49.51 50.18 50.41 50.93 51.25 51.04 47.52 40.49 36.79 44.70 45.07 45.82 44.65 44.76 43.93 40.63 42.46 41.73 38.06 37.12 34.25 38.04 36.45 32.90 35.58 36.13 35.51 36.18
58.28 57.66 57.20 56.88 55.77 55.03 54.51 53.55 52.93 51.26 50.47 49.74 48.58 48.44 47.74 47.94 48.43 48.95 49.11 49.61 50.25 50.64 51.46 51.63 51.63 44.31 35.46 46.96 45.45 46.55 44.36 42.17 43.69 42.94 42.08 42.83 42.42 38.66 36.23 37.61 35.98 33.66 32.92 27.83 34.70 34.66 36.26
58.20 57.57 56.94 56.70 55.58 54.65 53.96 53.32 52.55 50.96 50.47 49.29 48.51 47.64 47.33 47.95 48.44 48.75 49.55 49.88 50.63 50.99 52.04 52.09 44.24 40.86 35.40 50.13 45.44 44.19 42.67 40.99 41.96 42.42 41.45 44.99 40.69 36.09 36.19 30.94 28.36 30.31 24.83 27.19 30.16 36.16 34.81
58.35 57.43 56.60 56.60 55.32 54.57 53.68 53.15 52.11 50.93 50.11 48.82 48.14 47.31 46.99 47.71 48.42 49.35 49.36 50.01 49.45 48.34 50.78 48.37 46.62 36.37 40.55 39.09 41.68 42.52 42.61 42.99 40.02 39.36 38.46 37.05 33.89 29.26 28.55 26.14 21.71 25.39 25.78 26.65 26.93 32.01 33.04
58.39 57.54 56.49 56.35 55.36 54.54 53.50 52.41 51.69 50.99 49.63 48.51 47.81 46.71 46.78 47.69 48.07 49.01 47.73 41.03 37.32 36.16 37.39 33.20 34.06 34.64 36.18 39.47 41.75 39.90 42.65 41.10 39.40 36.02 29.43 33.59 28.65 25.15 28.42 29.24 30.16 28.60 26.73 25.65 30.34 34.20 32.10
57.77 57.20 56.59 56.35 55.25 54.32 53.13 52.37 51.52 50.70 49.14 48.55 47.42 46.28 46.80 47.21 47.94 48.75 43.89 38.33 38.43 37.85 31.84 37.98 36.89 36.39 39.27 39.28 35.07 38.94 41.41 35.59 34.26 29.46 32.91 30.52 26.67 32.08 34.72 34.07 32.28 30.51 27.51 26.86 30.54 33.95 33.44
57.49 56.78 56.25 56.12 54.95 53.78 53.23 51.99 51.00 49.88 48.97 48.10 46.76 46.39 46.32 47.41 48.15 43.99 40.29 40.89 43.11 41.67 31.02 35.09 39.30 38.52 39.55 39.39 36.88 36.69 40.09 36.94 33.59 31.28 30.73 27.69 30.63 35.13 33.19 31.28 29.20 29.55 28.13 28.05 26.97 31.11 34.77
57.21 55.77 55.60 55.45 54.15 53.00 52.57 51.42 50.06 49.61 48.69 47.29 46.38 46.31 46.60 47.21 42.52 40.13 38.76 44.80 43.46 42.13 26.43 32.55 35.88 38.49 40.40 39.64 34.86 42.46 41.66 37.83 34.35 30.41 32.34 30.22 34.78 32.65 31.24 29.56 31.18 26.02 33.78 32.09 29.34 27.07 20.67
56.46 55.55 55.13 54.13 52.99 52.09 51.71 50.69 49.76 49.32 47.94 46.58 46.64 46.21 46.59 46.90 39.19 37.64 41.59 44.26 43.90 39.06 19.18 34.48 35.26 42.58 39.96 35.52 36.60 38.25 42.32 38.23 32.16 32.67 33.96 31.12 31.43 30.74 29.62 31.09 34.50 30.15 35.32 33.02 31.45 27.77 27.39
56.61 55.27 54.36 53.08 52.09 51.68 50.73 50.12 49.45 48.37 47.10 46.35 46.42 46.33 46.63 43.62 40.86 40.75 42.87 43.00 40.90 25.31 19.72 30.43 35.07 33.67 33.71 35.06 36.05 37.99 38.00 40.78 38.87 33.72 33.75 32.89 36.21 34.51 33.29 35.72 35.36 36.59 33.32 32.76 31.10 28.04 21.31
55.77 54.72 53.33 52.43 51.75 50.70 50.15 49.30 48.52 47.51 46.28 46.45 46.07 46.32 44.69 44.52 37.81 41.92 43.45 39.62 25.01 19.79 32.03 28.29 29.18 33.40 31.65 30.67 32.88 34.42 32.84 33.39 33.16 28.94 28.04 32.17 31.87 34.70 37.59 32.24 34.22 32.23 28.68 19.47 20.81 14.92 19.00
55.07 53.63 52.63 51.76 50.31 49.72 49.63 48.58 47.50 46.49 45.98 46.05 45.95 45.82 44.73 43.89 42.88 42.56 41.12 31.29 20.69 27.60 27.57 32.82 32.23 31.59 26.51 30.98 31.46 32.23 31.23 28.68 35.92 34.94 29.92 25.99 24.88 32.95 38.14 32.88 29.84 30.34 29.32 23.44 16.39 20.83 24.19
53.98 52.74 51.54 50.18 49.56 49.27 48.74 47.55 46.75 45.72 45.69 45.71 45.69 39.75 39.36 41.88 42.50 42.45 33.61 22.56 24.65 27.14 30.99 30.40 30.89 26.27 25.38 29.54 29.87 30.46 29.44 29.94 34.76 35.19 30.02 28.80 25.71 35.21 37.18 37.74 34.38 31.76 27.96 34.16 27.73 29.95 26.35
52.86 51.38 50.15 49.32 49.07 48.48 47.83 47.35 46.06 45.60 45.25 46.02 38.99 40.11 39.15 43.96 44.30 39.83 29.95 27.45 28.90 33.60 34.52 33.03 25.24 27.38 20.36 25.84 26.97 28.36 28.57 33.19 33.27 36.13 38.03 34.92 27.45 34.14 38.24 39.19 36.73 34.54 37.48 29.48 30.08 21.25 12.75
50.78 49.94 49.26 48.54 47.90 47.51 46.80 46.56 45.80 44.95 45.79 45.33 39.59 35.23 40.57 43.81 43.22 34.24 24.52 26.65 31.84 35.91 36.55 32.34 27.13 26.20 27.24 22.27 26.90 24.52 28.31 32.53 36.06 35.04 36.30 36.62 31.99 31.32 36.60 34.61 31.95 32.83 30.61 32.81 33.33 28.75 19.64
49.39 48.82 48.24 47.73 47.19 46.31 46.64 46.12 45.08 45.12 46.10 42.29 38.64 31.02 40.50 43.08 31.52 26.63 26.54 31.10 37.07 33.73 35.93 33.92 32.97 30.42 26.13 24.20 27.97 23.63 25.95 31.71 37.26 36.26 31.49 36.99 34.55 27.73 32.02 38.76 39.42 37.42 34.22 34.61 26.40 25.85 29.84
48.23 47.57 47.14 46.97 46.81 46.59 46.67 45.26 44.64 45.30 45.42 39.37 35.11 34.49 40.97 40.37 25.88 24.79 30.50 33.38 34.12 32.23 31.99 32.17 30.70 31.63 29.20 22.70 22.86 24.56 25.18 34.62 35.49 34.33 34.80 36.98 32.35 26.00 27.43 33.34 37.20 34.47 35.56 37.24 36.15 34.34 28.12
45.99 46.29 46.74 46.73 46.91 46.31 45.93 44.76 44.52 45.32 45.70 40.01 35.18 29.36 34.45 35.34 32.07 29.63 28.76 29.97 29.29 34.54 32.63 32.56 31.50 31.06 27.41 24.90 29.91 23.84 24.33 31.87 34.62 34.69 39.97 39.10 33.95 30.28 24.95 28.53 33.85 31.72 34.87 36.81 35.01 29.69 27.48
45.93 45.90 45.94 46.56 46.29 45.90 44.49 43.96 44.33 45.39 45.22 39.98 34.11 30.61 34.12 27.64 28.72 29.26 29.65 29.88 28.04 27.28 31.54 31.57 29.39 28.68 26.72 20.93 25.36 25.21 27.51 29.04 33.59 36.96 37.23 36.88 29.86 32.87 32.64 33.31 31.90 30.92 32.27 36.08 33.47 31.91 26.83
45.43 46.27 45.78 45.59 45.28 45.07 44.09 43.65 43.94 45.03 44.71 38.17 31.68 32.12 30.75 31.47 33.28 29.39 29.96 28.25 28.30 29.41 28.74 27.15 26.83 29.18 27.75 25.86 27.11 25.68 27.74 28.12 28.67 34.03 33.76 37.54 29.68 31.83 30.04 30.93 30.25 27.37 29.81 29.87 33.01 32.12 30.18
44.71 44.98 45.24 45.43 45.45 44.33 43.62 43.44 43.74 44.25 42.75 35.90 35.31 35.25 32.80 29.97 28.75 26.71 26.66 29.67 29.37 30.37 31.50 32.00 30.08 28.33 27.94 29.33 31.48 32.66 33.28 33.46 32.96 31.13 30.86 33.70 31.89 30.72 26.45 32.59 30.84 23.66 27.30 28.23 29.00 30.50 31.63
45.35 44.40 44.42 44.73 45.05 44.04 43.50 43.27 43.77 43.93 42.39 38.54 36.23 33.56 29.87 25.34 27.75 28.40 30.75 30.70 30.36 30.77 28.37 32.03 31.62 28.57 32.36 35.80 34.65 34.75 33.61 33.09 33.78 33.83 35.49 32.76 31.94 32.76 28.00 30.09 18.86 27.67 32.13 33.13 28.22 28.57 31.46
44.80 44.66 44.38 45.00 44.78 43.72 43.14 42.99 43.88 44.30 43.68 38.86 37.67 34.77 29.76 24.24 28.75 30.42 31.27 30.66 30.31 31.03 29.54 31.31 32.64 33.75 34.80 32.19 29.13 29.00 28.49 29.41 34.60 36.65 35.96 36.51 32.98 30.19 27.48 24.25 27.12 28.11 28.62 27.53 28.45 26.54 30.27
44.74 44.93 45.00 44.90 44.49 44.21 42.92 43.45 44.13 44.69 44.28 39.05 37.27 36.36 32.25 28.63 27.43 33.33 29.26 29.87 25.69 25.18 27.01 30.19 34.52 34.88 33.44 29.80 28.31 23.82 23.69 26.98 26.90 31.32 35.86 35.54 33.77 30.54 28.89 22.51 19.25 24.80 28.67 32.65 32.33 23.29 30.64
44.61 45.07 45.17 44.71 44.55 44.35 43.18 43.81 44.16 45.05 44.98 39.83 36.93 36.86 32.36 26.83 30.38 31.49 27.43 27.96 30.09 26.99 25.19 27.80 30.04 30.97 31.56 23.88 23.14 22.64 21.77 30.13 26.37 26.07 27.28 27.81 28.65 24.95 26.00 23.50 24.62 27.86 31.23 34.18 24.06 23.52 32.05
44.71 44.78 44.64 44.38 44.52 44.31 43.79 43.69 44.16 44.86 44.76 40.01 36.59 36.97 33.16 28.14 29.46 35.10 35.61 31.37 30.06 27.99 22.93 27.42 25.39 27.19 25.58 21.75 23.22 22.98 23.78 28.01 28.82 30.65 29.66 25.61 25.34 22.85 24.90 20.00 16.55 30.01 30.83 25.46 30.04 33.44 31.70
44.44 44.24 44.14 43.93 44.14 43.96 43.95 43.51 44.06 44.20 44.13 41.26 34.14 37.70 36.42 30.26 29.89 34.46 35.28 36.51 35.30 33.55 30.07 29.61 28.65 30.15 29.41 23.81 24.32 24.72 24.55 27.55 27.92 25.49 33.75 24.64 27.23 24.70 25.38 23.14 30.84 33.62 31.68 33.76 33.85 31.25 33.80

GFSGBSN_sfc_wetblb_114.txt.gz
Wetbulb
60.08 59.86 59.05 58.45 57.44 57.00 56.65 55.83 54.97 53.69 52.57 51.27 50.51 49.80 49.72 50.07 49.91 49.58 49.52 49.83 50.24 50.67 51.17 51.45 51.99 52.02 43.21 35.85 35.29 43.00 52.45 50.38 47.24 46.10 42.21 39.95 36.83 34.77 31.88 34.82 34.89 33.94 36.32 39.39 37.63 36.16 36.13
59.52 59.40 58.87 58.29 57.48 57.26 56.86 56.29 55.21 53.62 52.43 51.07 50.50 49.52 49.32 49.49 49.21 49.04 49.41 49.62 49.96 50.52 50.82 51.30 51.53 50.86 38.93 31.12 41.03 45.43 45.72 45.49 43.80 41.84 39.81 39.96 38.13 38.03 34.72 33.27 32.10 34.39 34.78 35.04 34.77 35.16 35.29
59.75 59.04 58.59 57.84 57.09 56.90 56.76 55.84 55.08 53.89 52.43 51.09 50.24 49.13 48.82 48.91 48.85 48.85 48.98 49.50 49.95 50.35 51.09 51.40 51.17 46.59 38.36 35.42 43.34 44.67 45.92 42.51 42.36 41.63 38.50 40.97 40.92 36.86 35.51 32.89 36.93 35.47 31.15 35.30 35.84 33.78 33.60
59.64 59.17 58.78 57.84 56.82 56.52 56.05 55.38 54.74 53.80 52.35 51.07 50.37 49.10 48.74 48.19 48.24 48.77 49.12 49.33 49.96 50.96 51.57 51.34 51.53 42.82 33.46 44.59 44.68 47.30 42.70 40.79 42.18 42.51 40.68 41.96 40.09 37.01 34.87 36.37 33.86 31.11 30.87 26.92 33.31 33.03 35.51
59.67 59.29 58.73 57.84 56.63 56.52 55.64 55.20 54.51 53.65 52.46 51.15 50.13 49.11 47.89 47.72 48.23 48.50 48.95 49.47 50.36 51.85 51.74 51.89 43.44 38.76 33.93 47.94 42.55 43.07 41.01 40.35 41.31 41.46 39.89 43.47 38.99 34.45 33.60 28.68 26.86 27.33 24.15 26.60 29.76 34.60 33.02
59.66 59.26 58.83 57.90 56.79 56.40 55.81 55.18 54.16 53.28 52.57 51.30 49.56 48.63 47.71 47.37 48.22 48.89 49.33 49.76 49.26 50.57 49.72 48.37 46.39 35.08 38.26 37.41 40.85 41.37 40.72 41.28 39.20 38.36 37.51 35.99 32.53 28.76 26.60 25.37 20.06 23.04 23.20 24.77 25.72 32.45 33.37
58.36 59.72 58.74 57.95 56.87 56.59 56.24 55.55 53.89 52.93 52.05 50.66 49.19 48.19 47.03 47.27 47.91 48.89 45.91 36.84 33.95 32.31 35.27 32.23 32.94 34.85 35.57 38.83 40.12 38.36 40.79 39.73 38.13 34.47 28.22 31.96 26.61 24.25 26.51 28.26 30.12 27.99 25.70 23.55 27.88 32.41 30.17
55.73 57.40 58.68 58.06 57.05 56.91 56.50 55.50 53.67 52.23 51.30 50.12 49.00 47.58 46.70 47.00 47.72 49.00 39.58 35.24 35.01 35.67 31.16 36.88 35.99 35.71 38.19 37.86 34.51 38.22 40.14 35.10 33.37 28.72 30.51 28.79 25.69 31.84 32.80 31.67 30.09 28.99 26.32 25.75 29.56 32.85 31.81
53.65 54.99 57.03 58.36 57.29 56.78 56.23 55.02 53.10 51.94 50.87 49.65 48.54 46.99 46.48 47.01 48.05 42.21 38.56 38.17 40.64 39.85 29.70 34.08 37.72 37.12 38.41 38.07 36.03 35.56 38.84 36.67 32.34 29.26 29.48 26.13 30.32 34.39 32.07 29.87 27.84 27.83 25.98 25.80 25.86 30.84 32.80
52.22 53.07 54.58 57.13 57.42 56.46 55.70 54.32 52.87 51.37 50.62 49.14 47.73 46.69 46.49 47.21 42.27 39.00 37.54 42.06 40.69 39.64 25.86 30.75 34.16 37.13 39.33 38.50 34.48 41.05 41.12 37.04 33.57 29.42 31.30 29.31 33.27 32.09 30.20 28.24 29.41 23.34 30.97 29.82 28.75 27.76 21.60
51.47 51.95 53.51 55.56 56.55 55.52 54.45 53.27 52.15 51.09 49.62 48.66 47.20 46.85 46.55 46.85 37.41 36.30 40.83 42.21 40.79 36.75 17.66 32.60 33.70 41.28 39.44 35.36 36.45 37.17 40.93 37.16 31.62 31.99 31.63 29.65 30.86 30.43 29.49 30.01 31.92 27.75 33.64 31.28 30.35 28.05 26.68
50.99 51.91 52.51 53.80 55.64 54.80 53.41 52.23 51.00 50.29 49.10 48.03 46.94 47.11 47.31 44.37 38.87 41.52 42.12 42.89 39.31 24.04 17.92 29.22 34.21 33.35 33.51 34.69 34.92 37.27 37.00 39.15 38.07 33.20 32.37 31.83 35.59 33.41 32.09 34.41 34.06 34.88 31.25 30.92 30.49 26.66 20.35
49.87 51.37 51.70 53.01 55.07 54.37 52.80 51.64 50.39 49.70 48.72 47.21 46.92 46.97 45.71 43.33 38.23 41.29 41.89 38.67 24.61 18.44 30.67 26.65 28.34 32.44 31.04 30.32 32.07 33.59 31.86 31.42 32.68 28.23 27.27 31.59 31.08 33.27 36.12 31.37 32.85 31.21 27.26 19.58 18.16 20.38 19.26
49.64 49.85 51.47 52.37 54.77 53.13 52.03 50.55 49.63 49.05 47.51 46.61 46.72 46.86 45.45 43.58 42.32 42.72 39.19 30.28 20.03 26.52 26.07 31.50 31.14 30.52 26.35 30.52 30.59 31.30 29.70 27.09 35.00 33.31 29.03 27.15 23.07 30.28 34.92 32.20 29.36 28.25 28.23 23.59 17.10 18.71 23.75
49.16 49.81 51.40 51.87 53.91 52.20 51.10 49.78 49.07 48.20 47.00 46.38 46.51 40.48 39.58 40.88 42.18 41.59 32.85 21.33 23.68 26.10 30.32 29.79 30.51 25.47 25.61 28.76 29.28 28.57 27.88 27.99 32.38 34.08 28.71 26.59 25.16 34.44 36.77 36.82 34.18 28.98 25.90 33.86 27.44 28.25 24.45
49.21 50.39 51.22 51.72 52.83 51.24 49.85 49.01 48.49 47.44 47.17 47.18 39.88 38.74 39.06 42.78 43.14 38.28 28.36 27.01 27.59 32.51 33.69 32.10 25.56 27.23 21.30 25.05 25.43 25.82 27.05 31.78 31.50 34.96 36.26 31.55 27.66 33.24 35.79 37.82 35.03 32.98 36.00 28.39 28.73 21.38 18.68
49.98 51.58 52.34 52.68 51.64 49.84 49.11 48.39 47.42 47.22 46.72 45.64 40.19 34.86 40.83 43.38 41.72 33.81 23.81 26.68 30.54 35.26 35.78 31.96 27.17 26.61 27.23 21.62 25.12 23.00 26.42 31.30 33.84 33.19 34.47 32.50 32.13 30.06 34.19 32.79 30.41 32.28 30.00 32.62 32.35 28.81 22.67
52.41 52.97 52.29 51.47 50.00 48.95 48.27 47.60 46.95 46.31 46.49 43.47 37.99 31.05 40.46 42.54 30.42 27.18 26.88 29.99 36.38 33.21 35.50 33.38 32.38 29.74 26.15 23.62 24.19 19.56 22.31 29.76 34.37 33.93 29.09 34.15 34.07 25.99 29.43 36.57 38.57 36.41 33.70 33.85 28.25 25.17 29.23
52.35 52.37 51.27 49.69 48.76 48.05 47.32 46.63 45.89 45.72 45.91 39.67 34.29 34.99 40.32 39.41 24.45 26.95 31.03 32.83 33.30 31.91 31.80 32.10 30.62 30.89 27.87 21.56 15.60 22.83 23.71 32.84 34.68 31.79 32.47 36.13 31.52 25.32 26.05 31.57 36.11 33.14 34.89 35.49 35.04 34.39 26.63
51.86 49.85 48.99 48.58 48.05 47.23 46.58 45.77 45.25 45.49 46.35 41.08 35.59 29.09 32.99 34.40 32.60 30.55 29.60 29.60 29.48 34.31 32.34 32.61 30.70 30.44 27.35 24.48 28.11 20.92 22.52 31.42 33.24 33.32 38.09 38.61 34.68 30.36 23.08 27.44 30.96 28.40 33.63 36.51 35.03 27.25 25.09
48.96 48.30 47.91 47.33 46.95 46.32 45.91 45.79 45.91 46.37 46.53 40.07 34.69 30.33 33.52 28.01 29.53 30.31 31.33 30.18 28.47 27.89 31.55 31.35 29.01 28.01 26.76 20.02 24.40 25.05 27.32 28.31 31.87 36.03 35.54 36.65 30.23 31.28 31.24 31.03 30.15 28.19 30.55 31.64 28.80 29.10 23.88
46.47 46.65 46.60 46.33 45.80 45.51 45.37 45.46 45.71 45.99 45.87 37.31 32.37 31.17 32.62 31.83 32.42 29.98 31.79 28.62 28.43 29.20 28.43 26.95 27.20 27.87 27.42 25.05 26.11 23.96 26.72 26.60 26.46 32.48 31.30 36.04 29.11 31.76 30.53 33.40 32.38 25.64 27.85 28.22 29.83 29.85 27.51
43.88 44.26 44.69 44.72 44.72 43.87 44.47 45.41 45.75 45.75 43.64 35.85 34.85 35.61 33.91 31.12 29.59 28.29 27.98 29.31 29.77 29.98 31.19 31.31 29.63 27.72 27.37 28.14 29.70 30.64 31.57 31.64 31.00 28.84 29.80 32.10 32.29 29.93 26.89 30.69 29.16 22.27 25.72 26.47 27.07 29.45 30.21
44.36 44.12 43.71 43.58 43.51 43.64 43.88 44.37 45.08 45.01 42.93 37.90 35.41 34.50 31.64 26.98 29.02 28.61 30.59 30.60 29.51 29.81 28.26 31.15 30.33 28.16 30.78 33.96 33.24 32.65 31.17 31.14 31.13 31.52 33.68 31.40 32.40 32.22 28.66 29.05 18.24 25.93 31.44 31.18 27.23 27.29 30.00
44.72 44.60 44.42 43.87 43.45 43.21 43.37 44.08 44.72 44.64 43.88 38.93 37.51 34.79 32.07 26.44 29.56 29.82 30.28 29.77 29.99 30.53 29.15 30.10 31.34 32.31 33.41 30.95 28.58 28.54 27.79 28.15 31.55 35.56 35.86 34.80 33.12 29.57 26.93 23.99 26.23 27.68 27.41 26.92 26.89 25.27 29.13
43.96 44.44 43.95 44.03 43.99 43.84 44.85 45.41 45.37 45.08 44.09 39.07 36.99 36.48 34.66 30.76 28.60 32.40 28.81 29.55 26.12 25.49 26.42 29.35 32.60 33.80 32.23 29.32 28.02 22.99 22.25 26.11 25.91 29.73 35.65 34.06 33.37 29.79 27.60 22.33 17.53 23.98 28.24 32.64 31.81 22.30 29.12
44.73 44.78 44.42 44.35 43.76 44.44 45.11 45.67 45.84 45.09 44.18 39.59 36.56 36.78 35.03 29.70 31.07 30.96 27.78 27.99 29.28 26.54 24.15 27.23 29.10 29.90 29.91 23.25 22.50 22.45 20.66 28.07 22.97 25.21 26.89 26.95 28.35 24.71 25.44 22.72 23.60 27.42 30.78 34.18 23.31 22.07 29.50
44.59 44.57 44.30 43.77 43.87 44.50 45.14 45.65 45.42 44.80 43.64 39.50 36.74 37.37 34.53 29.69 29.97 34.93 34.94 30.56 29.28 26.87 21.39 26.14 24.64 26.32 24.84 20.75 22.88 22.43 22.85 25.78 24.59 30.07 29.14 24.27 24.05 22.87 25.60 21.10 18.53 31.06 31.43 25.33 29.93 31.28 30.30
44.33 44.17 44.34 44.02 43.91 44.41 45.02 45.19 45.16 44.37 43.60 40.81 35.46 37.47 36.72 32.45 31.21 34.57 34.94 35.54 34.04 31.72 29.09 28.74 27.74 29.53 28.55 23.08 23.94 24.25 23.18 24.79 27.22 25.10 32.60 24.82 26.82 24.72 24.58 22.84 30.36 32.21 30.70 32.34 31.39 32.84 30.85

GFSGBSN_sfc_wetblb_117.txt.gz
Wetbulb
60.40 60.30 59.83 59.69 58.89 58.16 57.72 57.20 56.53 55.54 54.48 53.59 51.87 50.59 50.05 49.87 50.49 50.26 49.89 50.03 50.48 51.03 51.41 51.68 52.00 52.34 45.40 38.35 38.16 45.66 52.96 50.39 48.38 47.25 44.25 42.92 40.68 39.19 35.86 37.02 38.15 36.64 38.12 39.44 39.76 39.39 39.86
59.88 59.66 59.61 59.52 58.90 58.43 57.99 57.22 56.51 55.56 54.36 53.23 51.75 50.51 49.59 49.55 49.76 49.67 49.65 50.01 50.31 50.84 51.28 51.60 51.29 50.78 42.15 35.39 44.51 47.73 48.31 46.86 45.78 44.92 42.91 43.36 41.48 41.33 37.94 36.83 36.35 38.49 38.31 38.12 38.85 38.92 39.75
60.31 59.73 59.55 58.94 58.42 58.03 57.72 56.78 56.44 55.66 54.46 53.27 51.75 50.61 49.39 49.28 49.33 49.15 49.60 49.95 50.34 51.01 51.66 51.41 50.73 46.72 40.30 38.39 47.08 48.21 48.13 46.17 46.33 44.85 41.68 43.44 43.56 41.08 39.50 36.65 39.99 37.90 34.44 37.49 38.29 38.85 37.92
60.56 60.12 59.65 58.78 58.20 57.57 56.86 56.54 56.29 55.99 54.80 53.25 51.81 50.63 49.35 48.78 48.50 48.81 49.38 49.62 50.47 51.41 51.83 51.72 51.29 45.19 37.54 45.66 47.70 48.97 47.44 44.89 44.98 45.36 43.71 44.16 43.53 40.73 38.47 39.73 38.03 35.27 35.61 30.63 36.44 38.23 38.95
58.37 59.89 59.76 59.07 58.21 57.30 56.73 56.41 56.06 55.88 54.80 53.39 51.75 50.48 49.11 48.42 48.42 48.69 49.19 49.86 51.44 52.35 52.39 51.75 45.73 42.51 37.82 48.94 44.95 45.49 44.68 42.73 43.71 43.87 43.63 43.86 42.42 38.48 37.99 34.11 31.31 31.98 28.15 29.88 32.19 38.04 37.05
55.47 57.19 58.86 59.08 58.22 57.68 56.92 56.46 55.68 55.33 54.45 53.28 51.58 50.16 48.87 48.05 48.04 49.19 49.60 48.97 52.37 50.78 49.91 48.45 46.61 38.67 41.71 39.08 42.39 42.63 44.07 43.19 41.21 41.20 40.46 39.70 37.48 34.81 33.74 32.34 25.29 27.60 27.54 29.73 28.93 34.36 35.10
53.80 54.60 56.31 57.22 58.54 58.11 57.61 56.89 55.86 54.94 53.86 52.70 51.33 49.93 48.44 47.50 48.06 49.09 45.81 39.85 37.33 36.37 39.60 36.06 36.42 37.47 37.95 41.08 42.33 41.81 43.16 42.07 41.20 38.86 33.87 36.07 32.67 30.56 33.32 32.96 33.11 31.46 29.13 27.88 31.43 34.88 33.08
53.38 53.34 53.53 55.18 56.32 58.31 58.10 57.37 55.81 54.61 53.66 52.54 51.01 49.69 48.15 47.43 47.57 48.79 42.12 37.82 38.20 40.06 35.05 38.60 37.66 37.39 39.08 40.23 37.82 40.77 43.54 39.75 37.23 33.01 34.03 33.26 30.52 35.91 35.19 34.19 31.85 30.77 28.46 28.43 32.06 34.89 33.43
52.93 52.93 52.79 52.72 54.12 55.85 58.35 57.25 55.73 54.31 53.29 52.00 50.62 49.03 47.63 47.16 47.60 44.00 40.89 40.28 42.20 42.55 34.74 35.98 38.53 38.20 39.74 40.35 37.41 38.25 42.31 39.50 35.51 32.16 32.78 31.18 34.65 35.61 33.60 32.57 30.08 30.62 28.53 28.92 28.58 32.77 34.10
52.54 52.37 52.43 52.52 52.82 54.07 55.58 57.21 56.03 54.11 52.64 51.34 49.81 48.32 48.03 47.28 43.94 41.84 41.03 45.37 42.95 43.29 30.43 32.24 35.54 39.05 40.49 40.29 36.01 42.68 43.45 40.25 36.41 32.58 33.65 33.09 35.72 33.66 32.69 31.78 32.73 27.17 33.12 31.59 30.28 28.98 24.67
52.37 51.86 51.52 51.89 52.18 52.16 53.55 55.94 55.99 53.85 52.16 50.70 49.31 47.42 47.48 47.71 40.77 39.78 43.13 44.62 42.49 39.55 22.41 33.65 35.08 43.11 40.69 37.24 37.77 39.02 43.56 39.54 34.68 35.10 34.37 33.24 33.61 33.21 32.61 33.40 33.92 31.05 34.06 32.90 32.31 29.98 28.92
51.88 51.31 51.25 50.42 50.59 51.71 52.41 54.43 54.92 52.85 51.42 50.13 48.61 46.98 47.14 44.52 41.51 43.04 44.97 45.35 41.82 28.97 21.44 30.06 35.16 34.40 34.56 36.20 36.69 39.05 38.83 41.47 40.26 35.78 34.60 34.68 38.57 36.41 35.04 36.07 35.70 36.70 33.93 33.81 33.25 29.91 22.49
51.02 51.50 51.42 50.89 49.82 50.67 52.10 53.59 54.60 52.16 50.73 49.42 47.77 46.94 46.04 44.89 39.72 44.15 44.86 41.31 28.89 22.96 32.16 28.14 29.57 33.52 32.07 31.38 33.28 34.76 33.19 34.76 32.01 28.49 28.58 32.97 34.20 36.46 37.40 33.67 35.58 34.18 31.42 25.13 23.40 23.78 21.91
50.43 50.72 50.90 50.81 50.15 50.14 52.09 52.79 52.73 51.04 49.97 48.46 47.83 46.80 45.90 43.96 43.56 44.10 42.30 33.06 22.65 27.80 27.81 33.10 32.08 31.48 28.92 31.78 31.72 32.58 30.86 29.99 35.77 32.73 28.93 26.22 25.79 33.19 36.62 34.89 32.95 32.60 31.50 25.62 18.99 21.24 24.34
50.29 50.65 50.38 49.99 49.78 49.64 50.84 51.97 52.69 50.36 48.84 48.10 47.18 42.16 42.35 43.39 43.66 44.00 36.68 26.52 26.62 28.21 31.69 30.73 30.88 27.30 27.47 30.25 30.89 30.67 29.68 29.94 33.77 34.30 25.96 25.51 26.64 36.64 37.55 38.87 37.22 32.23 29.30 35.03 28.72 29.38 25.47
49.55 50.16 49.51 48.70 48.58 49.12 49.74 51.22 51.14 49.64 48.07 46.38 39.81 38.05 38.19 43.33 44.60 40.63 32.56 28.45 29.12 33.42 34.24 33.04 26.53 28.73 25.00 27.42 27.83 28.58 28.58 33.21 32.15 36.19 36.20 30.30 26.32 33.99 36.82 39.77 38.64 35.80 37.14 30.43 30.51 22.50 20.63
48.49 48.61 48.84 48.01 47.40 48.39 49.37 51.24 50.50 48.66 47.49 45.13 37.67 32.80 41.20 44.17 44.17 36.12 28.95 28.63 31.80 35.96 36.41 32.16 28.83 27.79 28.42 26.33 28.08 27.59 28.11 32.18 34.70 34.93 35.02 32.83 29.23 30.61 35.37 34.24 33.36 34.00 32.41 33.90 34.41 31.16 25.28
47.51 46.43 46.75 47.02 47.58 48.42 49.41 51.52 49.37 47.95 45.74 42.36 36.15 30.77 41.15 43.52 34.19 33.48 28.65 31.85 36.56 34.48 36.59 34.56 33.61 31.03 28.75 27.02 27.85 25.30 27.06 30.37 35.81 34.81 29.93 34.23 32.97 26.12 30.45 37.15 39.75 37.55 34.95 34.83 28.00 26.97 31.15
45.75 46.35 47.10 48.13 49.02 48.60 50.02 50.39 48.01 46.16 45.41 40.30 33.72 33.95 41.62 41.93 28.52 28.22 32.22 32.88 34.29 33.06 33.40 33.31 31.86 32.30 29.49 26.62 22.39 26.58 27.69 34.26 35.31 32.93 33.51 35.59 31.04 26.42 28.79 33.46 34.20 32.13 34.71 35.62 35.26 34.12 29.91
48.11 50.77 51.91 52.15 50.21 49.15 50.35 48.24 46.88 45.66 46.30 42.85 36.31 30.22 35.09 36.80 34.31 32.30 30.77 31.03 30.33 35.11 33.32 34.12 32.11 32.45 29.69 27.98 29.79 25.85 27.73 32.55 34.63 33.83 37.77 38.33 33.29 28.59 23.90 26.43 31.12 27.07 30.14 34.06 34.89 28.02 24.02
52.43 52.24 50.69 49.72 49.34 50.56 48.55 47.46 45.91 46.20 46.88 41.90 36.28 32.03 35.09 28.23 30.96 32.31 33.32 31.91 29.83 29.28 33.13 33.44 30.66 30.40 28.97 24.34 26.50 26.72 29.24 30.71 32.80 35.83 36.30 35.75 29.75 32.02 32.44 31.72 30.39 28.73 27.60 29.40 27.72 29.42 24.12
51.59 51.36 50.57 50.45 50.16 48.38 47.29 45.79 45.35 46.42 46.39 38.78 32.76 32.30 34.83 32.74 33.60 32.44 32.83 30.29 30.07 29.09 30.23 28.93 29.65 29.53 29.92 27.64 28.48 25.63 29.01 29.16 28.82 32.66 31.91 36.24 29.61 32.02 29.92 33.65 32.48 26.91 27.80 28.25 29.74 28.44 26.37
48.70 48.73 48.36 47.91 47.48 46.72 45.63 45.06 45.73 46.81 44.02 37.12 36.38 37.05 35.80 33.60 31.47 30.83 29.93 30.81 30.66 31.76 32.34 32.55 31.65 30.54 28.96 30.52 32.37 33.19 33.99 34.04 33.24 30.85 29.46 30.87 29.97 30.13 27.17 32.19 29.93 24.08 26.01 26.78 27.57 29.08 29.51
45.97 46.97 46.49 46.12 46.05 45.91 45.35 45.22 46.05 46.83 43.62 38.95 37.14 37.24 33.17 28.09 31.09 30.85 31.79 32.37 30.56 31.39 30.14 32.01 32.80 31.00 32.71 35.91 35.45 34.35 32.33 32.17 32.18 32.10 33.48 31.26 29.74 31.32 28.58 29.73 19.91 27.89 31.35 30.76 26.91 27.52 29.82
43.46 43.49 45.11 45.80 45.86 45.15 44.57 44.80 46.09 46.07 44.18 39.21 37.92 36.83 33.81 28.79 31.16 31.06 31.42 31.12 31.89 32.95 31.28 31.67 32.82 34.20 35.76 34.23 31.03 29.77 30.19 30.95 31.97 33.41 32.68 33.73 31.85 28.63 27.40 25.20 27.11 27.81 27.93 27.92 27.33 25.16 28.84
43.61 44.23 43.87 43.58 43.31 44.51 45.28 45.54 45.44 45.16 43.38 38.97 37.35 37.85 36.77 31.47 30.13 33.47 30.81 32.05 28.10 27.68 28.99 31.28 34.27 36.19 35.22 32.24 30.44 25.04 23.40 27.03 27.24 31.38 36.19 35.01 34.23 30.21 28.70 24.01 20.42 24.49 29.14 32.71 32.60 22.86 28.91
42.99 43.04 43.08 43.09 43.06 43.19 44.50 44.91 45.58 44.68 43.95 39.84 37.27 37.39 37.10 31.30 32.61 33.58 29.85 29.84 30.94 29.07 27.30 29.62 31.47 32.29 33.21 28.58 26.71 25.48 24.97 29.38 25.25 25.30 27.20 27.80 28.59 25.23 25.24 24.07 23.88 27.83 31.52 34.80 23.74 23.80 29.06
42.71 42.50 42.75 44.05 45.00 45.02 45.72 45.95 45.46 44.46 43.40 39.52 36.93 37.99 36.91 32.45 33.39 36.07 35.99 31.73 30.79 29.70 26.59 29.20 29.09 30.18 28.57 25.26 25.65 25.39 26.23 27.65 27.63 29.96 28.75 24.93 24.21 23.71 25.34 22.59 19.81 30.75 32.45 26.88 28.95 31.52 29.88
42.58 43.43 44.33 45.19 45.31 45.52 45.54 45.16 45.01 44.37 43.59 41.06 35.99 37.65 38.36 35.11 34.12 36.08 36.55 36.89 35.90 33.85 32.26 31.08 30.39 31.37 30.83 27.13 27.73 27.85 26.57 28.43 27.86 25.66 32.25 25.49 27.74 25.01 24.85 23.53 30.18 32.83 30.41 32.26 34.55 31.39 30.90

GFSGBSN_sfc_wetblb_120.txt.gz
Wetbulb
61.19 61.06 60.44 59.96 60.15 59.33 58.99 58.13 57.24 56.60 56.05 55.08 53.98 52.12 51.09 50.02 49.98 50.28 50.04 50.19 50.84 51.33 51.79 52.49 52.74 52.97 51.02 43.43 42.00 50.80 53.96 55.19 50.30 48.36 46.37 45.45 43.93 42.81 40.21 41.27 42.13 40.83 41.76 42.43 43.08 43.09 43.23
60.89 60.52 60.26 59.75 59.53 59.68 59.40 58.47 57.28 56.51 55.80 54.68 53.66 52.09 51.04 49.80 49.69 49.96 49.55 49.88 50.57 51.20 51.81 52.38 52.30 51.81 47.09 39.94 48.62 52.80 52.60 49.30 48.52 47.65 45.81 45.61 43.91 44.51 42.02 41.20 40.63 42.49 42.21 42.12 43.02 42.98 43.46
61.36 60.59 60.05 59.57 59.23 59.28 58.96 57.90 57.29 56.81 55.81 54.74 53.78 52.17 50.95 49.85 49.31 49.48 49.50 49.86 50.35 51.22 52.18 52.38 51.37 49.83 45.17 42.74 50.80 52.56 51.04 49.16 49.20 48.00 45.03 46.28 45.82 43.87 43.81 41.28 43.35 42.32 39.29 42.11 42.98 42.48 41.02
57.48 58.58 60.27 59.21 58.79 58.55 58.20 57.68 57.14 56.94 56.04 54.90 53.70 52.56 51.05 49.82 48.96 48.70 49.39 49.87 50.42 51.50 52.17 51.62 51.32 49.32 42.46 48.95 52.38 51.29 50.02 48.56 48.94 49.07 47.43 47.32 46.71 44.31 42.47 43.97 42.46 39.88 40.13 36.81 41.02 42.01 42.32
55.61 56.41 57.36 58.65 58.71 58.32 57.96 57.46 56.97 56.77 56.40 55.11 53.96 52.48 50.88 49.65 48.59 48.57 49.33 49.96 51.71 52.25 52.38 51.72 49.56 48.03 41.68 50.72 47.16 47.87 48.56 45.83 47.82 47.52 47.80 46.33 45.48 43.09 42.92 39.69 38.32 38.77 34.79 36.43 38.25 41.68 40.02
53.51 54.50 55.55 56.76 56.65 58.38 58.14 57.64 56.74 56.52 56.07 54.65 53.69 52.33 50.52 49.26 48.27 48.61 49.58 49.38 52.77 52.27 51.28 50.73 50.07 44.73 44.94 42.35 45.34 46.28 48.47 47.42 45.15 45.30 44.26 43.78 43.94 40.61 40.58 38.81 33.40 34.37 35.04 37.04 36.72 40.09 40.61
53.15 53.60 53.76 54.00 55.56 56.42 58.92 57.99 56.85 56.07 55.67 54.60 53.29 51.79 50.18 48.75 48.05 48.71 48.57 50.00 45.14 42.89 45.31 41.73 41.60 41.48 41.63 45.18 46.44 45.50 47.39 46.40 45.61 43.87 41.02 41.64 39.17 37.64 38.26 38.87 38.17 36.74 35.44 35.17 38.60 41.06 38.15
53.20 53.41 53.09 53.17 53.56 54.08 55.32 57.73 56.93 55.89 55.33 54.29 52.82 51.50 49.94 48.38 47.96 48.41 47.70 43.23 43.23 45.03 39.22 43.27 42.15 42.01 43.51 44.50 41.72 44.04 47.34 43.43 42.39 39.91 39.98 39.56 37.89 39.80 39.72 38.78 37.17 36.97 35.18 35.57 38.70 39.40 38.76
51.90 52.54 53.29 52.62 52.85 53.02 53.11 54.52 55.39 55.85 55.10 54.00 52.65 51.26 49.37 47.84 47.68 45.18 46.12 43.99 47.18 47.37 41.19 40.58 42.43 42.02 42.73 44.10 41.24 42.11 45.72 43.83 40.96 38.81 39.01 37.47 39.33 39.59 38.74 38.62 36.61 37.33 35.49 35.93 35.04 38.60 40.84
51.64 52.04 52.75 53.22 52.59 52.65 52.88 53.25 54.17 55.81 54.78 53.40 51.96 50.62 48.84 48.37 44.39 44.67 43.83 47.22 47.15 47.62 36.94 37.70 39.01 41.65 43.50 43.51 39.70 45.51 46.58 43.91 41.36 38.23 39.07 38.97 40.77 37.93 38.19 37.28 38.92 33.96 38.66 36.60 35.42 35.41 32.06
51.37 51.83 52.02 52.83 52.58 51.96 52.10 52.25 53.02 55.06 55.06 52.83 51.21 49.78 47.89 48.72 43.35 41.51 45.06 47.00 46.90 46.34 25.95 37.61 38.10 46.34 43.76 40.62 41.25 42.22 46.74 43.63 39.16 39.29 39.01 37.98 38.17 37.96 37.30 38.08 38.59 36.19 40.06 37.25 36.98 35.80 35.63
51.22 51.52 51.75 52.40 51.90 51.52 50.91 51.16 52.35 53.47 54.05 52.40 50.62 49.14 47.92 44.89 44.34 44.06 47.43 46.60 47.02 33.00 25.53 33.47 38.51 37.65 38.25 39.41 39.97 42.16 42.39 45.04 44.09 39.55 40.83 39.97 43.24 40.36 40.24 40.71 40.43 41.08 38.52 39.28 39.28 36.32 29.63
50.64 50.95 51.18 51.25 51.67 51.44 50.84 50.14 50.63 52.40 53.95 51.93 50.09 48.30 46.00 45.60 42.56 45.99 48.66 44.15 30.63 28.16 35.90 31.84 33.78 36.77 37.13 35.79 37.06 37.93 37.82 38.53 37.98 33.42 34.55 38.06 39.18 41.23 41.41 38.30 41.37 38.75 37.01 31.53 29.83 29.94 29.81
50.40 50.52 50.36 50.68 50.83 51.44 51.30 50.59 50.44 51.67 53.31 51.87 49.07 47.60 45.58 46.53 46.21 46.97 46.97 35.69 25.80 35.04 33.24 36.18 35.94 35.91 33.40 35.49 35.62 35.55 35.69 35.11 38.33 36.17 34.39 32.13 31.66 38.73 41.03 38.52 36.66 37.82 36.52 30.52 22.38 26.19 29.79
50.14 50.25 49.97 50.11 50.36 51.13 51.26 50.28 50.28 51.43 51.98 49.84 47.74 44.53 43.12 44.98 46.21 46.86 39.44 27.79 31.54 36.20 36.52 34.52 34.59 31.85 31.99 33.95 34.97 34.56 35.00 35.15 36.99 37.13 28.80 31.11 31.04 39.72 40.34 41.75 40.93 36.90 33.95 39.22 31.36 33.34 28.32
49.80 50.07 49.85 49.80 50.14 50.43 50.95 50.06 50.04 50.94 51.20 48.41 42.91 39.86 39.83 45.04 47.43 42.85 34.61 29.42 35.07 36.98 37.68 36.99 31.76 33.56 30.06 32.04 32.46 33.06 33.61 37.26 35.78 38.06 38.56 34.40 28.77 37.45 39.19 41.86 42.54 39.92 40.91 31.96 33.63 25.35 24.74
49.09 49.44 49.33 49.34 49.28 49.00 50.30 49.74 49.50 49.98 49.63 47.90 40.01 33.92 39.68 45.71 45.94 37.33 29.10 31.84 35.76 38.43 38.82 34.52 33.02 31.00 32.29 31.11 32.86 32.38 33.37 36.33 37.60 37.29 37.98 36.66 32.28 34.42 38.65 37.23 36.05 37.11 35.20 35.81 34.81 33.59 27.52
48.63 48.68 48.68 48.66 48.69 49.07 49.99 49.58 49.17 49.88 48.47 44.10 38.41 31.34 39.81 45.07 32.84 33.92 31.79 35.55 37.56 37.09 39.13 36.70 36.53 34.44 32.99 32.92 31.71 33.32 32.74 34.70 38.93 37.27 34.42 36.99 34.44 30.50 34.16 40.48 40.18 39.19 36.63 35.91 30.71 29.89 33.19
48.07 48.07 48.06 48.17 48.20 48.40 48.51 48.90 48.70 49.55 47.49 41.60 35.68 32.70 40.12 42.09 28.43 30.31 34.44 35.04 36.15 35.66 35.66 35.61 33.62 35.61 34.83 33.24 29.72 32.50 33.66 37.61 38.47 36.12 36.73 38.63 33.38 29.68 33.70 37.27 38.72 33.64 34.25 34.36 34.26 35.11 31.13
47.60 47.55 47.36 47.02 47.23 47.69 47.95 48.46 48.83 49.25 47.90 44.61 35.47 27.96 33.27 35.27 38.41 33.48 33.36 32.24 32.24 37.04 35.85 36.71 34.93 35.79 33.56 31.45 33.67 30.80 32.70 35.75 37.95 36.51 36.84 39.37 34.80 31.81 28.19 28.18 31.80 29.31 30.88 33.72 35.11 32.22 28.68
46.65 46.17 46.00 46.47 47.26 47.69 47.52 47.56 48.10 48.80 48.08 44.51 37.61 33.47 36.02 29.34 31.04 34.45 35.50 34.18 31.90 30.41 35.70 37.02 33.55 34.18 33.04 28.47 30.62 30.27 33.10 34.26 35.60 37.61 38.38 38.14 30.52 33.80 33.51 33.35 33.93 30.82 29.69 31.26 29.74 31.46 29.32
45.53 45.17 47.19 49.49 51.18 51.65 50.30 47.65 47.92 48.08 48.42 43.83 33.41 34.48 37.87 36.22 34.03 34.04 35.05 33.10 32.27 33.59 34.65 33.12 32.19 34.97 34.93 30.92 31.65 29.83 33.07 33.09 32.06 36.88 35.43 38.03 32.31 33.49 31.51 35.25 34.52 29.21 30.04 31.20 31.28 30.76 28.63
44.51 47.42 50.60 51.04 51.44 51.88 50.30 48.07 48.32 47.37 48.44 43.00 39.84 42.46 38.20 33.81 32.93 34.26 34.56 34.98 34.57 35.13 33.27 36.62 36.08 34.25 32.68 34.46 36.59 37.46 37.78 36.55 36.03 33.83 32.99 34.21 31.78 30.37 28.99 33.93 32.47 28.35 28.05 29.45 30.00 31.16 31.54
45.41 50.00 49.56 49.41 50.49 50.25 48.31 48.00 47.58 48.21 48.49 43.58 40.94 40.89 37.18 30.73 34.31 34.14 35.43 35.92 34.65 35.29 32.44 34.81 36.98 34.90 36.47 39.94 39.43 38.35 37.01 36.42 36.21 36.33 37.42 33.12 30.90 30.73 30.25 32.00 24.77 29.41 33.48 33.15 29.83 29.79 31.71
45.26 49.58 49.54 49.20 48.82 48.19 47.13 46.87 47.79 47.74 45.88 42.59 41.92 41.14 39.38 31.88 34.71 33.70 34.35 34.67 35.38 36.33 34.28 34.85 35.89 37.83 40.33 37.57 32.48 32.01 33.18 34.18 35.17 37.47 36.97 37.11 31.82 30.46 28.34 30.03 28.16 29.01 30.52 30.68 29.81 26.88 31.07
43.76 47.21 47.27 46.44 46.54 46.55 46.39 46.12 46.02 45.09 44.36 40.75 39.99 45.65 42.05 34.72 32.98 36.69 34.71 35.29 32.11 32.27 33.29 33.85 37.97 40.50 39.31 35.37 33.13 28.07 26.64 30.62 29.47 32.58 37.86 36.04 36.03 32.06 31.31 26.29 23.64 28.15 31.19 33.98 33.91 25.59 31.15
43.25 45.25 46.16 46.55 46.05 45.82 46.23 45.78 45.23 44.58 44.25 43.38 39.73 43.41 41.99 34.35 35.92 38.14 34.28 34.17 37.03 35.23 32.55 33.83 35.35 35.46 37.96 34.02 30.81 29.40 29.05 33.65 28.68 28.47 29.41 31.28 30.99 28.46 28.91 27.77 26.93 29.84 32.44 35.45 25.48 25.86 32.67
43.85 43.45 44.47 44.93 45.11 45.44 45.96 45.43 45.02 44.47 44.04 43.65 39.54 41.96 42.38 36.65 36.17 38.84 38.60 35.11 35.48 36.76 31.61 34.38 33.58 34.10 33.89 31.30 31.07 31.26 30.93 32.65 31.21 32.44 30.96 29.70 27.95 27.81 28.88 26.64 23.00 32.28 33.41 29.09 30.75 33.23 33.72
42.72 43.54 44.04 44.16 44.62 45.55 45.26 44.84 44.35 44.49 43.56 44.49 39.94 41.04 46.21 41.05 37.33 40.98 39.54 39.95 40.19 39.33 36.53 36.43 35.07 35.26 36.21 33.68 34.26 34.56 31.62 33.95 32.42 27.14 35.02 28.50 31.90 29.52 27.97 26.95 32.01 33.54 32.14 35.16 35.28 32.97 32.88

GFSGBSN_sfc_wetblb_126.txt.gz
Wetbulb
62.22 62.08 61.45 60.82 60.30 60.08 60.34 59.93 59.06 58.05 57.66 57.29 56.80 56.14 54.62 53.67 52.90 52.01 51.94 52.47 51.81 51.78 52.40 53.12 53.95 54.61 53.22 49.31 46.90 52.05 57.57 56.78 52.88 50.37 48.22 47.05 45.42 45.66 43.06 44.59 44.90 43.01 44.07 45.41 46.00 45.33 45.00
58.58 60.89 61.15 60.68 60.43 60.31 60.44 59.98 59.13 58.11 57.45 56.98 56.70 55.96 54.86 53.55 52.93 51.98 51.64 52.08 51.76 51.59 52.30 53.06 54.11 54.05 51.81 43.44 52.13 53.98 52.37 50.95 50.69 49.77 48.76 48.44 46.45 46.64 43.74 43.92 43.60 45.27 44.90 44.49 45.00 44.95 45.65
57.39 57.73 58.80 60.38 59.94 59.97 59.80 59.39 59.01 58.22 57.53 57.11 56.70 55.71 54.98 53.63 52.75 51.90 51.48 51.26 51.29 51.69 52.18 53.57 54.17 52.21 48.18 46.21 52.41 52.85 51.93 50.53 51.13 50.25 47.61 49.56 49.08 45.76 46.25 43.67 46.91 45.56 41.53 43.49 45.19 45.79 44.29
55.53 56.11 56.21 56.95 58.40 58.86 58.92 58.76 58.58 58.42 57.60 57.07 56.69 55.50 54.54 53.69 52.48 51.54 51.07 50.87 51.10 51.17 53.26 53.89 53.57 50.89 45.47 51.87 53.33 51.35 52.31 50.60 51.77 51.39 50.40 50.67 50.01 46.76 45.00 46.68 44.62 42.16 42.98 39.43 44.53 45.37 45.63
54.51 54.09 54.27 55.86 56.32 56.38 57.76 58.24 58.26 58.32 58.04 56.98 56.64 55.46 53.97 53.02 51.94 51.08 50.85 50.58 50.72 52.28 53.88 53.64 51.28 51.23 45.88 52.12 47.45 50.82 50.69 48.24 49.71 50.67 50.97 50.30 48.06 44.96 45.68 41.88 40.08 42.61 37.89 40.08 41.04 45.41 44.07
53.86 53.71 53.47 53.99 54.30 55.16 56.24 56.93 57.74 57.74 57.58 56.90 56.38 55.30 53.82 52.27 50.63 49.89 50.20 50.20 51.46 52.40 53.33 53.33 51.65 45.11 49.03 46.05 48.70 49.12 50.57 49.60 47.97 48.72 47.50 46.59 44.76 42.40 43.18 41.10 34.87 38.13 37.74 38.81 38.46 42.83 43.59
52.31 52.75 54.12 53.54 53.50 53.61 54.13 55.50 55.26 56.90 57.02 56.84 56.32 55.04 53.29 51.83 49.67 47.85 47.52 49.27 47.56 48.73 48.91 46.72 47.79 46.47 47.32 48.83 49.28 47.17 49.37 48.48 48.28 46.17 41.40 45.87 41.37 38.99 42.02 43.67 42.54 40.35 38.32 37.77 41.04 44.28 42.29
51.55 51.15 51.51 52.04 52.96 53.31 53.25 53.71 54.06 54.42 56.64 56.68 55.90 54.74 53.26 51.25 48.99 47.54 46.77 43.74 45.11 45.28 40.75 48.91 49.80 49.78 49.09 48.10 43.82 46.58 49.72 44.10 44.70 40.79 44.66 43.02 38.63 43.40 44.93 42.56 40.69 39.80 38.38 38.34 42.12 44.26 42.20
51.53 51.13 50.70 51.18 51.54 52.04 52.94 53.17 53.45 53.52 54.77 56.12 55.36 54.29 52.48 50.27 47.93 45.48 45.23 46.03 48.75 48.57 39.98 46.40 50.97 50.03 48.63 46.96 42.95 43.70 47.47 45.63 42.63 41.30 42.17 40.10 42.56 45.06 42.43 41.07 39.03 39.78 38.98 39.14 39.07 41.19 42.11
50.96 51.20 51.47 50.98 51.43 51.96 52.56 53.46 52.67 52.64 53.23 54.95 54.66 53.53 51.26 48.70 44.03 48.28 45.84 50.60 49.92 51.33 38.01 44.07 45.78 46.34 47.97 45.65 41.99 46.81 49.01 45.95 43.62 40.48 42.04 41.54 44.80 43.13 41.81 39.91 40.68 36.67 42.94 41.29 39.46 37.90 32.78
51.21 51.36 51.02 51.74 52.24 52.82 52.99 53.40 52.90 51.94 52.57 53.27 54.10 52.43 49.16 49.02 48.61 46.99 48.15 50.06 50.18 49.85 27.92 44.92 43.09 48.95 46.36 42.08 43.94 44.04 48.84 46.02 40.17 41.51 42.03 39.07 41.61 40.48 38.55 39.50 42.79 39.74 43.13 41.15 40.23 37.82 37.47
50.79 50.74 50.91 51.19 51.53 52.33 52.49 52.97 52.20 51.50 51.74 52.76 53.37 51.90 48.75 47.07 46.51 46.68 49.02 48.83 49.92 37.06 27.65 40.52 42.79 40.96 40.89 41.99 42.72 44.96 44.19 46.63 46.74 42.34 42.92 41.95 45.60 43.70 41.96 43.41 43.74 44.05 41.18 41.10 41.16 39.39 32.13
50.20 50.47 50.66 50.77 51.19 51.72 52.24 52.79 52.23 51.26 50.89 52.16 52.73 51.31 48.83 48.07 42.79 48.03 49.50 44.69 33.47 28.90 42.78 39.06 39.22 40.33 39.43 39.22 39.75 41.37 40.46 39.81 37.25 35.13 35.94 40.06 40.77 43.31 44.42 40.21 43.44 41.94 38.54 31.00 29.45 30.98 30.36
49.86 50.56 50.41 50.73 50.86 51.50 51.64 52.06 52.23 51.62 50.85 51.36 52.54 49.27 49.12 48.51 47.85 48.37 46.72 37.04 27.83 37.56 39.17 43.16 41.16 40.35 36.36 38.94 39.63 40.41 38.40 36.92 41.67 40.60 36.53 33.91 33.85 41.56 44.25 41.12 39.21 40.06 38.52 31.04 23.55 25.76 30.20
49.58 49.80 49.84 50.16 50.53 51.02 51.16 51.48 51.44 51.83 50.66 51.55 49.60 46.79 45.16 47.17 49.51 48.57 40.77 31.71 32.12 38.01 42.64 41.45 42.47 37.47 36.92 38.97 39.18 39.31 38.28 37.43 40.35 42.36 34.37 34.82 34.92 43.55 44.33 44.03 41.91 39.22 35.77 41.28 34.19 34.78 30.31
48.06 48.90 49.32 49.39 49.93 50.05 50.52 50.90 51.03 51.52 50.71 49.67 45.39 43.37 41.88 48.46 49.97 44.78 36.07 32.63 36.31 42.90 43.59 42.52 36.10 38.30 34.29 37.09 35.61 36.62 36.89 40.47 39.36 42.60 42.12 38.65 31.41 40.40 42.45 43.31 42.88 40.54 42.74 33.94 35.60 25.29 24.24
47.95 48.19 48.37 48.64 48.72 49.33 49.89 50.59 50.56 51.18 50.80 49.55 43.35 39.01 43.58 48.34 46.44 38.29 30.50 34.52 39.46 43.37 43.64 39.74 37.18 35.23 36.48 35.12 36.97 34.45 35.88 40.08 41.70 40.84 41.32 39.69 34.56 36.50 40.66 38.09 36.90 38.74 37.18 38.14 37.00 34.34 27.13
47.35 47.25 47.23 47.51 48.29 48.78 49.44 50.28 50.28 50.78 49.94 47.44 42.38 35.17 44.09 45.75 33.08 34.92 33.67 37.41 40.90 41.37 44.24 42.23 40.81 39.01 36.12 36.30 35.41 34.40 33.10 37.03 42.91 41.64 36.55 39.67 37.00 30.87 35.74 42.70 43.64 41.07 38.54 37.07 30.04 28.78 32.54
46.59 46.62 47.14 47.59 47.94 48.59 49.05 49.20 49.54 49.97 49.42 44.66 38.60 34.80 43.93 43.32 29.85 32.23 36.93 36.98 39.46 39.27 40.94 39.79 38.21 39.23 39.40 36.80 32.02 37.05 37.71 41.85 41.65 39.40 37.49 39.73 33.96 28.96 33.78 38.47 40.46 37.93 38.61 37.23 35.83 34.06 28.36
46.13 45.92 46.53 46.95 47.39 48.03 48.31 48.78 48.90 49.36 49.33 46.53 36.25 30.17 33.35 37.10 38.07 36.50 35.09 35.21 35.09 41.24 40.71 41.38 39.06 40.43 36.78 33.56 36.63 33.68 35.38 39.50 40.48 39.10 40.06 40.21 35.79 32.85 29.22 33.21 36.63 33.54 34.69 35.63 33.94 29.47 30.70
45.57 45.73 46.04 46.13 46.35 46.82 47.67 48.22 48.61 48.96 49.03 44.84 39.26 34.62 37.46 28.03 30.16 34.00 37.09 36.66 34.08 34.60 40.36 41.63 38.11 37.96 35.66 31.62 33.29 32.36 35.91 37.29 38.83 40.20 37.08 37.59 32.25 34.55 35.51 36.42 37.01 34.42 32.21 33.14 31.05 32.19 29.81
45.13 45.28 45.31 45.70 46.17 46.29 47.18 47.52 48.35 48.43 48.72 42.99 34.05 37.52 39.74 37.08 36.60 32.56 35.16 36.13 35.46 36.90 38.47 37.01 36.03 37.49 37.76 33.24 33.78 31.65 34.80 35.58 34.49 37.57 35.60 38.60 33.11 32.84 30.80 35.17 36.15 33.71 32.66 32.30 33.14 31.65 30.41
44.83 45.15 45.14 45.21 45.84 46.45 46.93 47.19 47.67 48.30 47.69 40.76 42.88 44.61 42.00 38.70 36.82 33.29 32.83 36.02 37.19 39.39 39.90 40.92 39.33 37.63 35.40 36.45 38.55 39.67 40.54 40.64 39.37 37.00 36.01 37.08 34.34 31.88 28.23 36.25 34.38 29.60 32.30 32.15 33.52 35.02 33.85
44.75 44.92 45.04 45.38 45.78 46.39 46.60 47.23 47.50 47.82 47.73 45.42 43.74 44.19 39.03 34.37 37.26 35.55 36.25 37.62 38.38 39.20 37.70 40.26 40.48 37.03 38.96 43.33 41.80 40.27 39.50 38.63 38.49 37.91 40.18 35.96 34.17 32.73 29.36 33.45 24.35 30.93 37.80 37.02 34.92 34.84 35.17
44.13 44.25 44.94 45.37 46.17 46.67 46.68 47.00 47.22 47.37 47.82 45.89 45.63 44.12 41.38 34.97 38.46 37.99 37.15 37.64 39.48 40.96 39.23 39.11 39.69 41.06 43.49 39.71 33.29 29.77 30.28 31.34 32.95 36.06 36.35 37.61 35.07 30.00 27.17 28.67 29.43 31.33 34.88 34.79 33.02 31.63 35.97
43.74 43.93 44.87 45.67 45.80 45.53 45.82 46.29 46.68 47.20 47.64 46.95 45.36 48.30 43.97 38.63 37.12 40.56 37.97 38.66 37.52 37.54 35.62 37.54 41.96 44.81 42.18 36.20 32.32 25.59 24.48 28.72 28.43 31.98 36.72 37.15 38.41 32.28 30.71 25.59 23.09 30.83 36.32 38.61 38.00 28.39 36.31
43.11 44.19 44.98 44.97 45.30 45.46 45.51 45.77 46.23 46.96 47.10 46.28 44.68 47.82 45.04 38.47 42.23 42.96 38.81 38.46 41.77 39.37 35.72 37.96 37.45 38.06 41.61 33.79 29.13 28.07 28.86 35.20 29.37 29.30 30.45 32.13 32.39 28.60 29.25 26.74 28.74 33.16 35.05 37.16 26.58 28.50 36.49
43.57 44.54 45.29 46.58 47.02 47.77 47.96 47.35 45.92 46.30 46.89 45.93 43.87 48.43 46.06 40.55 43.50 45.25 45.04 41.13 40.91 39.95 34.19 36.64 35.17 36.50 35.29 31.18 30.30 31.40 32.27 34.77 33.86 35.68 33.18 31.32 29.24 29.19 30.56 27.10 24.47 34.35 33.62 30.17 33.73 36.70 36.24
42.59 43.53 45.94 46.14 46.83 47.53 47.76 48.02 48.27 47.20 46.83 47.06 42.62 47.09 48.78 44.90 40.37 46.39 46.85 48.64 46.34 44.38 39.66 38.49 37.25 35.61 36.77 33.70 35.31 36.03 34.11 37.06 34.32 30.50 38.35 30.70 34.48 31.93 29.55 28.22 32.51 34.34 35.48 37.58 37.51 35.53 34.59

GFSGBSN_sfc_wetblb_129.txt.gz
Wetbulb
59.46 62.18 61.95 61.42 60.90 60.38 60.59 60.26 59.35 58.39 58.15 57.74 57.39 57.04 56.62 55.55 54.60 54.29 53.42 53.08 52.67 51.76 51.85 52.93 53.82 55.18 50.19 46.99 47.27 50.23 58.18 56.32 52.85 49.83 46.61 44.68 42.56 40.93 38.20 39.07 39.94 38.07 39.92 41.91 42.10 41.94 40.80
58.35 58.64 60.61 60.99 60.71 60.44 60.68 60.21 59.35 58.35 57.89 57.43 57.08 56.82 56.35 55.64 54.79 54.15 53.42 52.91 52.51 51.91 51.13 52.69 54.01 55.18 48.04 40.91 50.04 51.18 52.07 49.54 48.70 46.03 45.69 45.31 43.47 43.64 40.58 39.64 38.29 41.70 41.58 41.01 41.30 41.42 41.55
56.78 57.14 57.59 57.86 60.08 60.17 60.17 59.47 59.15 58.63 58.05 57.63 57.09 56.52 56.02 55.46 54.77 53.99 53.26 52.66 52.10 51.70 51.12 52.73 54.49 51.16 45.64 44.07 48.50 49.29 50.74 46.65 47.79 47.67 45.15 46.90 46.23 42.49 41.67 39.28 43.52 42.12 37.76 39.16 41.03 41.14 40.24
55.08 55.40 56.06 56.61 56.82 58.96 59.06 58.98 58.69 58.83 58.15 57.89 57.43 56.45 55.74 55.02 54.27 53.24 52.60 52.05 51.59 51.07 51.29 53.56 54.77 47.62 41.80 50.98 46.97 48.95 47.83 48.07 49.27 48.79 47.70 47.90 46.92 43.27 40.95 42.38 41.01 37.28 37.11 32.34 40.57 41.41 41.74
54.61 54.21 53.98 55.27 55.47 56.00 56.82 58.20 58.44 58.56 58.46 57.78 57.32 56.41 55.18 54.00 53.32 52.28 51.62 51.53 51.26 50.53 53.11 54.14 48.49 46.51 43.42 51.77 46.98 47.89 47.41 46.59 47.69 48.24 47.55 50.13 45.28 40.33 40.41 35.06 32.93 35.23 30.01 33.63 36.82 40.90 39.62
53.39 53.75 54.19 54.52 54.58 54.67 55.64 55.61 56.49 57.74 57.92 57.56 57.16 56.33 55.02 53.66 51.87 50.57 49.95 49.62 49.07 49.97 50.79 51.92 50.66 41.59 45.43 44.98 47.11 48.17 46.84 48.24 46.37 46.11 45.15 43.48 39.99 35.31 35.04 32.31 26.98 31.55 31.83 30.40 30.79 36.65 39.31
53.16 52.35 52.94 53.77 54.06 53.70 53.93 54.96 54.66 54.26 56.82 57.20 56.90 56.31 54.68 52.96 51.07 48.99 46.57 45.89 43.54 46.42 46.65 43.51 45.09 43.82 46.81 48.64 47.55 45.35 47.54 45.92 45.37 42.64 36.26 40.80 33.85 31.26 35.07 38.01 39.50 37.32 34.31 31.82 33.60 39.45 39.05
51.91 51.38 51.02 51.19 51.75 52.77 52.95 53.79 53.53 53.13 54.57 56.78 56.70 55.61 54.24 52.55 50.35 48.10 46.15 43.62 43.09 42.23 35.53 45.39 47.24 47.61 50.29 51.29 43.34 44.60 46.85 41.90 41.60 36.19 39.79 36.98 33.82 40.16 42.73 41.92 39.08 36.83 34.48 33.31 37.13 41.10 38.64
51.91 50.87 51.08 50.32 50.75 51.39 51.99 53.05 53.20 52.76 53.09 55.46 56.05 54.97 53.62 51.14 49.15 45.02 43.36 45.28 46.21 46.71 35.60 43.65 47.48 47.68 48.87 50.44 44.91 42.70 45.00 42.83 39.42 37.10 38.53 35.67 39.29 44.11 42.02 39.20 38.21 35.91 34.48 34.67 35.73 38.05 37.87
50.93 50.13 51.19 50.86 50.55 51.51 51.79 52.54 52.85 52.45 52.37 53.63 55.09 53.70 51.53 48.94 46.14 43.89 42.44 48.16 47.84 45.66 33.18 41.04 45.71 47.38 49.96 45.36 40.91 46.10 46.48 43.09 40.78 37.65 39.39 37.87 42.10 41.33 40.09 38.74 38.62 32.41 39.49 39.48 37.55 34.33 26.87
50.78 50.67 51.01 50.84 51.53 52.16 52.72 52.58 52.60 51.66 51.80 52.58 54.01 52.31 49.44 50.12 46.41 44.82 43.92 46.03 46.95 45.41 22.88 42.42 41.95 47.66 45.47 41.25 43.01 42.96 46.70 43.91 38.04 38.23 38.79 36.42 38.53 38.21 37.40 38.68 39.96 36.16 41.52 38.49 37.80 33.34 31.18
51.00 50.82 50.60 50.65 51.02 51.43 52.21 52.25 52.55 51.30 51.36 52.35 53.33 51.24 49.78 47.96 45.94 46.08 47.46 48.64 47.54 33.53 24.83 39.40 41.09 39.86 39.51 40.45 41.11 42.93 42.85 44.82 43.89 39.37 40.09 38.63 43.13 41.14 40.00 42.06 41.47 42.66 38.65 37.56 37.33 34.02 23.45
50.73 50.69 50.65 50.50 50.50 51.04 51.77 51.83 52.29 51.48 51.01 51.54 52.35 51.40 48.77 47.71 43.21 47.31 48.52 45.20 33.58 28.65 41.62 38.51 39.47 39.98 38.15 37.57 38.38 39.37 38.97 37.20 32.68 30.58 31.07 37.42 38.02 40.44 42.40 37.86 40.62 38.80 32.86 24.40 22.47 22.44 23.92
50.12 50.46 50.31 50.35 50.41 50.89 51.40 51.69 51.64 51.87 51.22 50.44 50.98 50.40 48.79 48.64 47.45 48.53 46.41 38.55 28.64 35.35 37.71 43.62 41.96 39.47 34.81 37.55 37.66 38.13 36.19 32.73 37.84 36.59 32.38 30.16 26.28 38.58 41.72 38.51 36.37 35.98 34.80 26.86 19.03 19.35 23.41
49.33 49.87 50.27 50.17 50.19 50.55 51.20 51.29 50.90 51.05 51.43 51.39 50.32 45.88 44.80 46.98 48.30 48.37 41.06 31.95 29.43 35.88 39.96 39.15 40.28 36.71 36.30 37.30 36.16 36.27 35.02 34.64 38.23 39.52 32.68 30.93 31.69 41.25 42.13 42.48 40.88 36.60 31.98 37.95 31.06 31.26 21.73
48.87 49.35 49.40 49.71 49.95 50.18 50.53 51.02 51.08 50.89 51.16 49.58 44.40 43.06 42.22 48.44 48.15 44.39 36.32 31.10 34.40 39.54 40.25 39.91 33.86 37.30 31.12 34.00 33.00 33.49 33.95 38.57 37.96 40.73 39.51 36.71 26.12 38.47 40.26 41.97 41.49 38.09 39.76 29.53 29.98 19.07 19.92
48.69 48.89 48.59 48.71 49.01 49.37 49.81 49.91 50.76 50.79 50.34 49.07 43.35 38.95 42.33 48.36 46.41 38.31 30.58 29.23 35.80 40.73 40.83 37.51 35.80 34.50 35.35 30.85 33.74 31.82 34.29 38.51 40.23 40.02 40.18 38.30 31.03 33.53 38.27 37.05 34.84 35.70 33.51 36.70 35.64 30.24 18.88
47.72 48.15 47.90 48.04 48.19 48.54 49.04 50.10 50.30 50.61 49.53 47.27 40.98 33.16 43.98 46.61 33.58 34.71 29.44 35.09 39.39 37.62 40.74 39.57 39.34 38.10 33.84 33.27 32.20 29.58 31.94 36.92 41.52 40.63 36.42 38.06 35.36 30.14 32.78 40.20 41.45 39.85 37.80 37.20 26.17 25.21 25.52
47.48 47.33 47.40 47.64 47.36 47.32 48.14 49.03 49.81 50.09 49.35 44.29 37.29 35.65 43.96 42.81 29.34 29.88 32.67 34.91 36.26 36.11 36.84 37.17 36.62 38.49 36.44 30.78 26.26 32.32 34.23 41.82 41.13 40.23 37.43 38.90 32.17 25.81 29.93 35.79 40.28 37.31 37.29 36.28 33.63 29.75 22.43
46.76 46.98 46.94 46.94 47.18 47.44 47.79 48.32 49.12 49.56 49.33 44.32 35.60 28.83 34.76 37.86 37.34 31.93 30.96 31.41 32.48 38.33 37.06 38.30 37.76 38.45 34.76 31.10 34.58 29.04 33.53 40.41 40.22 39.99 41.18 40.95 34.73 30.67 24.96 30.59 35.00 33.90 34.87 35.06 31.55 19.36 22.52
46.14 46.61 46.45 46.35 46.44 46.70 47.30 47.88 48.54 48.81 48.84 42.51 37.85 31.06 33.11 27.72 30.45 33.44 32.97 33.72 31.02 30.90 37.81 38.22 35.11 36.40 33.61 28.04 29.94 29.44 35.33 37.37 39.72 40.02 38.45 36.60 28.23 33.14 33.81 34.88 34.80 34.23 33.37 33.07 30.70 30.14 27.53
45.91 46.09 45.97 46.10 46.08 46.13 46.59 47.05 47.70 48.23 48.61 41.92 34.02 32.21 33.84 31.68 32.88 31.54 31.84 30.58 31.89 34.13 34.56 32.85 33.77 36.15 36.10 30.69 30.54 29.15 33.66 34.23 33.87 37.23 35.25 35.60 27.44 30.70 27.71 33.04 33.28 30.84 31.25 30.38 32.63 31.13 29.13
45.72 45.81 45.62 45.54 45.80 45.86 46.05 46.25 46.65 47.70 47.59 41.24 41.74 39.85 36.26 32.96 30.57 29.12 29.17 31.21 32.29 36.01 37.17 37.54 36.73 35.23 33.67 35.05 37.71 35.37 36.04 37.03 38.17 35.36 32.80 32.12 30.47 29.74 25.96 33.60 33.50 27.81 29.07 28.95 32.46 33.87 32.88
44.36 45.20 45.27 45.34 45.51 45.64 45.75 45.41 46.12 47.01 47.33 43.93 41.66 40.96 34.01 28.46 32.08 30.90 33.25 32.48 31.83 33.77 34.25 37.58 38.73 35.67 37.07 39.97 39.35 37.39 37.45 37.99 38.26 37.48 38.15 33.50 33.03 31.81 27.23 27.91 19.70 30.43 37.16 36.03 34.96 35.07 32.04
43.95 44.57 45.01 44.98 45.10 45.39 45.53 45.54 45.49 46.12 47.45 43.85 43.81 39.19 35.81 30.52 32.68 34.17 34.77 34.12 34.15 35.41 35.56 36.88 39.25 40.79 40.40 36.38 31.04 28.79 28.76 30.68 32.55 35.94 35.63 36.11 33.60 28.00 23.94 24.37 28.19 31.15 34.03 33.85 33.32 30.75 33.34
43.57 44.09 44.35 44.57 44.76 44.79 44.86 45.32 45.54 45.73 47.01 44.90 43.75 43.51 38.00 33.23 32.17 36.24 34.61 35.75 31.54 30.44 32.54 37.27 41.16 40.13 38.52 33.46 30.21 24.13 21.23 25.85 26.22 29.44 35.72 34.80 36.14 28.25 26.47 23.51 19.09 28.42 33.26 36.73 36.79 25.92 34.68
43.20 43.47 43.81 44.14 44.21 44.38 44.48 44.93 45.17 45.77 46.45 45.01 42.83 44.26 40.67 33.76 36.33 37.07 33.11 33.52 37.14 33.32 31.04 33.98 37.12 36.70 37.79 30.19 28.04 25.01 23.82 32.00 26.03 26.65 25.32 27.14 28.90 26.75 26.07 24.59 26.48 32.06 34.11 36.12 25.10 24.35 36.12
42.62 42.96 43.05 43.19 43.74 43.84 44.14 44.59 45.05 45.79 46.49 45.54 42.72 44.70 41.31 36.79 37.76 39.56 39.92 36.09 37.82 36.83 30.87 35.65 33.59 33.90 33.70 28.51 27.64 26.36 26.40 29.48 29.57 33.95 30.78 27.61 27.60 27.01 27.13 24.48 20.86 34.09 32.75 28.90 31.61 33.92 31.81
42.43 42.80 43.09 43.31 43.27 43.62 44.04 44.86 45.52 45.97 46.48 46.67 40.83 44.87 46.05 39.77 36.99 41.45 42.10 43.02 43.77 43.01 36.08 36.00 33.12 33.68 33.67 29.68 30.42 29.91 27.86 30.13 32.08 27.30 37.56 29.61 32.10 28.53 27.74 25.93 31.66 35.17 34.88 35.92 36.00 31.09 30.37

GFSGBSN_sfc_wetblb_132.txt.gz
Wetbulb
59.60 60.10 61.98 61.48 61.16 60.73 60.82 60.34 59.53 58.57 57.94 57.77 57.47 57.38 57.15 56.44 55.83 54.99 54.09 53.37 53.16 52.47 51.94 51.96 53.83 55.29 50.13 43.35 45.77 48.90 58.20 56.65 51.42 48.74 44.71 43.15 41.30 39.35 36.17 37.41 38.13 35.98 37.98 40.74 40.79 40.22 38.72
58.21 58.22 59.05 61.00 61.18 61.07 61.08 60.45 59.54 58.51 58.01 57.89 57.29 57.14 57.00 56.54 55.94 54.98 54.17 53.24 52.97 52.47 51.68 52.03 54.12 55.29 45.83 39.45 48.44 49.20 51.06 48.67 48.29 44.50 44.68 43.78 41.99 42.18 39.11 38.13 35.95 39.31 39.40 39.00 39.59 39.93 39.20
56.84 57.26 57.23 57.18 59.09 60.64 60.45 59.73 59.13 58.65 58.15 57.89 57.43 56.97 56.53 56.32 55.54 54.76 53.94 53.20 52.55 52.43 51.55 51.89 54.44 51.23 44.00 42.35 47.64 47.70 50.74 45.40 45.39 46.37 44.01 45.40 44.63 41.47 40.21 37.75 41.18 40.66 36.48 37.74 39.12 39.38 38.58
56.18 55.78 55.83 56.21 56.37 57.42 58.94 58.96 58.90 58.88 58.48 58.15 57.87 57.25 56.19 55.89 55.18 54.10 53.18 52.55 52.20 52.01 51.34 51.72 54.12 47.28 40.27 51.13 46.76 47.04 46.46 46.47 48.24 47.18 46.44 46.44 45.20 41.83 39.47 40.33 39.06 36.36 35.15 31.19 38.53 39.07 39.77
55.13 55.01 53.90 55.23 55.15 55.67 56.32 58.16 58.46 58.76 58.64 58.08 57.78 57.07 56.20 55.30 54.38 53.07 52.17 52.00 51.96 52.18 51.35 52.87 47.96 44.96 42.41 52.85 46.20 47.94 46.72 45.68 46.77 47.23 46.39 49.09 43.98 38.83 38.28 33.11 30.40 32.12 27.71 31.22 35.20 38.58 37.80
54.22 54.89 54.45 54.49 54.46 54.74 55.27 55.23 55.95 57.76 58.06 57.76 57.56 57.02 56.10 54.88 53.35 51.77 50.96 51.43 51.85 49.54 50.68 50.87 49.63 42.37 45.36 44.94 46.97 46.80 46.82 47.31 45.32 44.78 43.99 42.20 38.45 33.78 32.52 29.91 25.87 28.96 29.39 28.75 30.19 35.19 35.88
54.34 53.45 52.26 53.82 54.10 53.90 54.08 54.55 54.21 53.94 56.28 57.36 57.30 56.88 55.89 54.42 52.68 49.88 46.84 46.11 44.45 44.61 44.96 43.79 45.12 43.76 46.16 48.70 46.58 45.15 46.76 44.79 44.54 41.52 35.51 39.06 32.45 30.55 33.46 34.93 36.59 35.18 32.93 30.91 32.04 37.29 35.14
53.03 52.69 51.06 51.18 51.50 52.41 52.83 53.73 53.05 52.62 54.12 56.39 56.78 56.35 55.07 53.77 51.56 48.78 45.41 43.34 43.27 42.25 37.23 44.55 45.23 46.52 49.39 49.19 44.74 44.00 46.08 40.86 40.52 35.36 38.24 35.41 30.96 38.02 40.24 39.74 37.53 35.69 32.86 31.41 34.25 38.75 36.84
51.72 52.10 51.21 50.70 50.72 51.35 51.93 53.19 52.60 51.97 52.95 54.71 56.14 55.51 54.22 52.42 50.34 43.47 40.40 43.08 44.35 43.30 34.09 41.06 44.56 45.78 47.46 49.02 45.22 46.28 43.42 41.27 38.62 35.95 36.34 33.45 37.43 41.84 40.09 38.26 36.78 35.41 32.90 32.11 32.71 35.58 36.19
51.58 51.20 51.35 51.21 50.88 51.30 51.70 52.01 52.47 51.80 51.82 53.74 55.57 54.07 52.47 50.94 45.93 42.08 40.58 45.34 45.24 44.44 31.67 38.32 43.33 46.97 48.92 46.77 41.89 45.33 45.19 42.30 38.71 35.73 37.06 35.32 40.30 39.09 37.44 36.21 37.74 32.46 37.85 36.84 35.65 32.40 25.91
51.03 50.46 50.74 50.82 50.92 51.19 52.04 52.14 52.30 51.28 51.80 53.22 54.07 52.65 50.94 51.21 44.84 41.79 44.07 45.36 45.53 44.14 19.48 40.06 40.26 46.75 43.71 43.15 41.83 42.36 45.55 41.72 36.28 37.12 36.64 34.37 35.78 35.72 35.21 36.96 39.34 34.59 39.62 36.75 35.38 31.58 29.07
51.28 50.75 50.63 50.83 50.33 50.48 51.39 51.73 52.10 50.58 51.01 53.21 52.80 51.30 50.44 47.45 45.72 45.57 45.44 46.46 45.81 30.34 23.07 37.67 40.10 38.75 38.49 39.57 40.02 41.49 41.81 43.73 42.36 37.73 37.95 36.49 40.54 38.77 37.63 40.34 39.59 40.70 37.18 36.12 34.89 31.60 22.61
51.20 50.88 50.69 50.45 50.13 50.20 51.01 51.19 51.77 50.94 50.29 52.96 52.36 51.21 49.61 47.83 44.83 45.32 46.24 43.88 31.04 26.32 39.13 37.41 37.38 38.85 37.24 36.27 37.31 38.13 37.25 35.37 32.53 28.89 29.55 34.62 35.58 38.22 40.10 35.55 38.62 37.93 31.34 22.94 22.03 21.62 23.27
50.66 50.48 50.42 50.48 50.33 50.33 50.87 51.15 51.38 51.45 50.57 50.14 51.75 50.62 48.65 48.07 45.56 48.20 46.77 37.28 27.24 33.00 36.01 42.33 40.33 39.59 33.65 36.56 36.25 37.01 34.24 31.53 36.00 34.32 29.36 27.42 25.72 36.63 40.55 36.60 34.32 35.32 33.47 25.00 20.00 18.66 23.14
50.12 50.34 50.19 50.15 50.40 50.42 50.66 50.94 51.07 50.82 50.93 50.82 49.88 45.87 45.04 46.85 48.80 45.99 41.96 30.03 27.08 33.68 38.93 36.90 38.99 35.50 35.06 37.47 34.82 35.10 33.33 32.41 35.40 36.53 29.35 28.82 29.57 39.99 40.80 40.97 39.60 35.95 31.91 37.14 28.91 29.47 22.53
49.65 49.50 50.12 50.16 50.09 50.22 50.50 50.74 50.60 50.66 50.86 49.49 44.54 42.78 42.73 47.85 48.68 44.77 37.03 31.04 33.12 39.14 39.17 38.99 32.47 36.15 30.75 32.19 31.52 31.67 32.93 36.81 36.17 38.45 38.45 34.76 25.55 36.81 39.35 40.53 39.99 37.25 38.95 27.79 26.97 17.72 21.21
49.05 49.19 49.48 49.59 49.66 49.79 50.31 50.58 50.71 50.85 50.12 49.18 43.55 38.00 43.23 47.94 46.00 38.90 30.51 29.03 34.52 39.68 39.71 36.11 34.18 33.10 33.84 30.60 32.04 29.73 32.18 36.75 38.19 38.14 38.78 36.57 28.60 31.36 37.89 35.35 33.86 33.79 31.76 34.41 34.13 29.50 23.26
48.34 48.29 48.76 49.05 48.85 49.33 49.90 49.96 50.40 50.30 49.48 46.30 41.39 28.85 43.88 46.42 34.45 35.03 30.65 32.98 38.12 35.79 39.09 37.47 37.78 36.31 33.23 31.43 30.48 26.82 30.82 35.09 39.60 39.66 34.52 37.65 33.07 27.02 31.80 38.75 40.56 37.80 35.27 35.69 27.51 27.79 26.73
47.71 47.88 47.98 48.11 48.22 48.54 48.67 49.33 49.98 49.94 49.57 43.59 35.31 35.93 43.88 43.01 29.53 30.34 31.71 33.65 35.18 34.35 35.03 35.59 34.93 37.15 35.27 30.22 24.80 29.86 31.86 39.23 39.34 38.06 35.38 36.98 31.38 23.69 28.13 34.60 38.13 35.91 36.52 35.88 33.50 29.00 23.22
47.04 47.52 47.60 47.80 47.79 47.95 48.02 47.85 49.02 49.48 49.57 42.09 35.43 29.78 35.04 38.63 34.99 30.83 29.61 29.48 30.50 36.67 34.94 35.91 35.05 35.95 32.73 31.37 33.06 27.93 31.48 38.25 38.62 37.95 42.07 40.46 33.05 28.78 24.72 29.36 34.31 32.49 34.81 35.05 31.75 21.29 22.03
46.29 46.65 46.99 47.28 47.36 47.15 47.06 47.52 48.08 48.61 49.00 43.17 35.27 28.00 32.53 28.29 31.42 32.03 31.54 30.89 28.54 28.76 35.22 36.44 33.02 33.38 31.56 28.06 29.71 28.82 32.00 35.39 37.34 39.73 36.25 34.66 26.00 31.74 32.31 33.90 34.24 32.57 32.09 33.95 31.52 30.72 25.95
45.43 45.88 46.25 46.59 46.73 47.00 46.83 47.26 47.77 48.00 48.51 40.61 34.12 32.42 31.63 29.43 32.69 32.20 31.81 28.39 29.20 31.97 32.14 31.84 31.61 33.42 33.29 30.65 30.57 27.49 31.80 31.95 31.85 35.10 32.93 33.86 22.85 28.44 26.96 32.76 32.57 29.29 31.00 32.12 33.23 31.42 28.36
44.75 45.13 45.81 46.20 46.42 46.64 46.69 46.92 47.01 47.56 47.01 41.11 37.74 36.28 32.93 31.06 29.27 29.24 28.68 29.46 29.86 32.52 33.83 35.85 34.01 31.89 31.69 34.17 35.71 35.27 35.38 35.37 35.34 32.96 31.09 30.56 27.28 26.64 23.33 30.98 30.74 25.47 28.89 30.96 30.92 32.90 31.08
43.95 44.23 45.25 45.99 46.23 46.57 46.39 46.46 46.53 47.04 46.63 43.97 41.14 36.92 34.48 27.15 28.85 28.99 30.79 31.20 30.34 31.65 31.10 35.09 36.05 32.95 35.94 38.17 37.87 36.31 36.07 35.24 34.93 34.14 36.06 30.23 29.08 28.84 24.88 28.37 16.50 26.74 36.41 35.54 33.50 34.70 31.55
43.22 43.66 44.24 44.99 46.10 46.25 45.98 45.88 45.77 46.36 47.03 43.08 43.79 39.78 32.22 28.83 30.98 31.08 31.25 31.38 32.10 33.38 32.73 33.21 35.24 38.80 38.71 35.74 32.17 29.64 27.45 29.10 30.96 34.15 34.71 35.99 31.88 28.94 24.77 24.22 25.58 29.94 32.74 32.37 32.07 30.26 32.28
42.83 42.54 43.42 44.42 45.13 45.61 45.34 45.09 45.65 45.84 46.42 43.87 42.80 44.16 38.23 30.30 29.39 34.41 32.72 34.45 29.31 27.58 29.17 33.01 38.12 38.71 37.25 32.33 29.22 24.44 21.99 25.12 24.74 28.83 35.44 34.32 34.36 29.32 26.65 22.34 18.04 27.45 32.90 36.02 36.60 25.48 32.73
42.61 42.88 43.42 43.82 44.31 44.45 44.69 44.70 45.28 45.83 46.13 44.08 41.21 44.07 40.52 33.18 34.26 34.82 30.88 29.97 35.85 32.21 29.31 31.37 33.68 33.71 37.92 30.71 26.90 24.18 22.43 30.08 23.85 24.67 26.19 27.50 28.12 25.51 25.58 24.08 26.56 32.05 34.00 35.40 25.97 24.69 33.03
42.38 42.57 43.00 43.46 43.85 44.30 44.49 44.66 44.97 45.71 45.80 43.57 40.84 42.16 39.56 35.56 36.39 37.44 37.50 33.82 33.42 33.51 29.94 32.94 31.10 31.70 33.03 29.05 28.84 25.91 25.08 27.79 27.58 30.52 28.51 26.35 24.38 24.78 25.96 23.64 20.80 33.86 31.92 28.09 29.44 30.11 29.76
42.46 42.55 42.63 43.03 43.37 43.66 43.99 44.39 44.78 45.33 45.73 45.21 36.99 41.91 43.84 38.37 36.79 40.98 40.12 40.31 40.55 39.24 35.44 36.17 32.03 31.94 33.51 29.63 29.78 28.31 26.67 28.78 28.13 23.86 36.56 27.23 31.02 28.62 28.07 25.59 31.02 35.19 33.02 33.61 32.76 29.60 29.06

GFSGBSN_sfc_wetblb_135.txt.gz
Wetbulb
60.13 59.68 59.63 61.07 61.26 60.87 61.09 60.46 59.61 58.71 58.25 57.78 57.50 57.61 57.76 57.23 56.85 55.77 54.62 53.89 53.83 53.29 52.50 52.10 53.72 55.84 50.30 43.30 43.90 49.57 58.80 55.00 48.06 46.58 43.44 42.25 40.52 38.16 35.50 35.72 36.89 33.86 36.56 39.18 39.38 39.19 38.24
58.36 58.22 58.32 58.59 59.72 61.12 61.36 60.80 59.72 58.69 58.09 57.77 57.46 57.41 57.18 57.34 56.77 55.76 54.75 53.93 53.58 53.37 52.57 51.78 53.69 55.28 44.16 42.83 47.97 48.11 48.62 47.97 46.50 43.77 43.38 43.02 40.85 41.28 37.95 36.72 34.61 37.55 37.51 37.29 38.12 38.83 38.38
57.35 57.82 57.67 57.12 57.01 58.50 60.54 60.08 59.39 58.92 58.46 57.96 57.80 57.28 57.14 57.05 56.61 55.71 54.85 54.05 53.25 53.08 52.59 51.83 54.13 50.51 43.15 45.31 48.38 46.77 49.43 45.23 44.48 44.88 42.63 44.30 43.37 40.75 39.62 36.74 39.64 38.67 34.91 36.57 36.93 36.67 36.35
56.50 56.62 56.78 56.26 56.18 56.28 57.68 59.10 59.05 59.05 58.70 58.22 58.30 57.38 56.84 56.56 56.10 55.13 54.36 53.66 52.96 52.92 53.06 51.97 53.67 46.49 41.62 50.73 48.13 47.92 45.95 45.45 46.65 46.00 45.43 45.67 44.74 41.59 38.91 39.12 37.79 34.53 33.47 29.57 36.44 37.28 36.95
55.99 55.96 55.16 55.12 55.06 55.06 55.56 57.35 58.35 58.73 58.85 58.29 58.03 57.50 56.71 55.83 55.47 54.42 53.43 52.78 52.78 53.45 53.45 51.78 47.16 43.80 42.45 52.68 45.92 47.75 46.80 45.07 45.84 46.06 45.86 48.05 43.73 38.70 38.20 31.87 29.05 30.77 26.13 29.31 33.81 37.22 35.99
55.62 55.89 54.84 54.08 54.47 54.29 54.67 54.96 55.46 57.83 58.17 57.91 57.73 57.53 56.75 55.95 54.99 53.44 51.98 51.75 52.36 50.49 49.89 50.27 49.03 41.85 45.48 44.34 46.00 46.15 45.66 46.87 44.88 44.26 43.09 41.54 37.39 34.00 32.20 29.56 24.78 27.57 28.15 27.17 28.75 33.71 34.52
55.19 54.66 54.03 54.32 54.20 53.62 54.01 54.03 54.14 53.93 56.33 57.37 57.53 57.31 56.69 55.73 54.48 51.55 46.59 44.09 43.64 43.40 44.57 44.00 44.54 43.70 46.35 48.02 45.72 44.42 46.12 44.38 43.67 40.96 35.04 37.87 32.21 30.75 32.82 33.73 34.72 32.96 30.63 29.12 31.76 35.89 33.24
54.56 54.49 52.60 52.46 52.45 53.15 53.37 53.71 53.02 52.61 53.76 56.05 57.09 56.83 56.29 55.15 53.08 50.11 44.71 43.24 42.10 40.68 39.52 44.55 45.19 45.86 49.31 48.74 43.86 44.27 45.88 40.81 40.18 35.35 37.41 33.89 30.31 37.09 38.50 37.77 34.98 33.50 31.21 30.61 32.87 36.23 35.16
52.79 52.87 52.34 51.49 51.36 51.59 52.02 53.30 52.52 51.88 52.44 54.03 56.09 56.28 55.20 53.46 51.05 45.82 41.19 43.54 43.11 41.31 35.76 40.58 42.65 44.28 45.68 47.72 43.82 44.54 43.26 40.04 37.38 35.31 35.14 31.84 35.60 40.46 38.17 36.05 34.65 34.12 31.65 30.77 32.15 33.83 35.03
51.69 51.61 52.21 51.54 50.96 51.62 52.15 52.29 52.34 51.31 51.71 52.88 55.19 55.06 53.25 51.10 47.68 42.58 42.51 44.58 43.48 43.32 30.04 36.20 41.91 45.26 47.22 47.04 41.62 44.66 44.46 41.52 37.68 34.60 35.39 33.78 38.46 37.31 35.58 34.70 35.65 29.91 36.72 35.64 33.37 30.69 24.87
51.81 51.27 51.46 51.50 51.50 51.42 51.78 51.73 52.52 51.10 51.65 52.91 55.00 53.56 51.72 52.15 44.92 41.51 42.87 43.67 43.89 42.08 18.99 37.39 41.25 46.78 43.04 42.13 41.18 41.42 44.25 40.40 35.02 35.38 34.94 32.77 34.89 34.26 33.37 34.80 37.57 33.83 37.86 35.52 34.19 30.08 27.22
51.52 51.12 50.99 51.03 50.84 50.63 51.44 51.39 51.72 50.65 51.40 53.68 53.68 52.77 51.08 46.88 43.59 43.02 44.58 46.15 44.15 28.91 19.57 36.10 38.83 37.33 37.93 38.48 38.85 40.24 40.99 42.89 41.49 36.81 35.98 34.92 38.75 37.45 36.14 38.44 37.47 38.88 35.33 34.12 32.54 29.15 21.43
51.23 50.87 50.42 50.78 50.53 50.61 50.40 51.19 51.19 50.45 51.66 53.14 52.45 51.62 50.66 47.92 44.60 46.04 47.08 42.98 29.27 21.49 36.81 35.05 34.78 36.71 35.13 34.58 35.65 36.62 35.64 34.16 31.29 28.03 28.27 33.36 33.85 37.17 38.73 33.82 36.37 35.18 30.60 22.45 21.33 20.51 22.03
50.78 50.98 50.83 50.97 50.64 50.59 50.38 50.97 51.30 50.43 51.12 52.14 51.44 50.69 48.68 47.95 45.59 47.93 46.03 36.82 22.27 31.30 33.57 39.66 39.12 37.43 32.18 34.71 34.15 35.16 32.86 30.23 35.08 32.40 27.61 25.61 24.38 34.89 38.79 35.32 32.47 32.67 32.80 24.37 19.30 17.71 21.27
51.06 50.64 50.50 50.64 50.40 50.30 50.49 50.87 50.92 50.90 50.45 51.70 49.41 46.05 45.95 46.81 48.48 47.58 40.14 30.22 27.03 32.44 37.41 35.68 37.37 33.55 33.17 35.92 33.24 33.03 31.40 30.49 33.91 35.11 28.21 27.50 27.93 37.54 38.47 38.27 36.75 33.20 29.47 35.96 29.57 27.72 21.42
50.35 50.41 50.17 49.98 50.37 50.44 49.98 50.50 51.05 50.69 51.04 50.13 44.59 43.02 42.62 46.27 45.83 45.13 35.87 30.05 32.13 38.02 38.22 37.48 30.73 34.83 30.10 31.33 30.42 29.95 30.57 34.88 34.40 37.19 37.38 33.36 24.97 34.73 37.64 38.47 38.19 37.48 38.48 29.75 29.46 19.96 20.13
49.74 49.99 49.89 49.88 49.94 50.09 50.14 50.54 50.34 51.03 50.49 49.06 43.18 36.07 41.50 46.38 46.75 39.46 31.68 31.83 33.90 38.14 38.30 34.70 33.06 31.62 32.84 30.28 30.90 29.25 30.92 35.39 36.69 36.76 37.13 34.27 27.40 29.92 35.49 33.41 31.84 32.61 32.00 33.58 32.17 27.59 19.26
48.86 48.82 48.97 49.68 49.93 49.71 49.86 50.25 50.19 50.82 49.78 46.57 39.44 28.88 43.53 45.84 35.16 35.42 30.52 32.01 37.52 35.20 37.56 36.24 36.24 35.28 32.50 30.94 30.11 26.29 29.75 33.64 38.04 37.71 33.06 35.01 30.39 25.96 29.82 37.39 38.71 35.88 33.57 34.57 28.15 26.83 26.75
48.51 48.59 48.44 48.42 49.07 49.04 49.39 49.85 50.08 50.39 49.56 42.73 34.63 35.55 44.12 43.49 27.74 30.80 31.54 33.31 34.57 33.37 34.14 34.69 34.33 36.03 34.10 30.03 25.66 29.76 30.48 37.80 38.11 36.54 34.04 34.93 28.82 22.80 26.50 32.68 36.75 34.23 35.85 35.02 33.41 30.54 25.95
47.97 48.09 47.93 48.21 48.42 48.53 48.83 49.26 49.08 49.84 49.30 40.53 35.32 30.39 35.62 38.70 35.51 29.46 28.62 29.53 30.43 36.17 34.29 34.93 33.85 34.93 32.11 30.62 32.56 27.81 31.26 36.93 37.07 36.84 42.54 39.53 30.89 27.87 23.03 26.64 32.95 30.18 32.75 34.99 32.20 24.60 24.36
47.56 47.54 47.54 47.66 47.82 47.86 47.85 48.54 48.43 49.10 49.09 42.38 31.82 27.00 33.76 29.79 31.91 32.21 30.91 30.49 29.13 28.58 33.74 35.25 32.13 32.25 30.62 26.80 28.45 28.69 31.20 33.16 35.94 39.10 35.38 33.86 25.00 29.35 30.62 32.99 32.71 31.25 30.51 31.38 30.10 30.56 25.31
46.79 46.92 47.23 47.27 47.63 47.43 47.41 47.78 47.40 47.99 48.65 42.21 33.59 29.14 31.35 29.48 33.17 32.43 31.34 28.75 28.90 30.26 31.08 30.47 30.33 32.47 31.67 28.20 29.95 27.02 30.53 30.49 30.82 33.43 31.26 32.42 22.14 24.38 21.60 29.83 29.60 27.15 29.36 30.26 30.44 30.36 31.23
45.38 45.91 46.23 46.53 46.93 47.11 47.22 47.11 47.41 47.48 47.23 41.42 40.18 37.37 32.64 30.55 30.04 29.69 29.04 29.03 29.66 32.01 32.81 34.12 32.54 31.02 29.98 31.67 34.21 35.08 36.79 36.31 34.42 32.51 30.35 29.74 26.04 24.20 22.43 28.31 27.75 23.23 27.47 28.36 30.54 32.65 32.37
44.99 45.47 46.00 46.00 46.37 46.59 46.75 46.77 46.44 46.76 46.50 43.03 40.96 38.96 29.84 24.57 28.98 29.50 30.33 31.23 30.03 30.98 29.28 33.20 33.34 30.27 33.77 36.80 36.13 34.72 33.58 33.79 33.78 33.10 34.63 28.55 27.21 26.31 24.36 26.34 18.20 25.61 34.44 34.30 32.45 34.52 33.38
44.33 44.69 44.98 45.41 45.79 46.33 46.31 46.17 46.16 46.61 47.08 42.13 43.67 39.22 34.52 26.47 29.97 29.77 30.54 30.14 31.14 32.07 31.24 31.58 33.44 36.26 37.44 36.15 30.95 29.30 27.66 28.49 30.32 32.57 32.15 33.26 28.12 25.40 23.26 22.58 24.93 28.15 31.56 31.94 30.50 30.87 32.71
43.77 43.96 44.31 44.55 44.62 45.04 45.54 46.12 46.03 46.27 46.97 43.61 41.98 44.23 36.74 29.13 28.88 33.33 30.58 31.72 27.30 26.59 28.26 31.39 35.98 37.83 35.67 33.19 30.68 25.71 23.40 25.90 24.17 26.85 33.11 32.57 32.55 28.01 26.78 22.79 19.60 25.72 31.73 35.14 34.75 25.75 31.88
43.11 43.47 43.66 43.77 43.88 44.20 45.05 45.66 45.75 45.77 46.58 43.41 39.46 43.23 40.62 29.71 32.04 33.97 29.36 29.72 33.39 29.46 27.38 30.74 31.71 32.15 34.59 31.23 28.03 24.71 23.08 28.52 22.09 23.08 24.20 26.12 28.64 26.20 26.00 24.18 26.09 31.47 33.37 34.30 24.71 24.51 31.25
42.24 42.65 43.16 43.28 43.74 43.92 44.44 45.49 45.69 45.64 46.14 43.68 38.99 42.44 39.25 34.10 33.31 35.86 36.44 32.69 31.85 31.25 28.29 31.33 30.60 33.04 31.35 26.76 26.49 26.90 23.89 25.31 25.20 28.98 27.84 26.51 25.58 24.66 25.69 23.69 20.10 33.67 31.59 27.72 28.61 28.36 29.68
42.06 42.18 42.51 42.73 43.12 43.59 44.17 44.47 45.20 45.19 45.12 45.28 37.80 41.97 43.03 36.71 36.27 39.35 38.44 38.94 37.44 37.46 33.82 33.37 30.68 31.54 33.13 27.86 27.20 26.47 24.02 24.31 25.70 22.05 33.29 25.61 28.68 27.37 28.29 26.32 31.26 34.32 31.21 32.41 31.71 29.67 28.76